# Wetter Temperatur Luftdruck Luftfeuchtigkeit Sichtweite Windgeschwindigkeit Windrichtung Zeit
1 Sand 17 1014 42 2000 10.8 260 14:22 01.02.2023
2 Sand 18 1014 36 4000 9.77 260 13:19 01.02.2023
3 Sand 17 1014 39 1000 12.35 250 12:27 01.02.2023
4 Sand 17 1014 39 1000 12.35 240 11:52 01.02.2023
5 Clear 14 1015 44 10000 6.69 210 08:42 01.02.2023
6 Clear 15 1014 47 10000 6.17 240 23:58 31.01.2023
7 Clouds 16 1014 44 10000 4.63 250 21:26 31.01.2023
8 Clouds 17 1014 42 10000 4.12 240 19:32 31.01.2023
9 Clouds 17 1013 42 10000 6.69 250 17:54 31.01.2023
10 Clouds 18 1012 39 10000 6.17 270 15:36 31.01.2023
11 Clouds 18 1012 39 10000 6.17 270 15:18 31.01.2023
12 Clouds 17 1013 45 10000 5.66 280 13:45 31.01.2023
13 Clouds 17 1013 45 6000 7.2 260 11:43 31.01.2023
14 Clouds 14 1015 47 10000 6.74 281 10:26 31.01.2023
15 Clouds 14 1015 47 10000 6.69 220 09:50 31.01.2023
16 Clouds 13 1015 47 6000 6.69 220 08:58 31.01.2023
17 Clouds 13 1015 47 6000 6.69 220 08:31 31.01.2023
18 Clear 13 1013 44 10000 7.2 240 04:52 31.01.2023
19 Clear 16 1013 39 6000 7.72 260 23:40 30.01.2023
20 Clear 16 1013 48 6000 3.09 230 22:50 30.01.2023
21 Clear 16 1013 48 6000 3.09 240 21:48 30.01.2023
22 Clear 17 1014 42 6000 2.06 290 20:47 30.01.2023
23 Clouds 17 1013 42 10000 1.54 310 19:30 30.01.2023
24 Clouds 18 1013 39 10000 3.09 330 17:26 30.01.2023
25 Clouds 20 1012 30 10000 5.66 290 15:35 30.01.2023
26 Clouds 20 1012 34 10000 5.14 280 14:26 30.01.2023
27 Clear 19 1013 45 10000 2.57 330 12:21 30.01.2023
28 Clear 18 1015 52 10000 2.06 330 10:30 30.01.2023
29 Clear 17 1015 55 10000 3.09 320 09:54 30.01.2023
30 Clear 16 1015 63 10000 0 0 08:41 30.01.2023
31 Clear 12 1014 76 10000 0 0 06:23 30.01.2023
32 Clear 14 1013 77 6000 1.54 80 01:35 30.01.2023
33 Clear 15 1014 72 6000 2.06 70 23:34 29.01.2023
34 Clear 16 1014 67 6000 3.09 30 22:37 29.01.2023
35 Clear 17 1014 63 10000 3.6 10 21:30 29.01.2023
36 Clear 18 1014 55 10000 2.57 20 20:36 29.01.2023
37 Clouds 18 1014 55 10000 3.09 30 19:33 29.01.2023
38 Clouds 19 1013 52 10000 3.09 20 18:41 29.01.2023
39 Clouds 19 1013 48 10000 4.63 10 17:28 29.01.2023
40 Clouds 20 1012 34 10000 5.14 360 16:20 29.01.2023
41 Clouds 22 1012 24 10000 5.14 20 14:21 29.01.2023
42 Clouds 21 1012 30 10000 4.63 60 13:25 29.01.2023
43 Clouds 21 1013 32 10000 5.66 40 12:39 29.01.2023
44 Clouds 21 1013 32 10000 5.66 40 12:21 29.01.2023
45 Clouds 21 1013 37 10000 4.63 50 11:42 29.01.2023
46 Clouds 20 1014 37 10000 4.63 60 11:23 29.01.2023
47 Clouds 17 1015 77 6000 3.6 60 08:55 29.01.2023
48 Clear 15 1015 82 10000 3.09 60 06:49 29.01.2023
49 Clear 15 1015 67 10000 1.54 50 00:19 29.01.2023
50 Clear 17 1015 55 10000 2.57 90 21:49 28.01.2023
51 Clear 18 1016 52 10000 2.57 80 20:24 28.01.2023
52 Clear 18 1016 52 10000 2.57 70 19:46 28.01.2023
53 Clear 19 1015 45 10000 4.12 30 18:21 28.01.2023
54 Clouds 20 1014 45 6000 5.14 10 16:59 28.01.2023
55 Clouds 21 1014 43 6000 4.63 20 16:20 28.01.2023
56 Clouds 21 1013 52 6000 6.17 10 15:38 28.01.2023
57 Clear 21 1013 52 10000 4.63 340 14:21 28.01.2023
58 Clear 22 1012 37 10000 4.63 320 12:49 28.01.2023
59 Clear 22 1013 24 10000 6.17 240 11:27 28.01.2023
60 Clear 21 1014 32 6000 3.6 230 10:33 28.01.2023
61 Clouds 17 1012 48 6000 1.03 300 06:52 28.01.2023
62 Clear 24 1010 15 10000 5.14 190 01:36 28.01.2023
63 Clear 24 1010 14 10000 6.17 180 00:23 28.01.2023
64 Clear 24 1011 16 10000 3.09 200 20:57 27.01.2023
65 Clear 24 1010 20 10000 2.57 200 18:25 27.01.2023
66 Clear 24 1011 22 10000 3.6 230 17:57 27.01.2023
67 Clear 25 1010 18 10000 3.09 210 17:18 27.01.2023
68 Clear 25 1010 18 10000 5.14 200 16:34 27.01.2023
69 Clear 26 1010 18 10000 5.66 210 14:55 27.01.2023
70 Clear 26 1010 17 10000 6.69 200 14:24 27.01.2023
71 Clear 26 1010 15 10000 8.23 230 12:49 27.01.2023
72 Clear 22 1012 20 10000 2.06 230 08:42 27.01.2023
73 Clouds 12 1013 50 6000 0 0 05:58 27.01.2023
74 Clear 17 1013 34 10000 4.63 120 22:56 26.01.2023
75 Clear 17 1015 36 10000 4.63 90 21:40 26.01.2023
76 Clear 18 1015 32 10000 6.17 100 20:36 26.01.2023
77 Clear 18 1015 39 10000 4.63 70 19:26 26.01.2023
78 Clear 19 1016 37 10000 3.6 50 17:42 26.01.2023
79 Clear 21 1015 30 10000 5.66 60 16:27 26.01.2023
80 Clear 21 1015 30 10000 5.14 70 15:56 26.01.2023
81 Clear 22 1015 24 10000 5.66 70 15:32 26.01.2023
82 Clear 22 1015 24 10000 6.17 80 14:58 26.01.2023
83 Clear 21 1016 26 10000 5.66 60 13:30 26.01.2023
84 Clear 20 1017 34 10000 5.14 70 11:38 26.01.2023
85 Clear 18 1018 48 10000 5.66 60 10:31 26.01.2023
86 Clear 15 1018 72 10000 2.57 70 09:44 26.01.2023
87 Clear 15 1018 72 10000 2.57 70 08:26 26.01.2023
88 Clear 12 1017 82 10000 3.09 90 06:27 26.01.2023
89 Clear 14 1018 77 6000 2.57 60 23:40 25.01.2023
90 Clear 15 1019 72 10000 3.09 70 22:26 25.01.2023
91 Clear 16 1019 63 10000 2.06 70 21:25 25.01.2023
92 Clear 16 1020 67 10000 3.09 50 20:48 25.01.2023
93 Clouds 18 1019 55 10000 4.63 30 18:24 25.01.2023
94 Clouds 20 1018 42 10000 5.66 10 15:57 25.01.2023
95 Clouds 20 1018 45 10000 7.2 10 13:58 25.01.2023
96 Clouds 20 1018 45 10000 4.63 30 11:53 25.01.2023
97 Clear 18 1020 59 6000 5.66 50 09:52 25.01.2023
98 Clear 16 1020 77 6000 3.6 20 09:18 25.01.2023
99 Clouds 13 1019 94 6000 0.51 70 06:18 25.01.2023
100 Clear 15 1020 82 6000 2.06 10 00:27 25.01.2023
101 Clear 16 1020 82 6000 3.6 10 21:55 24.01.2023
102 Clear 16 1020 82 10000 3.6 20 21:26 24.01.2023
103 Clear 17 1019 72 10000 5.14 20 19:37 24.01.2023
104 Clear 18 1020 67 10000 6.6 31 18:30 24.01.2023
105 Clear 19 1019 59 10000 6.69 20 17:18 24.01.2023
106 Clouds 20 1019 56 10000 6.69 10 16:52 24.01.2023
107 Clouds 21 1018 52 10000 6.69 20 14:27 24.01.2023
108 Clouds 21 1018 52 10000 6.69 30 12:24 24.01.2023
109 Clouds 19 1020 68 10000 5.14 40 10:29 24.01.2023
110 Clear 15 1021 100 6000 4.63 30 08:20 24.01.2023
111 Mist 15 1020 100 2000 3.09 20 07:50 24.01.2023
112 Mist 16 1020 94 3000 2.06 40 02:57 24.01.2023
113 Mist 16 1020 94 4000 2.06 60 00:41 24.01.2023
114 Mist 16 1020 94 4000 4.12 30 23:34 23.01.2023
115 Mist 17 1020 88 4000 2.57 360 21:39 23.01.2023
116 Clear 18 1019 82 10000 5.14 30 19:30 23.01.2023
117 Clouds 19 1019 72 10000 5.14 20 17:41 23.01.2023
118 Clouds 21 1020 60 10000 5.66 20 15:33 23.01.2023
119 Haze 21 1018 56 4000 4.63 20 13:58 23.01.2023
120 Haze 20 1018 60 4000 5.14 20 13:21 23.01.2023
121 Haze 20 1018 60 4000 5.14 20 12:44 23.01.2023
122 Haze 19 1019 63 4000 4.12 30 11:34 23.01.2023
123 Mist 14 1021 88 4000 1.54 80 08:25 23.01.2023
124 Clouds 12 1019 82 6000 0 0 02:43 23.01.2023
125 Clouds 14 1019 77 6000 1.54 70 23:22 22.01.2023
126 Clear 16 1020 67 10000 2.57 40 21:19 22.01.2023
127 Clear 16 1019 67 10000 2.57 40 20:48 22.01.2023
128 Clear 17 1019 63 10000 4.63 30 19:47 22.01.2023
129 Clear 17 1019 59 10000 3.6 50 19:18 22.01.2023
130 Clouds 19 1018 48 10000 3.09 30 17:57 22.01.2023
131 Clouds 19 1018 48 10000 3.09 30 17:26 22.01.2023
132 Clouds 20 1018 42 10000 4.12 350 16:24 22.01.2023
133 Clouds 20 1018 42 10000 4.12 10 14:55 22.01.2023
134 Clouds 20 1018 42 10000 3.6 30 13:48 22.01.2023
135 Clouds 20 1018 37 10000 4.63 10 12:48 22.01.2023
136 Clouds 19 1019 45 10000 5.14 360 11:38 22.01.2023
137 Haze 17 1020 63 4000 1.54 50 09:36 22.01.2023
138 Haze 14 1020 72 4000 0 0 08:34 22.01.2023
139 Haze 12 1018 76 4000 0 0 02:51 22.01.2023
140 Haze 14 1019 72 4000 0 0 23:41 21.01.2023
141 Haze 14 1019 67 4000 0 0 22:41 21.01.2023
142 Clear 16 1019 59 10000 0 0 20:27 21.01.2023
143 Clear 17 1018 55 10000 2.57 30 18:48 21.01.2023
144 Clear 20 1017 42 10000 4.12 10 14:57 21.01.2023
145 Clear 20 1017 40 10000 3.6 360 13:30 21.01.2023
146 Clear 20 1017 40 10000 3.6 20 12:42 21.01.2023
147 Clear 18 1018 42 10000 3.6 40 11:27 21.01.2023
148 Clear 18 1018 42 10000 3.6 40 11:27 21.01.2023
149 Clouds 18 1018 48 6000 2.06 40 10:46 21.01.2023
150 Clouds 18 1018 48 6000 2.06 40 10:46 21.01.2023
151 Haze 11 1017 76 3000 0 0 04:51 21.01.2023
152 Clouds 14 1018 58 6000 0 0 22:50 20.01.2023
153 Clouds 14 1018 58 6000 0 0 22:26 20.01.2023
154 Clouds 15 1018 58 6000 0 0 21:35 20.01.2023
155 Haze 16 1017 55 4000 0 0 20:39 20.01.2023
156 Clear 18 1016 45 6000 2.57 350 17:59 20.01.2023
157 Clear 20 1015 37 10000 2.57 220 15:26 20.01.2023
158 Clear 21 1015 32 6000 3.6 320 14:32 20.01.2023
159 Clear 20 1015 30 6000 2.06 270 11:59 20.01.2023
160 Haze 14 1017 72 4000 1.54 270 08:59 20.01.2023
161 Haze 12 1017 76 4000 2.06 290 07:41 20.01.2023
162 Clear 11 1016 66 10000 0 0 02:33 20.01.2023
163 Clear 15 1018 58 10000 1.54 60 22:38 19.01.2023
164 Clear 15 1018 58 10000 1.54 50 21:59 19.01.2023
165 Clear 17 1018 45 10000 3.6 50 19:46 19.01.2023
166 Clear 18 1018 42 10000 3.6 50 18:57 19.01.2023
167 Clear 22 1018 23 10000 4.12 60 15:22 19.01.2023
168 Clouds 19 1021 45 10000 4.63 60 10:44 19.01.2023
169 Clear 16 1022 77 10000 1.54 40 08:59 19.01.2023
170 Clear 14 1022 82 10000 2.06 70 23:19 18.01.2023
171 Clear 15 1023 72 10000 3.09 60 20:38 18.01.2023
172 Clear 16 1023 67 10000 3.09 60 20:18 18.01.2023
173 Clear 16 1023 63 10000 3.6 60 19:36 18.01.2023
174 Clear 19 1022 39 10000 3.6 40 17:32 18.01.2023
175 Clear 21 1021 30 10000 5.14 60 14:41 18.01.2023
176 Clear 21 1021 32 10000 3.6 60 13:18 18.01.2023
177 Clear 18 1023 45 10000 4.12 80 10:29 18.01.2023
178 Clear 13 1024 62 10000 2.06 60 07:57 18.01.2023
179 Clear 12 1022 71 6000 1.54 60 01:26 18.01.2023
180 Clear 13 1023 67 6000 0 0 23:22 17.01.2023
181 Clear 15 1023 58 6000 1.54 90 20:31 17.01.2023
182 Clear 16 1023 59 6000 1.54 80 19:25 17.01.2023
183 Clear 17 1022 51 6000 2.57 30 17:56 17.01.2023
184 Clouds 19 1022 39 6000 0 0 15:57 17.01.2023
185 Clouds 19 1021 39 6000 0 0 14:52 17.01.2023
186 Clouds 18 1021 42 6000 1.54 240 13:46 17.01.2023
187 Clouds 17 1023 48 10000 1.54 240 11:51 17.01.2023
188 Clouds 17 1023 48 10000 1.54 240 11:23 17.01.2023
189 Clear 15 1024 58 6000 1.54 230 09:31 17.01.2023
190 Clear 14 1023 67 6000 0 0 07:53 17.01.2023
191 Clear 11 1021 71 6000 0 0 03:55 17.01.2023
192 Clear 13 1020 67 10000 0 0 00:57 17.01.2023
193 Clear 14 1020 62 10000 1.03 230 23:32 16.01.2023
194 Clear 14 1020 62 10000 0.51 200 21:52 16.01.2023
195 Clear 15 1019 58 10000 3.09 280 20:24 16.01.2023
196 Clear 15 1019 55 10000 3.6 260 19:35 16.01.2023
197 Clouds 16 1018 51 10000 4.12 260 18:53 16.01.2023
198 Clouds 16 1018 51 10000 4.12 260 18:21 16.01.2023
199 Clouds 17 1017 45 10000 5.14 250 17:34 16.01.2023
200 Clouds 18 1016 42 10000 5.14 220 14:38 16.01.2023
201 Clouds 17 1015 45 10000 5.14 220 13:38 16.01.2023
202 Rain 17 1017 45 10000 3.09 200 10:32 16.01.2023
203 Clouds 15 1017 51 6000 2.57 200 09:53 16.01.2023
204 Clouds 16 1018 51 6000 2.06 170 23:22 15.01.2023
205 Clouds 16 1018 44 10000 1.54 240 21:42 15.01.2023
206 Clouds 17 1018 39 10000 2.06 240 20:35 15.01.2023
207 Clouds 17 1018 39 10000 2.06 280 19:44 15.01.2023
208 Clouds 18 1018 45 10000 3.09 220 17:46 15.01.2023
209 Clouds 19 1017 39 10000 6.17 230 15:44 15.01.2023
210 Clouds 18 1018 48 10000 3.09 220 12:31 15.01.2023
211 Clouds 18 1018 52 10000 4.63 220 11:35 15.01.2023
212 Clouds 17 1019 55 10000 4.63 240 10:28 15.01.2023
213 Clear 17 1020 55 10000 3.6 220 09:35 15.01.2023
214 Clear 15 1018 63 10000 2.06 190 01:48 15.01.2023
215 Clear 16 1019 59 10000 2.57 270 22:57 14.01.2023
216 Clouds 17 1019 55 10000 3.09 270 21:58 14.01.2023
217 Clouds 17 1019 55 10000 3.09 270 21:36 14.01.2023
218 Clouds 17 1019 51 10000 3.09 250 21:18 14.01.2023
219 Clouds 17 1019 51 10000 3.09 250 20:39 14.01.2023
220 Clouds 18 1018 45 10000 3.6 260 18:40 14.01.2023
221 Clouds 18 1017 45 10000 4.12 240 16:59 14.01.2023
222 Clouds 19 1016 42 10000 4.12 250 15:28 14.01.2023
223 Clouds 19 1016 42 10000 2.57 240 14:25 14.01.2023
224 Clouds 19 1016 42 10000 5.14 260 13:42 14.01.2023
225 Clouds 18 1017 48 10000 4.63 210 11:46 14.01.2023
226 Clear 17 1017 55 10000 5.14 210 10:46 14.01.2023
227 Clear 14 1018 62 6000 4.63 210 08:19 14.01.2023
228 Clouds 16 1017 44 6000 4.12 210 23:36 13.01.2023
229 Clouds 16 1017 48 10000 4.12 200 22:47 13.01.2023
230 Clouds 16 1017 48 10000 2.57 180 22:29 13.01.2023
231 Clouds 16 1017 48 10000 3.09 190 21:35 13.01.2023
232 Clouds 17 1018 42 10000 2.57 230 19:43 13.01.2023
233 Clouds 17 1017 42 10000 3.6 260 18:21 13.01.2023
234 Clouds 18 1017 36 10000 5.14 250 16:35 13.01.2023
235 Clouds 19 1017 39 10000 4.12 220 13:24 13.01.2023
236 Clouds 18 1017 42 10000 4.12 210 12:20 13.01.2023
237 Clear 15 1019 55 10000 5.66 220 10:26 13.01.2023
238 Clear 15 1019 55 10000 6.17 220 09:46 13.01.2023
239 Clear 14 1019 58 10000 6.17 210 08:55 13.01.2023
240 Clouds 14 1019 58 6000 4.12 220 08:25 13.01.2023
241 Clouds 12 1019 62 6000 3.09 200 06:53 13.01.2023
242 Clear 13 1018 62 10000 2.06 200 05:23 13.01.2023
243 Clouds 15 1018 47 10000 3.09 220 00:21 13.01.2023
244 Clouds 15 1018 44 10000 3.6 220 22:44 12.01.2023
245 Clouds 15 1019 41 10000 3.6 230 20:55 12.01.2023
246 Clouds 16 1018 39 10000 5.14 240 19:46 12.01.2023
247 Clouds 17 1018 36 10000 4.12 260 17:48 12.01.2023
248 Clouds 18 1017 34 10000 5.14 250 16:34 12.01.2023
249 Clouds 19 1017 37 10000 5.14 260 14:45 12.01.2023
250 Clouds 19 1017 37 10000 5.14 260 14:45 12.01.2023
251 Clouds 19 1017 37 10000 5.14 260 14:22 12.01.2023
252 Clouds 18 1018 45 10000 4.12 230 12:55 12.01.2023
253 Clear 17 1019 51 10000 3.6 210 10:44 12.01.2023
254 Clear 16 1019 48 6000 4.63 210 09:29 12.01.2023
255 Clouds 14 1018 51 6000 3.09 190 05:27 12.01.2023
256 Clear 15 1019 47 10000 3.6 170 23:59 11.01.2023
257 Clear 15 1019 47 10000 4.63 160 23:41 11.01.2023
258 Clear 15 1019 47 10000 4.12 160 23:21 11.01.2023
259 Clear 15 1020 47 10000 3.6 160 21:47 11.01.2023
260 Clear 16 1020 48 10000 2.57 170 20:32 11.01.2023
261 Clear 17 1020 42 10000 2.57 170 18:39 11.01.2023
262 Clear 18 1020 36 10000 4.12 210 17:24 11.01.2023
263 Clear 20 1020 34 10000 5.14 190 15:23 11.01.2023
264 Clear 20 1020 37 10000 3.09 210 13:51 11.01.2023
265 Clouds 19 1021 42 10000 5.14 240 12:20 11.01.2023
266 Clouds 18 1023 42 6000 2.57 260 10:43 11.01.2023
267 Haze 15 1023 67 4000 1.54 230 08:21 11.01.2023
268 Haze 12 1023 76 4000 0 0 07:26 11.01.2023
269 Clouds 14 1022 67 6000 2.57 140 01:46 11.01.2023
270 Haze 15 1023 63 4000 0 0 22:46 10.01.2023
271 Haze 15 1023 63 4000 0 0 22:46 10.01.2023
272 Haze 16 1024 59 4000 2.57 120 21:36 10.01.2023
273 Haze 16 1023 63 4000 2.06 100 20:43 10.01.2023
274 Haze 16 1023 63 3000 2.06 90 19:48 10.01.2023
275 Haze 17 1023 59 3000 2.06 90 18:48 10.01.2023
276 Haze 17 1023 59 3000 2.06 90 18:48 10.01.2023
277 Haze 18 1023 52 3000 1.54 60 17:59 10.01.2023
278 Haze 19 1023 52 3000 1.54 350 16:47 10.01.2023
279 Haze 19 1023 48 3000 1.54 310 15:31 10.01.2023
280 Haze 19 1022 52 3000 2.06 280 14:33 10.01.2023
281 Haze 19 1023 52 3000 2.57 190 12:25 10.01.2023
282 Mist 16 1025 72 2000 0 0 09:42 10.01.2023
283 Fog 14 1025 88 900 0 0 08:35 10.01.2023
284 Fog 12 1024 87 900 0 0 07:34 10.01.2023
285 Mist 11 1024 87 1100 0 0 04:58 10.01.2023
286 Haze 13 1022 82 2000 0 0 23:50 09.01.2023
287 Haze 14 1022 72 4000 0.51 150 21:53 09.01.2023
288 Haze 15 1022 67 4000 0 0 20:46 09.01.2023
289 Haze 15 1021 67 4000 1.03 90 19:33 09.01.2023
290 Clouds 16 1020 63 6000 1.03 90 17:55 09.01.2023
291 Clouds 17 1020 59 6000 1.03 60 17:31 09.01.2023
292 Clouds 17 1019 63 6000 1.54 60 16:33 09.01.2023
293 Clouds 18 1019 55 6000 1.54 270 15:30 09.01.2023
294 Mist 18 1018 59 2000 0 0 14:48 09.01.2023
295 Mist 17 1018 63 4000 1.54 250 13:50 09.01.2023
296 Mist 17 1018 67 4000 1.54 160 12:49 09.01.2023
297 Mist 16 1018 72 4000 1.54 160 11:45 09.01.2023
298 Mist 15 1019 77 2000 1.54 180 11:18 09.01.2023
299 Clouds 13 1018 82 10000 2.57 210 06:49 09.01.2023
300 Clouds 14 1016 72 10000 3.09 220 02:54 09.01.2023
301 Clouds 14 1016 72 10000 5.14 230 00:43 09.01.2023
302 Clouds 14 1017 77 10000 2.06 180 21:43 08.01.2023
303 Clouds 15 1017 67 10000 2.06 200 21:20 08.01.2023
304 Clouds 17 1017 63 10000 3.6 300 20:31 08.01.2023
305 Clouds 18 1016 52 10000 1.54 240 17:56 08.01.2023
306 Clouds 19 1016 45 10000 1.54 280 17:21 08.01.2023
307 Clouds 19 1015 48 10000 2.57 320 15:49 08.01.2023
308 Clouds 19 1015 48 10000 2.57 320 15:30 08.01.2023
309 Clouds 19 1016 48 10000 3.09 300 13:58 08.01.2023
310 Rain 19 1016 48 6000 4.12 290 13:29 08.01.2023
311 Clouds 19 1016 48 10000 2.57 280 12:43 08.01.2023
312 Haze 18 1019 55 10000 2.06 220 09:55 08.01.2023
313 Haze 18 1019 55 10000 2.06 220 09:35 08.01.2023
314 Clouds 16 1018 55 6000 1.54 160 07:45 08.01.2023
315 Clouds 17 1019 59 10000 1.03 220 23:59 07.01.2023
316 Clouds 18 1020 52 10000 0 0 22:47 07.01.2023
317 Clouds 18 1020 52 10000 0 0 22:24 07.01.2023
318 Clouds 18 1020 52 10000 0 0 21:47 07.01.2023
319 Clouds 18 1020 52 10000 0 0 20:32 07.01.2023
320 Clouds 18 1020 52 10000 0 0 19:30 07.01.2023
321 Clouds 18 1020 52 10000 1.54 300 18:33 07.01.2023
322 Clouds 19 1020 48 10000 3.09 300 17:50 07.01.2023
323 Clouds 19 1020 45 10000 0 0 17:28 07.01.2023
324 Clouds 19 1020 45 10000 0 0 16:37 07.01.2023
325 Clouds 19 1019 45 10000 2.25 270 15:46 07.01.2023
326 Clouds 20 1019 40 10000 1.03 330 15:26 07.01.2023
327 Clouds 19 1020 42 10000 2.57 330 14:27 07.01.2023
328 Clouds 19 1020 42 10000 2.57 330 13:47 07.01.2023
329 Clear 20 1020 42 10000 1.03 300 13:23 07.01.2023
330 Clear 20 1021 45 10000 1.03 210 12:22 07.01.2023
331 Clear 20 1021 45 10000 3.11 255 11:36 07.01.2023
332 Clear 19 1022 45 10000 0 0 10:25 07.01.2023
333 Haze 16 1023 55 4000 2.57 210 08:25 07.01.2023
334 Haze 15 1023 63 4000 1.54 170 07:44 07.01.2023
335 Haze 15 1023 63 4000 0 0 06:50 07.01.2023
336 Clouds 17 1023 67 10000 0 0 00:42 07.01.2023
337 Clouds 17 1023 67 10000 2.06 290 22:23 06.01.2023
338 Clouds 18 1023 59 10000 1.54 310 21:58 06.01.2023
339 Clouds 18 1023 59 10000 2.57 300 21:18 06.01.2023
340 Clouds 18 1023 59 6000 2.06 320 19:57 06.01.2023
341 Clouds 19 1023 55 6000 1.03 330 19:39 06.01.2023
342 Clouds 19 1023 55 6000 1.03 330 19:21 06.01.2023
343 Clouds 19 1022 45 10000 0 0 18:28 06.01.2023
344 Clouds 19 1022 42 10000 2.06 300 16:55 06.01.2023
345 Clouds 20 1022 40 10000 3.09 280 16:24 06.01.2023
346 Clouds 20 1021 40 10000 3.6 310 15:53 06.01.2023
347 Clouds 20 1021 40 10000 3.6 310 15:34 06.01.2023
348 Clouds 20 1022 42 10000 3.09 270 13:56 06.01.2023
349 Clouds 18 1022 52 10000 2.06 240 12:22 06.01.2023
350 Clouds 18 1023 55 10000 3.09 240 10:57 06.01.2023
351 Clouds 17 1024 51 6000 4.12 220 08:55 06.01.2023
352 Clear 15 1022 58 10000 1.54 200 05:33 06.01.2023
353 Clear 16 1022 55 10000 1.54 200 23:53 05.01.2023
354 Clear 16 1022 55 10000 1.54 210 22:54 05.01.2023
355 Clear 16 1022 55 10000 2.57 270 21:24 05.01.2023
356 Clouds 18 1022 48 10000 3.09 280 19:19 05.01.2023
357 Clouds 19 1022 45 10000 1.54 300 17:27 05.01.2023
358 Clouds 19 1021 42 10000 2.57 280 15:59 05.01.2023
359 Clouds 19 1021 42 10000 2.57 280 15:40 05.01.2023
360 Clouds 19 1021 45 10000 3.6 250 14:35 05.01.2023
361 Clouds 19 1022 52 6000 3.09 240 12:43 05.01.2023
362 Clouds 18 1022 55 6000 3.6 250 11:44 05.01.2023
363 Clouds 17 1023 59 10000 1.54 250 09:50 05.01.2023
364 Mist 15 1023 72 4000 1.54 220 08:25 05.01.2023
365 Mist 12 1023 87 4000 0 0 07:18 05.01.2023
366 Clear 13 1022 82 6000 0 0 03:39 05.01.2023
367 Clouds 15 1023 77 10000 2.06 310 22:53 04.01.2023
368 Clouds 15 1023 77 6000 1.54 300 21:33 04.01.2023
369 Clouds 16 1023 72 6000 2.57 340 20:26 04.01.2023
370 Clouds 16 1022 77 6000 3.09 320 19:56 04.01.2023
371 Clouds 16 1022 77 6000 3.09 320 19:56 04.01.2023
372 Clouds 17 1022 72 10000 2.57 310 19:31 04.01.2023
373 Clouds 17 1022 72 10000 2.57 320 18:30 04.01.2023
374 Rain 18 1021 59 10000 2.06 320 16:32 04.01.2023
375 Rain 18 1021 63 10000 2.57 330 15:40 04.01.2023
376 Clouds 19 1020 63 10000 3.09 330 13:53 04.01.2023
377 Mist 18 1021 72 4000 2.06 270 11:40 04.01.2023
378 Mist 18 1021 72 4000 2.06 270 11:19 04.01.2023
379 Mist 17 1022 77 4000 2.06 280 10:42 04.01.2023
380 Mist 17 1022 77 4000 2.06 290 10:21 04.01.2023
381 Mist 14 1021 88 4000 0 0 07:19 04.01.2023
382 Mist 14 1020 94 4000 1.54 300 01:43 04.01.2023
383 Mist 15 1021 88 2000 1.54 300 23:59 03.01.2023
384 Mist 15 1021 88 2000 1.54 300 23:32 03.01.2023
385 Mist 15 1021 88 3000 1.54 290 22:40 03.01.2023
386 Clouds 15 1021 88 6000 2.57 300 20:52 03.01.2023
387 Clouds 16 1021 77 6000 3.6 300 19:20 03.01.2023
388 Rain 18 1020 68 6000 3.6 310 16:55 03.01.2023
389 Rain 19 1019 59 6000 3.09 320 15:51 03.01.2023
390 Clouds 19 1019 63 6000 3.6 300 13:52 03.01.2023
391 Clouds 19 1019 59 6000 3.09 320 13:29 03.01.2023
392 Clouds 19 1019 63 6000 3.09 310 12:57 03.01.2023
393 Clouds 19 1020 59 6000 2.57 350 12:29 03.01.2023
394 Clear 16 1020 72 10000 2.94 9 10:30 03.01.2023
395 Clear 11 1021 82 6000 0 0 06:21 03.01.2023
396 Clear 12 1020 82 6000 0 0 04:18 03.01.2023
397 Clear 12 1020 82 6000 0 0 03:42 03.01.2023
398 Clear 14 1021 77 10000 1.03 30 00:36 03.01.2023
399 Clear 15 1021 72 10000 1.54 60 22:41 02.01.2023
400 Clear 15 1021 72 10000 2.06 80 21:55 02.01.2023
401 Clear 16 1021 72 10000 2.06 60 20:39 02.01.2023
402 Clear 17 1021 67 10000 3.6 40 19:28 02.01.2023
403 Clear 19 1020 59 10000 5.14 10 17:18 02.01.2023
404 Clear 21 1019 46 10000 4.12 30 14:52 02.01.2023
405 Clear 20 1019 49 10000 1.54 40 13:23 02.01.2023
406 Clear 18 1020 55 10000 1.54 30 11:40 02.01.2023
407 Clear 16 1021 67 6000 2.57 360 09:49 02.01.2023
408 Mist 13 1021 82 4000 1.54 10 07:33 02.01.2023
409 Mist 14 1020 88 3000 2.06 360 00:58 02.01.2023
410 Clouds 16 1021 77 6000 2.06 350 21:58 01.01.2023
411 Clouds 16 1021 77 6000 2.06 350 21:24 01.01.2023
412 Clouds 16 1021 77 6000 2.06 350 20:46 01.01.2023
413 Clouds 17 1021 72 10000 3.09 20 19:42 01.01.2023
414 Clouds 18 1021 68 10000 3.09 20 17:56 01.01.2023
415 Clouds 19 1019 59 10000 5.82 46 17:20 01.01.2023
416 Clouds 19 1019 59 10000 6.17 10 16:32 01.01.2023
417 Clouds 20 1019 56 10000 5.66 10 14:47 01.01.2023
418 Clouds 20 1019 56 10000 5.14 360 13:37 01.01.2023
419 Clouds 20 1020 56 10000 5.66 40 12:39 01.01.2023
420 Clouds 19 1021 59 10000 5.14 10 11:36 01.01.2023
421 Clouds 17 1022 72 10000 2.57 340 10:35 01.01.2023
422 Clouds 14 1023 88 6000 0 0 08:49 01.01.2023
423 Clouds 14 1023 88 6000 0 0 08:20 01.01.2023
424 Clouds 12 1023 94 6000 0 0 07:18 01.01.2023
425 Clouds 13 1023 82 10000 0 0 01:42 01.01.2023
426 Clouds 14 1023 77 10000 2.57 20 23:42 31.12.2022
427 Clouds 15 1023 77 10000 3.09 360 22:33 31.12.2022
428 Clouds 16 1024 72 10000 2.57 10 21:35 31.12.2022
429 Clouds 16 1024 72 10000 4.12 20 20:52 31.12.2022
430 Clouds 17 1024 67 10000 4.63 30 19:33 31.12.2022
431 Clouds 17 1024 63 10000 5.14 20 18:42 31.12.2022
432 Clouds 17 1024 63 10000 4.63 20 18:18 31.12.2022
433 Clouds 18 1024 63 10000 5.14 30 17:46 31.12.2022
434 Clouds 18 1024 59 10000 5.14 20 16:50 31.12.2022
435 Clouds 19 1023 55 10000 6.69 20 16:22 31.12.2022
436 Clouds 20 1022 45 10000 6.17 20 14:39 31.12.2022
437 Clouds 21 1022 43 10000 5.66 20 13:38 31.12.2022
438 Clouds 20 1022 45 10000 6.17 30 12:40 31.12.2022
439 Clouds 20 1022 45 10000 6.17 30 12:19 31.12.2022
440 Clouds 19 1023 52 10000 7.72 20 11:50 31.12.2022
441 Clear 18 1024 59 6000 3.6 30 10:36 31.12.2022
442 Mist 15 1024 77 4000 3.09 20 09:54 31.12.2022
443 Mist 15 1025 77 2000 1.54 30 09:35 31.12.2022
444 Mist 13 1024 88 1200 0 0 07:49 31.12.2022
445 Clear 13 1024 82 6000 1.03 90 00:37 31.12.2022
446 Clear 14 1024 77 6000 1.03 90 23:47 30.12.2022
447 Clear 15 1024 77 6000 1.54 40 22:49 30.12.2022
448 Clear 15 1024 77 10000 1.54 60 21:44 30.12.2022
449 Clear 16 1024 72 10000 1.54 70 21:26 30.12.2022
450 Clear 18 1024 59 10000 3.6 20 18:59 30.12.2022
451 Clear 19 1023 59 10000 4.12 20 17:51 30.12.2022
452 Clear 19 1023 59 10000 4.12 20 17:32 30.12.2022
453 Clouds 20 1022 52 10000 4.12 360 15:57 30.12.2022
454 Clouds 20 1022 52 10000 6.17 360 14:38 30.12.2022
455 Clear 19 1023 59 6000 3.6 20 11:58 30.12.2022
456 Clouds 14 1025 77 6000 0 0 08:21 30.12.2022
457 Clear 13 1023 76 10000 0.51 20 03:39 30.12.2022
458 Clear 13 1023 76 10000 1.03 40 01:53 30.12.2022
459 Clear 14 1024 72 10000 1.54 90 22:58 29.12.2022
460 Clear 15 1025 67 10000 2.06 100 21:31 29.12.2022
461 Clear 15 1025 67 10000 1.54 90 20:54 29.12.2022
462 Clear 16 1025 63 10000 1.54 90 20:25 29.12.2022
463 Clear 17 1025 59 10000 2.57 20 18:30 29.12.2022
464 Clear 18 1024 55 10000 3.09 10 17:33 29.12.2022
465 Clear 18 1024 55 10000 1.71 54 16:55 29.12.2022
466 Clear 19 1024 48 10000 4.63 360 16:21 29.12.2022
467 Clouds 19 1024 45 10000 4.63 360 15:33 29.12.2022
468 Clouds 20 1023 40 10000 3.09 30 13:34 29.12.2022
469 Clear 18 1024 48 10000 3.6 40 11:33 29.12.2022
470 Clear 14 1026 67 6000 0 0 08:22 29.12.2022
471 Clear 13 1025 71 6000 0 0 00:23 29.12.2022
472 Clear 13 1026 71 6000 0 0 23:28 28.12.2022
473 Clear 14 1026 67 6000 1.54 90 21:22 28.12.2022
474 Clear 15 1026 63 6000 2.06 90 20:50 28.12.2022
475 Clear 16 1026 63 6000 1.54 30 19:25 28.12.2022
476 Clear 18 1025 52 6000 2.57 360 16:56 28.12.2022
477 Haze 19 1025 48 4000 3.6 330 14:43 28.12.2022
478 Clear 19 1025 42 10000 2.57 360 12:55 28.12.2022
479 Clear 19 1026 42 10000 2.57 360 12:23 28.12.2022
480 Clear 18 1026 45 10000 2.06 30 11:21 28.12.2022
481 Haze 16 1028 63 4000 1.54 350 08:45 28.12.2022
482 Clear 13 1027 71 10000 0 0 07:27 28.12.2022
483 Clear 12 1027 71 6000 0 0 06:43 28.12.2022
484 Clear 14 1027 67 10000 1.54 100 23:36 27.12.2022
485 Haze 16 1027 59 4000 1.03 20 20:30 27.12.2022
486 Haze 17 1026 55 4000 1.54 10 19:40 27.12.2022
487 Clouds 18 1026 52 10000 2.06 330 17:47 27.12.2022
488 Clouds 18 1025 52 10000 2.57 320 16:43 27.12.2022
489 Clouds 19 1025 45 10000 2.57 340 15:31 27.12.2022
490 Clouds 19 1025 48 10000 4.12 320 12:36 27.12.2022
491 Clouds 19 1025 48 10000 4.63 320 11:30 27.12.2022
492 Clouds 17 1026 59 10000 2.57 310 09:47 27.12.2022
493 Clouds 17 1026 55 10000 2.06 310 09:23 27.12.2022
494 Clear 13 1025 71 10000 0 0 06:51 27.12.2022
495 Clear 13 1024 71 10000 2.06 300 04:31 27.12.2022
496 Clear 15 1024 67 10000 2.57 300 22:28 26.12.2022
497 Clear 16 1024 63 10000 2.57 310 21:25 26.12.2022
498 Clear 16 1024 63 10000 3.6 310 20:42 26.12.2022
499 Clouds 17 1023 59 10000 3.6 310 18:44 26.12.2022
500 Clouds 18 1022 55 10000 4.12 310 17:51 26.12.2022
501 Clouds 19 1021 55 10000 5.66 310 16:21 26.12.2022
502 Clouds 20 1020 52 10000 6.17 310 14:30 26.12.2022
503 Clouds 20 1020 52 10000 5.14 310 12:47 26.12.2022
504 Clouds 17 1021 67 10000 4.63 230 08:27 26.12.2022
505 Clouds 16 1019 82 6000 3.09 240 23:59 25.12.2022
506 Clouds 16 1019 82 6000 3.09 240 23:38 25.12.2022
507 Clear 17 1019 72 10000 2.06 270 22:29 25.12.2022
508 Clouds 17 1019 72 10000 3.09 280 21:49 25.12.2022
509 Rain 18 1019 63 10000 4.63 250 18:50 25.12.2022
510 Rain 18 1018 59 10000 3.09 280 17:52 25.12.2022
511 Rain 19 1018 55 10000 3.6 270 17:34 25.12.2022
512 Rain 20 1017 49 10000 4.12 260 15:41 25.12.2022
513 Rain 21 1017 43 10000 6.17 240 12:45 25.12.2022
514 Clear 18 1019 48 10000 3.6 220 09:28 25.12.2022
515 Clear 16 1018 59 10000 1.54 210 23:51 24.12.2022
516 Clear 17 1018 55 10000 4.12 240 21:54 24.12.2022
517 Clear 17 1018 51 10000 3.09 240 19:36 24.12.2022
518 Clouds 19 1016 45 10000 3.09 240 16:46 24.12.2022
519 Clouds 20 1016 37 10000 6.17 250 14:54 24.12.2022
520 Clouds 20 1016 42 10000 5.14 220 12:43 24.12.2022
521 Clouds 18 1016 55 6000 5.14 220 11:26 24.12.2022
522 Haze 17 1017 63 4000 5.14 220 10:22 24.12.2022
523 Haze 17 1017 63 4000 4.63 220 09:37 24.12.2022
524 Mist 14 1016 82 1500 3.6 190 06:56 24.12.2022
525 Clouds 16 1015 77 10000 3.09 220 02:50 24.12.2022
526 Clouds 17 1016 77 10000 4.12 260 23:37 23.12.2022
527 Clouds 17 1016 72 10000 3.6 270 22:28 23.12.2022
528 Clouds 17 1016 77 10000 4.63 270 20:41 23.12.2022
529 Clouds 17 1016 77 10000 3.6 280 19:39 23.12.2022
530 Clouds 18 1015 72 10000 3.6 270 19:21 23.12.2022
531 Clouds 18 1015 72 10000 3.6 270 18:46 23.12.2022
532 Clouds 18 1015 68 10000 3.6 280 18:20 23.12.2022
533 Clouds 18 1014 63 10000 4.12 280 16:35 23.12.2022
534 Clouds 18 1013 68 10000 6.17 270 15:37 23.12.2022
535 Clouds 19 1014 63 10000 5.14 270 11:57 23.12.2022
536 Clouds 17 1014 72 6000 5.14 280 09:37 23.12.2022
537 Clouds 17 1014 72 6000 2.57 250 08:45 23.12.2022
538 Clouds 15 1014 82 6000 2.06 240 07:18 23.12.2022
539 Clouds 15 1013 88 6000 1.54 200 06:39 23.12.2022
540 Rain 16 1013 72 10000 0 0 23:23 22.12.2022
541 Rain 16 1012 72 10000 0 0 22:57 22.12.2022
542 Rain 16 1013 77 10000 1.54 50 21:25 22.12.2022
543 Rain 17 1013 67 10000 1.54 340 19:26 22.12.2022
544 Rain 17 1013 67 10000 1.54 340 19:26 22.12.2022
545 Rain 18 1012 63 10000 1.54 20 18:51 22.12.2022
546 Rain 19 1012 59 6000 3.6 20 17:29 22.12.2022
547 Rain 19 1012 63 6000 4.63 10 16:39 22.12.2022
548 Clouds 20 1012 56 6000 4.63 20 15:35 22.12.2022
549 Clouds 20 1012 52 6000 2.57 50 14:51 22.12.2022
550 Clouds 19 1012 63 6000 1.54 10 13:34 22.12.2022
551 Haze 19 1013 59 4000 3.09 360 12:59 22.12.2022
552 Clouds 18 1014 68 6000 1.54 300 10:51 22.12.2022
553 Clouds 18 1014 68 6000 1.54 300 10:30 22.12.2022
554 Clouds 17 1015 72 6000 1.54 350 09:21 22.12.2022
555 Clear 16 1015 67 6000 1.03 220 08:28 22.12.2022
556 Clear 15 1015 67 10000 1.54 220 06:41 22.12.2022
557 Clear 15 1014 63 10000 2.06 210 04:18 22.12.2022
558 Clouds 16 1016 59 10000 0 0 23:51 21.12.2022
559 Clouds 16 1017 59 10000 1.54 310 21:58 21.12.2022
560 Clouds 16 1017 59 10000 1.54 310 21:23 21.12.2022
561 Clouds 16 1017 59 10000 2.06 300 20:54 21.12.2022
562 Clouds 17 1017 51 10000 2.57 330 20:29 21.12.2022
563 Clouds 17 1016 51 10000 3.09 330 19:43 21.12.2022
564 Clouds 17 1016 51 10000 3.09 320 19:24 21.12.2022
565 Clouds 17 1016 51 10000 3.09 350 18:46 21.12.2022
566 Clouds 18 1016 52 10000 3.09 330 17:38 21.12.2022
567 Clouds 20 1015 42 10000 4.12 310 14:58 21.12.2022
568 Clouds 19 1015 48 10000 4.12 320 13:26 21.12.2022
569 Clouds 19 1016 52 10000 3.6 310 11:46 21.12.2022
570 Clouds 18 1016 59 10000 3.6 310 11:20 21.12.2022
571 Clouds 17 1017 63 10000 3.09 320 09:36 21.12.2022
572 Clouds 15 1017 77 10000 1.54 310 07:38 21.12.2022
573 Clouds 16 1017 82 6000 1.54 340 02:28 21.12.2022
574 Clouds 17 1016 82 6000 3.6 320 22:48 20.12.2022
575 Rain 17 1017 82 6000 3.09 300 21:21 20.12.2022
576 Clouds 18 1016 77 10000 2.57 340 20:23 20.12.2022
577 Clouds 19 1016 68 10000 3.09 20 19:40 20.12.2022
578 Clouds 20 1015 64 10000 4.63 360 18:30 20.12.2022
579 Clouds 20 1015 64 10000 3.09 350 17:55 20.12.2022
580 Clouds 20 1015 64 10000 3.09 350 17:55 20.12.2022
581 Clouds 20 1015 68 10000 3.09 10 17:34 20.12.2022
582 Clouds 20 1015 64 10000 3.6 340 16:35 20.12.2022
583 Clouds 22 1014 53 10000 3.09 340 15:30 20.12.2022
584 Clouds 22 1014 49 10000 3.6 10 14:47 20.12.2022
585 Clouds 22 1015 49 10000 3.09 10 14:28 20.12.2022
586 Clouds 21 1015 52 10000 3.6 350 12:57 20.12.2022
587 Clouds 21 1015 52 10000 4.12 360 12:26 20.12.2022
588 Clouds 20 1016 60 6000 4.63 20 11:33 20.12.2022
589 Clear 18 1017 77 6000 1.54 350 08:48 20.12.2022
590 Clouds 16 1017 82 6000 0 0 01:20 20.12.2022
591 Clear 17 1017 77 10000 1.54 20 22:42 19.12.2022
592 Clear 18 1018 77 10000 2.06 50 21:45 19.12.2022
593 Clear 19 1018 72 10000 3.6 30 19:58 19.12.2022
594 Clear 19 1017 68 10000 3.6 30 19:39 19.12.2022
595 Clouds 20 1017 64 10000 4.12 10 18:33 19.12.2022
596 Clouds 21 1017 56 10000 5.66 20 16:47 19.12.2022
597 Clouds 23 1016 49 10000 5.14 20 13:41 19.12.2022
598 Clouds 23 1017 49 10000 4.63 30 12:21 19.12.2022
599 Clouds 21 1018 60 6000 4.12 360 10:45 19.12.2022
600 Mist 17 1019 94 4000 1.03 20 07:44 19.12.2022
601 Mist 17 1018 88 4000 0 0 03:42 19.12.2022
602 Clear 17 1019 88 6000 2.06 60 22:40 18.12.2022
603 Clouds 18 1020 77 10000 3.09 70 21:46 18.12.2022
604 Clouds 18 1020 77 10000 3.09 70 21:22 18.12.2022
605 Clouds 18 1020 77 10000 3.09 70 21:22 18.12.2022
606 Clouds 19 1020 77 10000 4.12 50 20:32 18.12.2022
607 Clouds 19 1020 72 10000 4.12 50 19:41 18.12.2022
608 Clouds 21 1019 56 10000 5.66 30 18:29 18.12.2022
609 Clouds 22 1019 49 6000 4.63 30 17:22 18.12.2022
610 Clouds 25 1018 36 10000 5.66 40 15:40 18.12.2022
611 Clouds 25 1018 36 10000 5.66 40 15:20 18.12.2022
612 Clouds 25 1018 36 10000 6.17 40 14:20 18.12.2022
613 Clouds 24 1018 41 10000 5.14 40 12:57 18.12.2022
614 Clouds 24 1018 41 10000 5.14 40 12:57 18.12.2022
615 Clouds 24 1018 41 10000 5.14 40 12:30 18.12.2022
616 Clouds 22 1020 56 10000 5.14 30 10:50 18.12.2022
617 Clouds 19 1021 77 6000 3.6 50 08:47 18.12.2022
618 Mist 19 1021 88 4000 3.09 20 08:20 18.12.2022
619 Mist 18 1020 100 4000 3.6 50 06:23 18.12.2022
620 Mist 18 1019 100 4000 3.09 40 03:41 18.12.2022
621 Mist 18 1019 100 4000 3.09 60 01:48 18.12.2022
622 Clouds 19 1020 88 6000 3.09 60 22:24 17.12.2022
623 Clear 20 1020 83 10000 4.63 30 19:46 17.12.2022
624 Clouds 21 1019 78 10000 6.17 20 17:19 17.12.2022
625 Clouds 24 1019 57 10000 6.17 10 14:44 17.12.2022
626 Clouds 23 1019 60 10000 5.66 40 12:29 17.12.2022
627 Clouds 21 1020 68 10000 5.66 60 10:51 17.12.2022
628 Clouds 21 1021 73 10000 4.63 60 09:57 17.12.2022
629 Clouds 19 1022 94 10000 3.09 70 08:35 17.12.2022
630 Clouds 18 1021 94 6000 2.57 60 06:46 17.12.2022
631 Clouds 18 1020 94 10000 2.57 60 23:59 16.12.2022
632 Clear 19 1021 88 10000 4.63 60 21:39 16.12.2022
633 Clear 19 1021 88 10000 5.14 50 20:24 16.12.2022
634 Clear 21 1020 68 10000 5.66 20 17:20 16.12.2022
635 Clouds 23 1019 56 10000 5.66 30 14:51 16.12.2022
636 Clouds 24 1019 53 10000 5.14 50 13:50 16.12.2022
637 Clouds 23 1019 56 10000 5.14 50 12:22 16.12.2022
638 Clouds 22 1020 60 10000 5.14 60 10:58 16.12.2022
639 Clouds 20 1021 73 10000 4.63 50 09:39 16.12.2022
640 Clouds 18 1021 88 10000 4.63 70 08:26 16.12.2022
641 Clouds 18 1021 88 6000 3.09 70 07:54 16.12.2022
642 Clear 17 1020 77 10000 0 0 23:53 15.12.2022
643 Clear 18 1020 68 10000 2.06 90 22:33 15.12.2022
644 Clear 19 1020 63 10000 2.06 90 20:54 15.12.2022
645 Clear 21 1020 56 6000 1.54 60 19:40 15.12.2022
646 Clear 21 1020 56 6000 2.06 20 18:34 15.12.2022
647 Clear 22 1019 53 6000 3.09 10 17:27 15.12.2022
648 Clear 24 1018 35 10000 2.06 20 15:41 15.12.2022
649 Clear 24 1018 38 10000 4.12 10 14:37 15.12.2022
650 Haze 23 1018 46 4000 2.06 330 12:48 15.12.2022
651 Haze 23 1019 43 4000 1.54 50 10:41 15.12.2022
652 Haze 21 1020 49 2000 1.54 320 08:55 15.12.2022
653 Haze 18 1019 59 2000 0 0 07:58 15.12.2022
654 Haze 16 1018 63 3000 0 0 05:36 15.12.2022
655 Clouds 18 1017 59 6000 0 0 22:40 14.12.2022
656 Clouds 19 1017 55 6000 0 0 21:24 14.12.2022
657 Clouds 20 1017 56 6000 1.54 40 20:36 14.12.2022
658 Clouds 20 1017 56 6000 0 0 19:34 14.12.2022
659 Clouds 22 1016 49 10000 1.54 300 16:58 14.12.2022
660 Clouds 22 1016 49 10000 1.54 300 16:38 14.12.2022
661 Clouds 24 1015 38 10000 3.09 270 14:50 14.12.2022
662 Clear 23 1015 43 10000 3.6 240 12:56 14.12.2022
663 Clear 23 1016 43 10000 5.14 230 10:45 14.12.2022
664 Clear 22 1016 49 10000 4.63 210 10:21 14.12.2022
665 Haze 18 1015 68 4000 2.57 190 06:28 14.12.2022
666 Haze 20 1016 60 4000 1.54 170 21:57 13.12.2022
667 Haze 20 1016 56 4000 1.54 180 21:37 13.12.2022
668 Clouds 20 1015 56 6000 1.54 170 20:47 13.12.2022
669 Clouds 20 1015 56 6000 0 0 18:55 13.12.2022
670 Clouds 22 1014 49 10000 1.54 310 16:36 13.12.2022
671 Clouds 22 1014 49 10000 2.57 320 14:57 13.12.2022
672 Clouds 22 1014 53 10000 3.09 300 13:33 13.12.2022
673 Clouds 21 1015 64 6000 3.6 230 10:42 13.12.2022
674 Clouds 20 1016 68 6000 3.09 240 09:48 13.12.2022
675 Haze 18 1016 68 3000 1.54 210 07:53 13.12.2022
676 Clear 18 1013 48 6000 1.54 260 22:37 12.12.2022
677 Clear 19 1013 42 10000 1.54 260 21:58 12.12.2022
678 Clear 20 1012 40 10000 1.54 220 19:46 12.12.2022
679 Clear 22 1012 35 10000 3.09 210 17:53 12.12.2022
680 Clear 24 1011 31 10000 4.63 210 15:32 12.12.2022
681 Clear 25 1010 25 10000 4.63 210 13:51 12.12.2022
682 Clear 22 1013 28 10000 6.17 200 09:21 12.12.2022
683 Clear 22 1013 28 10000 5.66 210 08:56 12.12.2022
684 Clouds 18 1012 42 6000 1.54 190 04:51 12.12.2022
685 Clouds 19 1013 34 6000 3.09 190 01:51 12.12.2022
686 Clouds 19 1014 52 6000 0 0 22:18 11.12.2022
687 Clouds 19 1014 48 6000 0 0 20:37 11.12.2022
688 Clouds 20 1014 42 6000 3.09 180 19:39 11.12.2022
689 Clear 21 1014 40 6000 2.57 190 18:40 11.12.2022
690 Clear 22 1014 37 6000 2.06 180 17:53 11.12.2022
691 Clear 22 1014 37 6000 1.54 190 16:53 11.12.2022
692 Clear 23 1014 33 6000 1.54 210 16:29 11.12.2022
693 Clear 23 1014 33 6000 1.54 220 15:45 11.12.2022
694 Haze 24 1014 33 4000 3.09 260 13:35 11.12.2022
695 Haze 23 1013 46 2000 2.06 320 12:42 11.12.2022
696 Haze 22 1016 46 4000 0 0 10:26 11.12.2022
697 Clear 14 1016 62 10000 0 0 03:38 11.12.2022
698 Clear 15 1017 63 6000 0 0 00:28 11.12.2022
699 Clear 17 1018 59 6000 0 0 22:38 10.12.2022
700 Clear 17 1018 59 6000 0 0 22:19 10.12.2022
701 Haze 17 1018 59 4000 1.54 90 21:18 10.12.2022
702 Haze 18 1018 52 4000 1.54 70 20:19 10.12.2022
703 Haze 21 1017 46 4000 1.54 20 17:53 10.12.2022
704 Haze 22 1017 43 4000 1.54 360 16:47 10.12.2022
705 Haze 23 1017 38 4000 2.57 300 15:52 10.12.2022
706 Haze 23 1017 38 4000 2.57 300 15:33 10.12.2022
707 Haze 23 1017 38 4000 1.54 300 13:44 10.12.2022
708 Haze 23 1018 38 4000 2.57 310 12:27 10.12.2022
709 Haze 22 1019 37 4000 0 0 10:57 10.12.2022
710 Haze 18 1020 48 4000 0 0 09:46 10.12.2022
711 Haze 15 1019 58 2000 1.54 340 07:23 10.12.2022
712 Haze 15 1019 58 2000 0 0 06:53 10.12.2022
713 Clear 17 1019 45 6000 0 0 23:43 09.12.2022
714 Clear 17 1019 45 6000 0 0 22:42 09.12.2022
715 Clear 17 1019 42 6000 1.03 140 21:41 09.12.2022
716 Clear 19 1019 37 10000 0.51 70 20:59 09.12.2022
717 Clear 21 1019 35 10000 1.54 120 19:46 09.12.2022
718 Clear 21 1019 32 10000 0 0 17:56 09.12.2022
719 Clear 23 1018 31 10000 1.54 190 17:27 09.12.2022
720 Clear 24 1018 27 10000 1.54 220 16:27 09.12.2022
721 Clear 25 1018 25 10000 2.57 230 15:30 09.12.2022
722 Clear 25 1019 27 10000 2.57 220 12:50 09.12.2022
723 Clear 24 1020 31 10000 3.6 230 10:51 09.12.2022
724 Clear 23 1021 33 10000 3.09 240 10:23 09.12.2022
725 Clear 15 1020 55 10000 1.54 130 05:39 09.12.2022
726 Clear 15 1020 58 10000 0 0 03:18 09.12.2022
727 Clear 17 1020 55 10000 1.54 140 23:36 08.12.2022
728 Clouds 18 1021 48 6000 1.54 150 20:56 08.12.2022
729 Haze 20 1020 45 4000 2.06 80 18:58 08.12.2022
730 Haze 22 1019 40 4000 1.03 330 16:46 08.12.2022
731 Clouds 23 1019 38 6000 1.54 300 14:31 08.12.2022
732 Clear 24 1019 33 10000 1.54 260 13:29 08.12.2022
733 Clear 22 1020 40 10000 0 0 10:37 08.12.2022
734 Clear 21 1021 46 10000 0 0 09:32 08.12.2022
735 Clear 17 1020 63 10000 0 0 07:39 08.12.2022
736 Clear 17 1019 55 10000 2.06 120 22:44 07.12.2022
737 Clear 17 1019 55 10000 2.06 120 22:18 07.12.2022
738 Clear 17 1019 51 10000 1.54 120 21:47 07.12.2022
739 Clear 18 1018 52 10000 2.57 110 20:32 07.12.2022
740 Clouds 18 1018 52 10000 1.03 80 18:33 07.12.2022
741 Clouds 20 1017 45 10000 2.57 340 15:44 07.12.2022
742 Clouds 21 1017 40 10000 1.54 330 13:36 07.12.2022
743 Clouds 20 1019 49 10000 2.06 50 10:54 07.12.2022
744 Clear 19 1020 59 10000 0 0 09:59 07.12.2022
745 Clear 19 1020 59 10000 0 0 09:31 07.12.2022
746 Clear 15 1019 77 10000 0 0 07:41 07.12.2022
747 Clear 14 1019 77 6000 0 0 05:25 07.12.2022
748 Haze 16 1019 72 3000 0 0 01:22 07.12.2022
749 Haze 18 1020 63 3000 1.54 340 21:59 06.12.2022
750 Haze 19 1019 59 3000 2.06 10 19:35 06.12.2022
751 Clouds 20 1018 56 6000 2.57 340 17:19 06.12.2022
752 Clouds 21 1018 46 6000 3.09 330 16:29 06.12.2022
753 Clouds 22 1018 43 10000 3.6 340 15:37 06.12.2022
754 Clouds 21 1018 49 10000 3.09 330 14:40 06.12.2022
755 Clouds 21 1018 49 10000 3.6 310 14:19 06.12.2022
756 Clouds 21 1018 52 10000 3.6 320 12:41 06.12.2022
757 Clouds 20 1019 56 10000 3.6 300 11:58 06.12.2022
758 Mist 17 1020 72 4000 0 0 07:50 06.12.2022
759 Clouds 16 1019 72 6000 2.06 320 03:26 06.12.2022
760 Clear 17 1020 67 6000 1.54 320 23:45 05.12.2022
761 Clouds 17 1021 72 10000 1.54 360 21:56 05.12.2022
762 Clouds 18 1021 68 10000 2.06 360 20:55 05.12.2022
763 Clouds 18 1021 68 10000 2.06 350 20:23 05.12.2022
764 Clouds 18 1021 72 10000 3.09 350 19:37 05.12.2022
765 Clouds 20 1020 60 10000 4.12 330 16:55 05.12.2022
766 Clouds 21 1019 52 10000 4.12 330 15:31 05.12.2022
767 Clouds 21 1019 52 10000 4.12 340 14:52 05.12.2022
768 Clouds 22 1020 46 10000 4.12 330 12:58 05.12.2022
769 Clouds 22 1020 46 10000 4.12 330 12:38 05.12.2022
770 Clouds 21 1020 49 10000 4.63 360 11:45 05.12.2022
771 Clouds 20 1022 60 6000 4.12 360 09:32 05.12.2022
772 Clouds 18 1020 77 6000 2.57 360 00:19 05.12.2022
773 Clouds 18 1020 77 6000 3.09 350 22:44 04.12.2022
774 Rain 19 1020 72 6000 3.09 350 22:20 04.12.2022
775 Clouds 19 1020 72 6000 3.09 350 21:39 04.12.2022
776 Clouds 20 1020 73 6000 3.6 350 20:26 04.12.2022
777 Clouds 20 1020 73 6000 4.63 340 19:24 04.12.2022
778 Clouds 20 1019 68 6000 3.6 340 18:37 04.12.2022
779 Clouds 20 1019 64 6000 4.63 340 17:23 04.12.2022
780 Clouds 21 1018 56 6000 4.12 340 16:37 04.12.2022
781 Clouds 21 1018 56 6000 4.12 340 16:19 04.12.2022
782 Clouds 22 1018 53 6000 3.6 340 15:44 04.12.2022
783 Clouds 23 1018 43 10000 5.14 360 14:43 04.12.2022
784 Clouds 23 1018 43 10000 4.63 10 12:59 04.12.2022
785 Clouds 22 1019 46 10000 5.66 20 12:40 04.12.2022
786 Clouds 22 1019 46 6000 5.66 20 11:35 04.12.2022
787 Haze 19 1020 68 4000 1.54 350 09:20 04.12.2022
788 Mist 15 1020 77 2000 0 0 06:34 04.12.2022
789 Clear 17 1019 77 6000 0 0 23:44 03.12.2022
790 Clear 17 1019 77 10000 0 0 22:51 03.12.2022
791 Clouds 18 1019 77 10000 1.54 20 21:53 03.12.2022
792 Clouds 18 1019 77 10000 2.57 10 21:19 03.12.2022
793 Clouds 20 1019 64 10000 3.6 40 19:28 03.12.2022
794 Clouds 20 1018 64 10000 4.63 30 18:39 03.12.2022
795 Clouds 22 1017 49 10000 6.69 20 15:53 03.12.2022
796 Clouds 23 1016 46 10000 6.69 10 14:23 03.12.2022
797 Clouds 23 1016 49 10000 6.17 20 12:54 03.12.2022
798 Clouds 23 1016 49 10000 6.17 20 12:22 03.12.2022
799 Clouds 21 1018 64 10000 6.69 40 10:20 03.12.2022
800 Clouds 16 1018 88 10000 1.54 50 06:56 03.12.2022
801 Clear 17 1018 77 10000 1.54 60 00:31 03.12.2022
802 Clouds 18 1018 72 10000 4.87 43 22:22 02.12.2022
803 Clear 18 1019 72 10000 2.57 50 20:53 02.12.2022
804 Clear 18 1019 72 10000 2.57 50 20:53 02.12.2022
805 Clear 19 1019 63 10000 4.63 20 19:23 02.12.2022
806 Clouds 22 1018 43 10000 6.17 10 15:59 02.12.2022
807 Clouds 23 1017 40 10000 5.14 30 14:43 02.12.2022
808 Clouds 23 1017 40 10000 5.14 30 14:23 02.12.2022
809 Clear 23 1018 43 10000 4.63 30 12:55 02.12.2022
810 Clear 23 1019 38 10000 5.66 40 11:40 02.12.2022
811 Clear 17 1020 59 10000 0 0 08:35 02.12.2022
812 Clear 14 1019 67 10000 0 0 07:24 02.12.2022
813 Clear 17 1018 59 10000 0 0 23:49 01.12.2022
814 Clear 18 1018 55 6000 1.54 60 21:46 01.12.2022
815 Clear 18 1018 55 6000 1.54 60 21:46 01.12.2022
816 Clear 19 1018 52 6000 2.06 70 21:27 01.12.2022
817 Haze 21 1017 46 4000 1.54 70 19:24 01.12.2022
818 Haze 22 1017 43 4000 1.54 40 17:50 01.12.2022
819 Clear 24 1016 35 6000 2.57 340 15:44 01.12.2022
820 Clear 24 1017 31 6000 1.54 230 11:41 01.12.2022
821 Clear 22 1017 37 6000 2.57 250 10:25 01.12.2022
822 Clear 22 1018 37 6000 2.57 260 09:54 01.12.2022
823 Clear 21 1018 40 6000 1.54 240 09:36 01.12.2022
824 Clear 17 1017 55 10000 2.06 90 00:18 01.12.2022
825 Clear 18 1017 55 10000 1.54 90 22:37 30.11.2022
826 Clear 19 1016 55 10000 3.6 80 21:19 30.11.2022
827 Clear 20 1016 52 10000 3.6 80 20:45 30.11.2022
828 Clear 20 1016 52 10000 3.6 80 20:22 30.11.2022
829 Clear 21 1016 46 10000 3.6 60 18:33 30.11.2022
830 Clear 22 1016 43 6000 2.57 40 17:36 30.11.2022
831 Clear 23 1014 40 6000 3.09 350 16:19 30.11.2022
832 Clouds 25 1014 31 10000 1.03 140 14:27 30.11.2022
833 Clouds 25 1014 31 10000 1.54 30 13:48 30.11.2022
834 Clear 23 1015 38 10000 1.54 70 10:42 30.11.2022
835 Clear 20 1016 52 10000 2.57 70 08:39 30.11.2022
836 Clear 18 1015 59 10000 1.54 40 07:57 30.11.2022
837 Clear 17 1014 55 10000 0 0 23:39 29.11.2022
838 Clear 18 1014 55 10000 1.54 80 22:51 29.11.2022
839 Clear 18 1014 52 10000 0 0 21:36 29.11.2022
840 Clouds 19 1013 48 6000 2.06 100 20:37 29.11.2022
841 Clouds 20 1013 45 6000 1.54 100 19:18 29.11.2022
842 Clouds 21 1012 43 6000 3.09 360 17:36 29.11.2022
843 Clouds 22 1012 40 6000 1.54 350 16:26 29.11.2022
844 Clouds 23 1011 35 10000 1.54 350 14:50 29.11.2022
845 Clouds 23 1011 35 10000 2.57 290 13:35 29.11.2022
846 Clear 23 1012 35 6000 1.54 300 11:57 29.11.2022
847 Clear 22 1012 37 6000 3.09 240 11:24 29.11.2022
848 Clear 21 1012 40 6000 3.6 250 10:22 29.11.2022
849 Clear 18 1013 52 6000 3.09 220 08:42 29.11.2022
850 Haze 17 1010 55 3000 0 0 01:30 29.11.2022
851 Clouds 17 1010 55 10000 1.54 210 23:35 28.11.2022
852 Clouds 18 1010 55 10000 1.54 210 22:57 28.11.2022
853 Clouds 18 1010 55 10000 2.06 210 21:54 28.11.2022
854 Clouds 19 1010 52 10000 2.06 210 21:36 28.11.2022
855 Clouds 19 1010 52 10000 3.09 220 19:41 28.11.2022
856 Clouds 20 1010 42 10000 3.6 220 18:30 28.11.2022
857 Clouds 20 1009 42 10000 2.57 200 17:51 28.11.2022
858 Clouds 20 1009 42 10000 2.57 210 16:57 28.11.2022
859 Clouds 21 1008 43 10000 4.12 210 14:28 28.11.2022
860 Clouds 22 1008 37 10000 5.14 210 13:52 28.11.2022
861 Clouds 22 1008 37 10000 4.63 220 12:42 28.11.2022
862 Clouds 21 1009 56 6000 3.09 300 10:29 28.11.2022
863 Clouds 18 1009 55 6000 0 0 07:52 28.11.2022
864 Mist 14 1009 88 3000 2.06 80 04:44 28.11.2022
865 Clear 15 1010 77 10000 0 0 03:59 28.11.2022
866 Clear 15 1011 77 10000 0 0 03:19 28.11.2022
867 Clouds 17 1012 67 10000 0 0 22:53 27.11.2022
868 Clouds 17 1012 72 10000 0 0 21:43 27.11.2022
869 Clouds 18 1012 68 6000 2.57 70 20:34 27.11.2022
870 Clouds 19 1013 63 6000 3.6 40 17:56 27.11.2022
871 Clear 20 1012 56 10000 4.63 10 15:35 27.11.2022
872 Clear 20 1013 49 10000 5.14 10 13:33 27.11.2022
873 Clear 20 1014 49 10000 2.57 60 10:57 27.11.2022
874 Clear 18 1016 59 10000 1.54 20 08:47 27.11.2022
875 Clear 15 1016 63 10000 0 0 04:22 27.11.2022
876 Clear 17 1018 55 10000 1.54 70 22:34 26.11.2022
877 Clouds 18 1018 52 10000 2.06 80 20:51 26.11.2022
878 Clouds 19 1018 48 10000 3.09 20 19:29 26.11.2022
879 Clouds 20 1018 52 10000 2.57 360 17:56 26.11.2022
880 Clouds 21 1018 46 10000 3.09 330 15:53 26.11.2022
881 Clouds 21 1017 46 10000 3.6 340 13:35 26.11.2022
882 Clouds 21 1018 49 10000 3.6 300 12:23 26.11.2022
883 Clouds 20 1019 56 10000 2.57 350 10:51 26.11.2022
884 Clouds 20 1019 56 10000 3.09 360 09:31 26.11.2022
885 Clouds 18 1019 63 10000 2.06 240 06:41 26.11.2022
886 Clear 19 1017 55 10000 4.12 260 21:47 25.11.2022
887 Clear 19 1017 55 10000 4.12 280 21:27 25.11.2022
888 Clear 20 1016 52 10000 4.63 280 19:57 25.11.2022
889 Clouds 23 1014 46 10000 5.14 300 16:50 25.11.2022
890 Clouds 24 1014 33 10000 7.2 280 14:37 25.11.2022
891 Clear 20 1015 60 10000 5.66 220 09:24 25.11.2022
892 Clear 19 1015 55 10000 5.14 220 08:41 25.11.2022
893 Clouds 18 1014 55 10000 4.63 210 06:55 25.11.2022
894 Clouds 18 1014 55 10000 4.12 220 06:26 25.11.2022
895 Clear 20 1012 37 10000 5.14 230 23:57 24.11.2022
896 Clear 20 1013 37 10000 5.14 240 22:51 24.11.2022
897 Clear 20 1012 34 10000 5.14 240 21:59 24.11.2022
898 Clear 20 1012 28 10000 4.63 240 20:45 24.11.2022
899 Clear 21 1012 28 10000 4.12 250 19:20 24.11.2022
900 Clear 22 1012 26 10000 3.6 260 17:43 24.11.2022
901 Clear 22 1012 26 10000 3.6 260 17:20 24.11.2022
902 Clear 24 1012 23 10000 5.66 260 15:24 24.11.2022
903 Clear 24 1011 25 10000 7.2 250 13:55 24.11.2022
904 Clear 23 1012 38 10000 4.63 230 11:58 24.11.2022
905 Clear 22 1013 40 10000 4.12 220 10:37 24.11.2022
906 Haze 19 1014 63 4000 4.12 220 07:54 24.11.2022
907 Haze 18 1013 77 4000 0 0 03:23 24.11.2022
908 Clouds 19 1014 72 6000 2.06 340 23:46 23.11.2022
909 Clouds 20 1015 68 6000 3.6 330 21:58 23.11.2022
910 Clouds 20 1015 68 6000 2.57 340 21:25 23.11.2022
911 Clouds 20 1015 68 6000 2.06 330 20:45 23.11.2022
912 Clouds 21 1014 60 6000 2.57 310 19:27 23.11.2022
913 Clouds 21 1014 60 6000 2.57 310 19:27 23.11.2022
914 Clouds 21 1014 60 6000 2.57 310 19:27 23.11.2022
915 Clouds 22 1014 56 10000 3.09 330 18:41 23.11.2022
916 Clouds 23 1013 49 10000 4.12 360 16:42 23.11.2022
917 Clouds 24 1013 50 10000 3.6 10 13:40 23.11.2022
918 Clouds 24 1013 50 10000 3.6 10 13:21 23.11.2022
919 Clouds 23 1014 53 10000 3.09 10 12:21 23.11.2022
920 Clouds 23 1015 53 10000 3.09 30 11:41 23.11.2022
921 Clouds 22 1016 60 10000 4.12 10 10:43 23.11.2022
922 Clouds 21 1017 68 10000 3.6 20 09:44 23.11.2022
923 Clouds 20 1017 73 10000 3.6 10 09:25 23.11.2022
924 Clouds 19 1018 77 10000 1.54 70 08:37 23.11.2022
925 Clear 16 1017 88 6000 0 0 05:22 23.11.2022
926 Clear 17 1017 82 6000 1.54 100 04:32 23.11.2022
927 Clear 19 1018 77 6000 2.06 30 23:24 22.11.2022
928 Clear 19 1018 77 6000 1.54 70 22:33 22.11.2022
929 Clear 20 1018 68 6000 3.09 60 21:34 22.11.2022
930 Clouds 20 1018 68 6000 3.6 40 20:49 22.11.2022
931 Clouds 21 1018 64 6000 4.12 40 19:57 22.11.2022
932 Clouds 22 1018 53 6000 3.6 20 17:56 22.11.2022
933 Clouds 23 1017 46 6000 4.12 10 17:26 22.11.2022
934 Clouds 23 1017 46 6000 4.12 10 17:26 22.11.2022
935 Clouds 24 1017 46 6000 3.6 350 15:53 22.11.2022
936 Clouds 25 1016 47 6000 4.63 360 13:44 22.11.2022
937 Clouds 23 1017 56 6000 4.12 10 11:52 22.11.2022
938 Mist 21 1018 73 4000 1.54 330 09:25 22.11.2022
939 Mist 19 1018 82 3000 0 0 07:55 22.11.2022
940 Mist 20 1016 77 2000 0 0 01:50 22.11.2022
941 Haze 20 1016 77 2000 1.54 350 23:41 21.11.2022
942 Haze 20 1016 73 2000 0 0 22:49 21.11.2022
943 Haze 21 1016 73 4000 1.54 340 21:59 21.11.2022
944 Haze 21 1016 68 4000 2.57 360 20:56 21.11.2022
945 Haze 22 1015 53 4000 0 0 19:42 21.11.2022
946 Clouds 23 1015 49 6000 0 0 18:54 21.11.2022
947 Clouds 23 1015 49 6000 0 0 18:34 21.11.2022
948 Clouds 24 1015 46 6000 2.57 320 16:56 21.11.2022
949 Clouds 25 1014 44 6000 3.09 320 16:37 21.11.2022
950 Clouds 25 1014 44 8000 2.57 320 15:50 21.11.2022
951 Clear 26 1014 44 10000 2.57 330 14:55 21.11.2022
952 Clear 26 1014 41 10000 3.09 320 13:44 21.11.2022
953 Clouds 24 1016 46 6000 2.06 270 11:39 21.11.2022
954 Haze 21 1017 64 4000 2.06 250 09:19 21.11.2022
955 Mist 17 1016 77 2000 3.09 90 07:42 21.11.2022
956 Clear 19 1017 68 10000 1.54 70 22:43 20.11.2022
957 Clear 20 1018 60 10000 1.54 90 21:36 20.11.2022
958 Clear 21 1018 56 10000 3.09 50 20:33 20.11.2022
959 Clear 22 1018 49 10000 3.6 30 18:46 20.11.2022
960 Clear 25 1017 36 10000 5.14 360 16:46 20.11.2022
961 Clear 26 1017 24 10000 4.63 30 15:30 20.11.2022
962 Clear 27 1017 24 10000 4.63 10 14:54 20.11.2022
963 Clear 26 1018 25 10000 5.66 10 13:34 20.11.2022
964 Clouds 26 1018 27 10000 3.6 10 12:44 20.11.2022
965 Clouds 26 1019 27 10000 5.14 70 11:31 20.11.2022
966 Clouds 25 1019 31 10000 5.14 70 10:51 20.11.2022
967 Clouds 22 1020 56 6000 2.57 60 09:29 20.11.2022
968 Clouds 20 1020 68 6000 2.57 60 08:47 20.11.2022
969 Mist 18 1021 94 3000 2.06 20 07:30 20.11.2022
970 Mist 17 1020 94 4000 0 0 05:23 20.11.2022
971 Clear 18 1022 88 10000 0 0 01:23 20.11.2022
972 Clear 18 1022 88 10000 0 0 00:42 20.11.2022
973 Clear 19 1022 82 10000 0 0 00:24 20.11.2022
974 Clear 19 1022 82 10000 0 0 23:53 19.11.2022
975 Clear 19 1022 82 10000 1.54 70 23:25 19.11.2022
976 Clear 19 1022 82 10000 1.54 70 22:41 19.11.2022
977 Clear 19 1022 82 10000 1.54 70 22:41 19.11.2022
978 Clear 20 1023 77 10000 2.57 60 21:36 19.11.2022
979 Clear 20 1023 77 10000 2.57 60 21:18 19.11.2022
980 Clear 21 1022 73 10000 4.63 50 20:38 19.11.2022
981 Clear 22 1022 64 10000 4.12 40 19:34 19.11.2022
982 Clear 23 1021 56 10000 5.66 30 17:41 19.11.2022
983 Clear 24 1021 46 10000 4.63 30 17:23 19.11.2022
984 Clear 25 1020 33 10000 4.63 40 16:28 19.11.2022
985 Clear 26 1020 31 10000 5.14 50 14:40 19.11.2022
986 Clear 25 1020 31 10000 5.66 40 12:42 19.11.2022
987 Clear 24 1021 43 10000 4.63 30 11:19 19.11.2022
988 Clear 23 1022 53 10000 4.12 50 09:32 19.11.2022
989 Clear 19 1022 77 10000 3.09 70 07:52 19.11.2022
990 Clear 17 1020 82 10000 2.06 80 04:43 19.11.2022
991 Clear 19 1019 63 10000 2.57 100 00:30 19.11.2022
992 Clear 19 1020 59 10000 3.6 110 23:26 18.11.2022
993 Clear 19 1020 52 10000 2.57 100 22:18 18.11.2022
994 Clear 19 1020 52 10000 2.57 100 22:18 18.11.2022
995 Clear 19 1020 52 10000 2.06 90 22:18 18.11.2022
996 Clear 20 1020 45 10000 2.06 80 21:34 18.11.2022
997 Clear 20 1020 49 10000 1.54 70 20:55 18.11.2022
998 Clear 21 1020 46 10000 2.06 90 19:47 18.11.2022
999 Clear 22 1019 43 10000 1.03 60 19:22 18.11.2022
1000 Clear 23 1018 38 10000 2.57 10 17:45 18.11.2022
1001 Clear 24 1017 35 10000 4.12 330 14:44 18.11.2022
1002 Clear 23 1019 40 10000 1.54 10 11:48 18.11.2022
1003 Clear 22 1020 49 10000 0 0 09:35 18.11.2022
1004 Clear 19 1020 63 10000 1.54 80 07:52 18.11.2022
1005 Clear 17 1018 67 10000 0 0 05:26 18.11.2022
1006 Clear 17 1018 63 10000 0 0 01:57 18.11.2022
1007 Clear 19 1018 59 10000 0 0 22:51 17.11.2022
1008 Clear 20 1018 56 10000 1.54 100 20:47 17.11.2022
1009 Clouds 20 1018 56 6000 1.54 100 19:51 17.11.2022
1010 Clouds 21 1018 52 6000 1.54 30 19:18 17.11.2022
1011 Clouds 22 1017 49 6000 1.54 30 18:27 17.11.2022
1012 Clouds 22 1017 49 10000 1.54 330 16:54 17.11.2022
1013 Clouds 23 1016 43 10000 2.06 340 15:21 17.11.2022
1014 Clouds 22 1017 49 10000 2.06 330 11:44 17.11.2022
1015 Clouds 21 1018 56 6000 2.06 310 10:28 17.11.2022
1016 Haze 16 1018 77 3000 0 0 06:19 17.11.2022
1017 Clear 18 1016 63 6000 0 0 00:50 17.11.2022
1018 Clear 19 1017 63 6000 0 0 22:38 16.11.2022
1019 Haze 19 1017 63 4000 1.54 10 21:41 16.11.2022
1020 Clouds 20 1016 60 6000 2.57 340 20:19 16.11.2022
1021 Clouds 22 1016 43 6000 3.6 310 18:48 16.11.2022
1022 Clouds 22 1016 40 10000 1.54 320 17:57 16.11.2022
1023 Clouds 23 1015 33 10000 3.09 300 14:41 16.11.2022
1024 Clouds 21 1016 49 10000 3.6 270 10:53 16.11.2022
1025 Haze 17 1017 72 4000 0 0 06:48 16.11.2022
1026 Clear 17 1017 72 6000 0 0 01:34 16.11.2022
1027 Clouds 19 1017 63 6000 2.06 360 22:54 15.11.2022
1028 Clouds 19 1017 63 6000 1.54 340 21:23 15.11.2022
1029 Clouds 20 1017 60 10000 2.06 350 19:42 15.11.2022
1030 Clouds 20 1017 60 10000 3.09 330 18:51 15.11.2022
1031 Clouds 22 1017 46 10000 3.09 310 17:35 15.11.2022
1032 Clouds 22 1016 43 10000 2.57 300 16:20 15.11.2022
1033 Clouds 23 1016 40 10000 3.09 300 15:22 15.11.2022
1034 Clouds 22 1017 40 10000 4.12 320 13:43 15.11.2022
1035 Clouds 23 1017 38 10000 3.6 290 12:54 15.11.2022
1036 Clouds 22 1017 46 10000 3.09 320 11:21 15.11.2022
1037 Clear 20 1019 56 10000 2.06 300 09:28 15.11.2022
1038 Haze 19 1018 63 5000 0 0 00:42 15.11.2022
1039 Haze 19 1018 63 5000 0 0 00:22 15.11.2022
1040 Haze 20 1019 56 3000 2.57 340 21:52 14.11.2022
1041 Clear 20 1019 56 6000 2.06 360 20:44 14.11.2022
1042 Clouds 21 1019 56 6000 4.12 350 19:19 14.11.2022
1043 Clouds 22 1018 53 6000 3.6 360 18:21 14.11.2022
1044 Clouds 24 1017 50 10000 4.63 330 12:55 14.11.2022
1045 Clouds 24 1017 50 10000 5.66 10 11:46 14.11.2022
1046 Clouds 23 1018 56 6000 3.6 350 10:57 14.11.2022
1047 Mist 20 1019 77 3000 3.09 340 08:30 14.11.2022
1048 Mist 19 1019 82 2000 1.54 360 07:52 14.11.2022
1049 Mist 20 1018 83 2000 2.06 350 01:24 14.11.2022
1050 Mist 21 1019 78 2000 2.57 350 22:47 13.11.2022
1051 Clouds 22 1019 73 6000 3.09 350 21:40 13.11.2022
1052 Clouds 22 1019 73 10000 3.6 360 20:45 13.11.2022
1053 Clouds 23 1019 68 10000 4.63 10 18:36 13.11.2022
1054 Clouds 23 1018 68 10000 5.14 20 17:49 13.11.2022
1055 Clouds 26 1018 41 10000 5.66 10 15:40 13.11.2022
1056 Clouds 26 1017 44 10000 6.17 10 14:31 13.11.2022
1057 Clouds 27 1018 41 10000 4.12 320 12:56 13.11.2022
1058 Clouds 24 1019 60 6000 4.12 320 11:35 13.11.2022
1059 Clouds 24 1019 60 6000 4.63 10 10:36 13.11.2022
1060 Mist 17 1020 88 3000 0 0 05:53 13.11.2022
1061 Haze 20 1020 77 4000 1.54 340 23:54 12.11.2022
1062 Clouds 21 1020 73 10000 2.57 350 21:40 12.11.2022
1063 Clouds 21 1020 73 10000 2.57 360 20:54 12.11.2022
1064 Clouds 23 1019 56 10000 3.09 360 18:59 12.11.2022
1065 Clouds 24 1019 46 10000 5.14 10 16:55 12.11.2022
1066 Clouds 25 1018 44 10000 5.14 360 15:55 12.11.2022
1067 Clouds 26 1018 41 10000 4.12 10 14:25 12.11.2022
1068 Clear 22 1020 64 6000 2.06 350 09:41 12.11.2022
1069 Clear 22 1020 64 6000 2.06 350 09:41 12.11.2022
1070 Clear 19 1019 77 6000 0 0 07:48 12.11.2022
1071 Haze 19 1019 68 4000 1.54 360 23:50 11.11.2022
1072 Clear 21 1019 60 10000 2.57 20 20:57 11.11.2022
1073 Clear 21 1019 60 10000 2.57 20 20:34 11.11.2022
1074 Clear 21 1019 60 10000 3.09 30 19:27 11.11.2022
1075 Clear 22 1019 56 10000 4.12 20 18:33 11.11.2022
1076 Clouds 23 1019 49 10000 6.17 10 17:40 11.11.2022
1077 Clouds 23 1019 49 10000 6.17 10 17:40 11.11.2022
1078 Clouds 23 1019 49 10000 6.17 10 17:40 11.11.2022
1079 Clouds 23 1019 49 10000 6.17 10 17:40 11.11.2022
1080 Clouds 23 1019 49 10000 6.17 10 17:40 11.11.2022
1081 Clouds 25 1018 38 10000 5.66 10 14:51 11.11.2022
1082 Clouds 25 1018 44 10000 5.66 10 13:56 11.11.2022
1083 Clouds 24 1018 43 10000 6.69 10 12:45 11.11.2022
1084 Clear 22 1020 60 10000 4.63 40 09:32 11.11.2022
1085 Clear 22 1020 60 10000 4.63 40 09:32 11.11.2022
1086 Clear 20 1020 68 10000 2.57 10 08:26 11.11.2022
1087 Clear 18 1019 77 10000 1.54 90 00:40 11.11.2022
1088 Clear 19 1019 72 10000 1.54 90 22:54 10.11.2022
1089 Clear 20 1019 68 10000 1.54 60 21:51 10.11.2022
1090 Clear 21 1019 64 10000 2.57 40 21:28 10.11.2022
1091 Clear 21 1019 64 10000 3.6 30 20:46 10.11.2022
1092 Clear 20 1018 64 10000 3.09 20 20:20 10.11.2022
1093 Clear 20 1018 64 10000 3.09 20 20:20 10.11.2022
1094 Clouds 22 1018 46 6000 3.09 10 18:59 10.11.2022
1095 Clouds 23 1017 46 10000 2.57 350 17:59 10.11.2022
1096 Clouds 23 1017 43 10000 4.12 20 16:25 10.11.2022
1097 Clouds 24 1016 38 10000 2.57 20 13:40 10.11.2022
1098 Clouds 23 1017 46 6000 1.54 50 11:29 10.11.2022
1099 Haze 20 1018 60 3000 0 0 08:21 10.11.2022
1100 Clouds 18 1016 72 6000 0 0 01:27 10.11.2022
1101 Haze 19 1017 63 4000 0 0 23:21 09.11.2022
1102 Clouds 20 1017 60 6000 1.54 350 22:28 09.11.2022
1103 Clouds 20 1017 60 10000 2.57 360 20:48 09.11.2022
1104 Clouds 21 1017 60 10000 2.06 150 20:29 09.11.2022
1105 Clouds 21 1016 60 10000 2.57 360 19:32 09.11.2022
1106 Clouds 21 1016 60 10000 2.57 340 18:49 09.11.2022
1107 Clouds 24 1015 41 10000 4.63 320 15:55 09.11.2022
1108 Clouds 24 1015 35 10000 4.12 300 14:45 09.11.2022
1109 Clouds 24 1015 35 10000 4.63 300 14:23 09.11.2022
1110 Clouds 24 1015 35 10000 3.09 330 13:18 09.11.2022
1111 Clouds 23 1016 49 10000 3.6 330 11:36 09.11.2022
1112 Clear 21 1017 64 6000 2.57 320 08:35 09.11.2022
1113 Haze 19 1017 72 4000 2.06 300 07:42 09.11.2022
1114 Haze 20 1016 68 4000 2.06 360 23:53 08.11.2022
1115 Clouds 21 1016 64 6000 2.06 360 21:44 08.11.2022
1116 Clouds 21 1016 64 6000 1.54 350 21:26 08.11.2022
1117 Clouds 21 1016 64 6000 2.57 360 20:41 08.11.2022
1118 Clouds 22 1016 60 10000 3.09 360 19:37 08.11.2022
1119 Clouds 23 1015 56 10000 2.57 340 18:31 08.11.2022
1120 Clouds 23 1015 49 10000 3.09 310 16:47 08.11.2022
1121 Clouds 25 1014 38 10000 4.63 290 14:56 08.11.2022
1122 Clouds 25 1014 38 10000 4.12 270 13:41 08.11.2022
1123 Clouds 25 1014 38 10000 4.12 310 13:22 08.11.2022
1124 Clouds 22 1016 60 10000 3.6 250 09:20 08.11.2022
1125 Rain 20 1016 73 10000 3.09 220 07:25 08.11.2022
1126 Clear 21 1014 64 10000 3.6 250 00:33 08.11.2022
1127 Clear 22 1014 53 10000 4.12 270 22:25 07.11.2022
1128 Clear 22 1015 53 10000 2.57 280 21:22 07.11.2022
1129 Clear 23 1014 43 10000 3.6 290 20:40 07.11.2022
1130 Clear 23 1014 38 10000 3.6 260 18:53 07.11.2022
1131 Clear 25 1013 29 10000 4.63 290 17:28 07.11.2022
1132 Clear 27 1013 26 10000 6.17 270 15:35 07.11.2022
1133 Clear 27 1013 24 10000 6.69 240 14:48 07.11.2022
1134 Clear 27 1014 24 10000 5.14 210 12:38 07.11.2022
1135 Clear 26 1015 27 10000 5.14 210 11:44 07.11.2022
1136 Clear 25 1016 29 10000 6.17 210 09:49 07.11.2022
1137 Clear 22 1016 40 10000 5.66 190 07:53 07.11.2022
1138 Clear 20 1015 45 10000 3.09 200 06:25 07.11.2022
1139 Clear 20 1016 49 10000 2.57 170 01:42 07.11.2022
1140 Clear 21 1017 46 10000 0 0 22:31 06.11.2022
1141 Clear 21 1017 46 10000 2.06 120 21:21 06.11.2022
1142 Clouds 22 1017 43 6000 0 0 20:32 06.11.2022
1143 Clouds 22 1017 43 6000 0 0 19:55 06.11.2022
1144 Clouds 23 1016 40 6000 0 0 18:41 06.11.2022
1145 Clouds 23 1016 40 6000 0 0 18:20 06.11.2022
1146 Clouds 24 1016 38 6000 1.54 350 17:22 06.11.2022
1147 Clouds 24 1015 38 6000 2.06 330 16:40 06.11.2022
1148 Clouds 24 1015 38 6000 3.09 310 15:53 06.11.2022
1149 Clouds 25 1015 38 6000 2.57 300 14:36 06.11.2022
1150 Clouds 25 1015 36 10000 1.54 310 12:42 06.11.2022
1151 Clouds 23 1017 46 10000 1.54 60 10:48 06.11.2022
1152 Clouds 23 1017 46 10000 1.54 90 09:51 06.11.2022
1153 Clear 18 1017 72 10000 0 0 06:40 06.11.2022
1154 Clear 20 1017 60 10000 1.54 60 23:22 05.11.2022
1155 Clouds 22 1017 53 6000 2.57 40 19:59 05.11.2022
1156 Clouds 23 1016 40 10000 2.06 350 18:21 05.11.2022
1157 Clouds 24 1015 35 10000 3.09 340 16:23 05.11.2022
1158 Clouds 25 1015 36 10000 4.63 320 14:34 05.11.2022
1159 Clouds 25 1016 38 10000 3.09 330 13:21 05.11.2022
1160 Clouds 24 1017 41 10000 2.57 30 10:43 05.11.2022
1161 Clear 22 1018 60 10000 1.54 50 08:49 05.11.2022
1162 Clear 19 1018 72 10000 0 0 07:22 05.11.2022
1163 Clear 19 1017 72 10000 0 0 06:54 05.11.2022
1164 Clouds 20 1017 68 10000 1.54 70 23:36 04.11.2022
1165 -273 0 0 0 0 0 22:44 04.11.2022
1166 Clouds 22 1017 60 10000 4.63 50 20:31 04.11.2022
1167 -273 0 0 0 0 0 20:30 04.11.2022
1168 Clouds 22 1017 60 10000 4.63 50 20:30 04.11.2022
1169 Clouds 22 1017 60 10000 4.63 50 20:29 04.11.2022
1170 Clouds 24 1016 41 10000 3.6 360 17:56 04.11.2022
1171 Clouds 24 1016 41 10000 2.57 350 17:21 04.11.2022
1172 Clouds 25 1015 44 10000 4.63 30 13:47 04.11.2022
1173 Clouds 25 1016 44 10000 3.6 10 12:27 04.11.2022
1174 Clouds 24 1017 60 10000 4.63 20 10:40 04.11.2022
1175 Clear 20 1018 77 6000 1.54 360 08:45 04.11.2022
1176 Clear 20 1018 77 6000 2.06 10 07:43 04.11.2022
1177 Clear 20 1018 77 6000 2.06 10 07:43 04.11.2022
1178 Clouds 18 1017 88 6000 1.54 90 05:20 04.11.2022
1179 Clear 21 1018 73 10000 1.54 30 23:26 03.11.2022
1180 Clear 22 1018 68 10000 3.09 50 20:51 03.11.2022
1181 Clear 22 1018 68 10000 3.6 40 20:28 03.11.2022
1182 Clouds 23 1018 56 6000 4.63 40 19:29 03.11.2022
1183 Clouds 25 1017 47 6000 2.06 340 17:49 03.11.2022
1184 Clouds 25 1017 47 10000 3.6 360 16:53 03.11.2022
1185 Clouds 26 1017 41 10000 3.6 20 14:20 03.11.2022
1186 Clouds 25 1017 47 10000 3.09 10 12:39 03.11.2022
1187 Clouds 25 1018 53 6000 3.09 360 11:51 03.11.2022
1188 Mist 22 1019 68 4000 2.57 350 09:43 03.11.2022
1189 Mist 20 1019 77 2000 0 0 07:43 03.11.2022
1190 Haze 21 1019 64 4000 1.54 360 21:37 02.11.2022
1191 Haze 21 1019 64 4000 2.57 350 20:44 02.11.2022
1192 Clouds 22 1018 56 6000 3.6 350 19:59 02.11.2022
1193 Clouds 24 1017 43 10000 3.09 330 17:29 02.11.2022
1194 Clouds 24 1017 41 10000 3.6 310 16:22 02.11.2022
1195 Clouds 25 1016 41 10000 3.6 310 14:58 02.11.2022
1196 Clouds 25 1017 41 10000 3.6 330 12:45 02.11.2022
1197 Clouds 24 1017 46 10000 2.57 340 11:55 02.11.2022
1198 Haze 21 1019 68 4000 2.57 320 09:22 02.11.2022
1199 Mist 18 1018 82 4000 0 0 05:36 02.11.2022
1200 Clouds 19 1018 68 10000 0 0 00:55 02.11.2022
1201 Clouds 20 1018 64 10000 0 0 22:20 01.11.2022
1202 Clouds 20 1018 64 10000 0 0 21:42 01.11.2022
1203 Clouds 20 1018 64 10000 2.06 150 20:27 01.11.2022
1204 Clouds 20 1018 68 10000 1.54 130 19:57 01.11.2022
1205 Clouds 20 1018 64 6000 3.6 20 19:39 01.11.2022
1206 Clouds 22 1017 56 10000 2.06 30 17:36 01.11.2022
1207 Clouds 22 1016 56 6000 7.72 280 16:22 01.11.2022
1208 Rain 24 1016 43 8000 5.66 170 14:33 01.11.2022
1209 Clouds 26 1016 34 10000 1.54 270 12:31 01.11.2022
1210 Clouds 26 1017 34 10000 1.54 20 11:38 01.11.2022
1211 Clouds 26 1017 34 10000 1.54 20 11:20 01.11.2022
1212 Clear 24 1018 46 10000 1.54 60 08:46 01.11.2022
1213 Clear 20 1017 73 10000 0 0 07:48 01.11.2022
1214 Clear 20 1017 73 10000 0 0 07:26 01.11.2022
1215 Clear 20 1017 73 10000 0 0 06:45 01.11.2022
1216 Clear 20 1016 73 10000 1.03 50 03:57 01.11.2022
1217 Clouds 22 1016 64 10000 1.54 70 22:22 31.10.2022
1218 Clouds 22 1017 60 10000 2.57 80 21:26 31.10.2022
1219 Clouds 24 1016 41 10000 1.54 100 19:56 31.10.2022
1220 Clouds 25 1016 36 10000 1.54 50 18:35 31.10.2022
1221 Clouds 26 1015 34 10000 3.6 10 16:44 31.10.2022
1222 Clouds 27 1015 29 10000 2.57 310 14:30 31.10.2022
1223 Clouds 27 1015 34 10000 2.06 330 12:18 31.10.2022
1224 Clear 24 1017 43 10000 2.57 340 09:34 31.10.2022
1225 Clouds 19 1016 82 6000 0 0 05:40 31.10.2022
1226 Clouds 20 1016 77 6000 0 0 02:34 31.10.2022
1227 Clouds 20 1016 77 6000 0 0 01:45 31.10.2022
1228 Clouds 22 1016 68 6000 2.57 10 21:51 30.10.2022
1229 Clouds 23 1016 60 6000 4.12 360 20:37 30.10.2022
1230 Clouds 24 1015 46 6000 1.54 350 19:31 30.10.2022
1231 Clouds 26 1014 44 10000 4.12 310 16:28 30.10.2022
1232 Clouds 26 1014 47 10000 3.6 290 14:23 30.10.2022
1233 Clouds 26 1014 47 10000 2.57 270 13:33 30.10.2022
1234 Clouds 25 1015 57 6000 2.06 280 11:58 30.10.2022
1235 Clouds 22 1016 73 6000 2.57 290 09:56 30.10.2022
1236 Clouds 22 1016 73 6000 2.57 290 08:54 30.10.2022
1237 Mist 20 1016 77 3000 2.06 310 07:27 30.10.2022
1238 Dust 21 1015 78 4000 3.09 350 00:29 30.10.2022
1239 Dust 21 1015 78 4000 2.57 340 23:45 29.10.2022
1240 Dust 23 1015 68 10000 3.09 350 21:45 29.10.2022
1241 Clouds 25 1014 53 6000 4.12 350 18:38 29.10.2022
1242 Clouds 26 1013 47 10000 4.12 340 17:22 29.10.2022
1243 Clouds 27 1013 44 10000 3.6 340 15:38 29.10.2022
1244 Clouds 26 1013 47 10000 3.6 340 14:52 29.10.2022
1245 Clouds 25 1014 57 10000 3.09 330 12:36 29.10.2022
1246 Clouds 25 1014 57 10000 3.6 360 11:58 29.10.2022
1247 Mist 19 1015 88 4000 2.06 350 07:39 29.10.2022
1248 Mist 19 1015 82 3000 2.57 360 06:48 29.10.2022
1249 Mist 20 1015 77 3000 1.54 10 05:53 29.10.2022
1250 Clear 22 1017 68 10000 2.57 20 23:43 28.10.2022
1251 Clear 23 1017 64 10000 4.12 10 21:31 28.10.2022
1252 Clear 25 1016 44 10000 5.66 20 19:46 28.10.2022
1253 Clear 26 1016 41 10000 5.14 10 18:32 28.10.2022
1254 Clouds 28 1015 39 10000 5.66 10 17:39 28.10.2022
1255 Clouds 28 1015 39 10000 5.66 360 14:51 28.10.2022
1256 Clouds 28 1016 42 10000 5.14 30 13:43 28.10.2022
1257 Clouds 26 1017 53 10000 4.63 360 11:55 28.10.2022
1258 Clouds 25 1017 61 10000 3.6 10 11:32 28.10.2022
1259 Clear 25 1018 61 6000 3.6 60 10:45 28.10.2022
1260 Clear 23 1018 83 6000 2.57 10 09:36 28.10.2022
1261 Clouds 21 1017 88 6000 0 0 06:57 28.10.2022
1262 Clouds 22 1018 83 6000 1.54 50 01:44 28.10.2022
1263 Clouds 23 1018 78 6000 2.06 60 23:46 27.10.2022
1264 Clouds 23 1018 73 10000 3.09 60 22:32 27.10.2022
1265 Clouds 24 1018 69 10000 5.14 40 20:58 27.10.2022
1266 Clouds 26 1017 57 10000 5.66 50 18:31 27.10.2022
1267 Clouds 28 1017 51 10000 4.63 50 17:22 27.10.2022
1268 Clouds 27 1018 57 10000 3.6 60 12:54 27.10.2022
1269 Mist 21 1018 88 2000 1.54 290 07:50 27.10.2022
1270 Clear 22 1017 83 6000 2.06 300 02:55 27.10.2022
1271 Clear 22 1018 83 6000 2.06 310 23:53 26.10.2022
1272 Clouds 22 1018 78 6000 2.06 300 22:43 26.10.2022
1273 Clouds 23 1017 73 6000 2.06 330 21:38 26.10.2022
1274 Clouds 26 1016 47 10000 2.06 330 18:29 26.10.2022
1275 Clouds 27 1015 50 10000 4.12 300 16:22 26.10.2022
1276 Clouds 26 1015 57 10000 3.6 290 13:34 26.10.2022
1277 Clouds 26 1015 61 10000 3.6 290 12:34 26.10.2022
1278 Mist 22 1016 83 4000 2.57 250 09:20 26.10.2022
1279 Mist 22 1016 78 4000 1.54 250 08:53 26.10.2022
1280 Mist 20 1015 88 4000 1.54 300 07:52 26.10.2022
1281 Rain 22 1015 78 6000 2.06 270 00:40 26.10.2022
1282 Rain 19 1015 68 6000 1.54 230 22:59 25.10.2022
1283 Haze 20 1015 68 4000 1.54 310 21:46 25.10.2022
1284 Rain 16 1014 82 6000 2.06 40 20:46 25.10.2022
1285 Rain 18 1014 72 6000 2.57 300 18:58 25.10.2022
1286 Rain 15 1013 100 2000 3.6 340 17:49 25.10.2022
1287 Rain 25 1013 61 10000 3.6 330 13:40 25.10.2022
1288 Rain 24 1014 64 10000 5.14 360 11:38 25.10.2022
1289 Rain 24 1014 64 10000 5.14 360 11:38 25.10.2022
1290 Rain 24 1015 64 6000 4.12 360 10:36 25.10.2022
1291 Haze 21 1015 73 5000 2.06 340 08:44 25.10.2022
1292 Haze 21 1015 73 5000 2.06 340 08:18 25.10.2022
1293 Haze 20 1015 77 4000 2.57 360 07:54 25.10.2022
1294 Haze 20 1015 73 4000 2.57 340 06:54 25.10.2022
1295 Haze 20 1015 73 4000 2.57 350 03:41 25.10.2022
1296 Clouds 21 1016 68 10000 3.6 350 00:34 25.10.2022
1297 Clouds 22 1016 64 10000 4.12 360 23:21 24.10.2022
1298 Clouds 22 1017 64 10000 3.6 360 22:18 24.10.2022
1299 Clouds 23 1017 60 10000 4.63 10 21:32 24.10.2022
1300 Clouds 23 1017 56 10000 5.66 10 20:41 24.10.2022
1301 Clouds 24 1016 50 10000 6.69 10 18:52 24.10.2022
1302 Clouds 26 1016 41 10000 5.66 360 17:22 24.10.2022
1303 Clouds 26 1016 38 10000 5.66 340 16:20 24.10.2022
1304 Clouds 26 1016 38 10000 4.63 350 14:22 24.10.2022
1305 Clouds 26 1017 38 10000 4.63 360 13:26 24.10.2022
1306 Clouds 24 1019 53 10000 5.14 350 10:40 24.10.2022
1307 Clouds 21 1019 64 6000 2.57 10 07:57 24.10.2022
1308 Haze 21 1019 73 4000 1.54 340 00:49 24.10.2022
1309 Clouds 23 1019 64 6000 3.6 10 20:42 23.10.2022
1310 Clouds 23 1019 60 10000 3.6 10 19:42 23.10.2022
1311 Clouds 24 1018 53 10000 3.6 350 17:42 23.10.2022
1312 Clouds 24 1018 53 10000 3.6 350 17:42 23.10.2022
1313 Clouds 25 1018 50 10000 4.12 350 17:21 23.10.2022
1314 Clouds 26 1018 41 10000 5.66 330 15:19 23.10.2022
1315 Clouds 26 1019 41 10000 4.12 310 12:58 23.10.2022
1316 Clouds 24 1020 60 6000 2.57 280 10:58 23.10.2022
1317 Clouds 21 1019 78 6000 1.54 310 07:53 23.10.2022
1318 Rain 22 1019 68 6000 2.06 360 23:37 22.10.2022
1319 Clouds 23 1019 64 6000 3.09 340 22:31 22.10.2022
1320 Clouds 23 1019 64 6000 4.12 340 21:41 22.10.2022
1321 Clouds 24 1019 60 6000 4.63 340 20:36 22.10.2022
1322 Clouds 24 1018 60 10000 4.12 350 19:32 22.10.2022
1323 Clouds 26 1017 41 10000 3.09 350 18:46 22.10.2022
1324 Clouds 26 1017 44 10000 3.6 340 17:31 22.10.2022
1325 Clouds 27 1016 39 10000 3.6 350 15:26 22.10.2022
1326 Clouds 27 1017 41 10000 3.6 300 14:36 22.10.2022
1327 Clouds 26 1017 47 10000 3.6 310 13:33 22.10.2022
1328 Clear 23 1018 64 10000 1.54 310 09:50 22.10.2022
1329 Clear 23 1018 64 10000 1.54 310 09:18 22.10.2022
1330 Clear 21 1018 73 6000 1.54 300 07:33 22.10.2022
1331 Clear 21 1017 68 6000 2.06 360 02:43 22.10.2022
1332 Clear 22 1017 68 6000 3.09 10 23:44 21.10.2022
1333 Clear 24 1017 60 8000 4.63 340 21:34 21.10.2022
1334 Clear 24 1017 60 8000 4.12 330 20:56 21.10.2022
1335 Clouds 25 1016 57 10000 4.63 340 19:19 21.10.2022
1336 Clouds 27 1014 36 10000 3.09 320 16:51 21.10.2022
1337 Clouds 27 1014 36 10000 4.12 300 13:56 21.10.2022
1338 Clouds 27 1014 41 10000 2.57 350 12:56 21.10.2022
1339 Clouds 24 1016 60 6000 2.06 360 10:40 21.10.2022
1340 Clear 23 1016 68 6000 3.09 10 09:42 21.10.2022
1341 Clear 22 1016 78 6000 0 0 08:37 21.10.2022
1342 Clear 20 1015 83 10000 2.57 350 06:46 21.10.2022
1343 Clear 22 1015 73 10000 1.54 60 00:24 21.10.2022
1344 Clouds 24 1015 64 10000 3.6 40 22:23 20.10.2022
1345 Clouds 24 1015 60 10000 6.69 40 20:35 20.10.2022
1346 Clouds 25 1015 57 10000 6.69 30 19:33 20.10.2022
1347 Clouds 27 1013 39 10000 4.12 360 17:52 20.10.2022
1348 Clouds 28 1013 36 10000 4.12 20 16:30 20.10.2022
1349 Clouds 27 1014 44 10000 3.6 350 12:36 20.10.2022
1350 Clouds 26 1014 50 10000 3.6 20 12:18 20.10.2022
1351 Clouds 24 1016 64 10000 2.57 360 10:59 20.10.2022
1352 Clouds 24 1016 64 10000 3.6 350 10:27 20.10.2022
1353 Mist 22 1016 78 2000 3.09 10 07:45 20.10.2022
1354 Clouds 21 1014 83 6000 2.57 360 05:18 20.10.2022
1355 Clouds 23 1015 73 10000 3.09 10 00:58 20.10.2022
1356 Clouds 24 1015 64 10000 3.09 10 22:45 19.10.2022
1357 Clouds 24 1015 64 10000 4.63 10 21:55 19.10.2022
1358 Clouds 25 1015 61 10000 5.14 360 20:52 19.10.2022
1359 Clouds 27 1014 44 10000 2.57 330 18:36 19.10.2022
1360 Clouds 27 1013 41 10000 1.54 320 17:38 19.10.2022
1361 Clouds 28 1014 39 10000 2.57 340 15:41 19.10.2022
1362 Clouds 27 1014 44 10000 2.06 250 12:58 19.10.2022
1363 Clouds 23 1016 68 6000 2.57 290 09:34 19.10.2022
1364 Haze 22 1016 73 2000 1.03 350 08:29 19.10.2022
1365 Haze 21 1015 73 4000 0 0 05:19 19.10.2022
1366 Haze 23 1016 68 4000 1.03 360 01:25 19.10.2022
1367 Haze 23 1016 64 4000 3.09 360 22:57 18.10.2022
1368 Haze 24 1016 60 4000 4.12 340 21:45 18.10.2022
1369 Clouds 25 1016 53 6000 4.63 310 20:59 18.10.2022
1370 Clouds 26 1016 47 10000 2.57 330 19:51 18.10.2022
1371 Clouds 27 1015 39 10000 2.57 330 17:44 18.10.2022
1372 Clouds 27 1015 39 10000 2.57 310 16:49 18.10.2022
1373 Clouds 27 1016 39 10000 4.63 250 14:26 18.10.2022
1374 Clouds 25 1017 50 10000 4.12 290 12:32 18.10.2022
1375 Clouds 24 1018 53 10000 3.6 270 11:22 18.10.2022
1376 Clouds 23 1018 60 10000 2.57 290 09:45 18.10.2022
1377 Clear 21 1018 73 10000 0 0 07:56 18.10.2022
1378 Clear 22 1017 68 10000 1.54 310 03:19 18.10.2022
1379 Clear 23 1018 68 10000 3.09 300 22:24 17.10.2022
1380 Clouds 24 1018 60 10000 3.09 320 20:55 17.10.2022
1381 Clouds 24 1018 60 10000 3.6 320 20:31 17.10.2022
1382 Clouds 24 1018 60 10000 4.12 320 19:52 17.10.2022
1383 Clouds 26 1017 50 10000 4.12 330 18:52 17.10.2022
1384 Clouds 28 1016 42 10000 5.66 310 16:52 17.10.2022
1385 Clouds 28 1015 42 10000 4.12 280 15:29 17.10.2022
1386 Clouds 28 1015 42 10000 4.12 280 15:29 17.10.2022
1387 Clouds 28 1015 42 10000 4.12 280 15:29 17.10.2022
1388 Clouds 28 1015 42 10000 3.6 300 14:35 17.10.2022
1389 Clouds 25 1016 53 10000 3.6 250 11:52 17.10.2022
1390 Clouds 22 1015 73 10000 2.06 220 06:41 17.10.2022
1391 Clouds 25 1014 57 10000 4.63 280 23:33 16.10.2022
1392 Clouds 25 1014 53 10000 6.17 280 21:58 16.10.2022
1393 Clouds 27 1013 36 10000 3.6 230 20:56 16.10.2022
1394 Clouds 27 1013 36 10000 4.63 250 19:47 16.10.2022
1395 Clouds 28 1012 32 10000 5.66 250 17:58 16.10.2022
1396 Clear 29 1012 26 10000 6.17 240 17:33 16.10.2022
1397 Clear 30 1011 26 10000 7.2 260 15:58 16.10.2022
1398 Clouds 30 1011 26 10000 6.69 230 14:33 16.10.2022
1399 Clouds 29 1012 37 10000 5.14 260 12:23 16.10.2022
1400 Clear 26 1013 44 10000 4.12 260 10:28 16.10.2022
1401 Clear 26 1013 38 10000 3.6 230 08:51 16.10.2022
1402 Haze 26 1010 38 4000 1.03 220 02:24 16.10.2022
1403 Haze 28 1010 36 4000 1.54 200 23:41 15.10.2022
1404 Rain 29 1010 30 10000 4.12 170 21:29 15.10.2022
1405 Rain 29 1010 30 10000 4.63 170 20:57 15.10.2022
1406 Clear 30 1009 26 10000 3.6 190 18:54 15.10.2022
1407 Clear 31 1009 27 10000 4.12 250 15:50 15.10.2022
1408 Clear 31 1009 29 10000 3.6 220 15:31 15.10.2022
1409 Clear 28 1011 39 10000 3.6 220 11:59 15.10.2022
1410 Clear 28 1011 39 10000 3.6 220 11:24 15.10.2022
1411 Clear 25 1011 47 10000 1.03 190 08:55 15.10.2022
1412 Clear 21 1011 64 10000 2.06 110 03:53 15.10.2022
1413 Clear 23 1013 60 10000 2.57 70 00:39 15.10.2022
1414 Clear 24 1014 57 10000 2.06 10 22:25 14.10.2022
1415 Clear 24 1014 57 10000 4.63 20 21:37 14.10.2022
1416 Clear 24 1014 57 10000 4.63 20 21:37 14.10.2022
1417 Clear 25 1013 53 10000 5.14 10 20:27 14.10.2022
1418 Clouds 27 1012 39 10000 3.6 310 17:21 14.10.2022
1419 Clouds 28 1012 39 10000 3.6 340 14:56 14.10.2022
1420 Clouds 27 1013 41 10000 4.63 300 12:45 14.10.2022
1421 Clouds 23 1014 60 10000 1.54 340 10:36 14.10.2022
1422 Clear 22 1015 73 10000 0 0 08:25 14.10.2022
1423 Clear 20 1015 77 10000 0 0 06:18 14.10.2022
1424 Clear 20 1015 73 10000 0 0 05:59 14.10.2022
1425 Clear 20 1015 77 10000 1.03 340 05:41 14.10.2022
1426 Clear 22 1016 68 10000 3.09 310 01:30 14.10.2022
1427 Clear 22 1017 64 10000 2.57 310 23:18 13.10.2022
1428 Clouds 23 1017 56 10000 3.09 340 21:31 13.10.2022
1429 Clouds 24 1016 50 10000 5.66 330 20:20 13.10.2022
1430 Clouds 24 1016 50 10000 5.14 330 19:41 13.10.2022
1431 Clouds 26 1016 41 10000 4.12 320 18:45 13.10.2022
1432 Clouds 27 1015 39 10000 5.66 330 17:52 13.10.2022
1433 Clouds 28 1015 39 10000 4.12 340 15:49 13.10.2022
1434 Clouds 28 1015 42 10000 4.12 350 14:30 13.10.2022
1435 Clouds 28 1015 39 10000 5.14 310 13:49 13.10.2022
1436 Clouds 26 1016 47 10000 3.6 330 11:45 13.10.2022
1437 Clouds 23 1017 68 6000 2.57 340 09:57 13.10.2022
1438 Haze 21 1017 73 4000 2.06 300 08:33 13.10.2022
1439 Clouds 21 1017 78 6000 1.54 10 07:36 13.10.2022
1440 Clouds 21 1016 73 6000 1.03 360 03:37 13.10.2022
1441 Haze 22 1017 73 4000 2.06 360 01:38 13.10.2022
1442 Clouds 23 1017 68 10000 2.06 350 00:21 13.10.2022
1443 Clouds 23 1017 64 10000 2.57 360 22:44 12.10.2022
1444 Clouds 24 1017 60 10000 4.12 10 21:25 12.10.2022
1445 Clouds 24 1017 53 10000 4.12 360 20:55 12.10.2022
1446 Clouds 25 1016 53 10000 6.17 10 20:27 12.10.2022
1447 Clouds 25 1016 53 10000 6.17 10 20:27 12.10.2022
1448 Clouds 25 1016 53 10000 6.17 10 20:27 12.10.2022
1449 Clouds 25 1016 53 10000 6.17 350 19:18 12.10.2022
1450 Clouds 24 1015 53 10000 5.14 350 17:54 12.10.2022
1451 Clouds 28 1015 42 10000 4.63 320 16:30 12.10.2022
1452 Clouds 28 1015 42 10000 3.6 330 14:20 12.10.2022
1453 Clouds 28 1015 42 10000 3.6 330 13:36 12.10.2022
1454 Clouds 26 1017 57 10000 3.6 30 10:57 12.10.2022
1455 Haze 24 1017 69 4000 3.6 350 09:23 12.10.2022
1456 Clouds 22 1017 78 6000 3.6 350 07:41 12.10.2022
1457 Clouds 22 1016 78 10000 2.06 20 06:43 12.10.2022
1458 Clear 22 1016 78 10000 3.09 360 03:59 12.10.2022
1459 Clear 23 1017 73 10000 3.6 360 23:37 11.10.2022
1460 Clouds 26 1017 50 10000 5.66 40 20:59 11.10.2022
1461 Clouds 26 1017 50 10000 5.66 40 20:26 11.10.2022
1462 Clouds 28 1015 42 10000 5.14 30 17:56 11.10.2022
1463 Clouds 29 1015 39 10000 5.14 10 15:37 11.10.2022
1464 Clouds 28 1016 44 10000 5.14 20 13:30 11.10.2022
1465 Clouds 26 1018 53 10000 5.66 30 10:47 11.10.2022
1466 Clouds 26 1018 53 10000 5.66 30 10:26 11.10.2022
1467 Clear 24 1018 60 10000 4.41 24 08:32 11.10.2022
1468 Clear 21 1017 73 10000 3.71 2 02:59 11.10.2022
1469 Clear 21 1018 73 10000 3.94 4 00:39 11.10.2022
1470 Clear 21 1018 73 10000 4.46 9 22:54 10.10.2022
1471 Clear 21 1018 73 10000 5.95 23 20:48 10.10.2022
1472 Clear 21 1018 73 10000 6.87 27 19:40 10.10.2022
1473 Clear 29 1016 35 10000 7.11 22 17:34 10.10.2022
1474 Clear 30 1015 30 10000 5.15 5 16:36 10.10.2022
1475 Clear 30 1016 31 10000 3.57 21 14:22 10.10.2022
1476 Clear 28 1017 38 10000 3.78 13 12:23 10.10.2022
1477 Clear 25 1019 51 10000 3.94 1 10:20 10.10.2022
1478 Clouds 21 1018 73 6000 1.54 10 07:21 10.10.2022
1479 Clouds 21 1017 68 6000 1.54 10 05:37 10.10.2022
1480 Clouds 23 1017 60 10000 0 0 01:58 10.10.2022
1481 Clouds 23 1017 60 10000 0 0 01:58 10.10.2022
1482 Clouds 23 1017 60 10000 0 0 01:58 10.10.2022
1483 Clouds 23 1017 60 10000 0 0 01:58 10.10.2022
1484 Clouds 23 1017 64 10000 1.54 10 00:23 10.10.2022
1485 Clear 24 1017 53 10000 4.65 16 22:27 09.10.2022
1486 Clouds 24 1017 53 10000 3.09 360 21:49 09.10.2022
1487 Clouds 25 1017 47 10000 6.17 350 20:49 09.10.2022
1488 Clouds 26 1016 41 10000 5.66 360 19:52 09.10.2022
1489 Clouds 27 1016 41 10000 5.14 10 18:52 09.10.2022
1490 Clouds 27 1016 41 10000 5.14 10 18:27 09.10.2022
1491 Clouds 28 1015 36 10000 5.14 310 16:56 09.10.2022
1492 Clouds 28 1015 36 10000 5.14 310 16:25 09.10.2022
1493 Clouds 28 1015 34 10000 4.63 290 15:33 09.10.2022
1494 Clouds 27 1015 36 10000 5.14 340 14:28 09.10.2022
1495 Clouds 27 1015 36 10000 5.14 340 14:28 09.10.2022
1496 Clouds 27 1016 36 10000 4.12 340 12:57 09.10.2022
1497 Clouds 27 1016 36 10000 3.6 320 11:42 09.10.2022
1498 Clouds 24 1017 50 10000 3.09 320 09:57 09.10.2022
1499 Clouds 22 1017 64 6000 0 0 07:52 09.10.2022
1500 Clear 22 1015 64 6000 3.5 5 03:33 09.10.2022
1501 Clouds 23 1015 60 6000 2.06 10 02:23 09.10.2022
1502 Clouds 23 1016 60 10000 3.6 10 23:56 08.10.2022
1503 Clear 24 1016 57 10000 4.12 360 22:53 08.10.2022
1504 Clear 24 1016 53 10000 4.63 10 21:43 08.10.2022
1505 Clear 25 1015 50 10000 5.14 360 20:25 08.10.2022
1506 Clouds 27 1014 39 10000 5.66 10 18:32 08.10.2022
1507 Clouds 28 1013 36 10000 3.09 360 15:59 08.10.2022
1508 Clouds 28 1013 36 10000 3.09 300 14:42 08.10.2022
1509 Clouds 27 1014 39 10000 4.63 300 13:20 08.10.2022
1510 Clouds 24 1016 57 10000 2.06 310 10:37 08.10.2022
1511 Clear 23 1016 56 10000 2.57 310 09:55 08.10.2022
1512 Clear 23 1016 56 10000 1.54 310 08:47 08.10.2022
1513 Clear 22 1014 56 10000 2.06 290 03:52 08.10.2022
1514 Clear 23 1015 49 6000 1.54 340 00:37 08.10.2022
1515 Clear 23 1015 49 6000 2.57 20 23:21 07.10.2022
1516 Haze 23 1015 49 4000 3.6 350 22:49 07.10.2022
1517 Clear 24 1015 46 7000 3.09 350 21:29 07.10.2022
1518 Clouds 26 1014 41 10000 3.6 350 19:34 07.10.2022
1519 Clouds 27 1013 39 10000 4.63 350 17:47 07.10.2022
1520 Clouds 27 1013 36 10000 4.63 340 16:41 07.10.2022
1521 Clouds 28 1013 34 10000 3.09 290 14:59 07.10.2022
1522 Clouds 27 1014 36 10000 3.6 310 13:23 07.10.2022
1523 Clear 24 1015 50 10000 1.54 360 10:29 07.10.2022
1524 Clear 23 1016 46 10000 1.54 350 09:24 07.10.2022
1525 Clear 22 1016 56 10000 2.06 330 08:18 07.10.2022
1526 Clear 22 1015 56 10000 2.06 330 02:26 07.10.2022
1527 Clear 23 1016 56 10000 4.12 350 22:52 06.10.2022
1528 Clear 24 1016 57 10000 4.63 340 21:50 06.10.2022
1529 Clear 24 1016 53 10000 4.63 350 21:29 06.10.2022
1530 Clear 25 1016 53 10000 4.63 350 20:36 06.10.2022
1531 Clear 26 1015 47 10000 6.17 350 18:46 06.10.2022
1532 Clear 27 1014 44 10000 5.66 350 18:19 06.10.2022
1533 Clear 27 1014 44 10000 5.66 350 18:19 06.10.2022
1534 Clear 29 1014 37 10000 5.14 330 15:33 06.10.2022
1535 Clear 28 1015 47 10000 3.6 20 12:29 06.10.2022
1536 Clouds 23 1017 73 6000 5.14 350 08:22 06.10.2022
1537 Clouds 22 1016 78 10000 4.12 340 04:32 06.10.2022
1538 Clouds 24 1017 73 10000 3.09 360 00:44 06.10.2022
1539 Clouds 26 1016 61 10000 7.2 30 21:52 05.10.2022
1540 Clouds 29 1015 48 10000 5.66 40 19:41 05.10.2022
1541 Clouds 31 1014 37 10000 5.14 10 17:37 05.10.2022
1542 Clear 31 1014 37 10000 5.14 20 16:24 05.10.2022
1543 Clear 31 1014 37 10000 4.63 30 14:55 05.10.2022
1544 Clear 30 1014 42 10000 4.63 30 14:20 05.10.2022
1545 Clear 29 1015 48 10000 4.12 40 12:43 05.10.2022
1546 Clouds 27 1016 57 10000 4.63 30 10:48 05.10.2022
1547 Haze 23 1016 78 3000 2.57 360 08:19 05.10.2022
1548 Clear 23 1015 73 10000 2.57 10 06:24 05.10.2022
1549 Clear 23 1014 73 10000 1.54 40 05:31 05.10.2022
1550 Clear 24 1014 69 10000 2.06 30 02:29 05.10.2022
1551 Clear 24 1014 69 10000 2.57 10 00:28 05.10.2022
1552 Clear 25 1014 61 10000 4.63 360 22:54 04.10.2022
1553 Clear 27 1013 57 10000 4.12 340 20:44 04.10.2022
1554 Clear 29 1012 45 10000 5.66 10 19:49 04.10.2022
1555 Clear 29 1012 45 10000 4.63 10 18:51 04.10.2022
1556 Clear 30 1011 39 10000 3.6 360 17:53 04.10.2022
1557 Clear 31 1010 37 10000 3.6 350 16:51 04.10.2022
1558 Clear 30 1010 39 10000 2.06 310 14:29 04.10.2022
1559 Clouds 26 1011 50 10000 2.57 330 09:57 04.10.2022
1560 Clear 24 1010 57 10000 0 0 07:50 04.10.2022
1561 Clear 23 1009 64 10000 2.06 310 04:43 04.10.2022
1562 Clear 25 1010 57 10000 4.12 300 23:49 03.10.2022
1563 Clear 25 1010 57 10000 4.12 300 22:28 03.10.2022
1564 Clear 27 1010 54 10000 5.14 310 21:30 03.10.2022
1565 Clear 27 1009 54 10000 6.17 330 20:35 03.10.2022
1566 Clear 29 1008 45 10000 5.14 310 18:52 03.10.2022
1567 Clear 31 1007 35 10000 4.63 290 17:32 03.10.2022
1568 Clear 32 1007 33 10000 4.12 290 16:22 03.10.2022
1569 Clear 31 1007 40 10000 3.6 280 14:30 03.10.2022
1570 Clouds 30 1008 45 10000 4.12 270 12:46 03.10.2022
1571 Clouds 29 1009 54 10000 3.6 260 11:21 03.10.2022
1572 Clear 27 1009 65 10000 2.57 300 09:56 03.10.2022
1573 Clear 26 1009 73 10000 4.12 290 08:47 03.10.2022
1574 Clear 25 1009 88 6000 3.09 310 04:45 03.10.2022
1575 Clear 27 1010 65 10000 2.57 300 23:51 02.10.2022
1576 Clear 30 1010 45 10000 3.09 330 22:19 02.10.2022
1577 Clear 32 1010 35 6000 5.14 340 20:18 02.10.2022
1578 Clear 35 1009 29 10000 3.6 350 17:58 02.10.2022
1579 Clear 36 1009 26 10000 3.6 350 17:20 02.10.2022
1580 Clear 35 1009 31 10000 3.6 350 16:33 02.10.2022
1581 Clear 35 1009 31 10000 4.12 320 15:39 02.10.2022
1582 Clear 34 1010 38 10000 4.12 340 13:46 02.10.2022
1583 Clear 32 1012 45 10000 2.57 350 12:42 02.10.2022
1584 Clear 32 1012 45 10000 2.57 350 12:20 02.10.2022
1585 Clear 31 1012 48 10000 2.57 330 11:34 02.10.2022
1586 Clear 28 1013 65 10000 2.57 350 10:28 02.10.2022
1587 Clouds 25 1014 78 10000 3.09 20 08:31 02.10.2022
1588 Clouds 24 1013 83 6000 3.09 20 05:23 02.10.2022
1589 Clouds 26 1014 73 6000 3.09 360 01:29 02.10.2022
1590 Clouds 26 1015 78 6000 4.12 10 00:39 02.10.2022
1591 Clouds 26 1015 78 6000 4.12 10 00:39 02.10.2022
1592 Clouds 26 1015 78 6000 4.12 10 00:39 02.10.2022
1593 Clear 26 1015 73 6000 3.6 10 23:36 01.10.2022
1594 Haze 28 1015 57 4000 3.6 350 22:24 01.10.2022
1595 Clear 32 1015 35 10000 5.14 350 19:31 01.10.2022
1596 Clear 34 1014 29 10000 6.17 10 17:46 01.10.2022
1597 Clear 36 1014 30 10000 5.14 10 16:24 01.10.2022
1598 Clear 36 1015 28 10000 5.14 10 14:18 01.10.2022
1599 Clear 35 1017 29 10000 5.66 20 12:35 01.10.2022
1600 Clear 34 1017 33 10000 5.66 60 11:23 01.10.2022
1601 Clear 32 1018 40 10000 4.63 50 10:53 01.10.2022
1602 Clear 32 1018 40 10000 4.63 50 10:30 01.10.2022
1603 Clear 32 1018 40 10000 4.63 50 10:30 01.10.2022
1604 Clear 32 1018 40 10000 4.63 50 10:30 01.10.2022
1605 Clear 30 1018 51 10000 4.12 50 09:26 01.10.2022
1606 Clear 27 1018 74 10000 2.57 60 08:40 01.10.2022
1607 Clear 26 1017 83 10000 3.09 50 03:52 01.10.2022
1608 Clear 26 1017 83 10000 2.57 50 03:24 01.10.2022
1609 Clear 27 1017 78 10000 5.66 50 23:30 30.09.2022
1610 Clear 28 1016 65 10000 4.12 50 22:19 30.09.2022
1611 Clear 29 1016 61 10000 4.63 50 21:22 30.09.2022
1612 Clear 29 1016 61 10000 5.66 60 20:42 30.09.2022
1613 Clear 32 1015 43 10000 6.17 40 19:30 30.09.2022
1614 Clear 35 1014 31 10000 7.72 10 17:27 30.09.2022
1615 Clear 37 1013 25 10000 6.69 40 14:55 30.09.2022
1616 Clear 36 1014 26 10000 6.69 50 13:24 30.09.2022
1617 Clear 35 1015 26 10000 6.69 50 11:56 30.09.2022
1618 Clear 34 1015 27 10000 5.66 60 10:18 30.09.2022
1619 Clear 29 1015 45 10000 4.12 70 08:21 30.09.2022
1620 Clear 26 1014 73 10000 2.57 60 04:31 30.09.2022
1621 Clear 26 1014 73 10000 5.66 60 02:23 30.09.2022
1622 Clear 29 1014 45 10000 5.66 50 22:24 29.09.2022
1623 Clear 30 1014 39 10000 5.14 50 21:26 29.09.2022
1624 Clear 32 1013 33 10000 6.17 50 20:31 29.09.2022
1625 Clear 35 1012 23 10000 6.69 40 18:32 29.09.2022
1626 Clear 37 1011 19 10000 6.17 40 17:22 29.09.2022
1627 Clear 37 1011 18 10000 5.14 50 16:28 29.09.2022
1628 Clear 37 1011 18 10000 6.69 60 15:35 29.09.2022
1629 Clear 37 1011 18 10000 6.17 70 14:24 29.09.2022
1630 Clear 31 1014 27 10000 5.14 60 09:21 29.09.2022
1631 Clear 25 1013 69 10000 1.54 80 06:45 29.09.2022
1632 Clear 26 1013 65 10000 2.06 80 02:45 29.09.2022
1633 Clear 27 1013 54 10000 3.09 60 23:54 28.09.2022
1634 Clear 28 1014 44 10000 4.63 60 22:32 28.09.2022
1635 Clear 29 1013 39 10000 5.14 60 21:29 28.09.2022
1636 Clear 30 1013 48 10000 5.66 50 20:22 28.09.2022
1637 Clear 34 1012 29 10000 5.66 30 18:20 28.09.2022
1638 Clear 35 1011 23 10000 4.12 10 14:51 28.09.2022
1639 Clear 35 1013 20 10000 3.09 40 12:49 28.09.2022
1640 Clear 32 1013 29 10000 3.6 70 10:50 28.09.2022
1641 Clear 26 1014 65 10000 2.06 60 08:26 28.09.2022
1642 Clear 25 1014 69 10000 1.54 70 06:50 28.09.2022
1643 Clear 26 1014 73 10000 2.06 60 01:56 28.09.2022
1644 Clear 26 1014 73 10000 3.6 60 01:31 28.09.2022
1645 Clear 26 1014 73 10000 3.6 60 01:31 28.09.2022
1646 Clear 27 1014 57 10000 3.6 60 23:20 27.09.2022
1647 Clear 28 1014 54 10000 4.12 60 21:42 27.09.2022
1648 Clear 30 1013 51 10000 6.17 50 20:37 27.09.2022
1649 Clear 32 1012 45 10000 5.66 40 19:47 27.09.2022
1650 Clear 33 1012 38 10000 6.17 10 18:40 27.09.2022
1651 Clear 34 1011 36 10000 5.14 360 17:44 27.09.2022
1652 Clear 36 1011 26 10000 3.6 20 15:31 27.09.2022
1653 Clear 36 1011 26 10000 3.6 20 14:55 27.09.2022
1654 Clear 35 1012 31 10000 2.57 20 12:50 27.09.2022
1655 Clear 31 1013 45 10000 3.09 40 11:32 27.09.2022
1656 Clear 26 1014 69 10000 4.12 50 08:50 27.09.2022
1657 Clear 24 1013 78 10000 2.57 50 06:46 27.09.2022
1658 Clear 25 1014 73 10000 4.12 60 01:57 27.09.2022
1659 Clear 25 1014 73 10000 4.12 60 01:29 27.09.2022
1660 Clear 27 1014 61 10000 4.12 50 23:26 26.09.2022
1661 Clear 27 1014 57 10000 4.12 50 22:38 26.09.2022
1662 Clear 28 1014 54 10000 5.66 50 20:46 26.09.2022
1663 Clear 29 1013 51 10000 6.17 40 19:31 26.09.2022
1664 Clear 32 1012 43 10000 6.17 30 18:32 26.09.2022
1665 Clear 35 1012 34 10000 6.17 30 16:36 26.09.2022
1666 Clear 36 1012 30 10000 5.66 20 14:37 26.09.2022
1667 Clear 32 1014 40 10000 5.14 50 11:35 26.09.2022
1668 Clear 30 1014 51 10000 5.14 60 10:41 26.09.2022
1669 Clear 30 1014 51 10000 5.14 60 10:21 26.09.2022
1670 Clear 29 1014 54 10000 5.14 60 09:55 26.09.2022
1671 Clear 28 1014 61 10000 3.6 60 09:24 26.09.2022
1672 Clear 26 1014 73 10000 4.63 60 08:57 26.09.2022
1673 Clear 25 1013 78 10000 3.6 50 02:57 26.09.2022
1674 Clear 26 1014 69 10000 5.14 50 23:57 25.09.2022
1675 Clear 27 1014 65 10000 4.12 50 22:59 25.09.2022
1676 Clear 28 1014 57 10000 5.14 60 21:41 25.09.2022
1677 Clear 28 1014 54 10000 4.63 60 20:49 25.09.2022
1678 Clear 30 1013 48 10000 6.17 50 19:43 25.09.2022
1679 Clear 31 1013 48 10000 6.17 50 18:43 25.09.2022
1680 Clear 31 1013 48 10000 6.17 50 18:20 25.09.2022
1681 Clear 33 1012 43 10000 6.69 20 16:49 25.09.2022
1682 Clear 35 1013 34 10000 7.2 20 15:45 25.09.2022
1683 Clear 34 1013 33 10000 6.17 20 14:30 25.09.2022
1684 Clear 34 1013 31 10000 5.66 40 13:19 25.09.2022
1685 Clear 31 1014 40 10000 6.17 60 10:36 25.09.2022
1686 Clear 26 1014 69 10000 5.66 80 08:25 25.09.2022
1687 Clear 25 1013 73 10000 6.17 80 06:24 25.09.2022
1688 Clear 24 1014 78 10000 4.63 60 03:20 25.09.2022
1689 Clear 26 1014 65 10000 3.6 60 23:23 24.09.2022
1690 Clear 27 1015 61 10000 7.72 50 21:19 24.09.2022
1691 Clear 28 1014 57 10000 7.2 30 19:23 24.09.2022
1692 Clear 30 1013 51 10000 7.72 30 18:18 24.09.2022
1693 Clear 33 1012 40 10000 7.2 20 16:36 24.09.2022
1694 Clear 35 1012 34 10000 5.66 10 15:23 24.09.2022
1695 Clear 35 1012 34 10000 4.63 30 13:50 24.09.2022
1696 Clear 34 1013 36 10000 5.14 30 12:58 24.09.2022
1697 Clear 34 1013 36 10000 4.63 50 12:20 24.09.2022
1698 Clear 29 1014 54 10000 6.17 80 09:57 24.09.2022
1699 Clear 26 1014 65 10000 5.14 60 08:50 24.09.2022
1700 Clear 25 1014 69 10000 4.12 60 07:39 24.09.2022
1701 Clear 25 1013 69 10000 3.6 50 04:50 24.09.2022
1702 Clear 25 1013 69 10000 3.6 60 03:44 24.09.2022
1703 Clear 26 1013 61 10000 5.66 50 22:48 23.09.2022
1704 Clear 26 1013 61 10000 6.69 40 21:32 23.09.2022
1705 Clear 26 1013 61 10000 6.69 50 20:57 23.09.2022
1706 Clear 27 1013 57 10000 5.66 40 20:23 23.09.2022
1707 Clear 28 1012 57 10000 6.69 40 19:19 23.09.2022
1708 Clear 34 1010 36 10000 3.6 70 15:29 23.09.2022
1709 Clear 30 1012 48 10000 4.63 60 11:47 23.09.2022
1710 Clear 27 1013 65 10000 6.17 40 09:36 23.09.2022
1711 Clear 24 1012 78 10000 3.6 50 06:39 23.09.2022
1712 Clear 27 1010 57 10000 3.6 50 00:41 23.09.2022
1713 Clear 28 1011 51 10000 4.63 60 23:22 22.09.2022
1714 Clear 28 1011 51 10000 4.12 70 22:27 22.09.2022
1715 Clear 29 1011 45 10000 4.63 60 21:19 22.09.2022
1716 Clear 31 1010 35 10000 4.63 50 19:58 22.09.2022
1717 Clear 33 1009 29 10000 2.57 20 17:38 22.09.2022
1718 Clear 32 1010 29 10000 2.06 310 13:38 22.09.2022
1719 Clear 31 1011 30 6000 1.54 280 10:37 22.09.2022
1720 Clear 28 1011 39 6000 1.54 300 08:58 22.09.2022
1721 Clear 27 1010 50 10000 0 0 07:36 22.09.2022
1722 Clear 23 1010 64 10000 1.54 70 04:37 22.09.2022
1723 Clear 26 1012 53 10000 3.09 100 23:33 21.09.2022
1724 Clear 27 1012 47 10000 2.57 20 21:52 21.09.2022
1725 Clear 27 1012 44 10000 3.6 10 20:53 21.09.2022
1726 Clear 31 1010 33 10000 5.14 330 17:55 21.09.2022
1727 Clear 31 1010 30 10000 5.14 310 17:21 21.09.2022
1728 Clear 31 1009 30 10000 5.14 280 15:18 21.09.2022
1729 Clear 30 1010 35 10000 3.6 280 13:38 21.09.2022
1730 Clouds 28 1011 44 10000 4.12 270 11:34 21.09.2022
1731 Clouds 27 1011 50 10000 3.09 310 10:50 21.09.2022
1732 Clouds 25 1012 65 10000 2.06 310 09:38 21.09.2022
1733 Clouds 25 1011 69 10000 2.57 290 08:23 21.09.2022
1734 Clear 25 1010 61 10000 2.06 350 02:51 21.09.2022
1735 Clear 25 1010 61 10000 2.06 350 02:51 21.09.2022
1736 Clear 25 1010 61 10000 3.09 10 02:33 21.09.2022
1737 Clouds 25 1011 65 10000 2.06 20 01:49 21.09.2022
1738 Clouds 26 1011 61 10000 4.63 10 23:50 20.09.2022
1739 Clear 27 1011 61 10000 6.17 20 21:33 20.09.2022
1740 Clear 28 1010 57 10000 6.69 10 20:23 20.09.2022
1741 Clear 31 1009 37 10000 4.12 300 17:41 20.09.2022
1742 Clear 31 1009 35 10000 2.57 290 14:59 20.09.2022
1743 Clear 31 1009 35 10000 3.6 290 13:59 20.09.2022
1744 Clear 28 1011 51 10000 1.54 290 11:24 20.09.2022
1745 Clouds 25 1011 69 10000 2.57 310 08:29 20.09.2022
1746 Clouds 24 1011 78 6000 3.09 310 07:31 20.09.2022
1747 Clouds 25 1010 78 5000 2.06 350 04:30 20.09.2022
1748 Clouds 26 1011 73 6000 2.06 340 01:28 20.09.2022
1749 Clear 28 1012 61 10000 3.6 20 22:33 19.09.2022
1750 Clear 28 1012 61 10000 4.63 10 21:28 19.09.2022
1751 Clear 30 1012 48 10000 3.6 360 20:39 19.09.2022
1752 Clouds 31 1011 45 10000 3.6 340 18:42 19.09.2022
1753 Clear 32 1011 40 10000 4.12 10 16:37 19.09.2022
1754 Clear 31 1011 37 10000 3.6 320 13:45 19.09.2022
1755 Clouds 28 1012 47 10000 2.57 300 11:43 19.09.2022
1756 Clouds 25 1012 65 6000 1.54 340 09:35 19.09.2022
1757 Haze 25 1013 65 4000 1.54 340 08:20 19.09.2022
1758 Clouds 25 1011 73 6000 1.54 10 03:28 19.09.2022
1759 Clouds 26 1012 69 6000 2.57 360 23:39 18.09.2022
1760 Clouds 27 1012 65 6000 4.63 10 22:29 18.09.2022
1761 Clouds 29 1011 45 6000 2.06 340 20:47 18.09.2022
1762 Clear 30 1010 39 10000 3.09 330 19:33 18.09.2022
1763 Clear 31 1010 30 10000 2.06 320 17:51 18.09.2022
1764 Clear 32 1009 29 10000 2.06 310 16:46 18.09.2022
1765 Clear 32 1010 31 10000 3.6 340 14:40 18.09.2022
1766 Clouds 31 1010 33 10000 2.57 320 13:34 18.09.2022
1767 Clouds 29 1011 39 10000 1.54 240 11:55 18.09.2022
1768 Clear 25 1010 69 10000 0 0 07:46 18.09.2022
1769 Clear 25 1010 69 10000 2.06 80 01:41 18.09.2022
1770 Clear 26 1010 65 10000 2.06 40 01:19 18.09.2022
1771 Clear 26 1010 65 10000 4.63 40 22:56 17.09.2022
1772 Clear 28 1009 61 10000 8.23 10 20:53 17.09.2022
1773 Clouds 30 1008 45 10000 4.63 360 19:37 17.09.2022
1774 Clouds 31 1008 40 10000 4.12 310 17:44 17.09.2022
1775 Clouds 32 1008 40 10000 3.09 340 14:22 17.09.2022
1776 Clouds 31 1009 42 10000 2.06 260 13:26 17.09.2022
1777 Clouds 29 1010 51 10000 2.57 10 10:49 17.09.2022
1778 Mist 24 1010 78 4000 0 0 06:53 17.09.2022
1779 Clouds 24 1009 78 6000 0.51 30 05:49 17.09.2022
1780 Clouds 25 1011 73 10000 3.6 20 23:41 16.09.2022
1781 Clear 26 1011 61 10000 4.63 10 22:19 16.09.2022
1782 Clear 28 1010 51 10000 6.69 10 20:53 16.09.2022
1783 Clear 29 1010 42 10000 3.6 350 19:29 16.09.2022
1784 Clear 30 1009 32 10000 4.12 330 16:24 16.09.2022
1785 Clear 30 1010 32 10000 3.09 320 14:52 16.09.2022
1786 Clear 29 1011 32 10000 1.54 330 13:21 16.09.2022
1787 Clear 26 1013 44 10000 2.06 10 10:24 16.09.2022
1788 Clear 23 1013 60 10000 2.06 30 07:26 16.09.2022
1789 Clear 23 1013 60 10000 0.51 50 06:48 16.09.2022
1790 Clear 22 1013 60 10000 0 0 05:57 16.09.2022
1791 Clear 24 1013 53 10000 1.54 60 02:30 16.09.2022
1792 Clear 26 1014 50 10000 5.14 10 21:47 15.09.2022
1793 Clear 27 1013 39 10000 5.66 10 20:38 15.09.2022
1794 Clear 28 1013 39 10000 4.63 10 19:31 15.09.2022
1795 Clear 29 1012 37 10000 4.63 360 17:58 15.09.2022
1796 Clear 30 1012 35 10000 4.12 350 17:28 15.09.2022
1797 Clear 30 1012 32 10000 4.12 360 15:47 15.09.2022
1798 Clear 29 1014 34 10000 5.66 360 12:51 15.09.2022
1799 Clear 28 1014 36 10000 4.12 310 11:48 15.09.2022
1800 Clouds 27 1015 36 10000 3.6 340 09:46 15.09.2022
1801 Clear 25 1015 57 6000 1.54 350 07:44 15.09.2022
1802 Clear 24 1014 53 10000 0 0 03:48 15.09.2022
1803 Clear 25 1015 50 10000 2.57 350 23:22 14.09.2022
1804 Clear 27 1014 44 10000 6.69 310 20:47 14.09.2022
1805 Clear 29 1013 42 10000 4.63 340 19:33 14.09.2022
1806 Clear 30 1012 32 10000 5.14 320 17:48 14.09.2022
1807 Clear 31 1012 33 10000 5.14 310 16:37 14.09.2022
1808 Clear 32 1012 29 10000 4.63 310 14:56 14.09.2022
1809 Clear 31 1013 33 10000 3.09 310 12:50 14.09.2022
1810 Clear 27 1013 50 10000 2.57 340 09:53 14.09.2022
1811 Clear 26 1013 61 10000 3.09 30 08:38 14.09.2022
1812 Clear 26 1013 61 10000 3.09 30 08:38 14.09.2022
1813 Clear 25 1012 65 10000 1.54 10 06:50 14.09.2022
1814 Clear 24 1012 69 10000 1.54 360 06:30 14.09.2022
1815 Clear 24 1012 69 10000 1.54 360 06:30 14.09.2022
1816 Clear 25 1011 65 10000 2.06 360 02:58 14.09.2022
1817 Clear 25 1011 65 10000 3.09 340 01:36 14.09.2022
1818 Clear 26 1011 65 10000 3.6 320 00:53 14.09.2022
1819 Clear 26 1011 65 10000 3.09 340 23:55 13.09.2022
1820 Clear 26 1011 65 10000 3.09 340 23:37 13.09.2022
1821 Clear 26 1011 69 10000 4.12 340 23:18 13.09.2022
1822 Clear 27 1011 65 10000 3.6 340 22:29 13.09.2022
1823 Clear 27 1011 61 10000 4.12 340 21:39 13.09.2022
1824 Clear 31 1008 45 10000 4.12 340 18:59 13.09.2022
1825 Clear 33 1007 38 10000 4.63 300 16:42 13.09.2022
1826 Clear 33 1007 38 10000 4.63 310 15:31 13.09.2022
1827 Clear 32 1007 43 10000 4.63 310 13:40 13.09.2022
1828 Clear 30 1008 54 10000 2.06 330 11:23 13.09.2022
1829 Clouds 26 1008 73 10000 2.06 330 08:18 13.09.2022
1830 Clouds 26 1007 78 6000 3.09 10 02:27 13.09.2022
1831 Clouds 28 1008 74 6000 4.63 340 23:23 12.09.2022
1832 Clear 28 1008 74 6000 5.14 350 22:44 12.09.2022
1833 Clear 30 1008 62 10000 4.12 340 21:35 12.09.2022
1834 Clear 32 1007 45 10000 4.12 10 20:23 12.09.2022
1835 Clear 33 1006 35 10000 2.57 310 18:40 12.09.2022
1836 Clear 34 1007 33 10000 4.12 310 15:53 12.09.2022
1837 Clear 32 1008 48 10000 2.57 310 12:57 12.09.2022
1838 Clouds 28 1009 61 10000 4.12 340 10:34 12.09.2022
1839 Clouds 26 1009 73 6000 1.54 50 08:58 12.09.2022
1840 Clear 25 1008 78 6000 1.54 330 04:42 12.09.2022
1841 Clear 25 1008 83 6000 2.57 340 02:57 12.09.2022
1842 Clear 27 1010 69 10000 3.09 20 22:51 11.09.2022
1843 Clear 28 1010 61 10000 4.63 10 21:40 11.09.2022
1844 Clear 30 1010 51 10000 5.66 360 20:44 11.09.2022
1845 Clear 30 1010 48 10000 6.17 10 19:46 11.09.2022
1846 Clear 31 1009 45 10000 5.14 360 19:22 11.09.2022
1847 Clear 33 1009 35 10000 5.14 10 17:57 11.09.2022
1848 Clear 34 1009 27 10000 4.63 340 16:23 11.09.2022
1849 Clear 33 1010 29 10000 3.09 350 14:18 11.09.2022
1850 Clear 31 1011 35 10000 2.57 310 12:31 11.09.2022
1851 Clouds 25 1012 78 6000 1.54 40 08:27 11.09.2022
1852 Mist 24 1012 83 4000 1.54 10 06:33 11.09.2022
1853 Clear 26 1012 73 10000 3.6 360 00:49 11.09.2022
1854 Clear 27 1013 65 10000 5.14 10 22:26 10.09.2022
1855 Clear 28 1012 57 10000 7.2 10 20:55 10.09.2022
1856 Clear 29 1012 54 10000 6.69 360 19:46 10.09.2022
1857 Clear 30 1012 54 10000 6.69 10 19:27 10.09.2022
1858 Clear 32 1011 40 10000 6.17 350 17:59 10.09.2022
1859 Clear 33 1011 33 10000 5.14 350 15:45 10.09.2022
1860 Clear 33 1011 29 10000 4.63 20 14:37 10.09.2022
1861 Clear 32 1012 35 10000 4.12 360 12:52 10.09.2022
1862 Clouds 27 1014 65 10000 4.12 360 10:35 10.09.2022
1863 Clouds 26 1014 69 10000 4.12 360 09:24 10.09.2022
1864 Clouds 25 1013 78 10000 4.63 350 08:27 10.09.2022
1865 Clouds 24 1013 88 10000 2.57 360 05:50 10.09.2022
1866 Clear 26 1014 78 10000 4.63 20 23:56 09.09.2022
1867 Clear 27 1014 74 10000 5.66 10 23:29 09.09.2022
1868 Clear 28 1014 65 10000 6.17 20 21:38 09.09.2022
1869 Clear 29 1013 58 10000 7.2 10 20:31 09.09.2022
1870 Clear 30 1012 51 10000 6.69 10 19:24 09.09.2022
1871 Clear 32 1012 40 10000 6.69 20 18:38 09.09.2022
1872 Clear 34 1011 27 10000 7.2 20 16:21 09.09.2022
1873 Clear 33 1011 38 10000 7.2 360 13:48 09.09.2022
1874 Clear 32 1012 43 10000 5.66 10 11:52 09.09.2022
1875 Clouds 28 1013 65 6000 5.14 40 09:22 09.09.2022
1876 Clouds 26 1012 83 6000 3.09 350 04:29 09.09.2022
1877 Clouds 26 1012 83 10000 3.09 10 00:46 09.09.2022
1878 Clear 28 1012 69 10000 4.63 30 21:52 08.09.2022
1879 Clouds 29 1012 65 10000 6.69 30 20:51 08.09.2022
1880 Clouds 29 1012 65 10000 6.69 30 20:31 08.09.2022
1881 Clouds 30 1011 62 10000 7.72 20 19:44 08.09.2022
1882 Clouds 33 1009 40 10000 6.69 10 17:44 08.09.2022
1883 Clouds 33 1009 40 10000 6.17 10 16:19 08.09.2022
1884 Clouds 33 1010 40 10000 3.09 20 14:40 08.09.2022
1885 Clouds 32 1010 43 10000 3.6 30 13:23 08.09.2022
1886 Clouds 30 1012 54 10000 4.12 30 11:37 08.09.2022
1887 Clouds 28 1012 65 10000 2.06 350 10:48 08.09.2022
1888 Clouds 25 1011 83 6000 2.06 330 07:57 08.09.2022
1889 Mist 25 1011 83 4000 2.06 350 06:41 08.09.2022
1890 Clouds 26 1010 78 10000 2.57 10 02:36 08.09.2022
1891 Clouds 26 1010 78 10000 2.57 10 02:18 08.09.2022
1892 Clouds 26 1011 73 10000 3.09 360 00:27 08.09.2022
1893 Clear 27 1011 69 10000 3.6 360 22:42 07.09.2022
1894 Clear 27 1011 65 10000 5.66 10 21:42 07.09.2022
1895 Clear 29 1010 58 10000 6.17 10 20:42 07.09.2022
1896 Clouds 30 1009 54 10000 7.2 20 19:36 07.09.2022
1897 Clouds 32 1008 45 10000 3.6 340 17:28 07.09.2022
1898 Clouds 31 1009 45 10000 3.6 20 12:49 07.09.2022
1899 Clouds 29 1010 58 10000 2.57 360 10:47 07.09.2022
1900 Clouds 26 1010 73 10000 2.57 330 08:38 07.09.2022
1901 Clear 25 1009 78 10000 2.57 300 06:57 07.09.2022
1902 Clear 25 1009 73 10000 3.6 300 02:46 07.09.2022
1903 Clear 27 1010 65 10000 2.57 340 22:44 06.09.2022
1904 Clear 27 1011 61 10000 4.12 360 21:39 06.09.2022
1905 Clear 29 1010 51 10000 5.14 350 20:21 06.09.2022
1906 Clouds 30 1009 48 10000 4.63 350 18:45 06.09.2022
1907 Clouds 31 1009 40 10000 5.66 320 18:21 06.09.2022
1908 Clouds 32 1009 37 10000 5.66 310 17:21 06.09.2022
1909 Clouds 33 1008 33 10000 3.09 300 16:37 06.09.2022
1910 Clouds 33 1009 38 10000 4.63 300 14:59 06.09.2022
1911 Clouds 32 1009 43 10000 4.12 310 13:45 06.09.2022
1912 Clouds 32 1010 43 10000 4.63 300 13:22 06.09.2022
1913 Clouds 31 1010 48 10000 4.63 300 11:54 06.09.2022
1914 Clouds 28 1011 57 10000 4.12 320 10:41 06.09.2022
1915 Clouds 27 1011 69 10000 4.12 320 08:50 06.09.2022
1916 Clouds 25 1010 78 10000 3.09 310 07:37 06.09.2022
1917 Clouds 26 1010 78 10000 2.57 290 02:44 06.09.2022
1918 Clear 27 1011 69 10000 3.6 320 23:23 05.09.2022
1919 Clear 28 1011 61 10000 5.14 320 21:53 05.09.2022
1920 Clear 30 1011 51 10000 5.66 320 20:33 05.09.2022
1921 Clear 31 1010 45 10000 4.63 320 19:20 05.09.2022
1922 Clear 32 1009 43 10000 5.14 340 18:45 05.09.2022
1923 Clear 32 1009 43 10000 5.14 340 18:21 05.09.2022
1924 Clear 34 1009 36 10000 2.06 310 16:37 05.09.2022
1925 Clear 33 1009 38 10000 4.12 310 15:47 05.09.2022
1926 Clouds 32 1010 40 6000 5.14 290 13:25 05.09.2022
1927 Clouds 31 1011 48 6000 3.09 360 12:27 05.09.2022
1928 Clouds 27 1012 65 6000 3.09 330 09:44 05.09.2022
1929 Clouds 25 1012 83 6000 2.06 30 06:41 05.09.2022
1930 Clouds 26 1012 78 10000 3.6 10 01:56 05.09.2022
1931 Clear 27 1013 74 10000 5.14 360 23:18 04.09.2022
1932 Clear 28 1013 69 10000 6.17 10 22:27 04.09.2022
1933 Clear 30 1012 54 10000 5.66 20 20:50 04.09.2022
1934 Clear 31 1011 40 10000 5.14 20 19:32 04.09.2022
1935 Clear 32 1011 40 10000 6.69 20 18:19 04.09.2022
1936 Clear 33 1011 40 10000 5.66 30 16:44 04.09.2022
1937 Clear 34 1011 38 10000 5.14 360 14:30 04.09.2022
1938 Clear 33 1011 40 10000 6.17 360 13:49 04.09.2022
1939 Clear 31 1012 48 10000 4.12 40 11:54 04.09.2022
1940 Clouds 30 1013 51 10000 5.14 10 10:47 04.09.2022
1941 Clouds 26 1013 73 10000 3.6 10 08:20 04.09.2022
1942 Clear 25 1013 78 10000 3.09 10 05:19 04.09.2022
1943 Clear 26 1013 73 10000 4.63 20 00:50 04.09.2022
1944 Clear 27 1013 69 10000 7.2 20 22:22 03.09.2022
1945 Clear 27 1013 69 10000 6.69 20 21:23 03.09.2022
1946 Clear 29 1013 58 10000 6.17 20 19:42 03.09.2022
1947 Clear 32 1011 43 10000 5.14 10 17:28 03.09.2022
1948 Clear 33 1011 38 10000 6.17 20 16:31 03.09.2022
1949 Clear 32 1011 43 10000 5.14 10 14:45 03.09.2022
1950 Clear 32 1011 43 10000 5.14 360 14:26 03.09.2022
1951 Clear 32 1012 43 10000 5.66 360 12:32 03.09.2022
1952 Clear 30 1013 51 10000 4.63 360 10:49 03.09.2022
1953 Clouds 26 1013 73 10000 4.63 360 08:30 03.09.2022
1954 Clouds 26 1013 73 10000 4.63 360 08:30 03.09.2022
1955 Clear 25 1013 78 10000 3.09 10 06:58 03.09.2022
1956 Clouds 25 1012 78 10000 3.6 20 04:38 03.09.2022
1957 Clear 27 1013 69 10000 4.63 20 00:32 03.09.2022
1958 Clear 27 1013 65 10000 4.12 20 23:20 02.09.2022
1959 Clear 28 1013 61 10000 6.69 20 21:19 02.09.2022
1960 Clear 29 1012 58 10000 7.72 360 20:39 02.09.2022
1961 Clear 30 1011 54 10000 6.69 360 19:30 02.09.2022
1962 Clear 30 1011 54 10000 6.17 20 18:43 02.09.2022
1963 Clear 31 1011 48 10000 5.66 360 18:24 02.09.2022
1964 Clear 32 1010 43 10000 5.66 340 16:49 02.09.2022
1965 Clear 33 1010 40 10000 5.66 360 15:35 02.09.2022
1966 Clouds 30 1011 48 10000 5.14 10 12:43 02.09.2022
1967 Clouds 29 1012 58 10000 5.66 10 10:22 02.09.2022
1968 Clouds 28 1012 61 10000 4.63 30 09:41 02.09.2022
1969 Clear 25 1011 78 10000 4.12 360 07:54 02.09.2022
1970 Clear 25 1011 78 10000 3.6 30 06:41 02.09.2022
1971 Clouds 25 1010 78 10000 3.6 20 03:52 02.09.2022
1972 Clouds 26 1011 69 10000 5.66 360 22:54 01.09.2022
1973 Clouds 27 1010 65 10000 5.14 20 21:45 01.09.2022
1974 Clouds 28 1010 61 10000 5.14 30 21:25 01.09.2022
1975 Clouds 28 1010 61 10000 6.69 30 20:46 01.09.2022
1976 Clouds 30 1009 51 10000 6.17 10 19:20 01.09.2022
1977 Clear 32 1009 45 10000 5.66 20 17:47 01.09.2022
1978 Clear 33 1008 40 10000 5.14 10 16:29 01.09.2022
1979 Clear 32 1009 43 10000 4.63 10 14:33 01.09.2022
1980 Clear 32 1009 40 10000 4.12 350 12:59 01.09.2022
1981 Clear 31 1009 45 10000 5.66 360 11:54 01.09.2022
1982 Clear 31 1009 45 10000 4.63 360 11:33 01.09.2022
1983 Clear 30 1009 48 10000 6.17 30 10:45 01.09.2022
1984 Clouds 26 1010 78 10000 5.14 10 08:31 01.09.2022
1985 Clouds 25 1010 83 6000 3.09 20 06:23 01.09.2022
1986 Clear 25 1010 83 10000 3.09 10 01:34 01.09.2022
1987 Clear 26 1011 73 10000 3.6 340 00:18 01.09.2022
1988 Clear 28 1011 69 10000 4.63 360 21:44 31.08.2022
1989 Clear 29 1010 61 10000 5.66 10 19:51 31.08.2022
1990 Clouds 31 1009 55 10000 5.66 360 18:19 31.08.2022
1991 Clouds 33 1009 46 10000 6.69 30 16:31 31.08.2022
1992 Clear 33 1009 40 10000 5.14 330 14:36 31.08.2022
1993 Clear 31 1010 51 10000 4.63 340 12:24 31.08.2022
1994 Clear 30 1011 58 10000 5.14 10 11:29 31.08.2022
1995 Clouds 27 1011 74 6000 4.63 20 08:54 31.08.2022
1996 Clouds 25 1011 83 10000 3.09 340 06:18 31.08.2022
1997 Clear 27 1012 74 10000 4.63 30 23:21 30.08.2022
1998 Clear 28 1012 69 10000 5.14 10 21:43 30.08.2022
1999 Clear 30 1011 62 10000 6.69 10 20:57 30.08.2022
2000 Clear 32 1010 51 10000 5.66 360 18:32 30.08.2022
2001 Clear 34 1011 43 10000 5.14 20 15:29 30.08.2022
2002 Clear 33 1011 43 10000 3.6 10 13:24 30.08.2022
2003 Clear 30 1012 54 10000 4.63 50 11:22 30.08.2022
2004 Clouds 29 1012 61 10000 3.09 20 10:49 30.08.2022
2005 Clouds 26 1012 78 6000 4.12 360 07:46 30.08.2022
2006 Clouds 26 1011 78 10000 4.63 360 02:34 30.08.2022
2007 Clouds 27 1012 74 10000 5.14 360 23:20 29.08.2022
2008 Clear 28 1012 69 10000 5.66 30 22:28 29.08.2022
2009 Clear 28 1012 65 10000 5.66 20 21:26 29.08.2022
2010 Clear 28 1012 65 10000 5.66 20 21:26 29.08.2022
2011 Clear 29 1011 65 10000 7.2 20 19:54 29.08.2022
2012 Clear 32 1010 51 10000 5.66 10 17:54 29.08.2022
2013 Clear 32 1010 51 10000 5.66 10 17:25 29.08.2022
2014 Clear 33 1010 46 10000 6.17 10 16:40 29.08.2022
2015 Clear 33 1010 46 10000 7.2 360 14:47 29.08.2022
2016 Clouds 32 1011 48 10000 5.66 20 13:21 29.08.2022
2017 Clouds 30 1011 58 10000 4.63 30 11:20 29.08.2022
2018 Clouds 29 1012 65 10000 6.17 30 09:49 29.08.2022
2019 Clouds 27 1011 74 10000 6.17 20 08:37 29.08.2022
2020 Clouds 26 1011 78 10000 3.6 10 05:35 29.08.2022
2021 Clouds 26 1011 78 10000 5.14 10 00:22 29.08.2022
2022 Clouds 27 1011 74 10000 5.66 20 22:41 28.08.2022
2023 Clouds 27 1011 74 10000 6.17 10 21:44 28.08.2022
2024 Clouds 28 1010 69 10000 8.23 10 20:55 28.08.2022
2025 Clouds 29 1009 65 10000 8.23 20 19:26 28.08.2022
2026 Clouds 31 1009 55 10000 7.2 10 18:21 28.08.2022
2027 Clouds 32 1008 43 10000 8.23 10 17:22 28.08.2022
2028 Clear 33 1008 43 10000 8.23 10 16:27 28.08.2022
2029 Clear 33 1008 43 10000 6.69 20 14:42 28.08.2022
2030 Clear 32 1009 48 10000 6.17 30 12:48 28.08.2022
2031 Clouds 30 1010 58 10000 7.2 20 10:43 28.08.2022
2032 Clouds 28 1010 65 10000 6.69 40 09:54 28.08.2022
2033 Clouds 28 1010 65 10000 7.2 40 08:37 28.08.2022
2034 Clouds 27 1010 74 10000 6.17 40 07:43 28.08.2022
2035 Clear 26 1010 73 10000 6.17 30 02:59 28.08.2022
2036 Clear 27 1010 69 10000 5.14 20 00:29 28.08.2022
2037 Clear 27 1011 69 10000 5.66 10 22:37 27.08.2022
2038 Clear 28 1011 65 10000 6.17 20 21:36 27.08.2022
2039 Clear 29 1010 58 10000 6.69 30 19:49 27.08.2022
2040 Clear 31 1009 51 10000 7.2 10 18:27 27.08.2022
2041 Clear 34 1008 31 10000 6.69 30 15:53 27.08.2022
2042 Clear 34 1008 31 10000 6.69 30 15:25 27.08.2022
2043 Clear 33 1009 38 10000 5.14 20 12:30 27.08.2022
2044 Clear 31 1009 40 10000 5.66 10 11:32 27.08.2022
2045 Clear 31 1009 40 10000 5.66 10 11:32 27.08.2022
2046 Clear 29 1010 54 10000 5.14 60 09:50 27.08.2022
2047 Clear 27 1009 69 10000 5.14 50 08:22 27.08.2022
2048 Clear 25 1009 73 10000 3.09 60 03:40 27.08.2022
2049 Clear 26 1010 69 10000 3.6 40 23:58 26.08.2022
2050 Clear 27 1010 65 10000 6.69 40 22:50 26.08.2022
2051 Clear 28 1010 61 10000 6.17 50 21:30 26.08.2022
2052 Clear 30 1008 54 10000 7.72 10 19:23 26.08.2022
2053 Clear 32 1007 35 10000 5.66 340 17:25 26.08.2022
2054 Clear 33 1007 38 10000 5.66 320 15:35 26.08.2022
2055 Clouds 33 1008 38 10000 3.09 360 14:42 26.08.2022
2056 Clouds 33 1009 40 10000 0 0 12:53 26.08.2022
2057 Clouds 30 1009 51 10000 3.09 360 11:35 26.08.2022
2058 Clouds 29 1010 54 10000 3.6 40 10:47 26.08.2022
2059 Clouds 25 1009 78 10000 3.6 10 07:32 26.08.2022
2060 Clouds 26 1009 78 10000 3.09 340 02:31 26.08.2022
2061 Clouds 27 1010 69 10000 3.6 40 23:44 25.08.2022
2062 Clouds 28 1010 69 10000 6.69 20 21:40 25.08.2022
2063 Clouds 28 1009 69 10000 6.69 20 20:51 25.08.2022
2064 Clouds 30 1008 58 10000 6.17 360 19:24 25.08.2022
2065 Clouds 32 1008 51 10000 7.72 10 18:28 25.08.2022
2066 Clouds 33 1007 43 10000 5.14 350 17:31 25.08.2022
2067 Clouds 34 1007 38 10000 5.14 340 16:25 25.08.2022
2068 Clouds 33 1007 46 10000 4.12 310 15:27 25.08.2022
2069 Clouds 32 1008 48 10000 4.63 10 12:47 25.08.2022
2070 Clouds 30 1009 62 10000 4.12 40 10:49 25.08.2022
2071 Clouds 29 1009 70 10000 6.17 360 09:44 25.08.2022
2072 Clouds 26 1009 89 6000 3.6 10 06:45 25.08.2022
2073 Clear 27 1008 78 10000 5.66 20 01:57 25.08.2022
2074 Clear 28 1008 65 10000 4.63 50 23:28 24.08.2022
2075 Clear 28 1008 65 10000 5.14 40 22:43 24.08.2022
2076 Clear 30 1008 48 10000 6.69 20 21:37 24.08.2022
2077 Clear 30 1008 48 10000 7.2 30 20:56 24.08.2022
2078 Clear 33 1007 38 10000 7.72 20 19:24 24.08.2022
2079 Clear 37 1005 26 10000 6.69 30 16:49 24.08.2022
2080 Clear 38 1005 27 10000 7.72 20 15:52 24.08.2022
2081 Clear 40 1006 14 10000 4.12 260 13:48 24.08.2022
2082 Clear 39 1007 16 10000 2.57 70 11:59 24.08.2022
2083 Clear 37 1008 18 10000 2.57 70 11:18 24.08.2022
2084 Clear 31 1008 35 10000 1.54 50 08:26 24.08.2022
2085 Clear 28 1008 61 10000 3.6 70 03:44 24.08.2022
2086 Clear 29 1009 61 10000 5.66 60 23:47 23.08.2022
2087 Clear 30 1009 62 10000 5.14 60 22:33 23.08.2022
2088 Clear 30 1010 62 10000 5.66 50 21:39 23.08.2022
2089 Clear 33 1009 38 10000 7.2 30 20:33 23.08.2022
2090 Clear 34 1008 36 10000 7.72 40 18:53 23.08.2022
2091 Clear 36 1008 28 10000 4.63 330 17:51 23.08.2022
2092 Clear 36 1008 28 10000 4.63 330 17:18 23.08.2022
2093 Clear 37 1008 26 10000 4.12 330 15:49 23.08.2022
2094 Clear 38 1009 20 10000 1.03 50 13:36 23.08.2022
2095 Clear 37 1009 22 10000 1.03 240 12:30 23.08.2022
2096 Clear 35 1010 29 10000 3.09 30 10:53 23.08.2022
2097 Clear 34 1010 31 10000 3.6 60 10:32 23.08.2022
2098 Clear 32 1010 35 10000 4.12 70 08:55 23.08.2022
2099 Clear 32 1010 35 10000 4.12 70 08:22 23.08.2022
2100 Clear 29 1010 58 10000 2.57 90 07:48 23.08.2022
2101 Clear 27 1009 78 10000 1.03 50 06:58 23.08.2022
2102 Clear 27 1009 78 10000 1.03 50 06:19 23.08.2022
2103 Clear 28 1008 74 10000 2.57 60 01:42 23.08.2022
2104 Clear 29 1009 70 10000 4.12 50 00:26 23.08.2022
2105 Clear 30 1009 66 10000 4.12 50 23:30 22.08.2022
2106 Clear 30 1009 62 10000 4.63 40 22:19 22.08.2022
2107 Clear 32 1008 45 10000 5.66 20 19:51 22.08.2022
2108 Clear 33 1008 43 10000 5.66 20 19:30 22.08.2022
2109 Clear 34 1007 40 10000 5.66 350 18:36 22.08.2022
2110 Clear 35 1007 36 10000 3.09 300 15:45 22.08.2022
2111 Clear 36 1007 32 10000 1.54 300 14:48 22.08.2022
2112 Clear 33 1008 31 10000 1.54 240 11:20 22.08.2022
2113 Clear 30 1008 51 6000 0 0 09:20 22.08.2022
2114 Clear 26 1007 73 6000 0 0 05:44 22.08.2022
2115 Clear 28 1006 57 10000 1.54 350 00:56 22.08.2022
2116 Clear 29 1006 51 10000 2.06 20 00:36 22.08.2022
2117 Clear 34 1006 36 10000 4.12 330 22:57 21.08.2022
2118 Clear 34 1006 36 10000 4.63 330 21:55 21.08.2022
2119 Clear 34 1006 36 10000 4.12 350 21:18 21.08.2022
2120 Clear 34 1005 36 10000 5.14 340 19:42 21.08.2022
2121 Clear 34 1004 33 10000 4.12 330 18:35 21.08.2022
2122 Clear 36 1004 28 10000 3.09 320 16:34 21.08.2022
2123 Clear 36 1005 28 10000 3.6 320 15:51 21.08.2022
2124 Clear 35 1005 29 10000 4.63 300 14:41 21.08.2022
2125 Clear 34 1005 33 10000 3.6 280 13:48 21.08.2022
2126 Clear 34 1006 31 10000 5.14 300 12:53 21.08.2022
2127 Clear 32 1007 35 10000 3.6 250 10:36 21.08.2022
2128 Clear 29 1007 48 10000 4.12 300 08:57 21.08.2022
2129 Clear 29 1007 45 10000 3.6 290 08:38 21.08.2022
2130 Clear 29 1007 48 6000 4.12 310 07:53 21.08.2022
2131 Clear 28 1006 61 6000 1.54 320 05:39 21.08.2022
2132 Clear 29 1007 54 10000 1.54 290 00:54 21.08.2022
2133 Clear 30 1007 51 10000 1.54 350 23:32 20.08.2022
2134 Clear 30 1008 54 10000 3.6 340 21:51 20.08.2022
2135 Clear 31 1007 58 10000 3.09 330 20:50 20.08.2022
2136 Clear 32 1007 51 10000 4.63 330 19:42 20.08.2022
2137 Clear 34 1006 36 10000 4.63 330 18:45 20.08.2022
2138 Clear 35 1006 31 10000 5.14 330 18:25 20.08.2022
2139 Clear 36 1006 30 10000 4.12 330 17:20 20.08.2022
2140 Clear 36 1006 30 10000 4.12 300 15:57 20.08.2022
2141 Clear 36 1006 32 10000 5.14 310 14:20 20.08.2022
2142 Clear 32 1007 51 10000 3.09 250 11:56 20.08.2022
2143 Clear 32 1007 51 10000 3.09 250 11:36 20.08.2022
2144 Clouds 28 1007 69 10000 3.09 250 09:20 20.08.2022
2145 Clouds 27 1007 78 6000 3.09 250 07:30 20.08.2022
2146 Clear 26 1006 89 10000 2.57 300 04:50 20.08.2022
2147 Clear 29 1006 65 10000 2.57 290 00:57 20.08.2022
2148 Clear 30 1006 62 10000 1.03 320 23:45 19.08.2022
2149 Clear 30 1007 58 10000 1.54 360 22:45 19.08.2022
2150 Clear 31 1007 55 10000 3.6 330 21:20 19.08.2022
2151 Clear 33 1005 46 10000 4.12 320 18:59 19.08.2022
2152 Clear 33 1005 46 10000 4.12 320 18:59 19.08.2022
2153 Clear 33 1005 46 10000 4.12 320 18:59 19.08.2022
2154 Clear 33 1005 46 10000 4.12 320 18:59 19.08.2022
2155 Clear 36 1005 30 10000 3.6 290 16:23 19.08.2022
2156 Clear 34 1006 36 10000 4.12 290 13:44 19.08.2022
2157 Clear 31 1006 45 10000 1.54 270 11:51 19.08.2022
2158 Clouds 29 1007 51 10000 3.09 300 10:33 19.08.2022
2159 Clouds 28 1007 65 10000 0 0 08:43 19.08.2022
2160 Clear 26 1006 78 6000 0 0 04:39 19.08.2022
2161 Clear 28 1006 61 10000 3.09 360 00:40 19.08.2022
2162 Clear 28 1006 61 10000 3.09 360 00:19 19.08.2022
2163 Clear 28 1007 61 10000 2.57 350 22:57 18.08.2022
2164 Clear 29 1007 58 10000 2.57 340 22:23 18.08.2022
2165 Clear 29 1007 58 10000 2.57 340 21:49 18.08.2022
2166 Clear 30 1006 51 10000 3.09 340 20:48 18.08.2022
2167 Clear 32 1006 43 10000 5.14 340 19:39 18.08.2022
2168 Clear 32 1006 43 10000 5.14 340 19:20 18.08.2022
2169 Clear 34 1005 38 10000 4.12 330 17:32 18.08.2022
2170 Clear 34 1005 33 10000 4.12 330 15:53 18.08.2022
2171 Clear 34 1005 33 10000 3.6 310 14:21 18.08.2022
2172 Clear 32 1006 40 10000 3.6 340 13:44 18.08.2022
2173 Clear 32 1006 43 10000 2.06 300 12:28 18.08.2022
2174 Clear 30 1006 51 10000 3.09 320 11:20 18.08.2022
2175 Clear 27 1007 65 10000 3.09 300 09:43 18.08.2022
2176 Clouds 25 1007 78 10000 1.54 20 07:27 18.08.2022
2177 Clouds 24 1007 83 6000 1.54 40 06:30 18.08.2022
2178 Clear 26 1007 69 10000 3.09 20 02:22 18.08.2022
2179 Clear 27 1008 65 10000 4.63 360 22:47 17.08.2022
2180 Clear 29 1007 58 10000 6.17 360 20:30 17.08.2022
2181 Clear 31 1007 48 10000 4.12 10 19:59 17.08.2022
2182 Clear 31 1007 48 10000 4.63 360 18:37 17.08.2022
2183 Clear 32 1007 43 10000 4.63 350 17:21 17.08.2022
2184 Clear 32 1007 37 10000 5.14 10 16:20 17.08.2022
2185 Clear 32 1007 35 10000 5.14 330 14:41 17.08.2022
2186 Clear 31 1008 42 10000 4.12 330 12:30 17.08.2022
2187 Clear 29 1008 48 10000 4.12 20 11:25 17.08.2022
2188 Clouds 27 1009 61 10000 3.09 360 09:29 17.08.2022
2189 Clear 25 1009 73 10000 2.57 20 06:50 17.08.2022
2190 Clear 26 1009 73 10000 4.12 30 01:23 17.08.2022
2191 Clear 27 1010 65 10000 5.14 20 23:32 16.08.2022
2192 Clear 28 1009 61 10000 6.17 20 21:48 16.08.2022
2193 Clear 30 1009 54 10000 5.66 10 20:25 16.08.2022
2194 Clear 30 1009 54 10000 6.17 10 19:40 16.08.2022
2195 Clear 32 1009 43 10000 4.63 350 17:56 16.08.2022
2196 Clear 32 1009 43 10000 4.63 350 17:56 16.08.2022
2197 Clear 33 1009 40 10000 6.69 20 17:24 16.08.2022
2198 Clear 32 1009 43 10000 2.06 330 15:45 16.08.2022
2199 Clear 33 1009 40 10000 5.66 360 14:55 16.08.2022
2200 Clear 33 1009 40 10000 5.66 360 14:36 16.08.2022
2201 Clear 32 1009 35 10000 4.12 340 12:40 16.08.2022
2202 Clear 30 1010 45 10000 3.6 50 10:29 16.08.2022
2203 Clear 28 1010 57 10000 4.63 50 09:29 16.08.2022
2204 Clouds 26 1010 73 10000 4.12 40 08:26 16.08.2022
2205 Clouds 26 1010 73 10000 3.6 50 07:23 16.08.2022
2206 Clear 27 1010 69 10000 4.12 40 01:23 16.08.2022
2207 Clouds 28 1010 65 10000 4.63 40 22:29 15.08.2022
2208 Clouds 29 1010 61 10000 5.66 40 21:53 15.08.2022
2209 Clouds 30 1009 51 10000 4.63 10 20:47 15.08.2022
2210 Clouds 30 1009 51 10000 4.63 10 20:18 15.08.2022
2211 Clouds 32 1008 43 10000 5.14 30 18:36 15.08.2022
2212 Clouds 32 1008 43 10000 5.14 20 16:47 15.08.2022
2213 Clouds 32 1008 43 10000 5.14 340 16:21 15.08.2022
2214 Clouds 32 1008 40 10000 4.63 310 13:55 15.08.2022
2215 Clouds 31 1009 45 10000 4.63 320 12:29 15.08.2022
2216 Clouds 28 1009 57 10000 2.06 350 09:59 15.08.2022
2217 Clouds 27 1009 61 10000 2.57 20 08:26 15.08.2022
2218 Clouds 25 1008 78 10000 2.06 350 06:20 15.08.2022
2219 Clear 26 1008 73 10000 2.06 30 02:19 15.08.2022
2220 Clear 29 1008 58 10000 4.63 10 22:39 14.08.2022
2221 Clear 30 1008 48 10000 5.14 10 21:39 14.08.2022
2222 Clear 31 1007 48 10000 4.63 10 20:24 14.08.2022
2223 Clear 31 1007 45 10000 4.12 350 19:31 14.08.2022
2224 Clear 32 1006 43 10000 4.12 340 18:20 14.08.2022
2225 Clear 34 1006 29 10000 5.14 360 16:55 14.08.2022
2226 Clear 34 1006 29 10000 6.17 350 15:51 14.08.2022
2227 Clear 34 1007 27 10000 5.14 340 14:38 14.08.2022
2228 Clear 32 1007 40 10000 4.63 300 13:50 14.08.2022
2229 Clear 32 1008 37 10000 4.12 310 13:24 14.08.2022
2230 Clear 32 1008 37 10000 2.57 350 12:34 14.08.2022
2231 Clear 30 1008 45 10000 2.57 340 11:18 14.08.2022
2232 Clouds 27 1008 69 10000 3.6 360 08:53 14.08.2022
2233 Clear 26 1008 73 10000 1.54 10 06:23 14.08.2022
2234 Clear 26 1008 73 10000 1.54 10 06:23 14.08.2022
2235 Clear 26 1008 73 10000 1.54 10 06:23 14.08.2022
2236 Clear 26 1008 73 10000 1.54 330 03:48 14.08.2022
2237 Clear 26 1009 73 10000 3.6 360 00:42 14.08.2022
2238 Clear 27 1009 65 10000 3.09 350 22:56 13.08.2022
2239 Clear 28 1009 57 10000 5.14 350 21:55 13.08.2022
2240 Clear 30 1008 42 10000 5.14 350 20:49 13.08.2022
2241 Clear 31 1008 37 10000 4.12 340 19:46 13.08.2022
2242 Clear 32 1007 31 10000 5.14 350 18:47 13.08.2022
2243 Clear 33 1007 31 10000 4.63 310 16:23 13.08.2022
2244 Clouds 34 1007 31 10000 4.12 320 14:41 13.08.2022
2245 Clouds 33 1008 35 10000 5.14 330 13:48 13.08.2022
2246 Clouds 32 1008 37 10000 5.14 290 13:23 13.08.2022
2247 Clouds 30 1009 48 10000 2.57 330 10:44 13.08.2022
2248 Clouds 28 1009 61 10000 2.57 330 09:23 13.08.2022
2249 Clear 25 1009 83 6000 2.06 300 06:26 13.08.2022
2250 Clear 26 1009 73 10000 2.57 340 01:36 13.08.2022
2251 Clear 27 1009 69 10000 5.14 10 23:25 12.08.2022
2252 Clear 29 1009 58 10000 6.17 10 21:35 12.08.2022
2253 Clear 31 1008 40 10000 4.12 360 19:47 12.08.2022
2254 Clear 31 1008 40 10000 3.6 340 19:22 12.08.2022
2255 Clear 31 1008 40 10000 4.63 350 18:21 12.08.2022
2256 Clear 33 1007 35 10000 3.6 350 16:26 12.08.2022
2257 Clear 32 1007 37 10000 0 0 14:50 12.08.2022
2258 Clear 32 1008 35 10000 3.6 340 13:30 12.08.2022
2259 Clear 31 1009 40 10000 3.6 360 12:25 12.08.2022
2260 Clouds 27 1009 69 10000 1.54 340 08:51 12.08.2022
2261 Clear 26 1009 78 10000 2.06 50 07:45 12.08.2022
2262 Clear 26 1008 78 10000 2.06 20 04:55 12.08.2022
2263 Clear 27 1009 74 10000 3.6 50 00:32 12.08.2022
2264 Clear 27 1009 74 10000 4.12 50 23:55 11.08.2022
2265 Clear 28 1008 69 10000 4.63 30 22:45 11.08.2022
2266 Clear 29 1008 65 10000 5.66 20 21:53 11.08.2022
2267 Clear 30 1008 58 10000 5.66 10 21:28 11.08.2022
2268 Clear 31 1007 42 10000 5.14 20 20:30 11.08.2022
2269 Clear 32 1007 35 10000 4.63 340 19:33 11.08.2022
2270 Clouds 32 1007 35 10000 4.63 360 18:53 11.08.2022
2271 Clouds 34 1006 31 10000 4.12 330 16:47 11.08.2022
2272 Clouds 34 1007 26 10000 5.14 310 15:43 11.08.2022
2273 Clouds 34 1007 21 10000 4.63 290 14:40 11.08.2022
2274 Clouds 31 1008 48 6000 2.06 290 11:59 11.08.2022
2275 Mist 26 1009 78 4000 1.54 320 09:22 11.08.2022
2276 Mist 26 1008 83 4000 3.09 320 06:49 11.08.2022
2277 Clear 28 1007 74 10000 1.54 40 02:38 11.08.2022
2278 Clear 29 1008 70 10000 4.12 50 23:57 10.08.2022
2279 Clear 31 1008 55 10000 3.6 60 21:49 10.08.2022
2280 Clear 31 1008 51 10000 4.12 30 21:18 10.08.2022
2281 Clear 31 1008 51 10000 4.12 20 20:36 10.08.2022
2282 Clouds 32 1007 43 10000 3.6 350 18:53 10.08.2022
2283 Clouds 33 1007 40 10000 3.09 350 17:27 10.08.2022
2284 Clouds 34 1007 36 10000 4.12 350 14:57 10.08.2022
2285 Clear 33 1008 40 10000 3.6 330 13:34 10.08.2022
2286 Clear 30 1009 51 10000 3.09 60 10:51 10.08.2022
2287 Clouds 27 1009 74 10000 2.06 10 08:42 10.08.2022
2288 Clouds 26 1009 78 10000 2.57 360 07:36 10.08.2022
2289 Clear 26 1008 78 10000 4.12 360 05:46 10.08.2022
2290 Clear 27 1008 74 10000 2.57 50 02:22 10.08.2022
2291 Clear 28 1009 74 10000 5.14 40 23:33 09.08.2022
2292 Clear 29 1009 70 10000 6.17 30 22:48 09.08.2022
2293 Clear 30 1009 66 10000 5.14 40 21:33 09.08.2022
2294 Clear 33 1007 38 10000 4.12 360 19:33 09.08.2022
2295 Clear 34 1007 27 10000 3.6 340 17:59 09.08.2022
2296 Clear 35 1007 28 10000 4.63 330 17:26 09.08.2022
2297 Clear 35 1007 29 10000 3.6 320 16:40 09.08.2022
2298 Clear 35 1007 26 10000 5.14 310 15:31 09.08.2022
2299 Clear 34 1008 33 10000 1.54 250 12:20 09.08.2022
2300 Clear 27 1008 74 6000 2.06 360 08:55 09.08.2022
2301 Mist 27 1008 74 4000 2.06 360 08:26 09.08.2022
2302 Mist 26 1009 83 3000 1.03 340 07:18 09.08.2022
2303 Clear 29 1007 54 6000 0 0 02:54 09.08.2022
2304 Clear 31 1008 45 10000 2.57 60 23:26 08.08.2022
2305 Clear 31 1008 45 10000 2.06 70 22:52 08.08.2022
2306 Clear 31 1008 48 10000 3.09 20 21:48 08.08.2022
2307 Clear 32 1008 45 10000 3.6 340 20:52 08.08.2022
2308 Clear 33 1007 38 10000 4.63 20 19:50 08.08.2022
2309 Clear 35 1006 29 10000 2.06 350 18:19 08.08.2022
2310 Clear 35 1007 26 10000 4.12 290 15:57 08.08.2022
2311 Clear 35 1007 26 10000 4.12 290 15:38 08.08.2022
2312 Clear 33 1007 29 10000 2.06 310 12:39 08.08.2022
2313 Clear 32 1008 33 10000 1.54 300 11:48 08.08.2022
2314 Clear 30 1008 48 10000 1.54 60 09:29 08.08.2022
2315 Clear 26 1007 73 10000 2.06 90 05:35 08.08.2022
2316 Clear 27 1006 74 10000 1.54 50 02:24 08.08.2022
2317 Clear 29 1007 61 10000 4.63 350 22:20 07.08.2022
2318 Clear 30 1006 54 10000 5.33 33 21:38 07.08.2022
2319 Clear 31 1005 45 10000 4.12 340 20:25 07.08.2022
2320 Clear 31 1005 45 10000 4.12 340 19:54 07.08.2022
2321 Clear 32 1005 43 10000 3.6 340 19:29 07.08.2022
2322 Clear 33 1004 40 10000 4.12 320 18:21 07.08.2022
2323 Clear 33 1004 38 10000 4.12 310 16:53 07.08.2022
2324 Clear 33 1004 40 10000 2.06 290 15:54 07.08.2022
2325 Clear 32 1005 37 10000 3.09 340 14:39 07.08.2022
2326 Clear 32 1005 37 10000 2.57 290 13:22 07.08.2022
2327 Clear 29 1006 54 10000 1.03 340 10:59 07.08.2022
2328 Clear 29 1006 54 10000 1.03 340 10:28 07.08.2022
2329 Haze 25 1006 78 4000 2.06 350 05:48 07.08.2022
2330 Clear 26 1005 69 10000 1.54 50 03:19 07.08.2022
2331 Clear 28 1006 61 10000 2.57 10 23:37 06.08.2022
2332 Clear 28 1007 65 10000 3.6 30 22:20 06.08.2022
2333 Clear 30 1006 54 10000 6.17 360 20:24 06.08.2022
2334 Clear 30 1006 54 10000 5.66 360 19:39 06.08.2022
2335 Clear 32 1005 48 10000 5.14 340 18:25 06.08.2022
2336 Clear 39 1003 15 10000 5.77 326 17:28 06.08.2022
2337 Clear 33 1006 40 10000 4.63 330 14:31 06.08.2022
2338 Clear 33 1006 43 10000 4.12 10 13:40 06.08.2022
2339 Clear 30 1007 51 10000 3.09 360 11:24 06.08.2022
2340 Clouds 28 1007 61 6000 3.09 300 09:51 06.08.2022
2341 Clouds 26 1008 73 10000 2.57 340 08:28 06.08.2022
2342 Clear 25 1007 78 10000 2.57 360 03:35 06.08.2022
2343 Clear 27 1008 74 10000 4.12 350 23:34 05.08.2022
2344 Clear 28 1008 69 10000 4.12 340 22:22 05.08.2022
2345 Clear 32 1007 45 10000 5.14 360 19:32 05.08.2022
2346 Clear 33 1006 40 10000 4.12 350 18:44 05.08.2022
2347 Clear 34 1006 38 10000 3.6 330 17:27 05.08.2022
2348 Clear 34 1006 36 10000 2.57 340 16:48 05.08.2022
2349 Clear 34 1006 36 10000 2.57 340 16:48 05.08.2022
2350 Clear 34 1006 36 10000 2.57 340 16:48 05.08.2022
2351 Clear 35 1006 29 10000 4.12 320 15:22 05.08.2022
2352 Clear 34 1007 29 10000 3.6 310 14:19 05.08.2022
2353 Clear 33 1007 35 10000 2.06 360 13:23 05.08.2022
2354 Clear 31 1008 40 10000 2.06 340 12:28 05.08.2022
2355 Clear 30 1008 51 10000 2.06 310 10:49 05.08.2022
2356 Clouds 26 1009 78 10000 2.57 360 08:27 05.08.2022
2357 Clouds 25 1008 83 10000 3.09 360 06:41 05.08.2022
2358 Clear 26 1008 78 10000 4.12 350 00:46 05.08.2022
2359 Clear 28 1009 61 10000 4.63 360 22:31 04.08.2022
2360 Clear 29 1008 58 10000 5.14 360 21:27 04.08.2022
2361 Clear 30 1008 51 10000 6.17 10 20:43 04.08.2022
2362 Clear 31 1008 51 10000 6.17 350 19:48 04.08.2022
2363 Clear 32 1007 48 10000 6.17 360 18:42 04.08.2022
2364 Clear 33 1007 46 10000 5.14 340 18:23 04.08.2022
2365 Clear 33 1007 40 10000 5.14 360 14:39 04.08.2022
2366 Clear 33 1008 35 10000 3.6 350 13:22 04.08.2022
2367 Clear 31 1008 45 10000 2.06 320 11:33 04.08.2022
2368 Clear 26 1008 69 10000 1.54 80 07:55 04.08.2022
2369 Clear 26 1008 69 10000 1.54 80 07:26 04.08.2022
2370 Clear 26 1008 69 10000 1.54 10 02:38 04.08.2022
2371 Clear 27 1008 69 6000 4.12 340 23:49 03.08.2022
2372 Clear 27 1008 69 6000 4.12 360 23:27 03.08.2022
2373 Clear 30 1008 51 10000 4.12 330 20:57 03.08.2022
2374 Clear 31 1007 40 10000 4.12 320 19:56 03.08.2022
2375 Clear 32 1007 33 10000 4.12 320 18:40 03.08.2022
2376 Clear 35 1006 28 10000 5.14 290 16:27 03.08.2022
2377 Clear 34 1006 26 10000 4.63 320 15:53 03.08.2022
2378 Clear 34 1007 27 10000 5.14 310 13:32 03.08.2022
2379 Clear 31 1007 45 10000 2.06 320 10:44 03.08.2022
2380 Clear 26 1007 69 10000 1.54 360 07:21 03.08.2022
2381 Clear 25 1007 83 10000 1.54 320 04:22 03.08.2022
2382 Clear 25 1007 83 10000 2.06 290 03:22 03.08.2022
2383 Clear 26 1007 78 10000 4.12 310 00:46 03.08.2022
2384 Clear 28 1007 69 10000 5.14 310 22:33 02.08.2022
2385 Clear 29 1006 65 10000 4.63 300 21:50 02.08.2022
2386 Clear 31 1006 58 10000 5.14 310 20:29 02.08.2022
2387 Clear 34 1005 40 10000 4.63 320 17:47 02.08.2022
2388 Clouds 34 1005 40 10000 3.09 290 14:39 02.08.2022
2389 Clouds 30 1006 54 10000 3.6 310 10:49 02.08.2022
2390 Clouds 27 1006 74 10000 2.57 300 08:54 02.08.2022
2391 Clouds 27 1006 74 10000 2.57 300 08:54 02.08.2022
2392 Clouds 26 1006 78 10000 2.06 270 07:52 02.08.2022
2393 Clear 26 1006 73 10000 1.54 300 04:59 02.08.2022
2394 Clear 26 1006 69 10000 3.6 300 03:36 02.08.2022
2395 Clear 28 1006 65 10000 4.63 320 23:32 01.08.2022
2396 Clear 29 1006 61 10000 4.63 310 22:21 01.08.2022
2397 Clear 32 1005 48 10000 3.6 310 20:40 01.08.2022
2398 Clear 33 1005 43 10000 4.12 330 19:22 01.08.2022
2399 Clear 35 1004 36 10000 4.63 340 17:27 01.08.2022
2400 Clear 35 1004 34 10000 4.63 340 16:50 01.08.2022
2401 Clear 35 1004 31 10000 5.14 320 15:51 01.08.2022
2402 Clear 35 1004 29 10000 4.63 320 15:28 01.08.2022
2403 Clear 35 1004 34 10000 3.6 300 13:44 01.08.2022
2404 Clear 33 1005 43 10000 3.6 300 11:49 01.08.2022
2405 Clouds 28 1006 69 6000 2.57 310 09:38 01.08.2022
2406 Clouds 26 1006 78 6000 3.09 290 08:20 01.08.2022
2407 Clouds 25 1005 83 6000 1.54 350 04:45 01.08.2022
2408 Clear 26 1005 83 6000 3.09 330 02:31 01.08.2022
2409 Clear 28 1005 65 10000 3.6 340 23:43 31.07.2022
2410 Clear 28 1005 65 10000 3.6 330 22:36 31.07.2022
2411 Clear 30 1005 58 10000 4.12 350 20:50 31.07.2022
2412 Clear 31 1004 55 10000 4.63 330 19:40 31.07.2022
2413 Clear 33 1004 46 10000 4.12 330 17:44 31.07.2022
2414 Clouds 34 1004 40 10000 4.63 290 15:30 31.07.2022
2415 Clear 32 1005 45 10000 2.57 300 13:41 31.07.2022
2416 Clouds 31 1006 51 10000 2.57 330 11:52 31.07.2022
2417 Clouds 27 1007 65 10000 3.09 320 09:28 31.07.2022
2418 Clouds 26 1007 65 6000 2.06 350 06:43 31.07.2022
2419 Clear 26 1007 61 10000 1.54 80 02:57 31.07.2022
2420 Clear 29 1008 48 10000 2.57 360 23:35 30.07.2022
2421 Clear 29 1008 48 10000 3.6 10 22:19 30.07.2022
2422 Clear 30 1008 42 10000 3.09 360 21:48 30.07.2022
2423 Clear 30 1008 42 10000 4.63 10 20:56 30.07.2022
2424 Clear 30 1008 51 10000 6.17 360 19:58 30.07.2022
2425 Clear 32 1007 48 10000 6.17 350 18:51 30.07.2022
2426 Clear 34 1007 26 10000 4.12 340 17:42 30.07.2022
2427 Clear 35 1007 20 10000 3.6 330 15:49 30.07.2022
2428 Clear 35 1007 23 10000 3.6 310 15:21 30.07.2022
2429 Clear 34 1008 26 10000 3.6 330 12:55 30.07.2022
2430 Clear 33 1008 31 10000 4.63 320 11:55 30.07.2022
2431 Clear 32 1009 33 10000 2.06 360 10:31 30.07.2022
2432 Clear 31 1009 40 10000 1.54 360 09:47 30.07.2022
2433 Clear 27 1009 69 10000 1.54 90 07:55 30.07.2022
2434 Clear 27 1008 54 10000 1.03 60 02:37 30.07.2022
2435 Clear 28 1008 47 10000 1.03 50 01:49 30.07.2022
2436 Clear 29 1009 51 10000 5.14 30 22:25 29.07.2022
2437 Clear 30 1009 45 10000 6.17 360 21:23 29.07.2022
2438 Clear 32 1008 35 10000 6.17 360 19:57 29.07.2022
2439 Clear 35 1007 26 10000 5.66 360 17:59 29.07.2022
2440 Clear 36 1007 24 10000 5.66 330 15:27 29.07.2022
2441 Clear 35 1007 26 10000 5.14 350 13:18 29.07.2022
2442 Clear 34 1008 29 10000 2.06 360 11:22 29.07.2022
2443 Clear 29 1009 58 10000 2.57 360 08:50 29.07.2022
2444 Clear 27 1008 69 10000 2.06 10 07:54 29.07.2022
2445 Clear 27 1008 54 10000 1.54 40 01:52 29.07.2022
2446 Clear 29 1009 45 10000 2.06 50 22:49 28.07.2022
2447 Clear 31 1008 40 10000 5.14 20 21:20 28.07.2022
2448 Clear 32 1007 40 10000 6.69 20 20:32 28.07.2022
2449 Clear 32 1007 40 10000 6.17 20 19:43 28.07.2022
2450 Clear 34 1006 33 10000 6.17 360 19:23 28.07.2022
2451 Clear 35 1006 28 10000 5.14 350 17:44 28.07.2022
2452 Clear 35 1006 24 10000 5.66 350 16:57 28.07.2022
2453 Clear 36 1005 23 10000 6.17 350 16:28 28.07.2022
2454 Clear 36 1006 20 10000 3.09 360 13:30 28.07.2022
2455 Clear 34 1006 21 10000 4.12 30 11:27 28.07.2022
2456 Clear 26 1006 69 10000 0 0 06:45 28.07.2022
2457 Clear 26 1006 65 10000 1.54 40 05:31 28.07.2022
2458 Clear 27 1005 65 10000 2.06 60 02:40 28.07.2022
2459 Clear 30 1006 39 10000 2.06 50 22:45 27.07.2022
2460 Clear 32 1005 23 10000 3.6 30 21:29 27.07.2022
2461 Clear 33 1005 29 10000 4.63 20 19:44 27.07.2022
2462 Clear 33 1004 24 10000 5.66 20 18:39 27.07.2022
2463 Clear 35 1004 23 10000 5.66 330 15:52 27.07.2022
2464 Clear 35 1004 18 10000 6.69 330 15:20 27.07.2022
2465 Clear 35 1005 23 10000 5.14 350 14:40 27.07.2022
2466 Clear 34 1005 24 10000 4.12 340 12:52 27.07.2022
2467 Mist 26 1006 73 4000 1.03 80 08:55 27.07.2022
2468 Mist 25 1006 83 2000 1.54 340 07:33 27.07.2022
2469 Clear 26 1005 69 10000 3.6 340 02:43 27.07.2022
2470 Clear 30 1005 62 10000 5.14 10 22:39 26.07.2022
2471 Clear 33 1005 24 10000 2.06 20 21:23 26.07.2022
2472 Clear 33 1004 25 10000 2.57 20 20:47 26.07.2022
2473 Clear 35 1004 18 10000 4.12 20 18:46 26.07.2022
2474 Clear 35 1004 18 10000 3.6 10 18:20 26.07.2022
2475 Clear 35 1004 20 10000 4.12 320 16:46 26.07.2022
2476 Clear 36 1004 16 10000 3.09 340 15:43 26.07.2022
2477 Clear 36 1005 14 10000 4.63 320 14:00 26.07.2022
2478 Clear 34 1005 24 10000 3.09 360 11:47 26.07.2022
2479 Clear 29 1005 54 10000 2.06 10 09:35 26.07.2022
2480 Clear 26 1005 78 10000 1.54 110 07:56 26.07.2022
2481 Clear 27 1005 65 10000 2.06 80 01:44 26.07.2022
2482 Clear 28 1005 61 10000 3.09 10 23:37 25.07.2022
2483 Clear 29 1005 61 10000 5.14 350 22:33 25.07.2022
2484 Clear 30 1005 58 10000 5.66 360 21:43 25.07.2022
2485 Clear 32 1005 37 10000 5.14 360 20:42 25.07.2022
2486 Clear 33 1004 31 10000 3.6 350 19:51 25.07.2022
2487 Clear 35 1004 26 10000 4.63 340 18:23 25.07.2022
2488 Clear 36 1003 23 10000 4.12 320 17:34 25.07.2022
2489 Clear 36 1003 20 10000 5.14 300 16:40 25.07.2022
2490 Haze 33 1005 35 4000 3.09 290 12:47 25.07.2022
2491 Haze 30 1006 48 4000 2.06 280 10:42 25.07.2022
2492 Mist 23 1005 94 3000 3.09 320 07:29 25.07.2022
2493 Clear 28 1006 57 10000 2.06 20 23:57 24.07.2022
2494 Clear 28 1006 57 10000 3.09 20 23:22 24.07.2022
2495 Clear 28 1006 54 10000 4.12 10 22:41 24.07.2022
2496 Clear 30 1006 48 10000 5.14 360 21:30 24.07.2022
2497 Clear 30 1006 48 10000 4.63 350 20:57 24.07.2022
2498 Clear 31 1005 48 10000 5.14 350 20:35 24.07.2022
2499 Clear 33 1005 46 10000 5.66 350 18:59 24.07.2022
2500 Clear 36 1005 20 10000 5.14 340 16:54 24.07.2022
2501 Clear 36 1005 20 10000 5.14 350 15:54 24.07.2022
2502 Clear 36 1005 28 10000 4.63 340 14:41 24.07.2022
2503 Clear 34 1005 31 10000 3.6 320 13:47 24.07.2022
2504 Clear 32 1006 33 10000 2.57 270 12:19 24.07.2022
2505 Clear 31 1007 37 10000 1.03 70 11:29 24.07.2022
2506 Clear 26 1007 65 6000 2.57 300 09:44 24.07.2022
2507 Mist 24 1008 78 4000 2.06 290 07:53 24.07.2022
2508 Mist 24 1008 78 4000 2.06 290 07:26 24.07.2022
2509 Clear 26 1007 73 6000 1.54 330 02:52 24.07.2022
2510 Clear 28 1008 65 10000 5.14 10 22:52 23.07.2022
2511 Clear 30 1008 51 10000 5.14 340 20:47 23.07.2022
2512 Clear 32 1007 40 10000 6.17 360 19:25 23.07.2022
2513 Clear 33 1007 35 10000 6.17 360 18:36 23.07.2022
2514 Clear 34 1007 27 10000 5.14 340 17:27 23.07.2022
2515 Clear 35 1007 31 10000 5.14 350 16:24 23.07.2022
2516 Clear 34 1008 29 10000 4.12 330 15:22 23.07.2022
2517 Clear 34 1008 29 10000 4.63 360 14:52 23.07.2022
2518 Clear 34 1008 33 10000 3.6 340 14:23 23.07.2022
2519 Clear 31 1009 42 10000 2.06 340 11:56 23.07.2022
2520 Haze 28 1010 57 4000 2.06 310 10:41 23.07.2022
2521 Haze 27 1010 65 4000 2.06 320 09:44 23.07.2022
2522 Mist 24 1010 83 4000 3.09 290 07:37 23.07.2022
2523 Clear 25 1009 78 10000 2.06 330 03:37 23.07.2022
2524 Clear 26 1010 73 10000 3.6 360 00:39 23.07.2022
2525 Clear 29 1010 58 10000 6.17 360 21:38 22.07.2022
2526 Clear 31 1009 51 10000 5.66 360 20:33 22.07.2022
2527 Clear 33 1009 31 10000 4.63 20 18:57 22.07.2022
2528 Clear 34 1008 29 10000 6.17 360 17:52 22.07.2022
2529 Clear 34 1008 29 10000 5.14 10 16:31 22.07.2022
2530 Clear 33 1008 31 10000 3.6 320 13:50 22.07.2022
2531 Clear 29 1009 51 10000 2.06 350 10:41 22.07.2022
2532 Clouds 26 1010 61 10000 2.06 350 09:25 22.07.2022
2533 Clouds 25 1009 65 10000 3.6 350 08:26 22.07.2022
2534 Clear 24 1008 78 10000 2.06 10 04:26 22.07.2022
2535 Clear 26 1009 69 10000 3.09 310 23:45 21.07.2022
2536 Clouds 28 1009 57 10000 3.09 320 22:25 21.07.2022
2537 Clouds 29 1009 51 10000 4.12 340 20:48 21.07.2022
2538 Clouds 32 1007 43 10000 5.66 340 18:54 21.07.2022
2539 Clouds 33 1007 38 10000 5.66 340 17:39 21.07.2022
2540 Clear 37 1006 18 10000 8.96 330 17:19 21.07.2022
2541 Clouds 33 1007 35 10000 4.63 350 14:52 21.07.2022
2542 Clouds 33 1007 35 10000 4.63 320 14:24 21.07.2022
2543 Clouds 31 1008 45 10000 3.6 320 12:27 21.07.2022
2544 Clouds 30 1008 48 10000 3.09 320 10:48 21.07.2022
2545 Clouds 27 1009 65 10000 1.54 280 09:18 21.07.2022
2546 Clouds 25 1009 78 10000 2.57 330 08:45 21.07.2022
2547 Clear 24 1009 78 10000 2.06 290 07:32 21.07.2022
2548 Clear 24 1008 83 10000 2.06 290 03:55 21.07.2022
2549 Clear 27 1009 61 10000 2.57 340 00:24 21.07.2022
2550 Clear 28 1010 54 10000 5.14 340 22:21 20.07.2022
2551 Clear 30 1009 51 10000 5.66 330 20:54 20.07.2022
2552 Clouds 32 1009 37 10000 5.66 340 19:50 20.07.2022
2553 Clouds 32 1008 43 10000 6.17 340 19:24 20.07.2022
2554 Clouds 33 1008 40 10000 6.69 350 18:34 20.07.2022
2555 Clouds 34 1007 31 10000 5.14 350 17:59 20.07.2022
2556 Clouds 35 1007 29 10000 5.14 20 16:45 20.07.2022
2557 Clouds 35 1008 31 10000 3.09 330 15:31 20.07.2022
2558 Clear 35 1008 29 10000 2.57 330 14:20 20.07.2022
2559 Clear 31 1009 51 10000 3.09 330 11:34 20.07.2022
2560 Clear 28 1009 65 6000 2.06 360 08:50 20.07.2022
2561 Clear 26 1008 83 10000 1.54 360 03:47 20.07.2022
2562 Clear 28 1008 74 10000 3.6 10 00:49 20.07.2022
2563 Clear 29 1008 65 10000 2.06 340 23:41 19.07.2022
2564 Clear 30 1008 62 10000 4.12 350 22:33 19.07.2022
2565 Clear 31 1008 58 10000 5.66 360 21:31 19.07.2022
2566 Clear 33 1006 35 10000 5.14 360 20:33 19.07.2022
2567 Clear 34 1007 31 10000 3.6 330 18:58 19.07.2022
2568 Clear 35 1006 29 10000 4.12 340 18:28 19.07.2022
2569 Clear 36 1006 21 10000 3.6 10 16:37 19.07.2022
2570 Clear 36 1006 21 10000 4.12 320 14:53 19.07.2022
2571 Clear 33 1007 33 10000 2.57 300 11:44 19.07.2022
2572 Clear 32 1007 45 6000 2.57 320 10:55 19.07.2022
2573 Clear 29 1007 58 6000 1.54 300 09:25 19.07.2022
2574 Clear 27 1007 69 6000 1.54 310 08:39 19.07.2022
2575 Clear 27 1007 65 6000 1.54 350 07:19 19.07.2022
2576 Clear 26 1007 69 6000 1.54 340 05:48 19.07.2022
2577 Clear 27 1006 61 10000 1.54 360 04:56 19.07.2022
2578 Clear 28 1006 57 10000 1.54 60 01:50 19.07.2022
2579 Clear 30 1007 54 10000 3.6 360 23:49 18.07.2022
2580 Clear 30 1007 54 10000 3.6 360 23:18 18.07.2022
2581 Clear 30 1007 58 10000 4.63 360 22:22 18.07.2022
2582 Clear 33 1006 49 10000 5.66 360 20:52 18.07.2022
2583 Clear 34 1005 38 10000 4.12 350 19:33 18.07.2022
2584 Clear 35 1005 34 10000 4.63 330 17:53 18.07.2022
2585 Clear 35 1004 34 10000 5.14 320 16:28 18.07.2022
2586 Clear 36 1005 34 10000 3.6 310 15:19 18.07.2022
2587 Clear 34 1005 36 10000 3.09 10 13:31 18.07.2022
2588 Clear 31 1006 45 10000 2.06 330 11:31 18.07.2022
2589 Clear 28 1007 65 10000 1.54 320 09:54 18.07.2022
2590 Clouds 24 1007 88 6000 2.06 360 07:49 18.07.2022
2591 Clear 25 1007 73 10000 1.54 340 02:51 18.07.2022
2592 Clear 28 1008 65 10000 3.09 350 22:55 17.07.2022
2593 Clear 29 1008 58 10000 5.14 10 22:29 17.07.2022
2594 Clear 29 1008 61 10000 4.12 350 21:35 17.07.2022
2595 Clear 30 1007 54 10000 5.14 340 20:45 17.07.2022
2596 Clear 32 1007 43 10000 4.63 340 19:49 17.07.2022
2597 Clear 33 1006 40 10000 5.66 360 19:20 17.07.2022
2598 Clear 34 1006 31 10000 5.66 360 17:42 17.07.2022
2599 Clear 34 1006 29 10000 5.14 360 17:22 17.07.2022
2600 Clear 34 1006 29 10000 5.14 330 16:32 17.07.2022
2601 Clear 35 1006 24 10000 4.63 330 15:49 17.07.2022
2602 Clear 35 1007 28 10000 4.63 340 13:51 17.07.2022
2603 Clear 33 1007 35 10000 3.6 310 12:42 17.07.2022
2604 Clouds 29 1008 54 10000 1.03 330 10:20 17.07.2022
2605 Clouds 24 1009 78 10000 2.06 290 06:59 17.07.2022
2606 Clouds 25 1008 73 10000 2.57 350 02:35 17.07.2022
2607 Clear 26 1009 73 10000 4.63 10 23:26 16.07.2022
2608 Clear 27 1009 65 10000 4.63 10 22:33 16.07.2022
2609 Clear 30 1008 51 10000 4.63 350 20:40 16.07.2022
2610 Clear 31 1007 40 10000 4.63 340 18:58 16.07.2022
2611 Clear 32 1007 40 10000 5.14 310 17:47 16.07.2022
2612 Clear 32 1007 33 10000 4.12 310 15:54 16.07.2022
2613 Clear 30 1009 42 10000 3.09 270 12:37 16.07.2022
2614 Clouds 27 1009 54 10000 4.12 300 10:29 16.07.2022
2615 Clouds 26 1009 57 10000 2.06 300 09:26 16.07.2022
2616 Clouds 26 1009 57 10000 2.57 330 08:41 16.07.2022
2617 Clear 25 1009 69 6000 2.57 10 07:23 16.07.2022
2618 Clear 25 1008 69 10000 2.57 10 03:35 16.07.2022
2619 Clear 26 1009 61 10000 2.57 350 00:48 16.07.2022
2620 Clear 27 1009 57 10000 3.09 330 22:57 15.07.2022
2621 Clear 28 1009 54 10000 3.6 20 22:26 15.07.2022
2622 Clear 30 1008 42 10000 4.63 340 20:44 15.07.2022
2623 Clouds 30 1008 42 10000 4.12 350 19:35 15.07.2022
2624 Clouds 32 1007 33 10000 3.6 300 18:23 15.07.2022
2625 Clouds 32 1007 33 10000 3.6 340 17:19 15.07.2022
2626 Clouds 32 1007 29 10000 5.14 280 14:24 15.07.2022
2627 Clouds 30 1008 39 10000 1.54 260 12:38 15.07.2022
2628 Clear 29 1008 42 10000 0 0 10:53 15.07.2022
2629 Clear 24 1009 73 10000 1.54 360 07:55 15.07.2022
2630 Clear 23 1008 78 10000 1.54 350 05:54 15.07.2022
2631 Clear 24 1008 64 10000 3.6 340 00:47 15.07.2022
2632 Clear 25 1009 61 10000 4.63 340 23:25 14.07.2022
2633 Clear 25 1009 57 10000 5.14 350 22:42 14.07.2022
2634 Clear 27 1008 57 10000 5.66 340 21:42 14.07.2022
2635 Clear 27 1008 57 10000 5.66 340 21:24 14.07.2022
2636 Clear 27 1008 54 10000 6.17 340 20:43 14.07.2022
2637 Clear 28 1008 47 10000 6.17 350 20:19 14.07.2022
2638 Clear 31 1007 40 10000 5.66 340 18:41 14.07.2022
2639 Clear 33 1007 31 10000 5.14 340 16:21 14.07.2022
2640 Clear 33 1007 33 10000 5.14 330 15:26 14.07.2022
2641 Clouds 32 1008 37 10000 5.14 310 13:52 14.07.2022
2642 Clouds 31 1008 40 10000 4.63 330 12:48 14.07.2022
2643 Clouds 30 1009 45 10000 3.6 310 11:41 14.07.2022
2644 Clouds 29 1009 45 10000 3.09 320 11:22 14.07.2022
2645 Clouds 27 1009 57 10000 3.09 280 09:49 14.07.2022
2646 Clouds 23 1010 83 10000 3.09 300 05:25 14.07.2022
2647 Clouds 24 1010 73 10000 3.09 320 01:22 14.07.2022
2648 Clouds 24 1010 78 10000 5.14 320 00:53 14.07.2022
2649 Clear 26 1010 65 10000 5.14 310 22:33 13.07.2022
2650 Clear 26 1010 65 10000 5.14 320 21:55 13.07.2022
2651 Clear 27 1010 57 10000 5.66 320 20:45 13.07.2022
2652 Clear 30 1009 45 10000 5.66 340 19:21 13.07.2022
2653 Clear 31 1009 40 10000 5.14 330 17:51 13.07.2022
2654 Clear 32 1008 37 10000 5.14 310 16:39 13.07.2022
2655 Clear 32 1008 37 10000 5.14 350 15:24 13.07.2022
2656 Clear 30 1010 37 10000 3.6 340 12:55 13.07.2022
2657 Clouds 27 1011 57 10000 4.12 340 10:45 13.07.2022
2658 Clouds 27 1011 57 10000 4.12 340 10:24 13.07.2022
2659 Clouds 26 1011 65 10000 5.14 300 09:24 13.07.2022
2660 Clouds 24 1011 78 10000 3.09 360 06:20 13.07.2022
2661 Clear 25 1011 83 10000 3.6 350 02:38 13.07.2022
2662 Clear 26 1011 78 10000 3.6 360 23:51 12.07.2022
2663 Clear 27 1011 74 10000 4.63 340 21:58 12.07.2022
2664 Clear 28 1011 65 10000 5.66 350 21:32 12.07.2022
2665 Clear 29 1011 58 10000 5.14 350 20:41 12.07.2022
2666 Clear 31 1010 51 10000 6.69 350 19:28 12.07.2022
2667 Clear 33 1009 43 10000 5.66 350 17:54 12.07.2022
2668 Clear 33 1010 43 10000 6.69 330 16:20 12.07.2022
2669 Clear 33 1010 43 10000 6.69 330 16:20 12.07.2022
2670 Clouds 32 1010 43 10000 4.12 340 14:31 12.07.2022
2671 Clouds 32 1011 43 10000 4.63 10 13:20 12.07.2022
2672 Clouds 29 1012 51 10000 4.12 320 11:37 12.07.2022
2673 Clouds 28 1012 57 10000 3.6 320 10:18 12.07.2022
2674 Clouds 25 1011 69 10000 1.54 10 08:26 12.07.2022
2675 Clouds 24 1011 73 10000 4.12 330 07:38 12.07.2022
2676 Clouds 24 1011 78 10000 2.06 350 05:42 12.07.2022
2677 Clouds 24 1011 78 10000 3.6 350 03:50 12.07.2022
2678 Clear 26 1010 65 10000 3.6 340 23:43 11.07.2022
2679 Clear 27 1011 61 10000 5.14 350 22:36 11.07.2022
2680 Clear 28 1010 57 10000 5.14 350 20:54 11.07.2022
2681 Clear 29 1009 54 10000 5.14 340 20:29 11.07.2022
2682 Clouds 31 1008 42 10000 4.63 350 18:39 11.07.2022
2683 Clouds 31 1008 42 10000 4.63 340 17:57 11.07.2022
2684 Clouds 32 1008 40 10000 4.63 340 16:22 11.07.2022
2685 Clouds 31 1008 42 10000 1.54 340 14:58 11.07.2022
2686 Clouds 30 1009 42 10000 4.63 360 12:38 11.07.2022
2687 Clouds 29 1009 48 10000 3.09 340 10:56 11.07.2022
2688 Clouds 27 1009 57 10000 1.54 310 09:54 11.07.2022
2689 Clouds 27 1009 57 10000 1.54 310 09:25 11.07.2022
2690 Clouds 25 1009 69 10000 3.6 10 08:30 11.07.2022
2691 Clear 26 1008 65 10000 3.6 40 00:56 11.07.2022
2692 Clear 26 1008 65 10000 4.63 10 23:53 10.07.2022
2693 Clear 27 1008 61 10000 6.17 360 22:45 10.07.2022
2694 Clear 30 1007 45 10000 5.66 340 20:55 10.07.2022
2695 Clear 30 1007 45 10000 5.66 340 20:34 10.07.2022
2696 Clouds 31 1006 42 10000 6.69 340 19:29 10.07.2022
2697 Clouds 32 1005 43 10000 5.14 320 18:23 10.07.2022
2698 Clouds 33 1005 40 10000 4.63 320 17:20 10.07.2022
2699 Clouds 33 1005 40 10000 4.63 310 16:21 10.07.2022
2700 Clouds 33 1005 43 10000 5.14 320 14:44 10.07.2022
2701 Clear 33 1005 40 10000 2.06 310 13:30 10.07.2022
2702 Clouds 30 1006 54 10000 1.54 30 11:44 10.07.2022
2703 Clouds 27 1006 69 10000 3.09 20 09:45 10.07.2022
2704 Clouds 27 1006 65 10000 2.06 360 08:44 10.07.2022
2705 Mist 25 1006 83 5000 3.09 340 07:19 10.07.2022
2706 Clear 29 1007 48 10000 2.57 340 23:53 09.07.2022
2707 Clear 30 1007 45 10000 2.57 360 22:26 09.07.2022
2708 Clear 30 1007 45 10000 2.57 360 22:26 09.07.2022
2709 Clear 31 1007 40 10000 3.09 10 21:47 09.07.2022
2710 Clear 32 1007 33 10000 3.6 350 19:50 09.07.2022
2711 Clear 34 1006 31 10000 4.63 340 18:32 09.07.2022
2712 Clear 34 1006 29 10000 5.66 350 17:32 09.07.2022
2713 Clear 35 1006 29 10000 5.66 340 16:36 09.07.2022
2714 Clear 35 1006 29 10000 4.63 350 15:39 09.07.2022
2715 Clear 34 1006 31 10000 4.12 330 14:24 09.07.2022
2716 Clear 34 1006 31 10000 4.12 340 13:48 09.07.2022
2717 Clear 32 1007 37 10000 2.57 330 12:29 09.07.2022
2718 Clear 28 1008 61 10000 3.09 330 10:42 09.07.2022
2719 Clear 28 1008 61 10000 3.09 330 10:21 09.07.2022
2720 Clouds 25 1008 73 10000 2.06 280 07:44 09.07.2022
2721 Clouds 24 1008 83 10000 3.6 300 04:53 09.07.2022
2722 Clear 25 1008 78 10000 3.6 350 00:43 09.07.2022
2723 Clear 27 1008 69 10000 4.12 350 22:42 08.07.2022
2724 Clouds 28 1008 61 10000 5.14 340 21:31 08.07.2022
2725 Clouds 31 1007 48 10000 5.66 310 20:40 08.07.2022
2726 Clouds 31 1006 48 10000 5.14 330 19:48 08.07.2022
2727 Clouds 33 1006 43 10000 4.63 340 18:19 08.07.2022
2728 Clouds 33 1007 43 10000 3.6 330 16:39 08.07.2022
2729 Clouds 33 1007 40 10000 4.63 300 14:51 08.07.2022
2730 Clouds 31 1008 45 10000 2.57 260 13:24 08.07.2022
2731 Clouds 31 1008 45 10000 2.57 260 13:24 08.07.2022
2732 Clouds 29 1008 54 10000 3.6 270 11:28 08.07.2022
2733 Clouds 28 1009 57 10000 2.57 290 10:27 08.07.2022
2734 Clouds 25 1010 69 10000 2.57 290 08:26 08.07.2022
2735 Clouds 24 1008 78 10000 1.54 290 06:47 08.07.2022
2736 Clear 26 1009 65 10000 3.6 320 01:19 08.07.2022
2737 Clear 28 1009 57 10000 4.63 320 22:57 07.07.2022
2738 Clear 28 1009 57 10000 4.63 320 22:27 07.07.2022
2739 Clear 33 1008 27 10000 3.09 330 19:53 07.07.2022
2740 Clear 33 1007 24 10000 3.6 300 18:18 07.07.2022
2741 Clear 34 1007 18 10000 4.12 290 16:46 07.07.2022
2742 Clear 34 1007 21 10000 2.57 340 14:32 07.07.2022
2743 Clear 34 1008 18 10000 1.54 220 12:53 07.07.2022
2744 Clear 32 1008 20 10000 3.09 320 12:23 07.07.2022
2745 Clear 32 1009 23 10000 3.6 350 11:44 07.07.2022
2746 Clear 32 1008 19 10000 1.96 323 11:24 07.07.2022
2747 Clear 28 1008 51 10000 1.96 323 10:40 07.07.2022
2748 Clear 28 1009 51 6000 1.54 10 10:22 07.07.2022
2749 Clear 25 1008 73 10000 0 0 06:40 07.07.2022
2750 Clear 28 1008 58 10000 3.42 28 00:32 07.07.2022
2751 Clear 28 1008 58 10000 4.07 30 23:36 06.07.2022
2752 Clear 28 1009 58 10000 4.76 27 23:18 06.07.2022
2753 Clear 28 1008 57 10000 4.63 20 22:52 06.07.2022
2754 Clear 28 1008 57 10000 4.63 20 22:34 06.07.2022
2755 Clear 31 1008 45 10000 4.63 350 20:33 06.07.2022
2756 Clear 32 1007 27 10000 5.66 350 19:33 06.07.2022
2757 Clear 34 1006 24 10000 4.12 310 17:22 06.07.2022
2758 Clear 34 1007 22 10000 4.12 340 15:58 06.07.2022
2759 Clear 34 1007 22 10000 3.09 340 13:21 06.07.2022
2760 Clear 34 1008 22 10000 4.63 300 12:28 06.07.2022
2761 Clear 33 1008 25 10000 3.09 320 11:44 06.07.2022
2762 Clear 30 1008 42 10000 2.06 10 10:18 06.07.2022
2763 Clear 26 1008 73 6000 1.03 20 07:44 06.07.2022
2764 Clear 25 1008 78 6000 1.03 10 07:19 06.07.2022
2765 Clear 26 1008 73 10000 2.06 10 01:20 06.07.2022
2766 Clear 28 1009 65 10000 4.12 10 22:44 05.07.2022
2767 Clear 30 1008 62 10000 6.17 360 21:29 05.07.2022
2768 Clear 34 1007 24 10000 5.14 350 20:35 05.07.2022
2769 Clear 34 1007 24 10000 4.12 340 19:40 05.07.2022
2770 Clear 35 1007 21 10000 4.12 330 18:23 05.07.2022
2771 Clear 35 1006 20 10000 4.63 340 17:39 05.07.2022
2772 Clear 36 1007 19 10000 3.6 310 16:36 05.07.2022
2773 Clear 36 1007 16 10000 2.57 310 14:55 05.07.2022
2774 Clear 35 1008 23 10000 3.09 330 13:36 05.07.2022
2775 Clear 34 1008 26 10000 4.12 340 12:41 05.07.2022
2776 Clear 31 1008 42 10000 1.54 320 10:46 05.07.2022
2777 Clear 30 1008 54 6000 1.54 320 09:58 05.07.2022
2778 Clear 27 1008 74 6000 1.54 300 08:23 05.07.2022
2779 Mist 26 1009 83 4000 3.6 290 07:21 05.07.2022
2780 Clear 26 1008 78 6000 3.09 330 04:40 05.07.2022
2781 Clear 29 1008 54 10000 1.54 330 01:54 05.07.2022
2782 Clear 30 1008 45 10000 3.6 60 23:40 04.07.2022
2783 Clear 32 1007 43 10000 3.6 40 22:58 04.07.2022
2784 Clear 32 1007 43 10000 3.6 40 22:20 04.07.2022
2785 Clear 34 1005 26 10000 3.6 360 20:58 04.07.2022
2786 Clear 34 1005 26 10000 3.6 360 20:38 04.07.2022
2787 Clear 34 1006 25 10000 5 345 20:18 04.07.2022
2788 Clear 35 1006 24 10000 3.6 10 19:43 04.07.2022
2789 Clear 35 1006 24 10000 3.6 10 19:24 04.07.2022
2790 Clear 36 1005 23 10000 3.09 330 17:40 04.07.2022
2791 Clouds 36 1005 23 10000 5.14 300 15:42 04.07.2022
2792 Clouds 36 1006 19 10000 4.63 310 14:39 04.07.2022
2793 Clouds 35 1006 24 10000 1.54 280 13:20 04.07.2022
2794 Clear 34 1006 33 6000 1.54 10 11:43 04.07.2022
2795 Clear 32 1007 43 6000 3.09 350 10:33 04.07.2022
2796 Clear 31 1006 48 6000 1.54 320 09:36 04.07.2022
2797 Clear 27 1006 69 10000 1.54 300 06:50 04.07.2022
2798 Clear 27 1006 69 10000 1.54 50 03:30 04.07.2022
2799 Clear 28 1006 69 10000 2.57 70 00:27 04.07.2022
2800 Clear 30 1007 66 10000 4.63 50 22:58 03.07.2022
2801 Clear 33 1006 40 10000 5.14 20 20:47 03.07.2022
2802 Clear 34 1006 26 10000 4.12 10 20:21 03.07.2022
2803 Clear 35 1005 24 10000 4.12 350 19:26 03.07.2022
2804 Clear 35 1005 23 10000 3.6 340 18:32 03.07.2022
2805 Clear 36 1005 23 10000 3.6 340 17:43 03.07.2022
2806 Clear 36 1005 23 10000 4.63 270 15:28 03.07.2022
2807 Clear 36 1005 23 10000 4.12 300 14:58 03.07.2022
2808 Clear 35 1005 24 10000 2.57 360 13:59 03.07.2022
2809 Clear 35 1006 26 10000 3.09 310 13:27 03.07.2022
2810 Clear 33 1006 31 6000 1.54 40 12:22 03.07.2022
2811 Clear 31 1007 42 6000 1.54 320 11:18 03.07.2022
2812 Clear 29 1007 61 6000 1.54 240 10:38 03.07.2022
2813 Mist 26 1007 78 3000 1.54 280 08:59 03.07.2022
2814 Clear 25 1007 83 6000 2.57 290 07:34 03.07.2022
2815 Clear 27 1007 74 10000 2.57 60 01:39 03.07.2022
2816 Clear 29 1008 65 10000 3.09 40 23:50 02.07.2022
2817 Clear 31 1008 45 10000 4.63 360 22:33 02.07.2022
2818 Clear 33 1008 31 10000 5.84 12 20:37 02.07.2022
2819 Clear 33 1007 31 10000 4.63 360 19:51 02.07.2022
2820 Clear 33 1007 31 10000 4.12 340 19:19 02.07.2022
2821 Clear 34 1007 29 10000 4.12 330 17:41 02.07.2022
2822 Clear 34 1007 29 10000 3.6 310 16:48 02.07.2022
2823 Clear 34 1007 31 10000 2.57 340 13:51 02.07.2022
2824 Clear 31 1008 40 10000 1.54 310 12:19 02.07.2022
2825 Clouds 30 1009 48 6000 1.54 320 10:54 02.07.2022
2826 Clouds 29 1009 58 6000 1.54 280 10:33 02.07.2022
2827 Mist 26 1009 73 4000 1.54 360 08:55 02.07.2022
2828 Mist 26 1009 73 4000 1.54 360 08:20 02.07.2022
2829 Mist 24 1008 83 4000 2.06 10 06:59 02.07.2022
2830 Clear 26 1008 73 10000 1.54 60 01:45 02.07.2022
2831 Clear 28 1009 65 10000 5.14 360 23:56 01.07.2022
2832 Clear 28 1009 65 10000 4.63 350 22:41 01.07.2022
2833 Clouds 29 1009 61 10000 6.17 360 21:47 01.07.2022
2834 Clouds 29 1009 61 10000 6.17 360 21:27 01.07.2022
2835 Clouds 31 1008 40 10000 3.6 340 20:38 01.07.2022
2836 Clouds 32 1008 37 10000 4.12 360 19:42 01.07.2022
2837 Clouds 33 1007 29 10000 4.12 320 17:53 01.07.2022
2838 Clouds 33 1007 31 10000 2.57 350 15:54 01.07.2022
2839 Clouds 31 1008 40 10000 2.57 320 13:54 01.07.2022
2840 Clouds 31 1008 40 10000 2.57 300 12:41 01.07.2022
2841 Clouds 28 1009 57 6000 1.54 280 10:20 01.07.2022
2842 Clouds 28 1009 57 6000 1.54 280 10:20 01.07.2022
2843 Clouds 28 1009 57 6000 1.54 280 10:20 01.07.2022
2844 Clouds 27 1009 65 6000 1.54 290 09:43 01.07.2022
2845 Clear 25 1008 78 6000 3.09 10 04:49 01.07.2022
2846 Clouds 27 1008 69 10000 3.09 10 00:26 01.07.2022
2847 Clear 28 1009 65 10000 4.12 360 23:22 30.06.2022
2848 Clear 28 1009 65 10000 4.12 360 22:44 30.06.2022
2849 Clear 28 1009 65 10000 5.14 10 22:25 30.06.2022
2850 Clear 29 1008 61 10000 5.14 340 21:45 30.06.2022
2851 Clear 30 1007 45 10000 4.12 340 20:30 30.06.2022
2852 Clear 31 1007 42 10000 4.63 350 19:54 30.06.2022
2853 Clear 32 1007 37 10000 4.12 340 19:25 30.06.2022
2854 Clouds 32 1007 37 10000 3.6 330 18:42 30.06.2022
2855 Clouds 32 1006 37 10000 4.12 320 17:44 30.06.2022
2856 Clouds 32 1006 37 10000 3.6 300 16:55 30.06.2022
2857 Clouds 32 1006 37 10000 4.12 320 15:42 30.06.2022
2858 Clouds 33 1007 33 10000 4.12 270 13:36 30.06.2022
2859 Clouds 31 1007 42 10000 4.12 250 12:35 30.06.2022
2860 Clouds 31 1008 42 10000 4.12 260 11:43 30.06.2022
2861 Clouds 27 1008 69 6000 1.54 290 09:55 30.06.2022
2862 Clouds 27 1008 69 6000 1.54 290 09:35 30.06.2022
2863 Clouds 26 1008 73 6000 2.06 300 08:19 30.06.2022
2864 Clouds 25 1008 78 6000 2.57 300 07:24 30.06.2022
2865 Clouds 27 1007 69 10000 1.54 50 02:38 30.06.2022
2866 Clouds 27 1008 69 10000 3.6 30 23:36 29.06.2022
2867 Clouds 28 1008 65 10000 4.63 10 22:41 29.06.2022
2868 Clouds 28 1008 65 10000 6.69 360 21:43 29.06.2022
2869 Clear 30 1007 58 10000 7.2 330 20:34 29.06.2022
2870 Clear 32 1007 29 10000 3.6 340 19:48 29.06.2022
2871 Clear 33 1006 29 10000 3.09 320 17:54 29.06.2022
2872 Clear 34 1007 26 10000 2.06 290 16:51 29.06.2022
2873 Clear 34 1007 26 10000 2.06 290 16:51 29.06.2022
2874 Clear 34 1007 27 10000 2.57 350 15:32 29.06.2022
2875 Clear 32 1007 31 10000 2.57 320 13:36 29.06.2022
2876 Clear 31 1008 35 10000 3.09 250 12:24 29.06.2022
2877 Clouds 26 1009 61 10000 1.54 310 09:43 29.06.2022
2878 Clouds 26 1009 61 10000 1.54 310 09:21 29.06.2022
2879 Clouds 24 1008 78 6000 1.54 360 06:27 29.06.2022
2880 Clear 26 1008 73 10000 2.57 340 02:21 29.06.2022
2881 Clear 26 1008 73 10000 3.09 360 00:52 29.06.2022
2882 Clear 26 1008 73 10000 3.09 360 00:33 29.06.2022
2883 Clear 28 1009 57 10000 5.14 360 22:49 28.06.2022
2884 Clear 29 1009 54 10000 4.63 360 21:57 28.06.2022
2885 Clear 30 1008 51 10000 4.63 360 21:38 28.06.2022
2886 Clear 30 1008 48 10000 4.63 360 20:57 28.06.2022
2887 Clear 32 1007 35 10000 3.6 330 19:50 28.06.2022
2888 Clear 32 1007 37 10000 3.6 310 19:24 28.06.2022
2889 Clear 33 1006 33 10000 4.12 330 18:37 28.06.2022
2890 Clear 33 1006 31 10000 4.12 330 16:47 28.06.2022
2891 Clear 33 1006 31 10000 4.63 340 15:54 28.06.2022
2892 Clear 32 1007 35 10000 2.57 330 14:48 28.06.2022
2893 Clear 32 1007 33 10000 3.09 320 14:18 28.06.2022
2894 Clear 32 1007 33 10000 3.09 320 13:45 28.06.2022
2895 Clear 31 1008 35 10000 4.12 290 12:28 28.06.2022
2896 Clear 27 1008 54 10000 2.06 290 09:53 28.06.2022
2897 Clouds 25 1008 65 10000 2.57 310 08:55 28.06.2022
2898 Clouds 24 1008 73 10000 2.06 290 08:26 28.06.2022
2899 Clouds 24 1008 73 10000 2.06 310 07:20 28.06.2022
2900 Clear 23 1008 78 10000 2.57 320 03:38 28.06.2022
2901 Clear 26 1009 65 10000 4.63 300 23:51 27.06.2022
2902 Clear 27 1009 57 10000 3.6 300 23:25 27.06.2022
2903 Clear 28 1010 47 10000 5.14 320 21:53 27.06.2022
2904 Clear 29 1009 48 10000 4.63 330 21:22 27.06.2022
2905 Clear 31 1009 37 10000 4.63 330 20:21 27.06.2022
2906 Clear 32 1008 35 10000 5.66 300 18:50 27.06.2022
2907 Clear 33 1008 31 10000 5.66 310 17:33 27.06.2022
2908 Clear 34 1008 27 10000 5.66 320 15:50 27.06.2022
2909 Clear 37 1008 15 10000 8.85 304 14:18 27.06.2022
2910 Clear 32 1010 35 10000 5.14 270 12:58 27.06.2022
2911 Clear 31 1011 40 10000 4.63 280 11:40 27.06.2022
2912 Clear 29 1011 45 10000 2.57 360 09:45 27.06.2022
2913 Clear 28 1011 47 10000 2.06 350 08:43 27.06.2022
2914 Clear 27 1011 61 10000 1.54 280 07:49 27.06.2022
2915 Clear 25 1011 69 10000 1.03 270 05:50 27.06.2022
2916 Clear 27 1011 54 6000 2.57 300 01:24 27.06.2022
2917 Clear 29 1012 45 10000 2.06 350 23:22 26.06.2022
2918 Clear 30 1011 37 10000 4.63 360 21:39 26.06.2022
2919 Clear 32 1010 33 10000 5.14 350 20:33 26.06.2022
2920 Clear 34 1009 26 10000 5.66 360 18:34 26.06.2022
2921 Clear 34 1009 26 10000 5.14 360 17:47 26.06.2022
2922 Clear 34 1009 24 10000 4.63 340 15:37 26.06.2022
2923 Clear 33 1010 27 10000 4.63 330 14:23 26.06.2022
2924 Clear 32 1010 29 10000 3.09 330 13:26 26.06.2022
2925 Clear 31 1011 30 10000 3.09 320 11:49 26.06.2022
2926 Clear 29 1011 39 10000 3.09 330 10:42 26.06.2022
2927 Clear 28 1011 44 10000 1.54 310 10:22 26.06.2022
2928 Clouds 25 1011 65 10000 1.54 360 08:36 26.06.2022
2929 Clouds 24 1011 73 10000 2.57 360 06:31 26.06.2022
2930 Clear 26 1011 57 10000 4.12 10 00:38 26.06.2022
2931 Clear 26 1011 57 10000 4.12 10 00:19 26.06.2022
2932 Clear 26 1011 53 10000 5.14 10 23:31 25.06.2022
2933 Clear 27 1011 50 10000 5.14 10 22:48 25.06.2022
2934 Clear 27 1011 50 10000 5.66 20 22:25 25.06.2022
2935 Clear 28 1010 44 10000 6.17 10 21:21 25.06.2022
2936 Clear 28 1010 44 10000 5.66 20 20:48 25.06.2022
2937 Clear 29 1010 42 10000 7.2 10 20:25 25.06.2022
2938 Clouds 32 1008 33 10000 5.66 350 18:26 25.06.2022
2939 Clouds 33 1009 29 10000 6.69 360 17:27 25.06.2022
2940 Clouds 33 1008 33 10000 5.66 340 16:29 25.06.2022
2941 Clouds 33 1008 35 10000 5.66 330 14:43 25.06.2022
2942 Clear 32 1008 35 10000 4.12 310 12:51 25.06.2022
2943 Clear 32 1009 37 10000 5.14 310 12:32 25.06.2022
2944 Clear 29 1009 54 10000 3.6 300 09:35 25.06.2022
2945 Clouds 28 1009 65 6000 4.12 300 08:55 25.06.2022
2946 Clouds 26 1008 78 6000 4.12 300 08:25 25.06.2022
2947 Clouds 25 1008 83 6000 3.09 300 06:36 25.06.2022
2948 Clear 30 1007 37 10000 5.66 300 01:31 25.06.2022
2949 Clear 32 1007 35 10000 0 0 00:20 25.06.2022
2950 Clear 32 1008 35 10000 2.06 320 22:29 24.06.2022
2951 Clear 33 1007 35 10000 4.63 340 21:28 24.06.2022
2952 Clear 34 1007 33 10000 5.66 320 20:24 24.06.2022
2953 Clear 34 1007 36 10000 4.63 320 19:43 24.06.2022
2954 Clear 35 1007 29 10000 5.14 310 19:18 24.06.2022
2955 Clear 35 1007 29 10000 5.14 290 18:46 24.06.2022
2956 Clear 36 1006 28 10000 5.14 310 18:28 24.06.2022
2957 Clear 37 1006 26 10000 5.14 320 16:48 24.06.2022
2958 Clear 37 1007 25 10000 4.12 300 15:27 24.06.2022
2959 Clear 35 1008 28 10000 4.12 330 14:25 24.06.2022
2960 Clear 35 1008 28 10000 4.12 330 13:46 24.06.2022
2961 Clear 33 1009 31 10000 2.57 310 11:42 24.06.2022
2962 Clear 31 1009 40 6000 3.6 340 10:42 24.06.2022
2963 Clear 30 1010 42 6000 2.06 360 09:42 24.06.2022
2964 Haze 29 1010 58 4000 0 0 08:54 24.06.2022
2965 Haze 29 1010 58 4000 0 0 08:32 24.06.2022
2966 Haze 26 1010 73 3000 1.03 50 06:45 24.06.2022
2967 Haze 26 1010 73 3000 0 0 06:26 24.06.2022
2968 Clear 25 1010 78 6000 1.54 340 04:50 24.06.2022
2969 Clear 29 1009 54 10000 3.09 320 23:43 23.06.2022
2970 Clear 30 1010 51 10000 3.09 20 22:43 23.06.2022
2971 Clear 32 1010 37 10000 5.66 360 21:40 23.06.2022
2972 Clear 32 1009 51 10000 7.2 360 20:42 23.06.2022
2973 Clear 35 1009 23 10000 4.63 360 19:57 23.06.2022
2974 Clear 35 1008 23 10000 5.66 350 18:43 23.06.2022
2975 Clear 36 1008 19 10000 6.17 350 17:37 23.06.2022
2976 Clear 36 1007 20 10000 5.14 340 16:32 23.06.2022
2977 Clear 36 1008 21 10000 5.14 10 15:26 23.06.2022
2978 Clear 35 1008 23 10000 4.63 360 14:45 23.06.2022
2979 Clouds 32 1009 35 10000 1.54 290 11:49 23.06.2022
2980 Clouds 31 1010 37 6000 1.54 60 10:42 23.06.2022
2981 Haze 27 1010 61 4000 0 0 09:19 23.06.2022
2982 Clouds 23 1008 88 6000 1.54 290 05:48 23.06.2022
2983 Clear 25 1008 69 10000 3.09 340 01:21 23.06.2022
2984 Clear 26 1009 61 10000 4.12 330 00:18 23.06.2022
2985 Clear 27 1008 57 10000 4.12 320 23:22 22.06.2022
2986 Clear 24 1008 69 10000 4.63 330 21:44 22.06.2022
2987 Clear 29 1008 51 10000 4.63 330 20:52 22.06.2022
2988 Clouds 31 1007 40 10000 5.14 320 20:20 22.06.2022
2989 Clouds 31 1007 40 10000 5.14 320 19:43 22.06.2022
2990 Clouds 32 1006 35 10000 6.17 320 17:40 22.06.2022
2991 Clouds 33 1006 31 10000 5.66 340 16:43 22.06.2022
2992 Clouds 33 1006 33 10000 5.66 330 15:29 22.06.2022
2993 Clouds 33 1006 35 10000 4.63 310 14:51 22.06.2022
2994 Clouds 33 1007 33 10000 5.14 320 13:48 22.06.2022
2995 Clouds 31 1007 42 10000 5.14 280 13:24 22.06.2022
2996 Clouds 31 1007 42 10000 5.14 280 12:31 22.06.2022
2997 Clouds 30 1007 45 10000 4.12 310 11:45 22.06.2022
2998 Clouds 30 1007 45 10000 4.12 310 11:45 22.06.2022
2999 Clouds 28 1008 54 10000 3.6 300 10:47 22.06.2022
3000 Clouds 27 1008 57 10000 4.63 300 09:42 22.06.2022
3001 Clouds 24 1008 78 6000 4.63 270 07:22 22.06.2022
3002 Clear 24 1009 64 10000 4.12 310 02:39 22.06.2022
3003 Clear 25 1009 41 10000 4.12 310 00:57 22.06.2022
3004 Clear 25 1009 41 10000 4.12 310 00:57 22.06.2022
3005 Clear 26 1010 38 10000 4.63 310 22:57 21.06.2022
3006 Clear 27 1010 44 10000 4.63 340 21:21 21.06.2022
3007 Clear 29 1009 37 10000 6.17 330 19:30 21.06.2022
3008 Clear 29 1009 37 10000 6.17 330 19:30 21.06.2022
3009 Clear 30 1008 35 10000 6.17 330 17:56 21.06.2022
3010 Clear 32 1008 29 10000 6.69 320 16:49 21.06.2022
3011 Clear 30 1010 35 10000 5.14 310 12:23 21.06.2022
3012 Clear 29 1011 39 10000 3.09 290 10:47 21.06.2022
3013 Clear 26 1011 57 10000 1.54 360 09:35 21.06.2022
3014 Clear 24 1011 69 10000 2.06 340 07:56 21.06.2022
3015 Clear 22 1011 83 10000 2.57 80 04:59 21.06.2022
3016 Clear 24 1013 64 10000 3.09 350 00:35 21.06.2022
3017 Clear 26 1013 57 10000 4.12 10 22:22 20.06.2022
3018 Clear 26 1013 57 10000 4.63 360 21:41 20.06.2022
3019 Clear 29 1012 42 10000 6.17 350 20:30 20.06.2022
3020 Clear 30 1011 37 10000 6.69 350 19:37 20.06.2022
3021 Clear 30 1011 39 10000 5.66 340 18:44 20.06.2022
3022 Clear 32 1011 31 10000 5.66 360 17:50 20.06.2022
3023 Clear 33 1011 29 10000 7.2 10 16:55 20.06.2022
3024 Clear 33 1011 31 10000 4.63 340 15:52 20.06.2022
3025 Clear 30 1012 37 10000 3.09 330 12:38 20.06.2022
3026 Clear 27 1013 50 10000 2.06 300 10:32 20.06.2022
3027 Clear 24 1013 64 10000 3.09 30 08:57 20.06.2022
3028 Clear 24 1013 64 10000 3.09 30 08:57 20.06.2022
3029 Clear 24 1013 64 10000 3.09 30 08:21 20.06.2022
3030 Clear 23 1012 68 10000 3.09 20 05:35 20.06.2022
3031 Clear 24 1012 64 10000 3.09 10 01:44 20.06.2022
3032 Clear 25 1012 61 10000 4.12 360 00:26 20.06.2022
3033 Clear 26 1012 57 10000 5.14 10 22:50 19.06.2022
3034 Clear 27 1012 57 10000 6.17 10 21:57 19.06.2022
3035 Clear 28 1012 51 10000 6.17 10 21:39 19.06.2022
3036 Clear 30 1011 42 10000 6.17 20 20:38 19.06.2022
3037 Clear 31 1010 35 10000 6.17 10 19:47 19.06.2022
3038 Clear 32 1010 29 10000 4.63 350 18:45 19.06.2022
3039 Clear 32 1010 29 10000 5.14 20 17:54 19.06.2022
3040 Clear 33 1009 25 10000 4.12 330 17:22 19.06.2022
3041 Clear 33 1010 25 10000 3.6 330 16:35 19.06.2022
3042 Clear 32 1010 25 10000 5.14 340 15:41 19.06.2022
3043 Clear 32 1010 27 10000 4.63 320 14:57 19.06.2022
3044 Clear 32 1010 27 10000 4.63 320 14:20 19.06.2022
3045 Clear 31 1010 30 10000 3.6 350 13:23 19.06.2022
3046 Clear 28 1011 44 10000 0 0 11:21 19.06.2022
3047 Clear 27 1011 50 10000 0 0 10:31 19.06.2022
3048 Clouds 24 1012 69 10000 2.57 340 08:49 19.06.2022
3049 Clouds 24 1012 69 10000 2.57 340 08:19 19.06.2022
3050 Clouds 22 1011 83 10000 3.09 30 05:42 19.06.2022
3051 Clouds 23 1011 73 10000 2.57 330 02:26 19.06.2022
3052 Clear 24 1011 69 10000 3.09 340 00:25 19.06.2022
3053 Clear 25 1011 57 10000 6.17 360 23:36 18.06.2022
3054 Clear 25 1011 57 10000 5.66 350 22:45 18.06.2022
3055 Clear 27 1010 54 10000 5.66 350 21:38 18.06.2022
3056 Clear 29 1009 42 10000 6.17 340 20:42 18.06.2022
3057 Clouds 31 1009 37 10000 6.17 350 19:40 18.06.2022
3058 Clouds 32 1008 33 10000 5.66 340 18:54 18.06.2022
3059 Clouds 33 1008 29 10000 5.14 330 17:43 18.06.2022
3060 Clouds 33 1008 29 10000 9.08 339 17:22 18.06.2022
3061 Clear 33 1008 29 10000 4.63 350 15:37 18.06.2022
3062 Clear 33 1008 29 10000 4.63 360 14:48 18.06.2022
3063 Clouds 33 1008 31 10000 4.12 340 13:42 18.06.2022
3064 Clouds 30 1009 45 10000 3.6 350 11:58 18.06.2022
3065 Clear 29 1010 51 10000 4.12 350 10:56 18.06.2022
3066 Clouds 26 1010 65 6000 3.09 10 09:28 18.06.2022
3067 Clouds 25 1010 73 6000 3.09 350 08:32 18.06.2022
3068 Clouds 24 1010 78 6000 3.6 350 07:23 18.06.2022
3069 Mist 24 1009 78 4000 3.6 340 03:58 18.06.2022
3070 Clear 24 1010 83 10000 3.09 340 01:27 18.06.2022
3071 Clear 25 1010 78 10000 3.6 350 00:50 18.06.2022
3072 Clear 25 1010 78 10000 3.6 350 00:21 18.06.2022
3073 Clear 26 1010 65 10000 4.12 350 23:29 17.06.2022
3074 Clear 27 1010 57 10000 5.66 10 21:44 17.06.2022
3075 Clear 29 1010 48 10000 6.17 10 20:29 17.06.2022
3076 Clear 30 1009 48 10000 6.69 350 18:59 17.06.2022
3077 Clear 33 1008 33 10000 7.72 10 17:47 17.06.2022
3078 Clear 33 1008 33 10000 7.2 360 16:43 17.06.2022
3079 Clear 33 1008 33 10000 7.2 360 16:19 17.06.2022
3080 Clear 33 1008 33 10000 6.69 340 15:37 17.06.2022
3081 Clear 34 1009 33 10000 5.66 350 14:22 17.06.2022
3082 Clear 33 1009 35 10000 6.17 360 13:57 17.06.2022
3083 Clear 33 1009 35 10000 6.17 360 13:37 17.06.2022
3084 Clear 31 1009 40 10000 6.17 10 12:20 17.06.2022
3085 Clear 29 1010 51 10000 5.14 360 11:49 17.06.2022
3086 Clear 29 1010 51 10000 5.14 360 11:30 17.06.2022
3087 Clouds 26 1011 65 10000 4.63 350 08:45 17.06.2022
3088 Clouds 25 1011 69 10000 5.14 360 08:24 17.06.2022
3089 Clouds 24 1011 73 10000 5.14 10 06:35 17.06.2022
3090 Clouds 24 1011 73 10000 5.14 10 03:25 17.06.2022
3091 Clouds 24 1011 78 10000 5.66 10 01:27 17.06.2022
3092 Clouds 26 1012 69 10000 6.17 10 23:34 16.06.2022
3093 Clear 26 1012 69 10000 7.2 360 22:40 16.06.2022
3094 Clear 27 1011 65 10000 6.69 20 21:21 16.06.2022
3095 Clear 28 1011 57 10000 7.2 40 20:50 16.06.2022
3096 Clear 28 1011 57 10000 6.17 40 20:21 16.06.2022
3097 Clouds 30 1010 48 10000 7.72 30 19:31 16.06.2022
3098 Clouds 32 1009 37 10000 7.2 20 17:54 16.06.2022
3099 Clouds 32 1009 31 10000 6.69 20 17:33 16.06.2022
3100 Clouds 32 1009 33 10000 7.2 10 16:24 16.06.2022
3101 Clouds 33 1010 33 10000 6.69 30 15:21 16.06.2022
3102 Clouds 32 1010 37 10000 6.17 10 14:27 16.06.2022
3103 Clouds 31 1011 42 10000 6.17 350 12:56 16.06.2022
3104 Clouds 30 1011 45 10000 5.14 30 12:34 16.06.2022
3105 Clouds 29 1011 48 10000 5.14 10 11:48 16.06.2022
3106 Clouds 28 1011 54 10000 5.14 10 10:42 16.06.2022
3107 Clouds 26 1011 65 10000 4.63 50 09:43 16.06.2022
3108 Clouds 26 1011 65 10000 4.12 50 09:19 16.06.2022
3109 Clouds 24 1012 73 6000 5.14 50 07:57 16.06.2022
3110 Clouds 24 1011 78 6000 4.63 40 06:49 16.06.2022
3111 Clouds 23 1011 83 10000 3.6 10 04:28 16.06.2022
3112 Clouds 24 1012 78 10000 3.09 40 01:53 16.06.2022
3113 Clouds 25 1012 73 10000 3.09 50 01:32 16.06.2022
3114 Clouds 25 1012 73 10000 3.09 50 00:36 16.06.2022
3115 Clouds 26 1013 69 10000 4.63 40 23:23 15.06.2022
3116 Clouds 27 1013 61 10000 5.66 20 21:59 15.06.2022
3117 Clouds 27 1013 61 10000 6.17 10 21:20 15.06.2022
3118 Clouds 28 1012 61 10000 7.2 10 20:38 15.06.2022
3119 Clouds 28 1012 61 10000 7.72 10 20:19 15.06.2022
3120 Clouds 31 1011 45 10000 6.69 20 18:51 15.06.2022
3121 Clouds 32 1011 37 10000 6.17 30 17:55 15.06.2022
3122 Clouds 33 1011 31 10000 5.14 340 16:38 15.06.2022
3123 Clouds 32 1011 35 10000 3.6 350 15:26 15.06.2022
3124 Clear 31 1012 37 10000 3.6 20 13:43 15.06.2022
3125 Clear 31 1012 40 10000 3.6 360 12:53 15.06.2022
3126 Clear 31 1012 37 10000 2.57 330 11:48 15.06.2022
3127 Clear 28 1013 51 10000 3.09 20 10:23 15.06.2022
3128 Clouds 26 1013 61 10000 2.57 40 09:38 15.06.2022
3129 Clouds 25 1013 69 10000 3.6 50 08:27 15.06.2022
3130 Clear 24 1012 78 6000 3.6 30 06:33 15.06.2022
3131 Clear 25 1011 73 10000 2.06 70 03:45 15.06.2022
3132 Clear 25 1011 69 10000 3.6 40 01:53 15.06.2022
3133 Clear 26 1012 69 10000 3.6 60 00:50 15.06.2022
3134 Clear 27 1012 61 10000 5.14 40 23:39 14.06.2022
3135 Clear 27 1012 61 10000 5.14 40 23:18 14.06.2022
3136 Clear 28 1012 57 10000 3.6 30 22:18 14.06.2022
3137 Clear 28 1012 51 10000 5.66 20 21:33 14.06.2022
3138 Clear 29 1011 51 10000 6.69 10 20:48 14.06.2022
3139 Clear 29 1010 51 10000 6.17 350 20:28 14.06.2022
3140 Clouds 31 1009 35 10000 5.14 330 18:56 14.06.2022
3141 Clouds 32 1009 29 10000 5.66 350 17:40 14.06.2022
3142 Clouds 33 1009 29 10000 5.14 290 16:43 14.06.2022
3143 Clouds 33 1009 27 10000 4.12 300 15:50 14.06.2022
3144 Clouds 33 1009 27 10000 4.12 300 15:50 14.06.2022
3145 Clouds 32 1009 29 10000 5.14 290 15:22 14.06.2022
3146 Clouds 33 1009 29 10000 4.12 320 14:32 14.06.2022
3147 Clear 33 1010 29 10000 5.66 280 13:41 14.06.2022
3148 Clear 32 1010 29 10000 4.12 310 12:42 14.06.2022
3149 Clear 30 1011 37 10000 4.12 30 11:32 14.06.2022
3150 Clear 31 1011 35 10000 4.12 300 10:47 14.06.2022
3151 Clear 29 1010 42 10000 2.57 330 09:48 14.06.2022
3152 Clear 28 1010 47 10000 2.06 330 08:47 14.06.2022
3153 Clear 27 1010 57 10000 0 0 07:33 14.06.2022
3154 Clear 25 1009 65 10000 1.54 90 05:21 14.06.2022
3155 Clear 25 1009 69 10000 2.06 50 02:57 14.06.2022
3156 Clear 26 1010 65 10000 3.09 60 00:32 14.06.2022
3157 Clear 26 1010 65 10000 4.12 60 23:39 13.06.2022
3158 Clear 27 1010 61 10000 4.12 60 22:26 13.06.2022
3159 Clear 27 1010 61 10000 4.12 50 21:50 13.06.2022
3160 Clear 29 1009 51 10000 6.17 360 20:42 13.06.2022
3161 Clouds 31 1008 35 10000 3.09 350 19:35 13.06.2022
3162 Clouds 31 1008 33 10000 3.6 320 18:28 13.06.2022
3163 Clouds 31 1008 33 10000 4.63 330 17:47 13.06.2022
3164 Clouds 31 1008 35 10000 4.63 320 16:52 13.06.2022
3165 Clouds 31 1008 35 10000 5.14 320 15:39 13.06.2022
3166 Clouds 31 1009 35 10000 4.12 290 14:47 13.06.2022
3167 Clouds 30 1009 35 10000 4.63 300 13:55 13.06.2022
3168 Clouds 30 1009 37 10000 3.09 310 12:49 13.06.2022
3169 Clouds 29 1010 39 10000 1.54 280 11:37 13.06.2022
3170 Clouds 27 1010 44 10000 1.54 350 10:27 13.06.2022
3171 Clouds 26 1009 50 10000 1.54 350 09:42 13.06.2022
3172 Clouds 25 1009 65 10000 1.54 130 08:24 13.06.2022
3173 Clear 23 1009 73 10000 2.57 30 06:33 13.06.2022
3174 Clear 24 1008 69 6000 2.57 10 03:28 13.06.2022
3175 Clear 25 1009 61 10000 3.09 10 01:38 13.06.2022
3176 Clear 26 1009 53 10000 3.6 350 00:22 13.06.2022
3177 Clear 26 1009 53 10000 3.6 350 23:31 12.06.2022
3178 Clear 27 1009 50 10000 4.12 340 22:23 12.06.2022
3179 Clear 27 1009 47 10000 5.66 310 21:39 12.06.2022
3180 Clear 28 1009 47 10000 4.63 320 20:39 12.06.2022
3181 Clouds 30 1008 39 10000 5.14 330 19:41 12.06.2022
3182 Clouds 31 1007 37 10000 5.66 320 18:43 12.06.2022
3183 Clouds 32 1007 35 10000 5.14 310 16:44 12.06.2022
3184 Clouds 33 1007 31 10000 5.14 300 15:32 12.06.2022
3185 Clear 32 1007 31 10000 4.63 280 14:33 12.06.2022
3186 Clear 33 1008 25 10000 5.14 290 13:57 12.06.2022
3187 Clear 33 1008 27 10000 4.63 300 13:38 12.06.2022
3188 Clear 30 1009 37 10000 3.09 330 11:48 12.06.2022
3189 Clear 30 1009 37 10000 2.06 350 10:46 12.06.2022
3190 Clear 28 1009 39 10000 3.09 350 09:36 12.06.2022
3191 Clear 28 1009 44 10000 2.06 310 08:49 12.06.2022
3192 Clear 28 1009 32 10000 1.03 330 07:47 12.06.2022
3193 Clear 25 1009 65 10000 1.54 30 05:51 12.06.2022
3194 Clear 26 1009 53 10000 2.06 10 03:38 12.06.2022
3195 Clear 26 1009 53 10000 2.06 10 03:38 12.06.2022
3196 Clear 27 1009 50 10000 2.57 360 01:44 12.06.2022
3197 Clear 27 1009 50 10000 2.06 330 00:59 12.06.2022
3198 Clear 28 1010 44 10000 4.12 340 00:36 12.06.2022
3199 Clear 28 1010 44 10000 4.12 340 00:18 12.06.2022
3200 Clear 29 1010 37 6000 5.14 340 22:53 11.06.2022
3201 Clear 29 1010 54 6000 5.14 340 22:29 11.06.2022
3202 Clear 32 1009 43 6000 7.2 310 20:55 11.06.2022
3203 Clear 36 1008 30 6000 8.23 310 20:26 11.06.2022
3204 Clear 39 1007 18 10000 6.17 300 19:33 11.06.2022
3205 Clear 42 1006 9 10000 1.54 330 18:37 11.06.2022
3206 Clear 42 1006 9 10000 1.54 330 18:37 11.06.2022
3207 Clear 43 1006 9 10000 1.54 280 17:58 11.06.2022
3208 Clear 43 1006 8 10000 1.54 270 17:38 11.06.2022
3209 Clear 43 1006 8 10000 1.54 180 17:19 11.06.2022
3210 Clear 43 1007 8 10000 2.57 280 16:38 11.06.2022
3211 Clear 42 1007 9 10000 1.54 320 15:47 11.06.2022
3212 Clear 41 1008 9 10000 2.06 340 14:23 11.06.2022
3213 Clear 41 1008 10 10000 1.54 270 13:47 11.06.2022
3214 Clear 38 1009 13 10000 2.06 310 11:36 11.06.2022
3215 Clear 37 1009 12 10000 1.54 310 10:30 11.06.2022
3216 Clear 37 1009 11 10000 1.54 140 09:40 11.06.2022
3217 Clear 35 1009 16 10000 3.6 110 08:21 11.06.2022
3218 Clear 28 1009 30 10000 0.51 320 06:32 11.06.2022
3219 Clear 27 1009 34 10000 1.54 50 05:26 11.06.2022
3220 Clear 27 1009 41 10000 3.6 80 02:42 11.06.2022
3221 Clear 28 1010 36 10000 2.57 80 01:41 11.06.2022
3222 Clear 28 1011 34 10000 2.57 70 00:54 11.06.2022
3223 Clear 29 1012 37 10000 4.12 60 22:55 10.06.2022
3224 Clear 29 1012 34 10000 5.14 60 22:20 10.06.2022
3225 Clear 30 1012 32 10000 5.14 50 21:22 10.06.2022
3226 Clear 31 1011 37 10000 5.66 50 20:37 10.06.2022
3227 Clear 31 1011 37 10000 5.66 50 20:19 10.06.2022
3228 Clear 33 1010 31 10000 7.2 30 19:19 10.06.2022
3229 Clear 36 1010 23 10000 5.14 350 18:29 10.06.2022
3230 Clear 38 1009 18 10000 5.66 350 17:42 10.06.2022
3231 Clear 38 1009 17 10000 4.12 300 16:59 10.06.2022
3232 Clear 38 1009 17 10000 4.12 300 16:23 10.06.2022
3233 Clear 38 1010 17 10000 3.6 330 15:37 10.06.2022
3234 Clear 38 1010 17 10000 4.12 350 13:55 10.06.2022
3235 Clear 37 1010 18 10000 4.12 330 12:50 10.06.2022
3236 Clear 36 1011 20 10000 3.09 360 11:43 10.06.2022
3237 Clear 35 1011 21 10000 2.57 10 10:45 10.06.2022
3238 Clear 34 1011 26 10000 2.06 30 09:48 10.06.2022
3239 Clear 31 1011 40 10000 2.57 40 08:42 10.06.2022
3240 Clear 28 1011 51 10000 2.57 50 07:26 10.06.2022
3241 Clear 27 1010 54 10000 3.09 70 06:44 10.06.2022
3242 Clear 27 1010 54 10000 3.09 70 06:25 10.06.2022
3243 Clear 26 1010 61 10000 3.09 50 03:55 10.06.2022
3244 Clear 27 1010 50 10000 4.12 50 01:41 10.06.2022
3245 Clear 28 1010 47 10000 3.6 50 00:32 10.06.2022
3246 Clear 28 1010 47 10000 3.6 50 23:47 09.06.2022
3247 Clear 30 1011 39 10000 4.63 50 22:18 09.06.2022
3248 Clear 30 1010 42 10000 5.14 40 21:33 09.06.2022
3249 Clear 31 1010 42 10000 5.14 50 20:54 09.06.2022
3250 Clear 32 1009 43 10000 7.2 10 20:21 09.06.2022
3251 Clear 35 1008 34 10000 8.75 10 19:21 09.06.2022
3252 Clear 39 1007 16 10000 4.63 340 18:34 09.06.2022
3253 Clear 40 1006 15 10000 3.6 320 16:56 09.06.2022
3254 Clear 40 1007 12 10000 2.06 270 15:49 09.06.2022
3255 Clear 40 1008 11 10000 5.14 230 14:38 09.06.2022
3256 Clear 40 1008 13 10000 3.6 260 13:54 09.06.2022
3257 Clear 40 1008 13 10000 2.57 230 13:28 09.06.2022
3258 Clear 38 1009 17 10000 4.12 220 11:54 09.06.2022
3259 Clear 37 1010 19 10000 3.6 250 11:19 09.06.2022
3260 Clear 34 1010 27 6000 1.54 310 09:50 09.06.2022
3261 Clear 32 1010 25 6000 0 0 09:31 09.06.2022
3262 Clear 28 1010 39 10000 2.06 10 07:56 09.06.2022
3263 Clear 28 1009 39 10000 2.06 310 06:41 09.06.2022
3264 Clear 29 1008 37 10000 0 0 03:22 09.06.2022
3265 Clear 28 1011 44 10000 4.12 70 23:49 08.06.2022
3266 Clear 29 1011 45 10000 4.63 50 22:58 08.06.2022
3267 Clear 29 1011 45 10000 5.14 50 22:27 08.06.2022
3268 Clear 29 1011 48 10000 5.14 50 21:56 08.06.2022
3269 Clear 30 1011 42 10000 5.66 50 21:23 08.06.2022
3270 Clear 34 1010 27 10000 5.14 40 20:22 08.06.2022
3271 Clear 34 1010 27 10000 5.14 40 19:39 08.06.2022
3272 Clear 35 1010 24 10000 3.6 340 18:48 08.06.2022
3273 Clear 35 1009 21 10000 3.6 330 17:30 08.06.2022
3274 Clear 36 1009 21 10000 4.12 320 15:52 08.06.2022
3275 Clear 34 1010 26 10000 4.12 320 14:18 08.06.2022
3276 Clear 34 1010 26 10000 2.57 10 12:29 08.06.2022
3277 Clear 32 1010 33 6000 3.09 330 11:34 08.06.2022
3278 Clear 32 1010 31 10000 2.06 320 10:37 08.06.2022
3279 Clear 29 1010 39 10000 0 0 09:28 08.06.2022
3280 Clear 27 1010 57 6000 0 0 08:49 08.06.2022
3281 Clear 24 1010 78 10000 2.06 51 06:36 08.06.2022
3282 Clear 25 1009 69 10000 0 0 04:35 08.06.2022
3283 Clear 27 1009 61 10000 2.57 310 00:56 08.06.2022
3284 Clear 28 1009 54 10000 3.09 320 23:31 07.06.2022
3285 Clear 28 1009 54 10000 4.12 310 22:50 07.06.2022
3286 Clear 28 1009 54 10000 4.12 310 22:31 07.06.2022
3287 Clear 29 1009 48 10000 3.6 340 21:35 07.06.2022
3288 Clear 29 1009 48 10000 3.6 330 20:59 07.06.2022
3289 Clear 31 1008 40 10000 6.69 330 20:33 07.06.2022
3290 Clear 31 1008 42 10000 5.14 320 19:49 07.06.2022
3291 Clear 33 1007 35 10000 6.69 290 18:25 07.06.2022
3292 Clear 35 1006 28 10000 4.63 310 17:31 07.06.2022
3293 Clear 34 1007 27 10000 3.09 300 16:44 07.06.2022
3294 Clear 35 1007 24 10000 4.63 300 15:58 07.06.2022
3295 Clear 34 1007 27 10000 5.14 260 15:30 07.06.2022
3296 Clear 34 1007 26 10000 4.63 260 14:56 07.06.2022
3297 Clear 34 1007 24 10000 3.6 310 14:38 07.06.2022
3298 Clear 33 1008 27 10000 2.57 320 13:33 07.06.2022
3299 Clear 33 1008 27 10000 1.03 50 12:54 07.06.2022
3300 Clear 31 1009 33 10000 2.57 300 11:49 07.06.2022
3301 Clear 28 1009 44 10000 3.09 310 10:27 07.06.2022
3302 Clear 26 1009 50 10000 2.57 340 08:53 07.06.2022
3303 Clear 25 1009 53 10000 3.09 350 07:47 07.06.2022
3304 Clear 25 1009 57 10000 1.54 360 06:39 07.06.2022
3305 Clear 24 1009 64 10000 2.06 360 04:39 07.06.2022
3306 Clear 26 1009 57 10000 3.6 340 01:27 07.06.2022
3307 Clear 26 1010 61 10000 3.6 360 23:53 06.06.2022
3308 Clear 27 1010 54 10000 3.6 10 22:54 06.06.2022
3309 Clear 27 1010 54 10000 5.14 360 22:29 06.06.2022
3310 Clear 30 1009 39 10000 4.63 340 20:47 06.06.2022
3311 Clouds 31 1009 35 10000 4.12 350 19:28 06.06.2022
3312 Clouds 31 1009 35 10000 5.14 350 18:49 06.06.2022
3313 Clouds 32 1008 33 10000 3.6 330 18:21 06.06.2022
3314 Clouds 33 1008 31 10000 4.12 330 17:26 06.06.2022
3315 Clouds 33 1009 31 10000 4.12 360 16:18 06.06.2022
3316 Clouds 32 1009 33 10000 2.57 250 15:23 06.06.2022
3317 Clouds 32 1009 33 10000 3.09 320 14:30 06.06.2022
3318 Clear 32 1010 33 10000 2.57 340 13:22 06.06.2022
3319 Clear 32 1010 33 10000 2.57 340 12:36 06.06.2022
3320 Clear 31 1010 35 10000 3.6 330 11:53 06.06.2022
3321 Clear 29 1010 45 10000 2.57 360 10:21 06.06.2022
3322 Clear 26 1010 65 10000 1.54 360 09:24 06.06.2022
3323 Clear 24 1011 73 10000 2.57 50 08:31 06.06.2022
3324 Clear 23 1011 83 10000 3.6 50 07:28 06.06.2022
3325 Clear 24 1010 73 10000 3.6 40 05:18 06.06.2022
3326 Clear 24 1010 78 10000 2.06 40 02:42 06.06.2022
3327 Clear 25 1010 73 10000 3.09 60 01:18 06.06.2022
3328 Clear 25 1011 73 10000 3.6 60 00:37 06.06.2022
3329 Clear 26 1011 69 10000 3.6 70 23:28 05.06.2022
3330 Clear 27 1011 65 10000 3.09 70 22:45 05.06.2022
3331 Clear 27 1011 65 10000 3.09 70 22:45 05.06.2022
3332 Clear 28 1011 61 10000 6.17 10 20:46 05.06.2022
3333 Clear 30 1010 54 10000 6.69 20 19:38 05.06.2022
3334 Clear 34 1009 21 10000 4.63 310 18:29 05.06.2022
3335 Clear 34 1009 21 10000 4.63 320 17:51 05.06.2022
3336 Clear 34 1008 21 10000 4.63 300 17:25 05.06.2022
3337 Clear 35 1009 18 10000 4.63 320 16:50 05.06.2022
3338 Clear 35 1009 18 10000 4.63 320 16:30 05.06.2022
3339 Clear 34 1009 27 10000 3.6 300 14:25 05.06.2022
3340 Clear 33 1010 29 10000 4.12 320 12:55 05.06.2022
3341 Clear 33 1010 29 10000 4.12 320 12:55 05.06.2022
3342 Clear 32 1010 37 10000 3.09 320 11:45 05.06.2022
3343 Clear 31 1010 42 10000 2.06 340 10:34 05.06.2022
3344 Clear 29 1011 48 10000 2.06 50 09:59 05.06.2022
3345 Clear 25 1011 73 10000 2.57 50 08:32 05.06.2022
3346 Clear 24 1011 78 10000 2.57 50 07:44 05.06.2022
3347 Clear 24 1010 78 10000 2.57 30 05:22 05.06.2022
3348 Clear 24 1010 73 10000 2.06 50 04:19 05.06.2022
3349 Clear 26 1010 57 10000 2.57 50 01:32 05.06.2022
3350 Clear 26 1011 57 10000 3.6 40 00:33 05.06.2022
3351 Clear 27 1011 61 6000 5.14 50 22:36 04.06.2022
3352 Clear 29 1011 58 6000 6.69 20 20:33 04.06.2022
3353 Clear 32 1009 48 10000 8.75 10 18:45 04.06.2022
3354 Clear 35 1009 20 10000 4.63 320 16:47 04.06.2022
3355 Clear 35 1009 20 10000 3.6 320 16:18 04.06.2022
3356 Clear 35 1009 21 10000 4.12 310 14:53 04.06.2022
3357 Clear 34 1010 20 10000 3.09 360 12:38 04.06.2022
3358 Clear 34 1010 21 10000 1.54 20 11:19 04.06.2022
3359 Clear 32 1010 29 10000 1.03 50 10:44 04.06.2022
3360 Clear 31 1010 37 10000 1.54 30 09:44 04.06.2022
3361 Clear 28 1011 47 10000 1.54 70 08:43 04.06.2022
3362 Clear 26 1010 61 10000 1.54 60 07:42 04.06.2022
3363 Clear 25 1010 69 10000 1.54 50 05:30 04.06.2022
3364 Clear 26 1010 69 10000 5.66 80 01:42 04.06.2022
3365 Clear 27 1011 69 10000 4.63 70 23:59 03.06.2022
3366 Clear 30 1011 48 10000 6.17 40 22:40 03.06.2022
3367 Clear 30 1011 48 10000 6.17 350 21:39 03.06.2022
3368 Clear 30 1010 48 10000 5.14 340 20:37 03.06.2022
3369 Clear 30 1010 48 10000 5.14 340 20:37 03.06.2022
3370 Clear 33 1009 19 10000 3.6 310 18:41 03.06.2022
3371 Clear 34 1009 16 10000 3.09 320 16:49 03.06.2022
3372 Clear 33 1009 17 10000 2.06 190 15:37 03.06.2022
3373 Clear 33 1010 21 10000 3.6 300 13:48 03.06.2022
3374 Clear 30 1011 35 10000 2.57 320 11:50 03.06.2022
3375 Haze 28 1011 47 4000 1.54 330 09:50 03.06.2022
3376 Haze 27 1011 57 4000 1.54 310 09:28 03.06.2022
3377 Mist 24 1010 73 4000 1.03 40 07:27 03.06.2022
3378 Mist 23 1009 78 4000 1.54 360 06:44 03.06.2022
3379 Mist 23 1009 83 4000 1.54 10 06:26 03.06.2022
3380 Clear 25 1009 73 10000 2.57 70 01:23 03.06.2022
3381 Clear 27 1009 61 10000 3.6 340 23:34 02.06.2022
3382 Clear 28 1009 51 10000 4.12 310 21:57 02.06.2022
3383 Clear 30 1008 37 10000 4.12 310 20:25 02.06.2022
3384 Clear 31 1008 30 10000 4.12 320 19:53 02.06.2022
3385 Clear 31 1008 27 10000 3.6 320 19:35 02.06.2022
3386 Clear 32 1007 29 10000 4.12 310 17:59 02.06.2022
3387 Clear 32 1007 31 10000 4.63 330 16:28 02.06.2022
3388 Clear 31 1007 35 10000 3.6 280 14:58 02.06.2022
3389 Clear 30 1008 37 10000 4.63 260 13:30 02.06.2022
3390 Clear 30 1008 37 10000 4.12 290 12:42 02.06.2022
3391 Clear 26 1009 57 10000 3.09 290 10:32 02.06.2022
3392 Clear 25 1009 61 10000 2.57 280 09:28 02.06.2022
3393 Clear 23 1010 68 10000 2.06 330 08:29 02.06.2022
3394 Clouds 22 1009 73 10000 4.12 300 07:58 02.06.2022
3395 Clouds 22 1009 73 10000 3.6 310 06:20 02.06.2022
3396 Clear 22 1008 83 10000 3.6 300 03:48 02.06.2022
3397 Clear 24 1010 64 10000 3.09 300 00:31 02.06.2022
3398 Clear 26 1010 57 10000 4.63 310 22:57 01.06.2022
3399 Clear 27 1010 50 10000 4.63 310 21:45 01.06.2022
3400 Clear 28 1009 44 10000 5.66 310 21:22 01.06.2022
3401 Clear 29 1009 39 10000 4.63 330 20:38 01.06.2022
3402 Clear 29 1009 39 10000 5.14 330 19:49 01.06.2022
3403 Clear 30 1008 32 10000 4.12 320 18:19 01.06.2022
3404 Clear 30 1008 32 10000 4.63 300 16:48 01.06.2022
3405 Clear 31 1008 33 10000 5.14 300 15:42 01.06.2022
3406 Clear 30 1009 37 10000 3.6 350 14:35 01.06.2022
3407 Clear 29 1010 39 10000 1.54 40 12:46 01.06.2022
3408 Clear 26 1011 47 10000 4.12 40 10:42 01.06.2022
3409 Clear 25 1011 53 10000 3.09 30 09:27 01.06.2022
3410 Clear 23 1011 68 10000 1.54 30 07:59 01.06.2022
3411 Clear 22 1011 78 10000 2.06 20 07:20 01.06.2022
3412 Clear 23 1011 69 10000 4.39 354 03:22 01.06.2022
3413 Clear 25 1012 57 10000 4.12 10 23:47 31.05.2022
3414 Clear 26 1012 53 10000 5.14 20 22:38 31.05.2022
3415 Clear 26 1012 53 10000 5.14 20 22:19 31.05.2022
3416 Clear 27 1012 47 10000 6.69 20 21:23 31.05.2022
3417 Clear 28 1012 44 10000 6.69 20 20:42 31.05.2022
3418 Clear 30 1011 37 10000 5.66 350 19:22 31.05.2022
3419 Clear 32 1010 35 10000 6.17 340 18:26 31.05.2022
3420 Clear 33 1010 29 10000 5.14 330 17:37 31.05.2022
3421 Clear 34 1010 27 6000 4.12 10 15:45 31.05.2022
3422 Clear 34 1010 27 6000 6.17 360 15:22 31.05.2022
3423 Clear 32 1011 35 6000 4.12 350 12:41 31.05.2022
3424 Clear 31 1012 42 6000 4.12 350 12:18 31.05.2022
3425 Clear 28 1013 54 6000 2.57 360 10:25 31.05.2022
3426 Haze 24 1013 78 3000 3.6 340 07:46 31.05.2022
3427 Haze 23 1012 73 4000 4.12 340 06:19 31.05.2022
3428 Clear 25 1012 41 6000 3.6 350 03:49 31.05.2022
3429 Clear 29 1012 23 10000 2.06 60 23:45 30.05.2022
3430 Clear 30 1012 20 10000 3.6 70 23:24 30.05.2022
3431 Clear 31 1012 23 10000 3.6 60 22:37 30.05.2022
3432 Clear 31 1012 23 10000 4.63 50 21:40 30.05.2022
3433 Clear 33 1011 21 10000 6.69 40 20:51 30.05.2022
3434 Clear 35 1010 21 10000 5.14 10 19:43 30.05.2022
3435 Clear 38 1010 15 10000 5.66 350 18:18 30.05.2022
3436 Clear 38 1010 15 10000 5.66 350 17:23 30.05.2022
3437 Clear 38 1010 14 10000 5.66 350 16:22 30.05.2022
3438 Clear 37 1011 9 10000 5.14 10 13:32 30.05.2022
3439 Clear 35 1012 11 10000 4.12 40 11:40 30.05.2022
3440 Clear 33 1012 18 10000 2.57 80 09:58 30.05.2022
3441 Clear 31 1012 22 10000 4.12 80 08:52 30.05.2022
3442 Clear 25 1011 38 10000 3.6 90 06:26 30.05.2022
3443 Clear 24 1011 41 10000 1.54 80 04:52 30.05.2022
3444 Clear 27 1011 36 10000 2.06 60 01:23 30.05.2022
3445 Clear 29 1012 37 10000 4.12 50 22:49 29.05.2022
3446 Clear 29 1012 37 10000 4.12 50 22:28 29.05.2022
3447 Clear 33 1010 24 10000 5.14 50 20:29 29.05.2022
3448 Clear 35 1010 15 10000 5.66 10 19:29 29.05.2022
3449 Clear 36 1010 14 10000 4.63 360 18:34 29.05.2022
3450 Clear 37 1009 13 10000 4.63 20 16:40 29.05.2022
3451 Clear 37 1010 13 10000 4.12 20 15:47 29.05.2022
3452 Clear 36 1010 15 10000 2.57 20 14:55 29.05.2022
3453 Clear 36 1011 16 10000 2.57 350 13:18 29.05.2022
3454 Clear 34 1011 21 10000 2.06 50 11:31 29.05.2022
3455 Clear 31 1011 29 10000 3.09 30 10:37 29.05.2022
3456 Clear 28 1012 42 10000 1.54 30 08:36 29.05.2022
3457 Clear 24 1011 53 10000 1.03 90 04:59 29.05.2022
3458 Clear 24 1011 53 10000 1.03 90 04:39 29.05.2022
3459 Clear 26 1011 44 10000 1.54 40 02:24 29.05.2022
3460 Clear 28 1011 36 10000 4.63 60 23:48 28.05.2022
3461 Clear 27 1011 34 10000 4.04 21 23:25 28.05.2022
3462 Clear 29 1011 30 10000 3.6 50 22:21 28.05.2022
3463 Clear 30 1011 30 10000 4.63 30 21:31 28.05.2022
3464 Clear 33 1009 21 10000 6.17 10 19:21 28.05.2022
3465 Clear 34 1009 17 10000 6.69 10 18:45 28.05.2022
3466 Clear 35 1008 17 10000 5.66 360 17:35 28.05.2022
3467 Clear 35 1008 18 10000 5.66 350 16:35 28.05.2022
3468 Clear 35 1009 18 10000 6.17 350 15:38 28.05.2022
3469 Clear 34 1009 21 6000 6.17 360 13:57 28.05.2022
3470 Clear 33 1010 27 6000 3.6 350 12:44 28.05.2022
3471 Clear 32 1010 31 6000 2.06 10 11:57 28.05.2022
3472 Haze 29 1011 45 4000 2.06 290 10:49 28.05.2022
3473 Haze 28 1011 51 4000 2.06 340 09:56 28.05.2022
3474 Haze 25 1011 65 4000 1.54 20 08:43 28.05.2022
3475 Haze 23 1011 73 4000 2.57 350 07:23 28.05.2022
3476 Clear 23 1010 68 10000 2.06 360 05:24 28.05.2022
3477 Clear 25 1011 50 10000 2.06 10 02:38 28.05.2022
3478 Clear 27 1011 41 10000 3.6 50 00:31 28.05.2022
3479 Clear 29 1012 30 10000 4.63 20 22:51 27.05.2022
3480 Clear 29 1012 30 10000 3.6 30 21:43 27.05.2022
3481 Clear 30 1011 28 10000 4.63 20 20:49 27.05.2022
3482 Clear 30 1011 28 10000 5.66 20 20:23 27.05.2022
3483 Clear 31 1011 27 10000 5.14 20 19:42 27.05.2022
3484 Clear 31 1011 27 10000 6.17 10 19:21 27.05.2022
3485 Clear 33 1010 25 10000 8.75 360 17:52 27.05.2022
3486 Clear 34 1010 27 10000 6.17 30 16:38 27.05.2022
3487 Clear 34 1010 21 10000 8.23 350 15:22 27.05.2022
3488 Clear 34 1011 22 10000 7.72 20 13:53 27.05.2022
3489 Clear 32 1012 25 10000 5.66 30 12:39 27.05.2022
3490 Clear 30 1012 32 10000 3.6 10 11:33 27.05.2022
3491 Clear 30 1012 35 6000 4.12 40 10:54 27.05.2022
3492 Clear 29 1013 37 6000 3.6 10 10:29 27.05.2022
3493 Clear 26 1013 50 6000 1.54 10 09:34 27.05.2022
3494 Clear 24 1013 69 6000 2.06 360 07:50 27.05.2022
3495 Clear 22 1013 78 10000 2.06 30 05:32 27.05.2022
3496 Clear 23 1014 60 10000 3.09 40 02:26 27.05.2022
3497 Clear 25 1014 53 10000 3.6 10 00:26 27.05.2022
3498 Clear 26 1015 47 10000 4.12 40 22:35 26.05.2022
3499 Clear 28 1014 36 10000 5.66 10 21:37 26.05.2022
3500 Clear 29 1013 32 10000 6.17 10 19:58 26.05.2022
3501 Clear 30 1013 32 10000 7.2 10 19:19 26.05.2022
3502 Clear 33 1013 24 10000 8.23 20 17:37 26.05.2022
3503 Clear 33 1013 25 10000 7.72 30 16:36 26.05.2022
3504 Clear 33 1013 22 10000 8.23 20 15:45 26.05.2022
3505 Clear 33 1014 24 10000 8.23 360 14:24 26.05.2022
3506 Clear 31 1015 27 10000 5.14 10 12:37 26.05.2022
3507 Clear 29 1015 30 10000 6.17 10 11:23 26.05.2022
3508 Clear 27 1016 34 10000 4.12 30 09:41 26.05.2022
3509 Clear 26 1016 47 10000 3.6 30 09:23 26.05.2022
3510 Clear 23 1016 64 6000 3.6 40 07:57 26.05.2022
3511 Clear 22 1015 73 10000 4.12 40 03:53 26.05.2022
3512 Clear 24 1016 50 10000 3.09 50 00:33 26.05.2022
3513 Clear 24 1016 50 10000 4.12 50 23:40 25.05.2022
3514 Clear 26 1016 38 10000 5.66 30 21:56 25.05.2022
3515 Clear 26 1016 38 10000 5.66 30 21:31 25.05.2022
3516 Clear 27 1016 36 10000 5.66 40 20:35 25.05.2022
3517 Clear 30 1014 25 10000 7.2 40 19:21 25.05.2022
3518 Clear 32 1013 25 10000 7.72 10 17:40 25.05.2022
3519 Clear 32 1013 27 10000 5.66 340 16:37 25.05.2022
3520 Clear 32 1013 25 10000 5.14 330 15:54 25.05.2022
3521 Clear 32 1014 27 10000 5.66 330 14:51 25.05.2022
3522 Clear 32 1014 27 10000 5.66 330 14:33 25.05.2022
3523 Clear 32 1014 27 10000 4.63 20 13:45 25.05.2022
3524 Clear 31 1015 27 10000 4.12 20 12:38 25.05.2022
3525 Clear 28 1015 36 10000 3.09 30 10:43 25.05.2022
3526 Clear 26 1015 47 10000 3.6 20 09:54 25.05.2022
3527 Clear 25 1015 53 10000 3.65 19 08:37 25.05.2022
3528 Clear 22 1015 73 10000 3.44 28 07:23 25.05.2022
3529 Clear 22 1014 64 10000 2.57 60 03:34 25.05.2022
3530 Clear 25 1014 53 10000 3.09 10 23:57 24.05.2022
3531 Clear 25 1014 53 10000 3.6 40 23:31 24.05.2022
3532 Clear 26 1014 47 10000 4.96 13 22:32 24.05.2022
3533 Clear 26 1014 44 10000 4.12 10 21:40 24.05.2022
3534 Clear 27 1014 44 10000 3.6 350 21:20 24.05.2022
3535 Clear 29 1012 26 10000 5.14 320 19:48 24.05.2022
3536 Clear 31 1011 25 10000 5.14 340 18:54 24.05.2022
3537 Clear 33 1011 19 10000 4.63 320 16:53 24.05.2022
3538 Clear 33 1011 19 10000 4.12 340 16:23 24.05.2022
3539 Clear 33 1012 21 10000 4.12 310 14:59 24.05.2022
3540 Clear 32 1012 22 10000 3.6 310 14:21 24.05.2022
3541 Clear 30 1013 26 10000 4.12 330 12:50 24.05.2022
3542 Clear 28 1013 28 6000 2.57 310 11:40 24.05.2022
3543 Clear 25 1013 50 6000 1.03 320 09:46 24.05.2022
3544 Clear 22 1013 68 6000 1.54 300 08:50 24.05.2022
3545 Clear 21 1013 78 6000 1.03 360 06:58 24.05.2022
3546 Clear 21 1012 78 10000 1.03 10 04:30 24.05.2022
3547 Clear 22 998 68 10000 1.54 360 02:42 24.05.2022
3548 Clear 22 998 68 10000 1.54 360 01:42 24.05.2022
3549 Clear 23 999 60 10000 2.57 300 23:43 23.05.2022
3550 Clear 26 1013 38 10000 3.6 300 21:59 23.05.2022
3551 Clear 26 1013 38 10000 3.6 300 21:41 23.05.2022
3552 Clear 27 998 32 10000 3.6 300 20:42 23.05.2022
3553 Clear 28 998 28 10000 5.14 310 19:41 23.05.2022
3554 Clear 29 997 26 10000 5.14 330 19:00 23.05.2022
3555 Clear 29 997 26 10000 6.69 300 18:37 23.05.2022
3556 Clear 31 996 23 10000 6.17 330 17:55 23.05.2022
3557 Clear 32 996 17 10000 6.17 290 15:47 23.05.2022
3558 Clear 31 997 22 10000 4.12 250 13:44 23.05.2022
3559 Clear 28 999 28 10000 5.14 250 11:36 23.05.2022
3560 Clear 28 999 28 10000 5.14 280 10:44 23.05.2022
3561 Clear 26 999 38 10000 3.09 240 09:45 23.05.2022
3562 Clear 26 999 38 10000 3.6 240 08:44 23.05.2022
3563 Clear 21 999 64 10000 3.09 240 06:48 23.05.2022
3564 Clear 21 999 64 10000 3.09 240 06:24 23.05.2022
3565 Clear 21 998 60 10000 2.06 260 02:36 23.05.2022
3566 Clear 22 999 53 10000 2.06 260 01:48 23.05.2022
3567 Clear 22 999 53 10000 2.57 280 01:23 23.05.2022
3568 Clear 23 999 40 10000 3.6 300 22:48 22.05.2022
3569 Clear 24 999 35 10000 4.12 300 22:21 22.05.2022
3570 Clear 24 999 35 10000 3.6 300 21:50 22.05.2022
3571 Clear 24 999 35 10000 3.6 290 20:43 22.05.2022
3572 Clear 26 999 33 10000 5.14 300 20:20 22.05.2022
3573 Clouds 26 998 29 10000 5.66 310 18:58 22.05.2022
3574 Clouds 26 998 29 10000 6.17 300 18:37 22.05.2022
3575 Clouds 27 998 26 10000 6.17 300 18:19 22.05.2022
3576 Clouds 28 997 26 10000 6.17 310 16:51 22.05.2022
3577 Clouds 28 997 28 10000 8.23 290 15:25 22.05.2022
3578 Clouds 29 997 26 10000 4.63 280 14:44 22.05.2022
3579 Clear 27 998 28 10000 10.29 280 12:54 22.05.2022
3580 Clear 27 998 28 10000 7.72 250 12:33 22.05.2022
3581 Clear 24 999 33 10000 7.72 250 10:53 22.05.2022
3582 Clear 24 999 35 10000 5.66 250 09:31 22.05.2022
3583 Clear 22 999 37 10000 5.14 250 07:49 22.05.2022
3584 Clear 21 999 46 10000 3.09 260 07:20 22.05.2022
3585 Clear 21 998 49 10000 3.6 270 04:30 22.05.2022
3586 Clear 21 999 49 10000 2.57 290 01:19 22.05.2022
3587 Clear 21 999 46 10000 2.57 290 23:57 21.05.2022
3588 Clear 21 999 46 10000 2.57 290 23:32 21.05.2022
3589 Clear 22 999 46 10000 4.12 320 22:22 21.05.2022
3590 Clear 23 999 43 10000 3.6 310 21:39 21.05.2022
3591 Clear 24 999 50 10000 3.6 320 20:48 21.05.2022
3592 Clear 26 998 44 10000 6.17 310 19:59 21.05.2022
3593 Clear 26 998 44 10000 5.66 310 19:24 21.05.2022
3594 Clear 29 997 34 10000 4.63 310 17:35 21.05.2022
3595 Clear 29 998 37 10000 5.14 280 15:37 21.05.2022
3596 Clear 29 998 39 10000 5.14 270 14:36 21.05.2022
3597 Clear 27 1012 47 10000 6.69 300 13:36 21.05.2022
3598 Clouds 31 1012 25 10000 5.39 284 12:40 21.05.2022
3599 Clouds 25 1013 53 10000 4.12 320 11:54 21.05.2022
3600 Clear 23 999 64 10000 4.12 300 10:22 21.05.2022
3601 Clear 22 999 68 10000 3.6 300 09:20 21.05.2022
3602 Clear 21 999 77 10000 4.12 300 08:47 21.05.2022
3603 Clouds 21 999 82 10000 5.73 317 06:22 21.05.2022
3604 Clear 21 998 82 10000 5.14 290 02:24 21.05.2022
3605 Clear 22 999 73 10000 6.17 310 23:47 20.05.2022
3606 Clear 23 999 68 6000 5.14 310 22:42 20.05.2022
3607 Clear 24 999 60 6000 5.66 320 22:22 20.05.2022
3608 Clear 26 998 57 6000 7.72 310 21:32 20.05.2022
3609 Clear 26 998 54 6000 7.2 310 20:53 20.05.2022
3610 Sand 28 1011 54 4000 10.29 290 19:56 20.05.2022
3611 Clear 29 996 54 6000 5.14 310 18:59 20.05.2022
3612 Clear 32 995 38 6000 5.14 310 18:27 20.05.2022
3613 Clear 36 995 11 10000 2.57 280 16:50 20.05.2022
3614 Clear 36 995 11 10000 2.06 280 15:57 20.05.2022
3615 Clear 36 995 11 10000 2.06 280 15:39 20.05.2022
3616 Clear 36 996 13 10000 2.57 290 14:29 20.05.2022
3617 Clear 36 997 13 10000 2.06 320 13:44 20.05.2022
3618 Clear 31 999 20 10000 2.06 310 10:56 20.05.2022
3619 Clear 28 1012 26 10000 2.57 300 09:51 20.05.2022
3620 Clear 27 1012 28 10000 2.57 320 08:41 20.05.2022
3621 Clear 26 1011 24 10000 1.54 230 06:46 20.05.2022
3622 Clear 26 997 20 10000 1.03 270 06:21 20.05.2022
3623 Clear 27 996 14 10000 2.06 80 04:22 20.05.2022
3624 Clear 26 998 31 10000 4.63 90 00:24 20.05.2022
3625 Clear 26 999 34 10000 4.63 80 22:44 19.05.2022
3626 Clear 28 1000 26 10000 4.12 70 21:59 19.05.2022
3627 Clear 28 1000 26 10000 4.12 60 21:40 19.05.2022
3628 Clear 28 1000 26 10000 4.12 60 21:22 19.05.2022
3629 Clear 29 999 26 10000 3.6 60 20:25 19.05.2022
3630 Clear 31 998 23 10000 5.14 50 19:34 19.05.2022
3631 Clear 33 998 19 10000 5.14 50 17:59 19.05.2022
3632 Clear 34 998 15 10000 6.17 50 16:31 19.05.2022
3633 Clear 34 998 16 10000 4.12 360 14:52 19.05.2022
3634 Clear 34 999 16 10000 5.66 20 14:23 19.05.2022
3635 Clear 32 1000 15 10000 4.63 30 12:35 19.05.2022
3636 Clear 31 1000 16 10000 3.6 10 11:25 19.05.2022
3637 Clear 29 1000 21 10000 4.12 100 09:19 19.05.2022
3638 Clear 26 1000 27 10000 3.6 80 07:48 19.05.2022
3639 Clear 21 999 56 10000 2.57 40 05:32 19.05.2022
3640 Clear 23 1000 53 10000 2.57 50 01:59 19.05.2022
3641 Clear 24 1000 50 10000 3.09 60 23:55 18.05.2022
3642 Clear 26 1000 44 10000 4.63 60 22:47 18.05.2022
3643 Clear 26 1000 36 10000 4.12 50 21:47 18.05.2022
3644 Clear 26 1000 36 10000 5.14 50 21:26 18.05.2022
3645 Clear 28 1013 26 10000 6.17 50 20:41 18.05.2022
3646 Clear 28 999 26 10000 6.17 50 20:18 18.05.2022
3647 Clear 31 998 25 10000 5.66 50 18:28 18.05.2022
3648 Clear 32 998 22 10000 8.84 51 17:41 18.05.2022
3649 Clear 32 998 22 10000 5.14 30 17:23 18.05.2022
3650 Clear 32 998 21 10000 5.14 50 16:31 18.05.2022
3651 Clear 32 998 19 10000 5.66 10 15:40 18.05.2022
3652 Clear 32 999 22 10000 3.6 30 14:35 18.05.2022
3653 Clear 31 999 22 10000 4.12 20 13:35 18.05.2022
3654 Clear 31 999 28 10000 4.12 30 12:42 18.05.2022
3655 Clear 28 1000 32 10000 4.63 50 11:34 18.05.2022
3656 Clear 28 1000 34 10000 4.12 30 10:56 18.05.2022
3657 Clear 26 1001 44 10000 2.57 50 09:24 18.05.2022
3658 Clear 22 1000 56 10000 1.54 70 07:36 18.05.2022
3659 Clear 21 1000 64 10000 0.51 80 05:56 18.05.2022
3660 Clear 22 1001 43 10000 2.57 50 01:22 18.05.2022
3661 Clear 22 1001 49 10000 3.09 60 00:22 18.05.2022
3662 Clear 26 1015 34 10000 5.66 20 21:57 17.05.2022
3663 Clear 26 1001 34 10000 5.66 20 21:20 17.05.2022
3664 Clear 26 1001 34 10000 5.66 20 21:20 17.05.2022
3665 Clear 27 1000 34 10000 6.69 10 20:19 17.05.2022
3666 Clear 28 1000 30 10000 6.17 360 19:28 17.05.2022
3667 Clear 31 999 27 10000 4.63 340 17:52 17.05.2022
3668 Clear 31 999 23 10000 4.12 350 16:59 17.05.2022
3669 Clear 31 999 23 10000 5.14 350 16:30 17.05.2022
3670 Clear 31 1000 22 10000 5.14 360 15:32 17.05.2022
3671 Clear 31 1000 23 10000 4.63 30 14:30 17.05.2022
3672 Clear 31 1001 28 10000 3.6 40 13:37 17.05.2022
3673 Clear 29 1002 32 10000 3.6 10 11:46 17.05.2022
3674 Clear 22 1002 60 10000 3.09 30 09:38 17.05.2022
3675 Clear 20 1016 73 6000 1.54 40 08:36 17.05.2022
3676 Clouds 18 1002 88 6000 2.57 20 06:50 17.05.2022
3677 Clear 21 1003 72 10000 2.06 360 03:45 17.05.2022
3678 Clear 22 1003 56 10000 1.54 350 00:46 17.05.2022
3679 Clear 23 1003 49 10000 3.6 360 22:44 16.05.2022
3680 Clouds 23 1003 49 6000 4.63 10 21:52 16.05.2022
3681 Clouds 24 1003 46 6000 5.66 360 20:49 16.05.2022
3682 Clouds 24 1003 46 6000 5.14 360 19:57 16.05.2022
3683 Clouds 26 1002 44 6000 7.2 360 18:21 16.05.2022
3684 Clear 28 1002 34 10000 5.66 20 16:24 16.05.2022
3685 Clear 28 1003 32 10000 4.12 340 14:42 16.05.2022
3686 Clear 28 1003 30 10000 5.66 20 13:25 16.05.2022
3687 Clear 26 1005 38 10000 4.12 360 11:33 16.05.2022
3688 Clear 23 1005 49 10000 3.09 360 10:24 16.05.2022
3689 Clouds 19 1004 82 6000 3.09 20 07:34 16.05.2022
3690 Clouds 18 1004 82 6000 2.57 30 05:23 16.05.2022
3691 Clear 21 1005 64 10000 3.09 50 23:56 15.05.2022
3692 Clear 22 1005 56 10000 5.14 10 22:36 15.05.2022
3693 Clear 23 1004 49 10000 5.14 10 21:48 15.05.2022
3694 Clear 24 1004 46 10000 6.17 360 21:21 15.05.2022
3695 Clear 26 1003 41 10000 5.66 360 20:34 15.05.2022
3696 Clear 29 1002 30 10000 4.63 350 17:56 15.05.2022
3697 Clear 29 1001 32 10000 5.14 350 16:36 15.05.2022
3698 Clear 28 1016 32 10000 7.2 20 14:18 15.05.2022
3699 Clear 27 1017 34 10000 6.17 10 13:35 15.05.2022
3700 Clear 27 1003 34 10000 5.66 350 11:55 15.05.2022
3701 Clear 24 1018 43 10000 3.09 350 10:40 15.05.2022
3702 Clear 22 1003 56 10000 2.57 10 08:52 15.05.2022
3703 Clear 18 1002 77 10000 2.06 300 06:59 15.05.2022
3704 Clear 18 1002 77 10000 2.06 300 06:40 15.05.2022
3705 Clear 21 1001 59 10000 5.14 340 02:38 15.05.2022
3706 Clouds 21 1001 56 6000 5.14 340 23:59 14.05.2022
3707 Clouds 21 1001 64 6000 5.14 340 23:35 14.05.2022
3708 Clouds 23 1000 60 6000 5.66 350 21:45 14.05.2022
3709 Clouds 23 1000 60 6000 6.17 360 21:24 14.05.2022
3710 Clouds 26 999 36 6000 5.14 30 19:54 14.05.2022
3711 Clouds 26 999 34 6000 5.66 50 19:20 14.05.2022
3712 Clouds 27 999 34 6000 5.66 50 18:51 14.05.2022
3713 Clouds 27 999 34 6000 5.66 50 18:51 14.05.2022
3714 Clouds 27 999 30 6000 7.2 20 17:43 14.05.2022
3715 Clouds 31 998 27 6000 8.23 40 15:55 14.05.2022
3716 Clouds 28 1012 30 6000 7.51 25 14:38 14.05.2022
3717 Clouds 29 1012 32 6000 6.17 340 13:24 14.05.2022
3718 Clear 26 1013 50 10000 5.66 50 11:42 14.05.2022
3719 Clear 25 1013 57 10000 6.69 10 10:39 14.05.2022
3720 Clear 26 999 57 10000 6.69 10 10:18 14.05.2022
3721 Clouds 23 999 78 10000 6.69 20 09:19 14.05.2022
3722 Clear 21 998 73 10000 5.66 40 07:26 14.05.2022
3723 Clear 21 997 68 10000 6.17 30 04:32 14.05.2022
3724 Clear 23 999 43 10000 5.14 30 00:25 14.05.2022
3725 Clear 23 1000 46 10000 5.14 50 23:25 13.05.2022
3726 Clear 23 999 46 10000 7.2 60 22:54 13.05.2022
3727 Clear 23 1000 43 10000 6.17 50 22:21 13.05.2022
3728 Clear 24 1000 33 10000 7.2 50 20:58 13.05.2022
3729 Clear 26 1000 33 10000 7.2 50 20:32 13.05.2022
3730 Clear 26 1000 33 10000 7.72 50 19:51 13.05.2022
3731 Clear 27 999 30 10000 7.72 40 18:47 13.05.2022
3732 Clouds 31 999 19 10000 10.97 40 17:30 13.05.2022
3733 Clear 31 1013 19 10000 7.72 30 16:29 13.05.2022
3734 Clear 31 1013 18 10000 7.2 40 15:45 13.05.2022
3735 Clear 31 1015 23 10000 6.69 30 14:29 13.05.2022
3736 Clear 29 1015 28 10000 7.2 50 12:51 13.05.2022
3737 Clear 29 1016 28 10000 5.14 50 11:54 13.05.2022
3738 Clear 25 1017 33 10000 5.66 30 09:54 13.05.2022
3739 Clear 24 1002 35 10000 7.72 70 09:26 13.05.2022
3740 Clear 21 1016 56 10000 7.2 40 07:51 13.05.2022
3741 Clear 21 1002 64 10000 5.14 50 06:50 13.05.2022
3742 Clear 19 1002 72 10000 3.6 60 04:54 13.05.2022
3743 Clear 21 1004 68 10000 5.66 60 00:57 13.05.2022
3744 Clear 21 1005 60 10000 5.14 50 22:59 12.05.2022
3745 Clear 21 1005 52 10000 6.69 50 22:34 12.05.2022
3746 Clear 23 1005 43 10000 5.14 50 21:24 12.05.2022
3747 Clear 26 1004 29 10000 7.72 30 19:49 12.05.2022
3748 Clear 27 1003 34 10000 6.69 30 18:27 12.05.2022
3749 Clear 29 1003 23 10000 5.14 40 16:45 12.05.2022
3750 Clear 29 1003 23 10000 4.63 10 14:57 12.05.2022
3751 Clear 29 1004 23 10000 5.66 20 13:50 12.05.2022
3752 Clear 27 1005 24 10000 4.63 40 11:55 12.05.2022
3753 Clear 24 1005 43 10000 5.66 50 10:34 12.05.2022
3754 Clear 22 1005 49 10000 4.63 70 08:56 12.05.2022
3755 Clear 21 1004 72 10000 6.17 70 08:35 12.05.2022
3756 Clear 21 1005 72 10000 4.63 40 07:25 12.05.2022
3757 Clear 19 1004 77 10000 3.6 50 04:32 12.05.2022
3758 Clear 21 1005 56 10000 4.12 60 01:37 12.05.2022
3759 Clear 22 1005 46 10000 3.6 20 23:36 11.05.2022
3760 Clear 22 1006 43 10000 4.12 10 22:21 11.05.2022
3761 Clear 23 1005 46 10000 4.63 30 21:26 11.05.2022
3762 Clear 23 1005 46 10000 4.63 30 21:26 11.05.2022
3763 Clear 26 1004 44 10000 5.66 350 20:20 11.05.2022
3764 Clear 28 1002 30 10000 4.63 320 17:43 11.05.2022
3765 Clear 29 1001 28 10000 2.57 280 16:39 11.05.2022
3766 Clear 29 1002 28 10000 2.57 310 14:48 11.05.2022
3767 Clear 29 1002 28 10000 2.57 310 14:25 11.05.2022
3768 Clear 29 1002 23 10000 3.6 340 13:37 11.05.2022
3769 Clouds 27 1002 34 6000 2.06 20 11:48 11.05.2022
3770 Clouds 22 1003 64 6000 1.54 20 09:34 11.05.2022
3771 Clouds 19 1002 77 6000 3.6 350 06:59 11.05.2022
3772 Clear 21 1001 56 10000 2.06 340 03:38 11.05.2022
3773 Clear 22 1001 53 10000 3.6 40 23:45 10.05.2022
3774 Clear 23 1002 49 10000 4.12 60 22:30 10.05.2022
3775 Clear 23 1001 49 10000 4.63 50 21:43 10.05.2022
3776 Clear 26 1001 38 10000 4.63 40 20:48 10.05.2022
3777 Clear 28 1000 26 10000 6.69 20 19:18 10.05.2022
3778 Clear 31 999 20 10000 3.6 330 17:44 10.05.2022
3779 Clear 31 999 19 10000 3.09 60 16:39 10.05.2022
3780 Clear 31 1000 23 10000 2.57 70 13:54 10.05.2022
3781 Clear 28 1001 26 10000 4.12 360 12:30 10.05.2022
3782 Clear 26 1015 31 10000 3.09 50 11:42 10.05.2022
3783 Clear 26 1001 31 10000 3.09 40 11:18 10.05.2022
3784 Clear 24 1001 43 10000 4.12 40 09:52 10.05.2022
3785 Clear 21 1001 60 10000 3.09 60 08:29 10.05.2022
3786 Clear 19 1000 77 10000 2.06 60 06:35 10.05.2022
3787 Clear 21 1000 68 10000 3.09 70 02:48 10.05.2022
3788 Clear 21 1000 60 10000 3.6 50 00:23 10.05.2022
3789 Clear 23 1000 43 10000 5.14 30 22:43 09.05.2022
3790 Clear 24 1000 38 10000 4.12 40 21:48 09.05.2022
3791 Clear 26 998 34 10000 4.63 360 20:23 09.05.2022
3792 Clear 29 997 24 10000 5.66 290 18:43 09.05.2022
3793 Clear 31 996 22 10000 8.23 280 17:39 09.05.2022
3794 Clear 31 996 18 10000 8.23 280 16:28 09.05.2022
3795 Clear 33 995 15 6000 7.2 270 15:48 09.05.2022
3796 Clear 33 996 12 6000 8.23 250 14:47 09.05.2022
3797 Clear 33 996 12 6000 8.75 250 14:22 09.05.2022
3798 Clear 33 996 14 6000 10.29 250 13:32 09.05.2022
3799 Clear 32 996 12 6000 6.17 210 11:56 09.05.2022
3800 Clear 32 996 13 6000 5.66 200 10:50 09.05.2022
3801 Clear 31 996 12 6000 6.69 210 10:31 09.05.2022
3802 Clear 25 1010 22 6000 1.54 240 08:23 09.05.2022
3803 Clear 25 1010 22 10000 0 0 07:44 09.05.2022
3804 Clear 21 996 30 10000 5.66 80 02:55 09.05.2022
3805 Clear 22 999 37 10000 5.14 70 23:29 08.05.2022
3806 Clear 23 1000 33 10000 6.17 60 22:51 08.05.2022
3807 Clear 26 1000 27 10000 6.69 50 21:48 08.05.2022
3808 Clear 26 1000 27 10000 6.69 50 21:48 08.05.2022
3809 Clear 28 999 20 10000 6.17 50 20:33 08.05.2022
3810 Clear 30 1013 10 10000 3.6 50 19:43 08.05.2022
3811 Clear 31 998 10 10000 4.12 60 18:52 08.05.2022
3812 Clear 31 998 8 10000 5.14 70 17:57 08.05.2022
3813 Clear 32 998 8 10000 4.63 80 16:42 08.05.2022
3814 Clear 31 998 8 10000 6.17 50 15:26 08.05.2022
3815 Clear 31 999 8 10000 2.06 70 14:39 08.05.2022
3816 Clear 29 1001 12 10000 1.54 30 12:21 08.05.2022
3817 Clear 26 1002 19 10000 3.6 50 10:27 08.05.2022
3818 Clear 26 1002 19 10000 3.09 50 09:56 08.05.2022
3819 Clear 26 1001 19 10000 4.63 100 08:55 08.05.2022
3820 Clear 19 1001 42 10000 1.54 250 06:57 08.05.2022
3821 Clear 21 1001 39 10000 1.54 60 03:26 08.05.2022
3822 Clear 21 1001 39 10000 1.54 60 02:41 08.05.2022
3823 Clear 22 1001 30 10000 3.6 70 00:21 08.05.2022
3824 Clear 22 1001 32 10000 3.6 70 23:47 07.05.2022
3825 Clear 23 1002 33 10000 3.6 70 22:46 07.05.2022
3826 Clear 23 1001 33 10000 5.66 70 21:58 07.05.2022
3827 Clear 24 1001 31 10000 5.66 70 21:33 07.05.2022
3828 Clouds 26 1001 27 10000 3.09 350 20:28 07.05.2022
3829 Clear 26 1000 25 10000 3.6 340 19:23 07.05.2022
3830 Clear 27 999 22 10000 4.12 10 17:34 07.05.2022
3831 Clouds 27 1000 19 10000 2.06 30 15:41 07.05.2022
3832 Clear 26 1001 22 10000 2.57 40 13:39 07.05.2022
3833 Clear 22 1002 37 10000 1.03 330 10:41 07.05.2022
3834 Clear 18 1001 59 10000 2.06 60 08:57 07.05.2022
3835 Clear 18 1001 63 10000 0.51 100 07:50 07.05.2022
3836 Clear 18 1001 63 10000 0.51 130 06:43 07.05.2022
3837 Clear 17 1000 67 10000 2.06 20 04:41 07.05.2022
3838 Clear 18 1001 72 10000 3.09 20 01:19 07.05.2022
3839 Clear 19 1001 55 10000 4.12 350 23:36 06.05.2022
3840 Clear 21 1001 43 10000 5.14 350 22:26 06.05.2022
3841 Clear 22 1014 40 10000 5.14 20 21:41 06.05.2022
3842 Clear 23 999 40 10000 5.66 340 20:33 06.05.2022
3843 Clear 26 999 31 10000 5.14 330 19:29 06.05.2022
3844 Clear 26 999 31 10000 5.14 330 19:29 06.05.2022
3845 Clear 26 999 25 10000 5.14 300 18:57 06.05.2022
3846 Clear 26 998 29 10000 4.63 340 17:38 06.05.2022
3847 Clear 27 999 28 10000 3.09 300 16:23 06.05.2022
3848 Clear 26 1013 25 10000 4.63 330 15:39 06.05.2022
3849 Clear 26 1013 25 10000 4.63 280 14:46 06.05.2022
3850 Clear 26 1000 29 10000 3.6 310 12:54 06.05.2022
3851 Clear 24 1001 31 10000 3.6 350 12:33 06.05.2022
3852 Clear 24 1001 31 10000 4.12 330 11:41 06.05.2022
3853 Clear 21 1002 49 10000 3.6 10 10:27 06.05.2022
3854 Clear 21 1002 59 10000 1.54 270 09:45 06.05.2022
3855 Clear 18 1002 72 10000 2.57 300 08:27 06.05.2022
3856 Clear 16 1002 77 10000 2.06 320 06:42 06.05.2022
3857 Clear 16 1002 72 10000 4.63 310 04:51 06.05.2022
3858 Clear 17 1002 67 10000 4.63 300 02:45 06.05.2022
3859 Clear 18 1003 63 10000 4.63 300 23:45 05.05.2022
3860 Clear 19 1004 52 10000 5.66 310 21:53 05.05.2022
3861 Clear 19 1003 52 10000 5.66 310 21:19 05.05.2022
3862 Clear 21 1002 43 10000 6.17 310 19:53 05.05.2022
3863 Clear 23 1002 35 10000 6.69 300 18:26 05.05.2022
3864 Clear 26 1001 29 10000 8.23 290 16:20 05.05.2022
3865 Clear 26 1001 29 10000 6.17 310 14:49 05.05.2022
3866 Clouds 24 1002 38 10000 5.66 300 13:22 05.05.2022
3867 Clouds 23 1002 43 10000 4.12 290 12:25 05.05.2022
3868 Clouds 21 1004 56 10000 3.09 290 10:37 05.05.2022
3869 Clouds 21 1004 59 10000 3.09 300 09:39 05.05.2022
3870 Clear 18 1003 77 10000 3.09 310 07:35 05.05.2022
3871 Clear 17 1002 77 10000 3.6 300 04:42 05.05.2022
3872 Clear 18 1002 72 10000 2.57 300 01:53 05.05.2022
3873 Clear 18 1003 67 10000 2.57 300 01:24 05.05.2022
3874 Clear 19 1003 63 10000 4.12 330 23:47 04.05.2022
3875 Clear 21 1002 56 10000 4.12 330 22:30 04.05.2022
3876 Clear 21 1002 56 10000 5.66 320 21:49 04.05.2022
3877 Clear 21 1002 56 10000 6.17 330 21:26 04.05.2022
3878 Clear 22 1001 43 10000 4.12 330 20:24 04.05.2022
3879 Clouds 23 1001 38 10000 5.14 320 19:53 04.05.2022
3880 Clouds 23 1000 40 10000 5.14 330 18:56 04.05.2022
3881 Clouds 24 1000 41 10000 5.14 330 18:22 04.05.2022
3882 Clouds 24 1000 41 10000 5.14 340 17:42 04.05.2022
3883 Clouds 26 1014 36 10000 5.66 300 15:41 04.05.2022
3884 Clouds 26 1014 36 10000 5.66 300 15:23 04.05.2022
3885 Clouds 26 1014 36 10000 5.14 300 14:21 04.05.2022
3886 Clouds 26 1000 41 10000 5.14 330 13:33 04.05.2022
3887 Clouds 24 1000 43 10000 4.63 290 12:33 04.05.2022
3888 Clouds 22 1001 40 10000 4.63 290 10:41 04.05.2022
3889 Clouds 21 1001 68 10000 5.14 290 09:43 04.05.2022
3890 Clouds 21 1001 77 10000 4.12 300 08:47 04.05.2022
3891 Clouds 21 1001 77 10000 4.12 300 08:47 04.05.2022
3892 Clear 21 1000 77 10000 4.63 290 06:47 04.05.2022
3893 Clear 21 998 72 10000 5.14 290 02:59 04.05.2022
3894 Clear 19 998 77 10000 6.17 290 00:47 04.05.2022
3895 Clear 22 998 60 6000 4.12 300 22:40 03.05.2022
3896 Clear 23 997 56 6000 5.66 290 21:46 03.05.2022
3897 Clear 24 997 53 6000 5.14 310 20:54 03.05.2022
3898 Sand 24 996 50 4000 8.23 300 20:30 03.05.2022
3899 Sand 27 995 39 4000 7.72 300 18:54 03.05.2022
3900 Sand 28 994 37 4000 6.69 300 18:21 03.05.2022
3901 Sand 31 993 31 3000 6.17 300 17:19 03.05.2022
3902 Sand 32 993 21 3000 8.23 280 15:43 03.05.2022
3903 Sand 31 993 22 4000 8.75 240 13:28 03.05.2022
3904 Sand 31 993 23 4000 7.72 250 12:27 03.05.2022
3905 Sand 29 993 28 4000 7.72 250 10:57 03.05.2022
3906 Sand 28 993 30 4000 7.2 240 09:46 03.05.2022
3907 Clear 26 992 33 10000 6.17 250 07:59 03.05.2022
3908 Clear 24 991 31 10000 7.72 230 06:45 03.05.2022
3909 Clear 26 989 23 10000 1.54 60 01:52 03.05.2022
3910 Clear 27 992 14 10000 10.8 80 22:45 02.05.2022
3911 Clear 26 993 24 10000 10.8 50 21:55 02.05.2022
3912 Clear 26 993 24 10000 10.8 50 21:24 02.05.2022
3913 Clear 26 1008 38 10000 10.8 60 18:57 02.05.2022
3914 Clear 26 1008 38 10000 10.8 60 18:25 02.05.2022
3915 Clear 27 1010 34 10000 4.63 30 17:37 02.05.2022
3916 Clear 27 1011 34 10000 7.72 330 16:25 02.05.2022
3917 Clear 29 1010 28 10000 7.2 340 15:40 02.05.2022
3918 Clear 32 1009 17 10000 5.14 350 14:19 02.05.2022
3919 Clear 30 1009 15 10000 3.6 80 12:52 02.05.2022
3920 Clear 29 996 17 10000 2.57 70 11:24 02.05.2022
3921 Clear 26 997 23 10000 4.63 80 09:32 02.05.2022
3922 Clear 23 997 33 10000 6.17 80 07:57 02.05.2022
3923 Clear 21 997 59 10000 2.57 60 05:59 02.05.2022
3924 Clear 23 999 46 10000 2.57 70 00:40 02.05.2022
3925 Clear 23 999 46 10000 2.57 70 00:21 02.05.2022
3926 Clear 24 1000 41 10000 2.57 60 22:49 01.05.2022
3927 Clear 26 1013 34 10000 4.63 360 21:41 01.05.2022
3928 Clear 27 999 32 10000 3.6 320 20:29 01.05.2022
3929 Clear 28 998 32 10000 3.09 300 19:20 01.05.2022
3930 Clear 28 998 30 10000 3.09 340 18:52 01.05.2022
3931 Clear 29 998 28 10000 3.09 320 17:47 01.05.2022
3932 Clear 31 998 25 10000 2.57 280 16:29 01.05.2022
3933 Clear 31 998 25 10000 1.03 310 15:45 01.05.2022
3934 Clear 29 1013 26 10000 3.09 360 14:45 01.05.2022
3935 Clear 30 1014 20 10000 3.64 316 12:23 01.05.2022
3936 Clear 24 1001 41 10000 0 0 10:22 01.05.2022
3937 Clear 21 1001 60 10000 1.54 290 08:49 01.05.2022
3938 Clear 19 1001 72 10000 2.06 300 06:31 01.05.2022
3939 Clear 21 1000 68 10000 3.6 300 01:56 01.05.2022
3940 Clear 22 1000 56 10000 4.12 300 22:18 30.04.2022
3941 Clear 22 1000 60 10000 5.14 300 21:32 30.04.2022
3942 Clear 24 998 41 10000 5.66 300 19:54 30.04.2022
3943 Clear 26 997 27 10000 5.14 300 18:53 30.04.2022
3944 Clear 28 996 23 10000 6.69 320 17:31 30.04.2022
3945 Clear 31 995 28 10000 7.72 320 15:51 30.04.2022
3946 Clear 31 995 28 10000 7.72 320 15:51 30.04.2022
3947 Clear 31 995 28 10000 6.17 300 15:18 30.04.2022
3948 Clear 31 995 25 10000 6.17 300 13:59 30.04.2022
3949 Clear 27 1009 41 10000 5.66 280 11:48 30.04.2022
3950 Clear 27 1009 41 10000 5.66 280 11:26 30.04.2022
3951 Clear 23 1009 64 10000 5.66 260 09:57 30.04.2022
3952 Clear 23 994 56 10000 7.72 250 07:47 30.04.2022
3953 Clouds 28 990 12 6000 4.63 200 04:25 30.04.2022
3954 Clouds 31 990 13 6000 0 0 23:57 29.04.2022
3955 Clear 32 989 9 10000 0 0 22:51 29.04.2022
3956 Clear 32 989 8 10000 3.6 120 21:56 29.04.2022
3957 Clear 33 989 7 10000 4.12 140 21:25 29.04.2022
3958 Clear 34 989 7 10000 6.69 120 20:24 29.04.2022
3959 Clear 36 989 8 10000 3.6 110 19:28 29.04.2022
3960 Clear 36 989 8 10000 3.09 60 17:35 29.04.2022
3961 Clear 36 1003 8 10000 5.66 80 16:38 29.04.2022
3962 Clear 35 1006 10 10000 2.06 10 14:37 29.04.2022
3963 Clear 34 1006 13 10000 2.57 290 13:42 29.04.2022
3964 Clear 34 994 9 10000 2.57 300 12:38 29.04.2022
3965 Clear 32 994 11 10000 3.09 30 10:44 29.04.2022
3966 Clear 22 1009 35 10000 1.54 10 07:57 29.04.2022
3967 Clear 20 1009 42 10000 1.54 60 07:26 29.04.2022
3968 Clear 16 1009 59 10000 3.09 50 06:32 29.04.2022
3969 Clear 21 995 42 10000 2.06 60 02:50 29.04.2022
3970 Clear 22 997 40 10000 2.06 70 00:18 29.04.2022
3971 Clear 22 997 40 10000 3.6 60 23:26 28.04.2022
3972 Clear 23 997 40 10000 4.12 60 22:37 28.04.2022
3973 Clear 24 997 38 10000 4.63 60 21:44 28.04.2022
3974 Clear 26 996 36 10000 4.12 50 20:49 28.04.2022
3975 Clear 26 996 31 10000 5.66 50 19:57 28.04.2022
3976 Clear 27 1010 29 10000 5.66 50 19:38 28.04.2022
3977 Clear 27 996 30 10000 5.66 50 19:19 28.04.2022
3978 Clear 31 995 16 10000 4.63 10 17:56 28.04.2022
3979 Clear 31 995 16 10000 4.63 350 16:58 28.04.2022
3980 Clear 31 994 15 10000 3.6 20 16:21 28.04.2022
3981 Clear 31 994 15 10000 4.63 30 15:52 28.04.2022
3982 Clear 31 994 18 10000 5.14 20 15:21 28.04.2022
3983 Clear 31 996 16 10000 3.6 10 13:43 28.04.2022
3984 Clear 28 1011 18 10000 2.57 30 12:32 28.04.2022
3985 Clear 27 1011 18 10000 2.06 60 11:38 28.04.2022
3986 Clear 26 997 22 10000 4.63 40 10:29 28.04.2022
3987 Clear 26 997 25 10000 4.12 50 09:50 28.04.2022
3988 Clear 19 997 55 10000 2.57 60 07:44 28.04.2022
3989 Clear 18 997 67 10000 1.54 60 06:54 28.04.2022
3990 Clear 17 996 72 10000 1.54 50 05:54 28.04.2022
3991 Clear 17 996 72 10000 1.54 90 04:43 28.04.2022
3992 Clear 18 997 72 10000 2.06 60 03:28 28.04.2022
3993 Clear 21 998 49 10000 4.12 50 23:43 27.04.2022
3994 Clear 21 999 46 10000 3.09 50 22:25 27.04.2022
3995 Clear 22 998 40 10000 5.66 50 21:50 27.04.2022
3996 Clear 23 998 35 10000 6.17 60 20:51 27.04.2022
3997 Clear 23 998 35 10000 6.17 60 20:32 27.04.2022
3998 Clear 26 997 36 10000 6.17 40 19:36 27.04.2022
3999 Clear 28 1010 26 10000 7.2 10 18:52 27.04.2022
4000 Clear 29 995 20 10000 7.2 20 18:21 27.04.2022
4001 Clear 31 995 18 10000 5.14 350 16:23 27.04.2022
4002 Clear 31 996 23 10000 3.6 360 13:51 27.04.2022
4003 Clear 27 1012 29 10000 3.6 20 11:39 27.04.2022
4004 Clear 26 998 36 10000 4.12 40 11:20 27.04.2022
4005 Clear 21 998 60 10000 5.14 40 08:58 27.04.2022
4006 Clear 18 998 82 10000 3.09 60 06:45 27.04.2022
4007 Clear 18 997 77 10000 4.12 50 03:41 27.04.2022
4008 Clear 19 998 68 10000 5.14 30 01:30 27.04.2022
4009 Clear 21 998 59 10000 4.12 30 00:36 27.04.2022
4010 Clear 21 998 56 10000 4.63 30 23:25 26.04.2022
4011 Clear 21 998 56 10000 4.63 50 22:57 26.04.2022
4012 Clear 21 998 52 10000 4.63 50 22:38 26.04.2022
4013 Clear 23 998 26 10000 4.12 60 21:26 26.04.2022
4014 Clear 25 1011 23 10000 4.63 50 20:40 26.04.2022
4015 Clear 26 997 25 10000 7.2 50 19:49 26.04.2022
4016 Clear 26 996 27 10000 6.69 30 19:30 26.04.2022
4017 Clear 27 996 30 10000 6.17 40 18:44 26.04.2022
4018 Clear 29 995 26 10000 6.69 40 17:50 26.04.2022
4019 Clear 32 995 21 10000 6.69 30 16:28 26.04.2022
4020 Clouds 31 996 23 10000 4.98 42 13:59 26.04.2022
4021 Clouds 34 1008 9 10000 4.43 40 13:31 26.04.2022
4022 Clear 28 1011 28 10000 3.6 10 11:48 26.04.2022
4023 Clear 27 998 28 10000 3.6 40 10:34 26.04.2022
4024 Clouds 21 1012 56 6000 2.57 60 08:47 26.04.2022
4025 Clear 19 997 63 10000 2.57 30 06:57 26.04.2022
4026 Clear 21 996 52 10000 2.06 60 04:23 26.04.2022
4027 Clear 21 996 52 10000 2.06 60 04:23 26.04.2022
4028 Clear 21 997 43 10000 5.14 40 01:22 26.04.2022
4029 Clear 21 997 56 10000 4.12 50 00:25 26.04.2022
4030 Clear 23 997 56 10000 4.63 30 22:21 25.04.2022
4031 Clear 23 997 56 6000 4.63 50 21:39 25.04.2022
4032 Sand 26 996 44 4000 6.69 10 20:35 25.04.2022
4033 Sand 29 995 32 2000 6.69 10 18:54 25.04.2022
4034 Sand 31 994 30 2000 7.2 20 17:43 25.04.2022
4035 Sand 31 995 31 2000 6.17 10 16:52 25.04.2022
4036 Sand 31 1008 29 2000 6.17 10 15:24 25.04.2022
4037 Clear 30 1009 30 6000 4.12 40 14:34 25.04.2022
4038 Clear 29 1009 32 6000 5.14 30 13:30 25.04.2022
4039 Clear 22 1011 56 6000 4.63 360 11:37 25.04.2022
4040 Haze 21 1011 64 4000 4.12 10 10:23 25.04.2022
4041 Haze 19 997 77 4000 3.09 350 08:35 25.04.2022
4042 Clear 18 996 72 6000 2.57 10 06:38 25.04.2022
4043 Clear 19 996 59 6000 3.09 350 03:44 25.04.2022
4044 Clear 21 996 37 6000 2.57 10 00:43 25.04.2022
4045 Clear 22 996 32 6000 2.57 360 23:51 24.04.2022
4046 Clear 22 996 30 10000 2.57 10 22:41 24.04.2022
4047 Clear 23 996 28 10000 2.57 350 22:18 24.04.2022
4048 Clear 24 996 29 10000 4.12 350 21:24 24.04.2022
4049 Clear 24 995 29 10000 5.14 360 20:48 24.04.2022
4050 Clear 26 995 33 10000 4.63 350 20:29 24.04.2022
4051 Clear 26 995 31 10000 4.12 340 19:45 24.04.2022
4052 Clear 28 994 24 10000 5.14 340 18:20 24.04.2022
4053 Clear 31 993 23 10000 5.14 340 17:27 24.04.2022
4054 Clear 31 993 23 10000 5.66 350 16:58 24.04.2022
4055 Clear 31 993 23 10000 5.66 330 16:32 24.04.2022
4056 Clear 29 1008 24 10000 4.63 340 15:54 24.04.2022
4057 Clear 29 1008 24 10000 5.66 330 14:58 24.04.2022
4058 Clear 29 1008 24 10000 5.66 360 13:56 24.04.2022
4059 Clear 28 1008 26 6000 3.6 350 13:24 24.04.2022
4060 Clear 26 1009 36 6000 2.57 350 11:56 24.04.2022
4061 Clear 24 1009 38 6000 3.09 350 11:27 24.04.2022
4062 Haze 22 1009 56 4000 2.06 360 10:24 24.04.2022
4063 Haze 21 995 68 4000 2.57 10 09:19 24.04.2022
4064 Clear 16 994 87 6000 0 0 06:18 24.04.2022
4065 Clouds 17 994 82 6000 0.51 70 03:37 24.04.2022
4066 Clouds 18 995 77 6000 1.54 360 01:37 24.04.2022
4067 Clouds 18 995 77 6000 4.63 10 00:22 24.04.2022
4068 Clouds 19 995 68 6000 3.6 10 23:26 23.04.2022
4069 Clear 19 995 68 10000 3.6 360 22:55 23.04.2022
4070 Clear 21 995 56 10000 5.14 350 21:51 23.04.2022
4071 Clear 21 995 56 10000 5.14 350 21:32 23.04.2022
4072 Clear 23 994 40 10000 4.63 350 20:36 23.04.2022
4073 Clear 26 1007 27 10000 4.63 10 19:46 23.04.2022
4074 Clear 27 993 26 10000 4.63 360 19:19 23.04.2022
4075 Clear 27 993 24 10000 4.63 360 18:46 23.04.2022
4076 Clear 28 993 24 10000 4.63 340 17:50 23.04.2022
4077 Clear 29 993 26 10000 4.12 330 16:56 23.04.2022
4078 Clear 29 992 26 10000 3.6 330 16:23 23.04.2022
4079 Clear 28 993 26 10000 4.63 330 14:57 23.04.2022
4080 Clouds 25 1008 31 10000 2.57 350 12:35 23.04.2022
4081 Clouds 20 1010 60 10000 3.6 10 10:41 23.04.2022
4082 Clouds 18 996 67 10000 3.09 350 08:55 23.04.2022
4083 Clouds 16 995 82 10000 3.6 40 05:47 23.04.2022
4084 Clouds 17 1009 77 10000 4.63 20 03:54 23.04.2022
4085 Clear 17 996 82 10000 4.12 50 00:53 23.04.2022
4086 Clear 17 997 82 10000 6.17 40 23:29 22.04.2022
4087 Clear 18 997 77 10000 5.66 40 22:19 22.04.2022
4088 Clear 18 997 72 10000 6.17 30 21:41 22.04.2022
4089 Clear 19 997 63 10000 5.14 40 20:46 22.04.2022
4090 Clear 21 996 49 10000 5.66 50 20:26 22.04.2022
4091 Clear 22 996 35 10000 6.69 20 19:18 22.04.2022
4092 Clear 23 996 35 10000 4.12 40 18:36 22.04.2022
4093 Clear 24 996 35 10000 6.69 10 17:39 22.04.2022
4094 Clear 24 996 38 10000 7.2 30 16:46 22.04.2022
4095 Clear 26 996 38 10000 7.72 10 15:32 22.04.2022
4096 Clear 24 1011 41 10000 5.14 20 14:44 22.04.2022
4097 Clear 24 1011 35 10000 6.17 50 13:43 22.04.2022
4098 Clear 23 1012 40 10000 5.66 20 12:57 22.04.2022
4099 Clear 22 1012 46 10000 5.66 10 11:48 22.04.2022
4100 Clear 21 1013 46 10000 5.66 60 11:21 22.04.2022
4101 Clear 21 1013 49 10000 6.17 20 10:48 22.04.2022
4102 Clear 19 1013 55 10000 5.66 50 10:29 22.04.2022
4103 Clear 19 1013 59 10000 5.66 50 09:50 22.04.2022
4104 Clear 17 999 67 10000 5.66 50 08:50 22.04.2022
4105 Clear 16 999 76 10000 5.14 50 06:56 22.04.2022
4106 Clear 16 999 72 10000 6.69 50 01:53 22.04.2022
4107 Clear 16 1000 72 10000 6.17 50 00:51 22.04.2022
4108 Clear 17 1001 67 10000 6.17 50 22:59 21.04.2022
4109 Clear 17 1001 67 10000 6.69 40 21:59 21.04.2022
4110 Clear 19 1001 55 10000 7.72 30 20:36 21.04.2022
4111 Clear 19 1001 55 10000 7.72 30 20:18 21.04.2022
4112 Clear 23 999 40 10000 7.2 50 18:35 21.04.2022
4113 Clear 23 1000 38 10000 7.2 30 17:54 21.04.2022
4114 Clear 26 999 31 10000 6.17 30 16:30 21.04.2022
4115 Clear 26 999 33 10000 6.69 30 15:21 21.04.2022
4116 Clear 26 1000 33 10000 6.17 30 14:38 21.04.2022
4117 Clear 26 1000 31 10000 6.17 30 13:23 21.04.2022
4118 Clear 24 1001 35 10000 6.17 30 12:53 21.04.2022
4119 Clouds 21 1003 46 10000 6.17 40 10:47 21.04.2022
4120 Clouds 19 1003 52 10000 6.17 50 08:55 21.04.2022
4121 Clouds 16 1003 67 10000 3.6 40 07:24 21.04.2022
4122 Clouds 16 1002 76 10000 3.09 40 05:42 21.04.2022
4123 Clouds 16 1002 77 10000 3.09 60 03:30 21.04.2022
4124 Clouds 16 1002 77 10000 4.12 40 02:47 21.04.2022
4125 Clouds 16 1002 77 10000 4.12 40 02:47 21.04.2022
4126 Clouds 17 1003 67 10000 4.12 40 00:45 21.04.2022
4127 Clouds 17 1003 72 10000 6.17 30 23:50 20.04.2022
4128 Clouds 18 1003 67 10000 5.14 50 23:22 20.04.2022
4129 Clouds 18 1003 67 10000 5.14 40 22:49 20.04.2022
4130 Clouds 18 1003 63 10000 7.2 40 22:30 20.04.2022
4131 Clouds 19 1003 63 10000 6.69 50 21:27 20.04.2022
4132 Clouds 21 1002 56 10000 6.69 40 20:24 20.04.2022
4133 Clouds 21 1002 52 10000 6.69 50 19:52 20.04.2022
4134 Clouds 22 1002 43 10000 5.66 10 19:20 20.04.2022
4135 Clouds 23 1002 38 10000 4.12 10 18:22 20.04.2022
4136 Clouds 24 1001 35 10000 5.14 360 16:54 20.04.2022
4137 Clouds 24 1001 35 10000 5.14 360 16:36 20.04.2022
4138 Clouds 24 1002 38 10000 4.12 340 13:59 20.04.2022
4139 Clouds 21 1004 40 10000 4.12 360 11:50 20.04.2022
4140 Clouds 21 1004 43 10000 4.63 360 11:21 20.04.2022
4141 Clouds 19 1004 52 10000 3.09 360 10:22 20.04.2022
4142 Clouds 18 1004 59 10000 3.09 350 09:25 20.04.2022
4143 Clouds 17 1004 67 6000 2.06 30 08:22 20.04.2022
4144 Mist 16 1004 77 4000 3.6 360 07:37 20.04.2022
4145 Clear 16 1003 77 10000 2.57 10 03:49 20.04.2022
4146 Clear 17 1003 72 10000 4.12 10 00:23 20.04.2022
4147 Clear 17 1003 72 10000 5.14 360 23:56 19.04.2022
4148 Clear 18 1003 63 10000 6.17 10 22:27 19.04.2022
4149 Clear 19 1003 59 10000 6.69 360 21:57 19.04.2022
4150 Clear 19 1003 59 10000 6.69 360 21:33 19.04.2022
4151 Clear 21 1001 49 10000 5.66 340 20:46 19.04.2022
4152 Clear 21 1001 49 10000 5.66 340 20:26 19.04.2022
4153 Clear 22 1000 49 10000 6.69 350 19:19 19.04.2022
4154 Clear 22 1000 49 10000 6.69 350 19:19 19.04.2022
4155 Clear 26 999 19 10000 5.14 300 17:51 19.04.2022
4156 Clear 27 998 19 10000 5.14 290 16:43 19.04.2022
4157 Clear 27 998 19 10000 3.09 250 16:24 19.04.2022
4158 Clear 26 999 25 10000 2.57 270 14:51 19.04.2022
4159 Clear 27 999 24 10000 5.14 280 14:30 19.04.2022
4160 Clear 26 1000 27 10000 4.12 290 12:51 19.04.2022
4161 Clear 26 1000 29 10000 6.17 270 12:26 19.04.2022
4162 Clear 26 1000 31 10000 2.06 340 10:50 19.04.2022
4163 Clear 23 1000 40 10000 0 0 09:25 19.04.2022
4164 Clouds 18 998 82 6000 1.54 30 06:30 19.04.2022
4165 Clouds 18 997 82 6000 2.57 360 04:19 19.04.2022
4166 Clouds 19 997 77 6000 3.09 10 00:56 19.04.2022
4167 Clouds 19 997 77 6000 4.63 10 23:38 18.04.2022
4168 Clouds 21 996 64 6000 4.63 330 21:39 18.04.2022
4169 Clouds 21 996 64 6000 4.63 330 21:20 18.04.2022
4170 Clouds 22 995 64 6000 6.69 20 20:36 18.04.2022
4171 Clouds 23 995 60 6000 4.63 10 19:57 18.04.2022
4172 Clouds 24 995 53 6000 4.63 350 19:27 18.04.2022
4173 Haze 26 994 50 2000 4.12 360 18:33 18.04.2022
4174 Haze 26 994 50 2000 4.12 360 17:38 18.04.2022
4175 Haze 25 1008 50 2000 4.12 360 17:18 18.04.2022
4176 Haze 25 1008 47 2000 4.63 350 16:35 18.04.2022
4177 Haze 26 1008 41 2000 4.12 330 15:27 18.04.2022
4178 Haze 26 1008 38 2000 4.63 340 13:42 18.04.2022
4179 Haze 26 1008 38 2000 4.63 340 13:42 18.04.2022
4180 Haze 26 1008 36 2000 4.63 360 12:40 18.04.2022
4181 Haze 26 1008 41 2000 4.63 340 11:42 18.04.2022
4182 Haze 27 994 34 2000 3.09 30 10:43 18.04.2022
4183 Haze 24 994 41 2000 2.57 340 09:31 18.04.2022
4184 Haze 25 1007 36 2000 2.06 350 08:29 18.04.2022
4185 Haze 24 1006 35 3000 3.09 30 05:58 18.04.2022
4186 Clouds 32 1003 12 6000 3.6 170 01:38 18.04.2022
4187 Clouds 34 990 7 6000 5.14 170 22:53 17.04.2022
4188 Clouds 34 990 9 6000 4.12 170 22:31 17.04.2022
4189 Clear 36 990 10 10000 3.09 190 21:32 17.04.2022
4190 Clear 36 990 8 10000 5.14 270 20:50 17.04.2022
4191 Clouds 37 1003 6 6000 5.14 160 19:53 17.04.2022
4192 Sand 39 989 7 4000 5.14 170 18:34 17.04.2022
4193 Sand 41 989 6 4000 5.14 200 16:44 17.04.2022
4194 Sand 41 990 6 4000 5.66 200 15:33 17.04.2022
4195 Sand 39 990 6 4000 7.2 190 14:28 17.04.2022
4196 Sand 39 991 7 4000 7.72 220 13:23 17.04.2022
4197 Sand 38 992 8 4000 6.69 210 12:30 17.04.2022
4198 Haze 34 993 14 4000 3.09 290 10:48 17.04.2022
4199 Haze 33 993 14 4000 3.6 280 10:29 17.04.2022
4200 Haze 33 993 10 4000 1.54 290 09:50 17.04.2022
4201 Haze 29 993 13 4000 0 0 08:59 17.04.2022
4202 Haze 26 1007 19 4000 0 0 08:29 17.04.2022
4203 Clear 22 993 35 6000 0 0 05:33 17.04.2022
4204 Clear 22 995 40 10000 2.57 60 01:47 17.04.2022
4205 Clear 23 996 38 10000 1.54 50 23:59 16.04.2022
4206 Clear 24 996 31 10000 3.09 80 22:56 16.04.2022
4207 Clear 24 996 35 10000 4.12 70 21:45 16.04.2022
4208 Clear 26 996 31 10000 4.12 70 20:54 16.04.2022
4209 Clear 28 996 15 10000 4.63 50 19:21 16.04.2022
4210 Clear 29 1010 14 10000 4.63 50 18:35 16.04.2022
4211 Clear 31 996 10 10000 4.63 50 16:51 16.04.2022
4212 Clear 31 996 8 10000 5.14 80 15:48 16.04.2022
4213 Clear 31 997 9 10000 3.09 60 14:58 16.04.2022
4214 Clear 31 997 10 10000 5.14 60 14:37 16.04.2022
4215 Clear 29 1012 12 10000 5.14 50 13:49 16.04.2022
4216 Clear 28 1012 11 10000 5.66 70 12:43 16.04.2022
4217 Clear 25 1013 22 10000 6.17 60 11:33 16.04.2022
4218 Clear 23 1013 33 10000 5.14 60 10:29 16.04.2022
4219 Clear 21 999 40 10000 6.17 60 09:36 16.04.2022
4220 Clear 20 1013 42 10000 6.69 60 08:42 16.04.2022
4221 Clouds 17 999 77 6000 5.66 80 07:21 16.04.2022
4222 Clear 16 999 87 10000 3.6 60 04:58 16.04.2022
4223 Clear 17 999 77 10000 4.63 60 01:23 16.04.2022
4224 Clear 17 1000 77 10000 5.14 60 23:45 15.04.2022
4225 Clear 18 1000 67 10000 4.63 60 22:48 15.04.2022
4226 Clear 18 1000 67 10000 5.66 60 22:28 15.04.2022
4227 Clear 18 1000 63 10000 4.63 50 21:21 15.04.2022
4228 Clear 19 1000 59 10000 6.17 40 20:38 15.04.2022
4229 Clear 21 1000 52 10000 5.66 40 19:44 15.04.2022
4230 Clear 21 1000 49 10000 6.17 30 18:59 15.04.2022
4231 Clear 21 1000 49 10000 6.17 30 18:41 15.04.2022
4232 Clear 23 999 40 10000 7.2 30 18:21 15.04.2022
4233 Clear 25 1013 33 10000 6.69 20 17:26 15.04.2022
4234 Clear 26 999 27 10000 6.17 20 16:25 15.04.2022
4235 Clear 26 999 25 10000 5.66 10 15:45 15.04.2022
4236 Clear 26 999 31 10000 4.12 40 13:55 15.04.2022
4237 Clear 23 1014 35 10000 6.69 50 12:52 15.04.2022
4238 Clear 23 1014 35 10000 6.69 50 12:24 15.04.2022
4239 Clear 22 1014 37 10000 6.69 20 11:50 15.04.2022
4240 Clear 21 1015 43 10000 4.63 40 10:46 15.04.2022
4241 Clear 21 1015 43 10000 4.63 40 10:46 15.04.2022
4242 Clear 21 1001 45 10000 4.63 60 10:20 15.04.2022
4243 Clear 18 1001 55 10000 6.69 50 09:22 15.04.2022
4244 Clear 17 1000 63 10000 5.66 60 08:40 15.04.2022
4245 Clear 14 1000 76 10000 3.6 50 06:50 15.04.2022
4246 Clear 14 1000 76 10000 3.6 30 04:49 15.04.2022
4247 Clear 16 1001 67 10000 3.6 50 00:46 15.04.2022
4248 Clear 16 1002 67 10000 4.63 50 23:26 14.04.2022
4249 Clear 17 1002 59 10000 4.63 50 22:46 14.04.2022
4250 Clear 17 1002 59 10000 5.66 50 22:27 14.04.2022
4251 Clear 17 1002 59 10000 6.17 50 21:50 14.04.2022
4252 Clear 19 1001 52 10000 8.23 30 19:51 14.04.2022
4253 Clear 21 1001 45 10000 7.72 30 19:22 14.04.2022
4254 Clear 23 1000 33 10000 8.75 30 17:46 14.04.2022
4255 Clear 24 999 31 10000 7.2 30 17:18 14.04.2022
4256 Clear 24 999 31 10000 6.69 40 16:21 14.04.2022
4257 Clear 24 1000 31 10000 5.14 30 13:54 14.04.2022
4258 Clear 24 1000 33 10000 4.12 10 13:25 14.04.2022
4259 Clear 22 1014 35 10000 7.2 30 12:33 14.04.2022
4260 Clear 22 1001 35 10000 6.69 30 11:47 14.04.2022
4261 Clear 21 1001 37 10000 6.17 40 11:20 14.04.2022
4262 Clear 19 1015 45 10000 7.2 50 10:33 14.04.2022
4263 Clear 18 1001 51 10000 7.2 70 09:50 14.04.2022
4264 Clear 18 1001 55 10000 6.69 60 08:35 14.04.2022
4265 Clear 14 1000 76 10000 3.6 50 06:24 14.04.2022
4266 Clear 16 1001 72 10000 5.66 40 01:49 14.04.2022
4267 Clear 16 1001 67 10000 6.69 40 22:41 13.04.2022
4268 Clear 17 1001 63 10000 6.17 40 21:44 13.04.2022
4269 Clear 17 1001 55 10000 6.69 40 20:47 13.04.2022
4270 Clear 18 1000 51 10000 6.69 40 20:18 13.04.2022
4271 Clear 21 999 43 10000 6.69 20 18:50 13.04.2022
4272 Clear 22 998 43 10000 7.2 20 17:54 13.04.2022
4273 Clear 23 998 38 10000 6.69 20 17:23 13.04.2022
4274 Clear 23 998 38 10000 5.14 10 16:24 13.04.2022
4275 Clear 24 999 33 10000 4.12 350 15:31 13.04.2022
4276 Clear 24 999 33 10000 5.14 10 14:46 13.04.2022
4277 Clear 23 999 35 10000 4.12 40 13:57 13.04.2022
4278 Clear 21 1014 40 10000 7.2 10 12:59 13.04.2022
4279 Clear 21 1000 42 10000 4.12 40 12:19 13.04.2022
4280 Clear 19 1001 45 10000 4.63 20 10:46 13.04.2022
4281 Clear 16 1001 55 10000 5.14 40 08:57 13.04.2022
4282 Clear 16 1001 58 10000 5.14 40 08:31 13.04.2022
4283 Clear 13 1001 66 10000 3.6 10 06:51 13.04.2022
4284 Clear 13 1001 66 10000 3.09 360 06:25 13.04.2022
4285 Clear 14 1001 62 10000 3.6 10 03:31 13.04.2022
4286 Clear 16 1002 58 10000 4.12 20 00:20 13.04.2022
4287 Clear 16 1002 62 10000 5.14 20 22:46 12.04.2022
4288 Clear 16 1002 58 10000 6.17 360 21:57 12.04.2022
4289 Clear 17 1002 55 10000 5.14 350 20:49 12.04.2022
4290 Clear 17 1002 55 10000 8.23 10 20:27 12.04.2022
4291 Clear 18 1001 51 10000 6.69 360 19:47 12.04.2022
4292 Clear 19 1001 48 10000 7.2 350 19:28 12.04.2022
4293 Clear 21 1000 40 10000 5.14 350 17:59 12.04.2022
4294 Clear 22 1000 35 10000 4.63 350 16:53 12.04.2022
4295 Clear 22 1014 37 10000 4.63 350 15:52 12.04.2022
4296 Clear 22 1014 35 10000 5.14 360 15:25 12.04.2022
4297 Clear 22 1015 35 10000 4.63 360 14:21 12.04.2022
4298 Clear 21 1016 37 10000 4.12 340 13:28 12.04.2022
4299 Clear 20 1016 40 10000 4.12 300 12:44 12.04.2022
4300 Clear 21 1003 39 10000 3.09 300 11:42 12.04.2022
4301 Clouds 18 1004 48 10000 4.12 320 10:30 12.04.2022
4302 Clouds 17 1003 51 10000 5.14 360 08:54 12.04.2022
4303 Clouds 17 1003 51 10000 5.14 360 08:54 12.04.2022
4304 Clouds 16 1003 55 6000 4.12 360 07:51 12.04.2022
4305 Clear 16 1002 62 10000 2.06 10 05:49 12.04.2022
4306 Clear 15 1016 63 10000 3.6 350 04:46 12.04.2022
4307 Clear 16 1003 58 10000 5.14 350 23:49 11.04.2022
4308 Clear 16 1003 63 10000 5.14 350 22:44 11.04.2022
4309 Clear 18 1002 55 10000 6.17 340 21:37 11.04.2022
4310 Clear 19 1016 52 10000 6.17 310 20:55 11.04.2022
4311 Clear 19 1002 52 10000 6.17 310 20:28 11.04.2022
4312 Clear 21 1014 49 10000 6.17 320 19:37 11.04.2022
4313 Clear 21 1000 49 10000 6.17 320 19:18 11.04.2022
4314 Clear 23 1013 46 10000 6.69 330 18:40 11.04.2022
4315 Clear 26 998 41 10000 6.17 330 17:56 11.04.2022
4316 Clear 26 998 27 10000 6.69 320 16:54 11.04.2022
4317 Clear 27 1012 24 10000 5.66 340 15:45 11.04.2022
4318 Clear 26 1013 21 6000 4.63 330 13:53 11.04.2022
4319 Clear 25 1013 29 6000 4.63 340 12:44 11.04.2022
4320 Clear 24 1014 33 6000 3.6 310 12:25 11.04.2022
4321 Clear 23 1000 38 6000 4.63 360 11:30 11.04.2022
4322 Clear 21 1000 40 6000 2.57 10 10:21 11.04.2022
4323 Clear 18 1000 77 6000 2.06 360 08:50 11.04.2022
4324 Clear 16 998 93 6000 3.6 360 05:38 11.04.2022
4325 Clear 18 998 77 10000 3.6 50 00:57 11.04.2022
4326 Clear 18 999 77 10000 4.63 50 22:33 10.04.2022
4327 Clear 19 999 72 10000 6.69 40 21:55 10.04.2022
4328 Clear 21 998 68 10000 5.14 50 21:26 10.04.2022
4329 Clear 21 998 60 10000 6.17 50 20:30 10.04.2022
4330 Clear 23 998 49 10000 6.69 40 19:41 10.04.2022
4331 Clear 24 997 43 10000 7.2 40 19:18 10.04.2022
4332 Clear 26 997 44 10000 6.17 40 18:38 10.04.2022
4333 Clear 26 997 41 10000 6.17 10 17:51 10.04.2022
4334 Clear 26 1011 41 10000 6.17 10 17:31 10.04.2022
4335 Clear 28 1011 34 10000 5.14 10 15:53 10.04.2022
4336 Clear 27 1011 39 10000 5.14 360 14:49 10.04.2022
4337 Clear 27 1011 36 10000 4.63 20 13:49 10.04.2022
4338 Clear 24 1012 43 10000 4.12 50 12:33 10.04.2022
4339 Clear 24 1012 46 10000 4.12 40 11:45 10.04.2022
4340 Clear 22 1012 53 10000 5.14 40 11:24 10.04.2022
4341 Clear 20 1013 64 10000 4.12 360 10:38 10.04.2022
4342 Clear 20 1013 64 10000 5.14 20 09:46 10.04.2022
4343 Clear 18 1013 77 10000 5.14 40 08:55 10.04.2022
4344 Clear 18 999 72 10000 6.17 20 08:20 10.04.2022
4345 Clear 16 998 82 10000 4.12 20 06:59 10.04.2022
4346 Clear 16 998 82 10000 4.12 60 04:36 10.04.2022
4347 Clear 17 999 82 10000 5.14 40 02:19 10.04.2022
4348 Clear 17 1000 82 10000 6.17 40 23:54 09.04.2022
4349 Clear 17 1000 82 10000 6.17 40 23:54 09.04.2022
4350 Clear 18 1000 67 10000 6.17 30 23:25 09.04.2022
4351 Clear 19 1000 63 10000 5.66 40 22:39 09.04.2022
4352 Clear 21 999 59 10000 5.14 50 21:28 09.04.2022
4353 Clear 22 999 53 10000 5.14 50 20:31 09.04.2022
4354 Clear 22 998 53 10000 6.69 40 19:57 09.04.2022
4355 Clear 22 998 53 10000 6.69 40 19:39 09.04.2022
4356 Clear 26 997 41 10000 7.2 20 18:24 09.04.2022
4357 Clear 26 997 39 10000 7.2 10 17:50 09.04.2022
4358 Clear 27 997 30 10000 6.17 360 16:59 09.04.2022
4359 Clear 27 997 30 10000 6.17 360 16:40 09.04.2022
4360 Clear 28 997 24 10000 4.12 30 15:50 09.04.2022
4361 Clear 27 998 26 10000 5.14 20 15:26 09.04.2022
4362 Clear 26 1012 29 10000 5.14 40 14:26 09.04.2022
4363 Clear 25 1013 31 10000 5.66 30 13:33 09.04.2022
4364 Clear 26 999 31 10000 5.14 40 12:56 09.04.2022
4365 Clear 23 1014 40 10000 6.17 40 11:50 09.04.2022
4366 Clear 21 1014 49 10000 5.14 40 10:52 09.04.2022
4367 Clear 21 1001 52 10000 5.14 40 10:18 09.04.2022
4368 Clear 18 1001 67 10000 3.6 40 09:23 09.04.2022
4369 Clouds 16 1001 82 10000 4.63 50 08:26 09.04.2022
4370 Clear 16 1000 82 10000 2.57 40 04:38 09.04.2022
4371 Clear 17 1002 72 10000 5.14 40 00:35 09.04.2022
4372 Clear 18 1002 67 10000 4.63 30 23:24 08.04.2022
4373 Clear 18 1002 67 10000 6.17 360 21:53 08.04.2022
4374 Clear 19 1001 63 10000 5.14 10 20:44 08.04.2022
4375 Clear 21 1000 60 10000 6.69 360 19:57 08.04.2022
4376 Clear 22 1000 53 10000 4.12 350 18:59 08.04.2022
4377 Clear 23 1000 49 10000 5.66 340 18:24 08.04.2022
4378 Clear 26 999 44 10000 6.17 350 17:29 08.04.2022
4379 Clear 26 999 39 10000 5.14 350 16:58 08.04.2022
4380 Clear 26 1013 36 10000 4.63 340 16:32 08.04.2022
4381 Clear 26 1013 29 10000 6.17 310 15:38 08.04.2022
4382 Clear 26 1013 31 10000 5.66 330 14:52 08.04.2022
4383 Clear 26 1013 36 10000 4.63 330 14:21 08.04.2022
4384 Clear 26 1013 41 10000 5.14 300 13:41 08.04.2022
4385 Clear 26 1013 41 10000 6.17 310 13:22 08.04.2022
4386 Clouds 24 1014 46 6000 6.69 300 11:43 08.04.2022
4387 Clouds 23 1000 56 6000 4.63 300 10:26 08.04.2022
4388 Clouds 21 1013 64 6000 1.54 320 09:20 08.04.2022
4389 Clouds 21 999 68 6000 4.12 300 08:25 08.04.2022
4390 Dust 21 997 64 4000 3.6 320 06:47 08.04.2022
4391 Dust 27 1010 26 4000 3.09 290 03:48 08.04.2022
4392 Clouds 34 1010 8 6000 3.6 190 00:32 08.04.2022
4393 Clouds 34 1010 8 6000 8.23 170 23:59 07.04.2022
4394 Clouds 34 996 7 6000 5.14 170 22:58 07.04.2022
4395 Clouds 34 996 7 6000 5.66 170 22:37 07.04.2022
4396 Clouds 34 996 7 6000 5.66 170 22:19 07.04.2022
4397 Clouds 34 996 7 6000 5.66 170 21:47 07.04.2022
4398 Clouds 35 1010 8 6000 5.66 180 20:57 07.04.2022
4399 Clouds 34 996 10 6000 4.63 170 20:28 07.04.2022
4400 Clouds 37 996 9 6000 4.12 190 17:51 07.04.2022
4401 Clouds 37 997 9 6000 3.6 190 17:24 07.04.2022
4402 Clouds 38 997 8 6000 4.12 220 16:42 07.04.2022
4403 Clouds 38 997 8 6000 4.12 220 16:18 07.04.2022
4404 Clouds 37 998 7 6000 2.06 210 14:31 07.04.2022
4405 Dust 36 998 8 4000 2.06 200 13:41 07.04.2022
4406 Dust 34 1000 9 4000 1.54 30 12:40 07.04.2022
4407 Dust 32 1000 11 4000 1.54 30 10:58 07.04.2022
4408 Dust 29 1014 15 4000 2.06 60 09:36 07.04.2022
4409 Dust 26 999 27 4000 0 0 08:37 07.04.2022
4410 Dust 21 999 52 4000 0.51 70 06:42 07.04.2022
4411 Dust 22 1000 53 4000 3.09 10 02:43 07.04.2022
4412 Dust 22 1000 56 4000 3.09 20 01:52 07.04.2022
4413 Dust 24 1001 50 4000 2.06 320 23:57 06.04.2022
4414 Clouds 26 1001 41 6000 0 0 22:46 06.04.2022
4415 Clouds 26 1001 44 6000 1.54 360 22:25 06.04.2022
4416 Clouds 26 1001 39 6000 2.06 310 21:32 06.04.2022
4417 Clouds 28 1000 32 6000 5.14 320 20:28 06.04.2022
4418 Clouds 28 999 32 6000 5.14 340 19:53 06.04.2022
4419 Clouds 31 998 30 6000 5.14 320 18:51 06.04.2022
4420 Clouds 31 998 29 6000 5.14 290 17:57 06.04.2022
4421 Clouds 33 998 21 6000 5.14 290 17:35 06.04.2022
4422 Clear 34 998 15 6000 6.17 280 16:36 06.04.2022
4423 Clear 36 998 12 6000 6.69 270 15:48 06.04.2022
4424 Clear 36 998 34 6000 6.69 290 14:35 06.04.2022
4425 Clouds 36 999 9 6000 5.14 280 12:58 06.04.2022
4426 Clouds 36 999 9 6000 4.63 250 12:22 06.04.2022
4427 Clouds 32 1014 9 6000 3.09 280 10:47 06.04.2022
4428 Clouds 32 1000 9 6000 3.09 280 10:24 06.04.2022
4429 Clouds 31 1000 10 6000 4.12 250 09:40 06.04.2022
4430 Clouds 31 999 8 6000 4.63 210 08:32 06.04.2022
4431 Clear 29 998 12 10000 3.09 210 07:47 06.04.2022
4432 Clear 29 996 12 10000 1.54 230 03:53 06.04.2022
4433 Clouds 29 998 16 6000 4.63 160 23:52 05.04.2022
4434 Clear 31 998 15 6000 3.09 150 22:31 05.04.2022
4435 Clear 31 998 14 6000 3.09 150 21:20 05.04.2022
4436 Clouds 34 1011 13 6000 0 0 20:25 05.04.2022
4437 Clouds 34 1012 12 6000 1.03 290 19:41 05.04.2022
4438 Clouds 37 996 7 6000 2.57 280 18:18 05.04.2022
4439 Clouds 39 996 5 6000 3.6 250 16:54 05.04.2022
4440 Clouds 39 997 4 6000 2.57 290 15:56 05.04.2022
4441 Clouds 39 997 4 6000 2.57 290 15:34 05.04.2022
4442 Clouds 38 997 5 6000 3.09 270 14:35 05.04.2022
4443 Clouds 37 998 7 6000 2.57 290 13:35 05.04.2022
4444 Clouds 34 999 9 6000 0 0 11:51 05.04.2022
4445 Clouds 33 1000 10 6000 0 0 11:32 05.04.2022
4446 Clouds 31 1000 13 6000 0 0 09:59 05.04.2022
4447 Clear 27 1014 19 10000 0 0 08:54 05.04.2022
4448 Clear 19 1014 30 10000 1.03 150 06:58 05.04.2022
4449 Clear 21 1000 39 10000 3.09 80 01:58 05.04.2022
4450 Clear 21 1002 40 10000 4.63 70 22:44 04.04.2022
4451 Clear 22 1002 35 10000 5.14 60 22:26 04.04.2022
4452 Clear 24 1002 29 10000 4.12 50 21:21 04.04.2022
4453 Clear 26 1016 19 10000 5.14 30 20:50 04.04.2022
4454 Clear 28 1015 15 10000 5.14 60 19:58 04.04.2022
4455 Clear 29 1014 14 10000 6.17 60 19:26 04.04.2022
4456 Clear 30 1014 11 10000 6.69 60 18:33 04.04.2022
4457 Clear 33 1000 10 10000 7.2 60 16:37 04.04.2022
4458 Clear 33 1000 9 10000 7.72 60 15:58 04.04.2022
4459 Clear 33 1000 9 10000 7.72 60 15:33 04.04.2022
4460 Clear 33 1000 9 10000 8.75 60 14:46 04.04.2022
4461 Clear 32 1002 9 10000 9.26 60 13:33 04.04.2022
4462 Clear 31 1002 9 10000 10.8 60 12:23 04.04.2022
4463 Clear 29 1003 12 10000 8.23 70 11:29 04.04.2022
4464 Clear 24 1003 17 10000 6.17 60 09:20 04.04.2022
4465 Clear 18 1002 45 10000 4.12 60 05:27 04.04.2022
4466 Clear 19 1002 45 10000 5.66 60 02:41 04.04.2022
4467 Clear 21 1002 32 10000 5.14 50 22:47 03.04.2022
4468 Clear 22 1002 30 10000 6.17 60 21:48 03.04.2022
4469 Clear 22 1002 28 10000 6.17 50 21:25 03.04.2022
4470 Clear 23 1002 28 10000 6.69 50 19:52 03.04.2022
4471 Clouds 26 1001 22 6000 7.72 50 18:34 03.04.2022
4472 Clouds 27 1000 17 6000 9.26 40 17:49 03.04.2022
4473 Clouds 28 1000 16 6000 8.75 50 17:27 03.04.2022
4474 Clouds 28 1000 16 6000 9.26 40 16:48 03.04.2022
4475 Clouds 31 1000 12 6000 7.72 40 15:42 03.04.2022
4476 Clouds 28 1001 21 6000 8.23 40 13:58 03.04.2022
4477 Clouds 28 1001 21 6000 8.23 50 12:58 03.04.2022
4478 Clouds 24 1017 33 6000 6.17 50 11:34 03.04.2022
4479 Clouds 23 1002 38 6000 5.14 40 09:52 03.04.2022
4480 Haze 21 1002 52 4000 5.14 60 08:57 03.04.2022
4481 Haze 19 1000 68 4000 2.06 70 05:45 03.04.2022
4482 Haze 19 1000 68 4000 2.06 70 05:45 03.04.2022
4483 Clouds 21 1000 72 6000 1.54 360 02:55 03.04.2022
4484 Clouds 23 1000 53 6000 4.12 340 23:35 02.04.2022
4485 Clouds 26 1000 36 6000 3.6 10 22:43 02.04.2022
4486 Clouds 26 1000 39 6000 3.09 10 21:55 02.04.2022
4487 Clouds 27 1000 32 6000 2.57 50 21:19 02.04.2022
4488 Clouds 28 1014 30 6000 3.09 50 20:36 02.04.2022
4489 Clouds 31 998 30 6000 3.09 10 18:47 02.04.2022
4490 Clouds 31 998 27 6000 3.09 340 18:19 02.04.2022
4491 Clouds 32 998 18 6000 4.12 340 16:50 02.04.2022
4492 Clouds 33 998 14 6000 4.12 340 15:44 02.04.2022
4493 Clear 33 998 15 10000 3.09 340 15:19 02.04.2022
4494 Clear 33 998 7 10000 3.09 310 14:31 02.04.2022
4495 Haze 33 999 11 4000 3.09 280 13:34 02.04.2022
4496 Haze 33 999 16 5000 2.06 330 12:21 02.04.2022
4497 Clouds 28 999 20 6000 1.03 340 10:31 02.04.2022
4498 Clouds 22 1013 33 6000 0 0 08:26 02.04.2022
4499 Clouds 21 998 42 6000 0 0 04:59 02.04.2022
4500 Clouds 21 998 46 6000 1.03 150 02:56 02.04.2022
4501 Clouds 24 999 46 6000 0 0 23:54 01.04.2022
4502 Clouds 24 1000 46 6000 2.06 10 22:51 01.04.2022
4503 Clouds 26 999 44 6000 1.54 100 21:24 01.04.2022
4504 Haze 26 999 41 4000 1.54 50 20:48 01.04.2022
4505 Haze 27 998 36 4000 1.54 360 19:46 01.04.2022
4506 Haze 27 998 36 4000 1.54 360 19:26 01.04.2022
4507 Haze 28 998 37 4000 2.57 340 18:38 01.04.2022
4508 Haze 31 1011 19 4000 2.57 330 17:43 01.04.2022
4509 Clouds 32 998 13 6000 1.54 310 16:24 01.04.2022
4510 Clouds 32 998 9 6000 2.57 300 14:56 01.04.2022
4511 Clouds 29 999 26 6000 3.09 290 13:56 01.04.2022
4512 Clouds 29 999 26 6000 1.54 290 13:31 01.04.2022
4513 Clouds 27 1000 32 6000 2.06 280 12:26 01.04.2022
4514 Clouds 22 1014 43 6000 0 0 10:54 01.04.2022
4515 Clouds 21 1015 46 6000 0 0 09:49 01.04.2022
4516 Clouds 16 1014 72 6000 1.54 30 07:50 01.04.2022
4517 Clear 16 1000 76 10000 2.06 30 05:45 01.04.2022
4518 Clear 16 1000 82 10000 1.54 50 04:43 01.04.2022
4519 Clear 16 1000 82 10000 2.57 50 03:20 01.04.2022
4520 Clear 16 1001 77 10000 3.09 50 01:52 01.04.2022
4521 Clear 19 1002 39 10000 3.6 50 22:37 31.03.2022
4522 Clear 21 1002 34 10000 3.6 50 21:44 31.03.2022
4523 Clear 22 1001 24 10000 5.14 50 20:51 31.03.2022
4524 Clear 22 1001 24 10000 5.14 50 20:28 31.03.2022
4525 Clear 22 1001 24 10000 4.63 50 19:44 31.03.2022
4526 Clear 26 1014 22 10000 6.17 30 18:35 31.03.2022
4527 Clear 28 1000 11 10000 5.14 40 17:25 31.03.2022
4528 Clear 29 1000 10 10000 5.14 50 15:58 31.03.2022
4529 Clear 29 1000 9 10000 4.12 60 15:29 31.03.2022
4530 Clear 29 1001 9 10000 3.09 70 14:49 31.03.2022
4531 Clear 29 1001 9 10000 3.09 70 14:19 31.03.2022
4532 Clear 27 1003 10 10000 4.12 50 11:31 31.03.2022
4533 Clear 27 1003 9 10000 4.63 50 10:41 31.03.2022
4534 Clouds 24 1003 13 6000 2.06 70 09:43 31.03.2022
4535 Clear 19 1002 19 10000 1.03 30 07:49 31.03.2022
4536 Clear 17 1001 23 10000 2.06 40 03:57 31.03.2022
4537 Clear 19 1002 37 10000 2.57 70 23:27 30.03.2022
4538 Clear 19 1003 45 10000 3.09 80 22:20 30.03.2022
4539 Clear 21 1002 45 6000 4.12 60 21:32 30.03.2022
4540 Clear 21 1002 43 6000 4.63 60 20:44 30.03.2022
4541 Clear 23 1001 35 6000 4.12 10 19:57 30.03.2022
4542 Clear 24 1001 31 6000 4.63 20 18:50 30.03.2022
4543 Clear 26 1000 22 6000 3.09 340 17:52 30.03.2022
4544 Clear 26 1000 22 6000 3.09 340 17:52 30.03.2022
4545 Clear 26 1000 22 6000 3.09 340 17:52 30.03.2022
4546 Clear 26 1000 19 6000 3.6 10 17:32 30.03.2022
4547 Clear 26 1000 20 6000 3.09 350 16:42 30.03.2022
4548 Clear 26 1000 20 6000 3.09 350 16:19 30.03.2022
4549 Clear 26 1001 20 6000 4.12 330 14:47 30.03.2022
4550 Clear 26 1001 20 6000 3.09 340 13:26 30.03.2022
4551 Clear 24 1002 29 6000 2.57 350 12:32 30.03.2022
4552 Clear 22 1003 32 6000 2.06 340 10:48 30.03.2022
4553 Clear 21 1002 37 6000 1.54 50 09:58 30.03.2022
4554 Mist 14 1002 82 3000 3.6 90 08:29 30.03.2022
4555 Mist 13 1002 87 2000 2.57 80 07:29 30.03.2022
4556 Mist 13 1001 100 2000 3.09 360 05:40 30.03.2022
4557 Mist 16 1001 93 2000 2.06 10 03:20 30.03.2022
4558 Clear 18 1002 77 10000 3.09 350 22:56 29.03.2022
4559 Clouds 19 1002 68 6000 1.54 20 21:58 29.03.2022
4560 Clouds 19 1002 68 6000 4.12 360 21:37 29.03.2022
4561 Clouds 21 1015 60 6000 3.6 340 20:30 29.03.2022
4562 Clear 22 1001 53 6000 3.09 350 19:34 29.03.2022
4563 Clear 23 1001 46 6000 3.09 350 18:54 29.03.2022
4564 Clear 23 1000 46 6000 4.12 350 17:57 29.03.2022
4565 Clear 24 1014 41 6000 3.6 330 17:20 29.03.2022
4566 Clear 24 1014 43 6000 4.63 320 16:54 29.03.2022
4567 Clear 24 1014 38 6000 3.09 360 15:44 29.03.2022
4568 Clear 24 1014 38 6000 3.09 30 14:43 29.03.2022
4569 Clear 24 1014 38 6000 3.09 30 14:43 29.03.2022
4570 Clear 22 1017 49 6000 4.12 20 13:36 29.03.2022
4571 Clear 21 1017 52 6000 3.6 350 12:39 29.03.2022
4572 Clouds 18 1018 63 10000 3.09 30 11:24 29.03.2022
4573 Clouds 17 1005 67 10000 3.6 360 10:23 29.03.2022
4574 Clear 16 1005 82 10000 4.63 50 08:57 29.03.2022
4575 Clear 13 1004 81 10000 2.57 50 06:53 29.03.2022
4576 Clear 13 1005 76 10000 4.63 50 02:55 29.03.2022
4577 Clear 14 1008 71 10000 5.66 60 23:40 28.03.2022
4578 Clear 14 1008 71 10000 5.14 60 22:58 28.03.2022
4579 Clear 14 1008 71 10000 5.14 60 22:58 28.03.2022
4580 Clear 16 1009 62 10000 6.17 50 22:35 28.03.2022
4581 Clear 16 1009 62 10000 5.66 60 21:48 28.03.2022
4582 Clear 16 1009 55 10000 8.23 40 20:41 28.03.2022
4583 Clear 18 1009 45 10000 7.2 50 19:59 28.03.2022
4584 Clear 18 1009 45 10000 7.2 50 19:40 28.03.2022
4585 Clear 20 1022 40 10000 8.23 20 18:51 28.03.2022
4586 Clear 21 1008 40 10000 5.66 40 17:41 28.03.2022
4587 Clear 22 1009 35 10000 7.72 50 16:58 28.03.2022
4588 Clear 22 1009 35 10000 7.72 30 15:35 28.03.2022
4589 Clear 22 1009 30 10000 8.23 30 14:24 28.03.2022
4590 Clear 21 1011 37 10000 6.17 40 13:26 28.03.2022
4591 Clouds 21 1012 37 10000 6.69 50 11:53 28.03.2022
4592 Clouds 18 1013 45 10000 7.72 60 10:35 28.03.2022
4593 Clouds 16 1013 58 10000 5.14 50 09:21 28.03.2022
4594 Clear 14 1013 76 10000 5.14 50 08:40 28.03.2022
4595 Clear 14 1013 76 10000 5.14 50 08:20 28.03.2022
4596 Clear 13 1012 81 10000 4.12 50 07:23 28.03.2022
4597 Clear 13 1012 76 10000 4.12 40 02:44 28.03.2022
4598 Clear 16 1014 62 10000 4.12 50 22:38 27.03.2022
4599 Clear 16 1013 58 10000 6.17 20 21:48 27.03.2022
4600 Clear 16 1013 58 10000 6.17 20 21:28 27.03.2022
4601 Clear 17 1013 59 10000 6.17 20 20:41 27.03.2022
4602 Clear 19 1026 42 10000 5.66 360 19:43 27.03.2022
4603 Clear 21 1012 32 10000 5.14 360 18:45 27.03.2022
4604 Clear 21 1012 35 10000 5.14 360 18:24 27.03.2022
4605 Clear 21 1011 35 10000 5.14 20 17:37 27.03.2022
4606 Clear 22 1011 30 10000 4.63 340 15:51 27.03.2022
4607 Clear 21 1026 35 10000 3.6 340 13:59 27.03.2022
4608 Clear 20 1026 37 10000 3.6 10 13:25 27.03.2022
4609 Clouds 18 1027 48 6000 2.57 340 11:41 27.03.2022
4610 Clouds 16 1014 62 6000 3.6 360 09:49 27.03.2022
4611 Clouds 16 1014 62 6000 3.6 360 09:49 27.03.2022
4612 Clouds 13 1014 76 6000 2.06 10 07:47 27.03.2022
4613 Clear 12 1013 81 6000 1.54 360 04:49 27.03.2022
4614 Clear 14 1013 76 6000 2.57 360 00:26 27.03.2022
4615 Clear 16 1027 67 10000 2.57 10 22:52 26.03.2022
4616 Clear 16 1013 67 10000 2.57 10 22:25 26.03.2022
4617 Clear 16 1013 63 10000 4.12 360 21:31 26.03.2022
4618 Clear 18 1012 48 6000 5.14 10 19:39 26.03.2022
4619 Clear 20 1025 26 10000 3.09 360 18:44 26.03.2022
4620 Clear 21 1011 22 10000 3.6 10 17:44 26.03.2022
4621 Clear 21 1011 19 10000 3.6 350 16:46 26.03.2022
4622 Clear 21 1011 22 10000 1.54 290 15:43 26.03.2022
4623 Clear 22 1011 17 10000 4.12 340 14:18 26.03.2022
4624 Clear 21 1011 18 10000 4.12 340 13:47 26.03.2022
4625 Clear 21 1012 24 10000 3.09 10 12:31 26.03.2022
4626 Clear 19 1013 29 10000 4.12 330 10:56 26.03.2022
4627 Clear 17 1013 45 10000 3.09 350 09:21 26.03.2022
4628 Clear 14 1012 62 6000 0 0 07:34 26.03.2022
4629 Clear 11 1012 71 6000 1.03 160 05:49 26.03.2022
4630 Clear 12 1011 62 10000 0 0 02:34 26.03.2022
4631 Clear 14 1011 47 10000 0 0 22:50 25.03.2022
4632 Clear 14 1010 47 10000 2.06 340 20:58 25.03.2022
4633 Clear 14 1010 47 10000 2.06 340 20:26 25.03.2022
4634 Clear 16 1010 44 10000 4.12 330 19:20 25.03.2022
4635 Clear 16 1009 38 10000 5.14 310 18:36 25.03.2022
4636 Clear 16 1009 38 10000 5.14 320 17:34 25.03.2022
4637 Clouds 18 1007 36 10000 6.69 310 16:29 25.03.2022
4638 Clouds 18 1007 39 10000 6.69 310 15:37 25.03.2022
4639 Clouds 18 1007 42 10000 5.14 290 13:32 25.03.2022
4640 Clouds 17 1007 39 10000 5.66 280 11:38 25.03.2022
4641 Clouds 16 1007 44 10000 5.66 280 09:43 25.03.2022
4642 Clear 16 1007 47 10000 4.63 260 08:56 25.03.2022
4643 Clear 13 1007 54 10000 4.63 230 07:46 25.03.2022
4644 Clear 13 1006 54 10000 4.63 240 07:19 25.03.2022
4645 Clear 12 1005 62 10000 5.14 250 03:45 25.03.2022
4646 Clear 12 1006 62 10000 5.66 270 23:49 24.03.2022
4647 Clear 12 1005 62 10000 5.14 270 22:24 24.03.2022
4648 Clear 13 1005 58 10000 4.12 260 21:24 24.03.2022
4649 Clear 13 1005 54 10000 3.6 290 19:50 24.03.2022
4650 Clear 14 1004 54 10000 2.57 290 18:45 24.03.2022
4651 Clouds 14 1004 58 10000 6.17 310 17:36 24.03.2022
4652 Clouds 16 1003 47 10000 4.12 310 16:39 24.03.2022
4653 Clouds 16 1003 58 10000 5.14 320 14:53 24.03.2022
4654 Clouds 16 1003 47 10000 3.6 220 14:32 24.03.2022
4655 Clouds 16 1003 51 10000 3.09 280 13:36 24.03.2022
4656 Clouds 16 1004 44 6000 5.66 240 12:35 24.03.2022
4657 Clouds 16 1004 47 10000 5.14 260 11:31 24.03.2022
4658 Clouds 12 1019 71 6000 4.12 220 09:34 24.03.2022
4659 Clouds 12 1005 57 10000 5.14 230 08:39 24.03.2022
4660 Clouds 11 1004 61 10000 6.69 230 05:45 24.03.2022
4661 Clouds 12 1002 46 10000 5.66 260 01:20 24.03.2022
4662 Clouds 14 1003 50 10000 1.54 200 22:26 23.03.2022
4663 Clouds 14 1003 50 10000 2.06 290 21:25 23.03.2022
4664 Clouds 16 1003 44 10000 1.54 310 20:46 23.03.2022
4665 Clouds 16 1003 44 10000 2.06 320 19:33 23.03.2022
4666 Clouds 16 1002 31 10000 7.2 290 18:22 23.03.2022
4667 Clouds 17 1002 29 10000 5.14 250 17:31 23.03.2022
4668 Clouds 17 1001 27 10000 6.69 260 16:18 23.03.2022
4669 Clouds 17 1002 29 10000 7.72 250 14:49 23.03.2022
4670 Clouds 17 1002 29 10000 8.75 210 13:34 23.03.2022
4671 Clouds 16 1003 33 10000 8.75 260 11:38 23.03.2022
4672 Clear 13 1004 43 10000 8.75 250 08:51 23.03.2022
4673 Clear 11 1004 57 10000 3.6 230 06:26 23.03.2022
4674 Clear 11 1003 61 10000 1.54 220 03:52 23.03.2022
4675 Clouds 12 1003 62 10000 1.54 120 00:29 23.03.2022
4676 Clouds 12 1003 62 10000 1.54 120 00:29 23.03.2022
4677 Clouds 13 1004 58 6000 1.54 20 22:25 22.03.2022
4678 Clouds 13 1004 58 6000 2.57 350 21:29 22.03.2022
4679 Clouds 13 1003 58 6000 3.09 340 20:34 22.03.2022
4680 Clouds 14 1003 50 10000 3.09 340 19:31 22.03.2022
4681 Clouds 14 1003 47 10000 4.12 340 18:54 22.03.2022
4682 Clouds 16 1002 44 10000 2.06 340 17:46 22.03.2022
4683 Clouds 16 1002 38 10000 3.09 330 17:23 22.03.2022
4684 Clouds 16 1001 36 6000 4.63 310 15:52 22.03.2022
4685 Clouds 16 1001 33 6000 2.06 270 15:21 22.03.2022
4686 Clouds 16 1001 33 6000 2.06 320 14:46 22.03.2022
4687 Clouds 16 1001 36 6000 3.6 320 14:24 22.03.2022
4688 Haze 16 1002 47 4000 2.06 310 12:46 22.03.2022
4689 Haze 14 1003 50 4000 1.54 320 11:36 22.03.2022
4690 Haze 14 1003 50 4000 2.57 350 10:23 22.03.2022
4691 Haze 11 1003 71 3000 1.54 30 07:48 22.03.2022
4692 Haze 9 1002 75 3000 2.06 10 05:19 22.03.2022
4693 Clouds 11 1002 66 6000 1.54 350 03:38 22.03.2022
4694 Clouds 11 1003 66 10000 1.54 360 23:49 21.03.2022
4695 Clouds 12 1003 57 10000 4.63 10 21:58 21.03.2022
4696 Clouds 12 1003 57 10000 3.09 10 20:45 21.03.2022
4697 Clouds 12 1003 57 10000 3.6 20 20:26 21.03.2022
4698 Clouds 12 1003 57 10000 5.14 10 19:57 21.03.2022
4699 Clouds 12 1003 57 10000 5.14 10 19:25 21.03.2022
4700 Clouds 14 1002 50 10000 6.17 10 17:53 21.03.2022
4701 Clouds 14 1001 50 10000 5.14 20 17:18 21.03.2022
4702 Clouds 16 1001 47 10000 5.14 40 16:39 21.03.2022
4703 Clouds 16 1001 47 10000 6.17 20 15:47 21.03.2022
4704 Clouds 16 1001 47 10000 6.17 30 14:56 21.03.2022
4705 Clouds 14 1015 51 10000 6.17 10 13:46 21.03.2022
4706 Clouds 14 1015 54 10000 6.17 20 12:34 21.03.2022
4707 Clouds 13 1016 58 10000 5.66 40 11:44 21.03.2022
4708 Clouds 13 1016 58 10000 5.66 30 10:34 21.03.2022
4709 Clouds 12 1002 57 10000 5.14 40 08:30 21.03.2022
4710 Clouds 11 1002 61 10000 4.12 40 06:38 21.03.2022
4711 Clouds 11 999 66 10000 5.14 50 02:48 21.03.2022
4712 Clouds 11 1002 61 10000 5.66 50 23:41 20.03.2022
4713 Clouds 11 1002 61 10000 7.2 60 22:44 20.03.2022
4714 Clouds 11 1004 61 10000 6.17 40 21:51 20.03.2022
4715 Clouds 11 1004 61 10000 6.17 40 21:23 20.03.2022
4716 Clouds 11 1003 66 10000 7.72 60 20:43 20.03.2022
4717 Clouds 12 1004 54 10000 6.17 60 19:59 20.03.2022
4718 Clouds 12 1005 54 10000 8.23 50 19:28 20.03.2022
4719 Clouds 13 1004 50 10000 7.72 40 18:19 20.03.2022
4720 Clouds 14 1003 50 10000 8.75 30 17:33 20.03.2022
4721 Clouds 14 1003 50 10000 8.75 30 17:33 20.03.2022
4722 Clouds 14 1003 50 10000 9.26 30 16:57 20.03.2022
4723 Clear 16 1003 44 10000 7.72 40 15:34 20.03.2022
4724 Clear 18 1003 39 10000 7.72 20 14:34 20.03.2022
4725 Clear 17 1003 33 10000 7.2 50 12:30 20.03.2022
4726 Clear 16 1004 35 10000 7.2 60 11:23 20.03.2022
4727 Clear 13 1005 47 10000 6.17 40 09:26 20.03.2022
4728 Clear 11 1006 50 10000 7.72 20 07:28 20.03.2022
4729 Clear 11 1006 57 10000 6.69 20 05:40 20.03.2022
4730 Clear 11 1006 66 10000 7.72 20 01:56 20.03.2022
4731 Clear 11 1006 66 10000 7.2 30 00:45 20.03.2022
4732 Clear 11 1006 66 10000 6.69 50 23:19 19.03.2022
4733 Clear 12 1007 62 10000 6.69 40 21:28 19.03.2022
4734 Clear 13 1007 58 10000 8.23 30 20:58 19.03.2022
4735 Clear 14 1006 62 10000 8.23 30 18:58 19.03.2022
4736 Clear 16 1006 58 10000 7.2 40 18:24 19.03.2022
4737 Clouds 16 1005 55 10000 7.72 30 17:35 19.03.2022
4738 Clouds 18 1004 42 10000 5.14 10 15:46 19.03.2022
4739 Clouds 19 1004 39 10000 4.63 10 14:57 19.03.2022
4740 Clouds 18 1019 42 10000 3.6 360 13:19 19.03.2022
4741 Clouds 18 1020 45 10000 5.14 360 12:40 19.03.2022
4742 Clouds 18 1006 45 10000 5.14 10 11:54 19.03.2022
4743 Clouds 18 1006 45 10000 5.14 10 11:54 19.03.2022
4744 Clouds 17 1007 51 6000 5.14 360 10:53 19.03.2022
4745 Haze 12 1007 76 3000 2.57 330 07:33 19.03.2022
4746 Haze 12 1006 81 4000 1.54 10 03:49 19.03.2022
4747 Clear 12 1006 76 6000 0.51 360 02:29 19.03.2022
4748 Haze 13 1008 76 4000 1.54 340 23:46 18.03.2022
4749 Clear 14 1008 67 6000 3.6 350 22:28 18.03.2022
4750 Clear 14 1008 67 6000 4.12 350 21:46 18.03.2022
4751 Clouds 17 1021 59 10000 5.14 360 19:54 18.03.2022
4752 Clouds 17 1007 59 10000 5.14 360 19:22 18.03.2022
4753 Clouds 18 1007 55 10000 5.14 360 18:18 18.03.2022
4754 Clouds 19 1006 48 10000 5.14 350 16:51 18.03.2022
4755 Clouds 19 1006 42 10000 4.12 340 15:43 18.03.2022
4756 Clouds 21 1006 42 10000 4.12 340 14:24 18.03.2022
4757 Clear 18 1007 48 10000 4.63 10 12:39 18.03.2022
4758 Clear 18 1008 42 10000 4.12 20 11:21 18.03.2022
4759 Clear 16 1009 51 10000 2.06 40 09:34 18.03.2022
4760 Clear 16 1009 54 10000 1.54 40 08:42 18.03.2022
4761 Clear 12 1008 62 10000 1.54 110 06:40 18.03.2022
4762 Clear 11 1008 66 6000 1.03 80 03:30 18.03.2022
4763 Clear 12 1008 62 6000 2.06 70 00:53 18.03.2022
4764 Clear 13 1009 58 6000 3.09 30 23:52 17.03.2022
4765 Clear 14 1009 54 6000 3.09 40 22:26 17.03.2022
4766 Clear 14 1009 54 6000 3.09 10 21:51 17.03.2022
4767 Clear 16 1009 51 6000 3.09 360 21:27 17.03.2022
4768 Clear 16 1023 44 10000 2.06 20 20:52 17.03.2022
4769 Clear 16 1009 44 10000 1.54 30 19:55 17.03.2022
4770 Clear 16 1009 44 10000 2.57 30 19:33 17.03.2022
4771 Clear 16 1008 44 10000 3.09 40 18:51 17.03.2022
4772 Clear 17 1008 39 10000 3.6 20 17:27 17.03.2022
4773 Clear 18 1008 31 10000 3.6 10 15:57 17.03.2022
4774 Clear 18 1008 31 10000 3.6 10 15:36 17.03.2022
4775 Clear 18 1008 31 10000 3.09 340 14:55 17.03.2022
4776 Clear 18 1009 29 10000 1.54 350 13:22 17.03.2022
4777 Clear 17 1010 27 10000 3.6 350 12:38 17.03.2022
4778 Clear 16 1010 31 10000 2.57 350 11:31 17.03.2022
4779 Clear 16 1011 33 10000 3.09 60 10:38 17.03.2022
4780 Clear 14 1011 38 10000 3.09 70 08:42 17.03.2022
4781 Clear 12 1011 43 10000 2.57 70 07:57 17.03.2022
4782 Clear 9 1010 53 10000 0 0 05:49 17.03.2022
4783 Clear 9 1010 57 10000 1.03 80 03:46 17.03.2022
4784 Clear 11 1011 50 10000 1.54 50 00:24 17.03.2022
4785 Clear 12 1012 46 10000 2.57 50 22:52 16.03.2022
4786 Clear 12 1012 46 10000 4.12 70 22:33 16.03.2022
4787 Clear 12 1012 46 10000 3.09 70 21:55 16.03.2022
4788 Clear 13 1012 43 10000 3.6 70 20:40 16.03.2022
4789 Clear 14 1012 35 10000 4.63 20 19:23 16.03.2022
4790 Clouds 16 1012 35 10000 4.12 30 18:42 16.03.2022
4791 Clouds 16 1011 31 10000 3.09 10 17:45 16.03.2022
4792 Clouds 16 1011 31 10000 3.09 10 17:27 16.03.2022
4793 Clouds 16 1010 31 10000 3.09 360 15:56 16.03.2022
4794 Clouds 16 1010 29 10000 3.6 360 14:38 16.03.2022
4795 Clouds 16 1011 33 10000 5.14 30 13:35 16.03.2022
4796 Clouds 16 1012 36 10000 5.14 30 12:18 16.03.2022
4797 Clouds 16 1012 47 10000 5.14 30 11:23 16.03.2022
4798 Clouds 14 1013 38 10000 4.12 10 10:30 16.03.2022
4799 Clouds 14 1013 38 10000 3.6 360 09:56 16.03.2022
4800 Haze 11 1013 61 4000 1.54 360 07:23 16.03.2022
4801 Clear 11 1012 61 6000 1.54 320 02:44 16.03.2022
4802 Clouds 11 1014 50 10000 1.54 10 22:54 15.03.2022
4803 Clouds 11 1014 50 10000 1.54 10 22:35 15.03.2022
4804 Clouds 11 1014 50 10000 3.09 10 20:55 15.03.2022
4805 Clouds 12 1013 46 10000 5.14 10 19:37 15.03.2022
4806 Clouds 13 1013 43 10000 6.17 10 17:42 15.03.2022
4807 Clouds 14 1012 35 10000 6.69 350 16:38 15.03.2022
4808 Clouds 14 1012 41 10000 5.66 340 15:38 15.03.2022
4809 Clouds 14 1012 38 10000 6.17 350 14:53 15.03.2022
4810 Clouds 16 1011 38 10000 5.66 320 13:56 15.03.2022
4811 Clouds 14 1012 44 10000 7.2 10 13:21 15.03.2022
4812 Clouds 13 1027 47 10000 6.17 360 11:33 15.03.2022
4813 Clouds 14 1013 38 10000 6.17 360 10:27 15.03.2022
4814 Clouds 13 1014 47 10000 4.12 10 09:20 15.03.2022
4815 Clouds 11 1014 61 10000 2.06 340 08:24 15.03.2022
4816 Clouds 9 1013 70 10000 3.6 330 07:36 15.03.2022
4817 Clouds 8 1012 75 10000 3.6 340 05:56 15.03.2022
4818 Clouds 9 1012 70 10000 3.6 300 00:31 15.03.2022
4819 Clouds 11 1012 61 10000 3.6 300 23:29 14.03.2022
4820 Clouds 11 1012 61 10000 4.63 310 22:49 14.03.2022
4821 Clear 11 1012 53 10000 4.63 320 21:53 14.03.2022
4822 Clouds 11 1012 53 10000 4.63 320 20:55 14.03.2022
4823 Clouds 12 1012 46 10000 3.09 320 20:24 14.03.2022
4824 Clouds 12 1011 40 10000 5.14 350 19:24 14.03.2022
4825 Clouds 13 1011 37 10000 6.17 330 17:57 14.03.2022
4826 Clouds 13 1011 37 10000 6.17 330 17:39 14.03.2022
4827 Clouds 13 1010 35 10000 6.17 350 16:33 14.03.2022
4828 Clouds 13 1024 35 10000 7.72 350 14:48 14.03.2022
4829 Clouds 13 1024 35 10000 6.69 340 13:29 14.03.2022
4830 Clouds 12 1011 34 10000 5.14 10 11:26 14.03.2022
4831 Clouds 13 1012 32 10000 5.14 10 09:57 14.03.2022
4832 Clouds 12 1012 37 10000 4.63 340 09:34 14.03.2022
4833 Clouds 11 1012 43 6000 4.63 360 08:57 14.03.2022
4834 Clouds 11 1012 43 6000 4.63 360 08:28 14.03.2022
4835 Clouds 9 1011 53 6000 3.6 350 06:47 14.03.2022
4836 Clouds 8 1010 56 6000 2.57 320 02:59 14.03.2022
4837 Clouds 9 1024 49 6000 2.06 350 01:39 14.03.2022
4838 Clear 8 1010 56 10000 2.06 350 23:41 13.03.2022
4839 Clouds 9 1011 53 10000 4.12 20 21:49 13.03.2022
4840 Clouds 9 1010 53 10000 6.17 10 21:21 13.03.2022
4841 Clouds 11 1010 53 10000 5.14 10 20:46 13.03.2022
4842 Clouds 11 1010 53 10000 5.14 10 20:22 13.03.2022
4843 Clouds 11 1010 53 10000 5.14 20 19:42 13.03.2022
4844 Clouds 11 1010 53 10000 5.14 20 19:22 13.03.2022
4845 Clouds 11 1010 53 10000 5.14 20 19:22 13.03.2022
4846 Clouds 11 1009 53 10000 6.69 10 18:45 13.03.2022
4847 Clouds 11 1009 53 10000 6.69 10 18:25 13.03.2022
4848 Clouds 12 1008 54 10000 6.69 360 17:36 13.03.2022
4849 Clouds 12 1008 57 10000 7.2 340 16:45 13.03.2022
4850 Clouds 12 1008 57 10000 6.69 360 16:21 13.03.2022
4851 Clouds 13 1007 58 10000 6.69 340 15:39 13.03.2022
4852 Clouds 14 1007 50 10000 4.63 340 14:37 13.03.2022
4853 Clouds 14 1007 54 10000 6.17 350 13:28 13.03.2022
4854 Clouds 14 1007 54 10000 6.69 330 12:22 13.03.2022
4855 Clouds 16 1008 41 10000 5.14 350 11:39 13.03.2022
4856 Clouds 16 1008 38 10000 6.17 10 10:50 13.03.2022
4857 Clear 14 1008 41 10000 3.09 340 10:28 13.03.2022
4858 Clear 14 1008 38 10000 3.09 330 09:42 13.03.2022
4859 Clear 12 1008 40 10000 2.57 340 08:50 13.03.2022
4860 Clear 12 1008 43 10000 1.54 20 08:29 13.03.2022
4861 Clouds 9 1007 53 10000 1.54 10 06:41 13.03.2022
4862 Clouds 9 1005 49 10000 0 0 04:57 13.03.2022
4863 Clouds 9 1006 53 10000 2.57 100 01:47 13.03.2022
4864 Clouds 11 1007 46 10000 2.06 100 23:26 12.03.2022
4865 Clouds 11 1008 43 10000 2.57 70 21:32 12.03.2022
4866 Clouds 12 1008 40 10000 3.6 40 20:19 12.03.2022
4867 Clouds 12 1008 37 10000 5.14 30 19:44 12.03.2022
4868 Clouds 13 1007 32 10000 5.66 30 18:40 12.03.2022
4869 Clouds 14 1007 26 10000 7.2 20 17:49 12.03.2022
4870 Clouds 14 1006 28 10000 6.69 20 16:28 12.03.2022
4871 Clouds 16 1006 28 10000 6.17 340 15:48 12.03.2022
4872 Clouds 16 1006 28 10000 6.17 340 15:19 12.03.2022
4873 Clouds 16 1007 30 10000 6.17 360 13:53 12.03.2022
4874 Clouds 14 1008 38 10000 7.2 330 12:27 12.03.2022
4875 Clouds 14 1008 38 10000 6.17 330 11:52 12.03.2022
4876 Clouds 14 1008 38 10000 6.17 330 11:32 12.03.2022
4877 Clouds 13 1008 43 10000 6.17 360 10:24 12.03.2022
4878 Clouds 13 1008 47 10000 3.09 330 09:43 12.03.2022
4879 Clouds 11 1009 61 10000 2.06 350 07:52 12.03.2022
4880 Clouds 11 1008 66 10000 1.54 330 06:30 12.03.2022
4881 Clouds 11 1007 57 10000 1.54 330 00:31 12.03.2022
4882 Clouds 11 1007 53 10000 2.06 10 23:41 11.03.2022
4883 Clouds 11 1008 57 10000 2.06 360 22:32 11.03.2022
4884 Clouds 11 1008 57 10000 3.09 340 21:24 11.03.2022
4885 Clouds 12 1008 54 10000 3.09 360 20:46 11.03.2022
4886 Clouds 12 1008 50 10000 3.09 350 20:22 11.03.2022
4887 Clouds 12 1007 50 10000 3.09 350 19:32 11.03.2022
4888 Clouds 13 1006 50 10000 4.63 350 17:53 11.03.2022
4889 Clouds 13 1006 43 10000 5.14 330 17:24 11.03.2022
4890 Clouds 14 1006 38 10000 5.14 320 15:58 11.03.2022
4891 Clouds 16 1005 35 10000 7.2 300 15:29 11.03.2022
4892 Clouds 16 1005 35 10000 6.17 300 13:42 11.03.2022
4893 Clouds 16 1005 35 10000 4.63 270 12:37 11.03.2022
4894 Clouds 16 1005 38 10000 5.66 290 11:57 11.03.2022
4895 Clouds 16 1005 41 10000 5.66 300 10:30 11.03.2022
4896 Clouds 14 1005 47 10000 7.2 270 09:33 11.03.2022
4897 Clear 12 1005 57 10000 5.14 270 08:28 11.03.2022
4898 Clear 12 1005 62 10000 5.66 290 07:48 11.03.2022
4899 Clear 11 1004 66 10000 5.14 280 06:26 11.03.2022
4900 Clouds 11 1002 66 10000 6.17 250 04:28 11.03.2022
4901 Clear 12 1002 57 10000 8.75 250 01:20 11.03.2022
4902 Clear 14 1001 44 10000 9.77 250 22:32 10.03.2022
4903 Clear 14 1001 41 10000 8.75 260 21:53 10.03.2022
4904 Clear 14 1001 44 6000 5.66 250 21:24 10.03.2022
4905 Clear 14 1001 44 6000 5.66 250 21:24 10.03.2022
4906 Clear 16 1001 44 6000 6.17 260 20:34 10.03.2022
4907 Clouds 16 1000 44 6000 8.23 270 19:20 10.03.2022
4908 Clouds 16 999 51 6000 8.23 290 17:50 10.03.2022
4909 Clouds 17 998 33 6000 8.75 270 16:52 10.03.2022
4910 Sand 18 997 25 4000 11.83 270 15:28 10.03.2022
4911 Sand 19 997 27 4000 11.32 250 13:42 10.03.2022
4912 Clouds 21 997 26 10000 11.83 250 12:38 10.03.2022
4913 Clouds 19 997 32 10000 10.8 240 11:28 10.03.2022
4914 Clouds 18 999 42 10000 8.23 200 09:29 10.03.2022
4915 Clear 16 999 63 10000 4.12 210 07:48 10.03.2022
4916 Clear 15 1013 72 10000 2.57 230 05:30 10.03.2022
4917 Clear 15 1013 67 10000 1.03 110 01:59 10.03.2022
4918 Clear 15 1013 67 10000 1.03 10 23:32 09.03.2022
4919 Clear 16 1013 63 10000 2.06 10 22:22 09.03.2022
4920 Clouds 16 1013 63 10000 1.54 60 21:44 09.03.2022
4921 Clouds 16 1013 63 10000 4.63 360 20:36 09.03.2022
4922 Clouds 18 1011 59 10000 4.12 350 18:41 09.03.2022
4923 Clouds 19 1011 55 10000 5.14 350 17:28 09.03.2022
4924 Clouds 19 1011 55 10000 5.66 320 16:39 09.03.2022
4925 Clouds 20 1010 52 10000 5.14 330 15:32 09.03.2022
4926 Clouds 20 1009 52 10000 5.14 310 14:19 09.03.2022
4927 Clear 20 1009 56 6000 4.63 310 12:59 09.03.2022
4928 Clear 20 1009 56 6000 4.63 300 12:20 09.03.2022
4929 Clear 20 1009 56 6000 2.57 320 11:45 09.03.2022
4930 Clear 19 1009 63 6000 3.6 310 10:50 09.03.2022
4931 Clear 17 1008 77 6000 2.57 340 09:22 09.03.2022
4932 Mist 16 1008 82 4000 4.12 340 08:42 09.03.2022
4933 Clear 16 991 77 10000 4.63 80 04:49 09.03.2022
4934 Clear 16 993 77 10000 5.14 60 00:55 09.03.2022
4935 Clear 16 993 72 10000 4.63 60 23:37 08.03.2022
4936 Clear 17 993 63 10000 5.14 60 22:45 08.03.2022
4937 Clear 17 993 63 10000 4.12 80 21:43 08.03.2022
4938 Clear 17 993 63 10000 3.09 70 21:18 08.03.2022
4939 Clear 18 994 63 10000 6.17 20 19:59 08.03.2022
4940 Clear 21 993 45 10000 5.14 10 18:53 08.03.2022
4941 Clear 23 992 25 10000 4.12 360 17:51 08.03.2022
4942 Clear 24 990 19 10000 4.12 70 16:35 08.03.2022
4943 Clear 24 993 22 10000 4.12 80 14:23 08.03.2022
4944 Clear 22 994 24 10000 4.12 70 13:22 08.03.2022
4945 Clouds 21 995 26 10000 5.66 60 12:19 08.03.2022
4946 Clouds 21 995 28 10000 4.12 80 11:41 08.03.2022
4947 Clouds 21 997 34 10000 4.12 60 10:27 08.03.2022
4948 Clouds 17 998 55 10000 5.14 60 08:28 08.03.2022
4949 Clear 16 999 76 10000 2.57 70 05:48 08.03.2022
4950 Clear 16 999 67 10000 2.57 60 01:48 08.03.2022
4951 Clear 17 1000 55 10000 3.6 50 22:24 07.03.2022
4952 Clear 17 1000 59 10000 3.09 60 21:35 07.03.2022
4953 Clouds 17 1000 63 10000 5.14 60 20:54 07.03.2022
4954 Clouds 18 1000 55 10000 4.12 50 20:26 07.03.2022
4955 Clouds 18 1000 59 10000 5.14 40 19:41 07.03.2022
4956 Clouds 19 999 55 10000 5.66 40 18:47 07.03.2022
4957 Clouds 21 999 49 10000 5.14 20 18:25 07.03.2022
4958 Clouds 21 999 43 10000 4.12 360 16:56 07.03.2022
4959 Clouds 21 999 43 10000 4.12 360 16:34 07.03.2022
4960 Clouds 22 999 40 10000 4.12 40 14:40 07.03.2022
4961 Clouds 21 999 46 10000 5.14 20 12:33 07.03.2022
4962 Clouds 21 1000 52 10000 5.14 30 10:48 07.03.2022
4963 Clouds 19 1000 55 10000 5.66 30 10:25 07.03.2022
4964 Clouds 16 1000 82 6000 3.6 40 07:24 07.03.2022
4965 Clouds 16 998 82 10000 3.6 340 00:37 07.03.2022
4966 Clouds 16 998 82 10000 3.6 340 00:19 07.03.2022
4967 Clouds 16 998 87 10000 4.12 340 23:18 06.03.2022
4968 Clouds 17 998 82 10000 3.6 310 22:25 06.03.2022
4969 Clear 17 997 72 10000 4.63 300 20:56 06.03.2022
4970 Clear 18 996 59 10000 4.63 300 20:28 06.03.2022
4971 Clear 19 996 55 10000 5.66 290 19:35 06.03.2022
4972 Clouds 21 995 37 6000 7.2 280 18:40 06.03.2022
4973 Sand 26 1006 18 2000 8.75 260 17:36 06.03.2022
4974 Sand 26 1006 18 2000 8.75 260 17:18 06.03.2022
4975 Sand 27 992 12 2000 7.72 250 16:25 06.03.2022
4976 Sand 28 991 8 2000 10.29 250 15:23 06.03.2022
4977 Sand 28 991 8 1500 10.29 260 14:41 06.03.2022
4978 Sand 29 990 11 2000 11.83 250 13:48 06.03.2022
4979 Sand 29 990 10 2000 11.32 230 12:39 06.03.2022
4980 Sand 28 991 10 2000 10.8 220 11:39 06.03.2022
4981 Sand 28 991 9 3000 12.35 220 10:33 06.03.2022
4982 Sand 27 990 8 3000 10.29 210 09:18 06.03.2022
4983 Sand 27 989 8 3000 9.77 190 08:27 06.03.2022
4984 Clouds 21 989 22 6000 6.69 230 07:23 06.03.2022
4985 Clear 17 993 41 10000 1.54 100 01:54 06.03.2022
4986 Clear 17 995 55 10000 1.54 50 00:34 06.03.2022
4987 Clear 17 995 55 10000 3.09 60 23:57 05.03.2022
4988 Clear 17 996 55 10000 3.6 70 23:18 05.03.2022
4989 Clear 17 997 55 10000 3.09 70 22:31 05.03.2022
4990 Clear 18 997 51 10000 4.12 70 21:25 05.03.2022
4991 Clear 18 998 51 10000 3.6 60 20:27 05.03.2022
4992 Clear 18 998 55 10000 5.66 60 19:18 05.03.2022
4993 Clear 21 997 32 10000 3.09 50 18:37 05.03.2022
4994 Clear 22 997 28 10000 3.6 50 17:31 05.03.2022
4995 Clear 23 997 26 10000 4.12 80 16:18 05.03.2022
4996 Clear 23 998 26 10000 4.12 70 14:54 05.03.2022
4997 Clear 23 998 26 10000 4.12 70 14:35 05.03.2022
4998 Clear 23 998 26 10000 4.12 70 14:35 05.03.2022
4999 Clear 22 999 28 10000 4.12 50 13:39 05.03.2022
5000 Clear 21 1000 30 10000 6.17 70 12:35 05.03.2022
5001 Clear 21 1001 34 10000 4.63 40 11:20 05.03.2022
5002 Clear 19 1002 37 10000 6.69 70 10:52 05.03.2022
5003 Clear 17 1002 45 10000 7.2 70 09:30 05.03.2022
5004 Clear 17 1003 45 10000 6.17 70 08:24 05.03.2022
5005 Clear 13 1002 66 10000 2.57 90 06:33 05.03.2022
5006 Clear 12 1002 76 10000 2.06 60 05:22 05.03.2022
5007 Clouds 14 1002 62 6000 2.06 50 00:32 05.03.2022
5008 Clouds 16 1003 58 6000 5.14 90 22:45 04.03.2022
5009 Clouds 16 1002 58 6000 8.23 120 22:25 04.03.2022
5010 Clear 16 1002 58 10000 6.69 110 21:43 04.03.2022
5011 Clear 16 1005 47 10000 3.09 50 20:39 04.03.2022
5012 Clear 17 1018 45 10000 4.12 40 19:37 04.03.2022
5013 Clear 17 1004 45 10000 4.12 40 18:56 04.03.2022
5014 Clear 17 1004 48 10000 3.09 360 18:33 04.03.2022
5015 Clear 18 1003 42 10000 2.57 350 17:29 04.03.2022
5016 Clouds 18 1003 42 10000 2.57 330 15:54 04.03.2022
5017 Clouds 18 1003 39 10000 3.6 330 15:24 04.03.2022
5018 Clouds 19 1003 37 10000 1.54 350 13:36 04.03.2022
5019 Clouds 18 1004 36 10000 2.06 50 12:38 04.03.2022
5020 Clouds 17 1005 39 10000 2.57 10 11:37 04.03.2022
5021 Clouds 17 1006 41 10000 0 0 10:25 04.03.2022
5022 Clouds 16 1006 47 10000 0 0 09:27 04.03.2022
5023 Clear 16 1006 54 10000 0 0 07:48 04.03.2022
5024 Clear 12 1005 66 10000 0 0 06:21 04.03.2022
5025 Clear 13 1005 62 10000 1.54 300 01:46 04.03.2022
5026 Clear 14 1005 58 10000 2.06 300 23:35 03.03.2022
5027 Clear 14 1005 58 10000 2.57 320 22:18 03.03.2022
5028 Clear 14 1006 58 10000 3.09 310 21:36 03.03.2022
5029 Clear 16 1006 51 10000 2.06 310 20:48 03.03.2022
5030 Clear 16 1005 44 10000 4.63 310 19:29 03.03.2022
5031 Clear 16 1004 44 10000 4.63 310 18:26 03.03.2022
5032 Clouds 17 1004 41 10000 5.66 300 17:39 03.03.2022
5033 Clouds 17 1004 41 10000 5.66 300 17:18 03.03.2022
5034 Clouds 19 1002 34 10000 7.2 280 15:46 03.03.2022
5035 Clouds 19 1002 34 10000 8.23 280 14:45 03.03.2022
5036 Clouds 19 1002 37 10000 6.17 300 14:27 03.03.2022
5037 Clouds 18 1002 36 10000 7.2 280 12:43 03.03.2022
5038 Clouds 17 1002 41 10000 6.17 260 11:31 03.03.2022
5039 Clouds 17 1002 45 10000 7.2 260 10:38 03.03.2022
5040 Sand 16 1003 54 4000 7.72 270 08:44 03.03.2022
5041 Sand 13 1001 54 4000 8.75 250 06:58 03.03.2022
5042 Sand 13 1001 54 4000 7.72 250 06:23 03.03.2022
5043 Clouds 17 997 63 6000 7.2 280 00:40 03.03.2022
5044 Clear 17 997 67 10000 6.17 290 23:28 02.03.2022
5045 Clear 17 997 67 10000 6.17 290 22:48 02.03.2022
5046 Clouds 21 1010 37 6000 9.26 290 21:23 02.03.2022
5047 Clouds 21 1010 37 6000 9.26 290 21:23 02.03.2022
5048 Clouds 25 1008 27 6000 5.14 190 20:30 02.03.2022
5049 Clear 25 1008 27 10000 4.63 180 19:49 02.03.2022
5050 Clear 26 994 29 10000 2.06 200 19:30 02.03.2022
5051 Clear 26 994 25 10000 3.09 200 18:39 02.03.2022
5052 Clouds 26 993 20 6000 3.09 190 17:50 02.03.2022
5053 Clouds 27 994 18 6000 5.14 210 16:59 02.03.2022
5054 Clouds 27 994 18 6000 5.14 210 16:41 02.03.2022
5055 Clouds 29 994 18 6000 6.69 230 14:43 02.03.2022
5056 Clouds 29 994 16 3000 4.12 280 13:24 02.03.2022
5057 Clouds 29 994 16 4000 4.63 210 12:42 02.03.2022
5058 Clouds 27 996 21 6000 0 0 11:40 02.03.2022
5059 Clouds 26 997 25 6000 0 0 11:21 02.03.2022
5060 Clouds 22 998 28 6000 0 0 09:41 02.03.2022
5061 Clouds 21 999 37 6000 0 0 08:54 02.03.2022
5062 Clouds 16 999 44 6000 1.54 360 07:28 02.03.2022
5063 Clear 17 999 41 10000 1.54 360 06:51 02.03.2022
5064 Clear 16 1000 51 10000 3.09 60 01:33 02.03.2022
5065 Clear 17 1002 41 10000 3.09 40 23:49 01.03.2022
5066 Clear 18 1002 45 10000 2.57 60 22:45 01.03.2022
5067 Clear 16 1003 51 10000 4.63 60 21:58 01.03.2022
5068 Clear 19 1004 42 10000 5.14 50 21:25 01.03.2022
5069 Clear 21 1003 45 10000 4.63 20 20:30 01.03.2022
5070 Clear 21 1003 45 10000 4.63 20 20:30 01.03.2022
5071 Clear 21 1003 45 10000 4.63 20 20:30 01.03.2022
5072 Clear 21 1003 45 10000 4.63 20 20:30 01.03.2022
5073 Clear 21 1003 43 10000 4.12 40 19:38 01.03.2022
5074 Clear 21 1002 43 10000 3.6 50 18:49 01.03.2022
5075 Clear 22 1002 40 10000 4.12 40 18:20 01.03.2022
5076 Clear 23 1002 35 10000 5.14 30 17:22 01.03.2022
5077 Clear 24 1002 29 10000 4.63 30 16:33 01.03.2022
5078 Clear 24 1002 29 10000 5.14 20 15:38 01.03.2022
5079 Clear 24 1002 27 10000 5.66 30 14:35 01.03.2022
5080 Clear 24 1003 27 10000 5.66 20 13:52 01.03.2022
5081 Clear 24 1003 25 10000 4.12 10 13:24 01.03.2022
5082 Clear 23 1004 25 10000 3.6 30 12:32 01.03.2022
5083 Clear 22 1006 26 10000 3.6 30 10:36 01.03.2022
5084 Clear 19 1006 32 10000 3.6 80 08:42 01.03.2022
5085 Clear 17 1006 48 10000 0.51 110 07:53 01.03.2022
5086 Clear 13 1006 66 10000 1.03 50 06:20 01.03.2022
5087 Clear 14 1006 67 10000 1.54 60 02:44 01.03.2022
5088 Clear 14 1006 67 10000 3.09 100 00:34 01.03.2022
5089 Clear 16 1007 67 10000 3.09 50 23:31 28.02.2022
5090 Clear 16 1007 67 10000 3.6 50 22:18 28.02.2022
5091 Clear 16 1007 63 10000 3.09 60 21:39 28.02.2022
5092 Clear 18 1006 55 10000 3.6 10 19:59 28.02.2022
5093 Clear 18 1006 55 10000 3.6 10 19:40 28.02.2022
5094 Clear 18 1006 45 10000 4.63 10 18:44 28.02.2022
5095 Clear 19 1006 45 10000 4.63 10 17:33 28.02.2022
5096 Clear 21 1005 39 10000 4.63 10 16:43 28.02.2022
5097 Clear 21 1005 37 10000 4.12 30 15:27 28.02.2022
5098 Clear 21 1005 37 10000 3.6 360 14:32 28.02.2022
5099 Clear 21 1005 32 10000 4.12 20 13:48 28.02.2022
5100 Clear 21 1006 32 10000 3.09 350 12:50 28.02.2022
5101 Clear 19 1006 37 10000 2.57 20 11:59 28.02.2022
5102 Clear 19 1006 37 10000 2.57 20 11:18 28.02.2022
5103 Clear 18 1007 42 10000 3.6 20 10:22 28.02.2022
5104 Clear 18 1007 39 10000 2.06 40 09:41 28.02.2022
5105 Clear 17 1007 41 10000 1.54 20 08:51 28.02.2022
5106 Clear 16 1007 58 10000 0 0 07:57 28.02.2022
5107 Clear 12 1007 76 10000 1.54 70 05:53 28.02.2022
5108 Clear 12 1007 76 10000 1.03 50 04:30 28.02.2022
5109 Clear 13 1007 71 10000 2.06 70 00:42 28.02.2022
5110 Clear 14 1008 67 10000 4.12 20 22:38 27.02.2022
5111 Clear 16 1008 58 10000 4.12 40 21:58 27.02.2022
5112 Clear 16 1008 58 10000 4.12 40 21:36 27.02.2022
5113 Clear 16 1008 58 10000 4.12 60 20:43 27.02.2022
5114 Clear 17 1008 55 10000 1.54 30 20:18 27.02.2022
5115 Clear 17 1008 55 10000 2.57 20 19:48 27.02.2022
5116 Clear 17 1008 55 10000 3.6 360 19:21 27.02.2022
5117 Clear 18 1007 48 10000 3.09 350 18:24 27.02.2022
5118 Clear 19 1007 42 10000 3.6 340 17:45 27.02.2022
5119 Clear 19 1006 42 10000 1.37 318 16:23 27.02.2022
5120 Clear 21 1006 39 10000 4.63 360 15:21 27.02.2022
5121 Clear 19 1007 39 10000 1.03 30 12:37 27.02.2022
5122 Clear 18 1007 42 10000 2.57 10 11:51 27.02.2022
5123 Clear 17 1009 45 10000 2.06 50 10:37 27.02.2022
5124 Clear 16 1009 51 10000 2.06 60 09:58 27.02.2022
5125 Clear 16 1009 58 10000 3.6 50 09:24 27.02.2022
5126 Clear 16 1010 58 6000 1.54 60 08:48 27.02.2022
5127 Clear 11 1008 71 10000 0.51 70 06:26 27.02.2022
5128 Clear 12 1008 66 10000 1.54 70 03:44 27.02.2022
5129 Clear 13 1008 66 10000 2.06 80 00:31 27.02.2022
5130 Clear 14 1008 62 10000 3.09 50 22:48 26.02.2022
5131 Clear 14 1008 62 10000 4.63 40 21:29 26.02.2022
5132 Clear 16 1008 58 10000 5.14 20 20:43 26.02.2022
5133 Clear 16 1008 58 10000 4.12 360 19:58 26.02.2022
5134 Clear 16 1008 58 10000 4.12 360 19:33 26.02.2022
5135 Clear 17 1008 51 10000 3.6 20 18:40 26.02.2022
5136 Clear 18 1007 42 10000 4.12 20 17:38 26.02.2022
5137 Clear 18 1006 42 10000 4.12 10 16:48 26.02.2022
5138 Clouds 18 1006 42 10000 3.6 340 15:45 26.02.2022
5139 Clouds 18 1006 42 10000 4.12 350 15:20 26.02.2022
5140 Clouds 19 1006 39 10000 4.63 320 14:51 26.02.2022
5141 Clouds 19 1006 37 10000 4.12 320 14:24 26.02.2022
5142 Clouds 18 1006 39 10000 1.54 290 12:59 26.02.2022
5143 Clouds 18 1007 39 10000 4.12 310 11:54 26.02.2022
5144 Clouds 17 1007 41 10000 3.09 260 11:28 26.02.2022
5145 Clouds 16 1007 47 10000 2.06 290 10:31 26.02.2022
5146 Clear 16 1008 54 10000 2.06 280 08:45 26.02.2022
5147 Clouds 13 1007 62 10000 4.12 230 06:46 26.02.2022
5148 Clouds 16 1005 58 10000 3.6 300 00:38 26.02.2022
5149 Clouds 16 1005 58 10000 4.63 280 22:47 25.02.2022
5150 Clouds 16 1005 58 10000 5.14 290 21:40 25.02.2022
5151 Clouds 16 1005 62 10000 4.12 290 21:21 25.02.2022
5152 Clouds 16 1005 55 10000 4.12 280 20:32 25.02.2022
5153 Clouds 16 1004 58 10000 3.09 310 18:41 25.02.2022
5154 Clouds 16 1003 55 10000 4.12 340 17:23 25.02.2022
5155 Clouds 16 1002 47 10000 5.66 290 16:24 25.02.2022
5156 Clouds 17 1002 48 10000 4.63 300 15:43 25.02.2022
5157 Clouds 18 1002 48 10000 4.63 300 15:20 25.02.2022
5158 Clouds 17 1002 51 10000 5.66 310 14:42 25.02.2022
5159 Clouds 18 1001 36 10000 7.72 280 13:36 25.02.2022
5160 Clouds 18 1002 39 10000 7.72 270 12:56 25.02.2022
5161 Clouds 17 1002 48 10000 6.69 270 11:28 25.02.2022
5162 Clouds 16 1003 51 10000 9.26 250 10:40 25.02.2022
5163 Clouds 16 1003 51 10000 9.26 250 10:22 25.02.2022
5164 Clouds 16 1003 58 10000 7.72 250 09:18 25.02.2022
5165 Clouds 13 1002 66 10000 10.29 260 07:41 25.02.2022
5166 Clouds 13 1000 71 10000 5.66 230 05:49 25.02.2022
5167 Clear 12 999 71 6000 4.63 220 04:41 25.02.2022
5168 Clear 13 999 66 10000 4.12 200 00:22 25.02.2022
5169 Clear 14 999 62 10000 3.6 200 21:58 24.02.2022
5170 Clear 14 999 62 10000 3.6 200 21:58 24.02.2022
5171 Clouds 16 1000 58 10000 4.63 210 21:39 24.02.2022
5172 Clouds 16 1000 58 10000 4.63 210 21:19 24.02.2022
5173 Clouds 16 999 58 10000 4.63 220 19:53 24.02.2022
5174 Clouds 16 999 58 6000 5.14 220 18:45 24.02.2022
5175 Clouds 16 999 58 6000 5.14 220 18:19 24.02.2022
5176 Clouds 16 998 55 6000 5.14 220 17:40 24.02.2022
5177 Clouds 16 998 54 6000 6.17 210 16:50 24.02.2022
5178 Clouds 16 998 51 6000 8.23 210 16:24 24.02.2022
5179 Clouds 16 998 51 6000 9.26 220 14:56 24.02.2022
5180 Clouds 16 998 51 6000 9.26 220 14:36 24.02.2022
5181 Clouds 17 997 48 6000 8.75 230 13:42 24.02.2022
5182 Clouds 17 997 41 6000 8.75 210 13:24 24.02.2022
5183 Clouds 16 998 47 10000 12.86 240 10:43 24.02.2022
5184 Clear 16 998 47 6000 9.26 220 09:41 24.02.2022
5185 Clear 14 998 50 6000 6.17 210 08:42 24.02.2022
5186 Haze 12 997 66 2000 4.12 190 06:25 24.02.2022
5187 Haze 13 997 66 2000 3.6 200 05:36 24.02.2022
5188 Clouds 16 998 58 10000 3.6 270 00:30 24.02.2022
5189 Clouds 16 998 72 10000 6.17 280 21:55 23.02.2022
5190 Clouds 16 997 67 10000 5.14 290 20:32 23.02.2022
5191 Clouds 17 997 67 10000 6.69 300 19:55 23.02.2022
5192 Clouds 19 1009 48 6000 0 0 18:59 23.02.2022
5193 Clouds 21 995 45 6000 3.6 360 17:47 23.02.2022
5194 Clouds 24 994 25 10000 5.14 230 15:47 23.02.2022
5195 Haze 25 1008 27 3000 4.12 240 13:34 23.02.2022
5196 Clouds 25 1009 25 6000 3.09 230 12:29 23.02.2022
5197 Clouds 25 1010 25 6000 1.03 220 10:55 23.02.2022
5198 Haze 22 1011 35 4000 0 0 09:38 23.02.2022
5199 Haze 20 1011 42 4000 0 0 08:36 23.02.2022
5200 Haze 17 1011 51 4000 0 0 07:25 23.02.2022
5201 Haze 16 1012 55 4000 1.03 150 02:23 23.02.2022
5202 Clouds 17 1013 51 6000 0 0 23:50 22.02.2022
5203 Clouds 18 1013 45 6000 0 0 23:31 22.02.2022
5204 Clouds 20 1013 39 6000 2.06 150 22:28 22.02.2022
5205 Clear 20 1013 42 10000 2.06 130 21:44 22.02.2022
5206 Clear 20 1014 42 10000 2.06 120 21:20 22.02.2022
5207 Clear 21 1013 35 10000 1.03 180 20:31 22.02.2022
5208 Clear 21 1013 39 10000 2.06 160 19:56 22.02.2022
5209 Clear 21 1013 39 10000 2.06 160 19:33 22.02.2022
5210 Clear 21 1013 35 10000 2.06 80 18:35 22.02.2022
5211 Clear 22 1013 28 10000 0 0 17:34 22.02.2022
5212 Clear 23 1012 23 10000 1.03 210 16:56 22.02.2022
5213 Clear 23 1013 25 10000 1.54 250 16:21 22.02.2022
5214 Clear 25 1013 25 10000 1.54 260 15:30 22.02.2022
5215 Clear 25 1013 27 10000 0 0 14:28 22.02.2022
5216 Clouds 22 1015 30 6000 1.03 230 11:39 22.02.2022
5217 Clouds 22 1015 30 6000 1.03 230 11:39 22.02.2022
5218 Clouds 21 1016 37 6000 2.57 260 09:45 22.02.2022
5219 Haze 16 1016 58 4000 0 0 07:38 22.02.2022
5220 Haze 16 1016 58 4000 0 0 07:19 22.02.2022
5221 Clear 15 1017 67 6000 0 0 02:51 22.02.2022
5222 Clouds 16 1017 67 6000 1.54 120 23:42 21.02.2022
5223 Clouds 17 1018 59 6000 1.54 80 22:37 21.02.2022
5224 Clouds 18 1019 55 6000 2.57 170 21:21 21.02.2022
5225 Clouds 20 1018 48 6000 0 0 18:58 21.02.2022
5226 Clouds 21 1018 42 6000 0 0 18:39 21.02.2022
5227 Clouds 21 1018 40 6000 2.06 330 16:30 21.02.2022
5228 Clouds 22 1019 35 6000 0 0 14:24 21.02.2022
5229 Clouds 21 1020 32 6000 2.57 290 13:40 21.02.2022
5230 Clouds 21 1020 43 6000 2.06 290 12:57 21.02.2022
5231 Clouds 21 1021 45 6000 3.09 260 12:21 21.02.2022
5232 Clouds 20 1023 48 6000 0 0 10:31 21.02.2022
5233 Mist 15 1023 82 4000 0 0 07:51 21.02.2022
5234 Clouds 15 1024 76 6000 2.06 140 00:36 21.02.2022
5235 Clouds 16 1024 76 6000 0 0 22:37 20.02.2022
5236 Clouds 16 1024 72 6000 0 0 21:51 20.02.2022
5237 Clouds 16 1024 72 6000 2.06 120 21:25 20.02.2022
5238 Clouds 16 1024 67 6000 0 0 20:45 20.02.2022
5239 Haze 16 1024 67 2000 1.03 60 19:51 20.02.2022
5240 Haze 17 1024 63 3000 1.03 350 18:57 20.02.2022
5241 Haze 17 1024 63 4000 1.03 360 18:37 20.02.2022
5242 Clear 17 1024 63 10000 2.06 340 17:56 20.02.2022
5243 Clear 18 1023 59 10000 2.57 350 17:24 20.02.2022
5244 Clear 20 1022 42 10000 1.54 20 15:29 20.02.2022
5245 Clear 18 1022 45 10000 2.57 70 14:20 20.02.2022
5246 Clear 18 1023 51 10000 1.54 340 12:49 20.02.2022
5247 Clear 16 1024 55 10000 1.54 20 11:56 20.02.2022
5248 Clear 16 1024 55 10000 1.54 20 11:56 20.02.2022
5249 Clear 16 1024 58 10000 2.57 40 10:21 20.02.2022
5250 Clear 15 1024 67 10000 2.57 80 09:46 20.02.2022
5251 Mist 8 1022 100 2000 0 0 06:30 20.02.2022
5252 Clear 12 1020 76 10000 1.54 300 00:33 20.02.2022
5253 Clear 12 1020 76 10000 1.03 290 23:39 19.02.2022
5254 Clear 12 1020 76 10000 2.06 280 22:24 19.02.2022
5255 Clouds 12 1019 76 10000 1.54 270 21:50 19.02.2022
5256 Clouds 12 1019 76 10000 0 0 20:41 19.02.2022
5257 Clouds 12 1018 76 10000 2.06 320 19:35 19.02.2022
5258 Clouds 12 1017 76 10000 1.54 320 18:41 19.02.2022
5259 Clouds 12 1016 81 10000 0 0 17:58 19.02.2022
5260 Clouds 11 1016 81 10000 1.54 30 17:23 19.02.2022
5261 Clouds 15 1015 62 10000 2.57 330 15:59 19.02.2022
5262 Clouds 15 1014 62 6000 6.17 260 14:55 19.02.2022
5263 Clouds 15 1014 67 6000 2.57 170 13:58 19.02.2022
5264 Clouds 13 1014 76 10000 1.54 160 11:53 19.02.2022
5265 Clouds 11 1014 87 10000 2.06 210 11:24 19.02.2022
5266 Clouds 13 1014 81 6000 6.17 250 08:59 19.02.2022
5267 Mist 12 1014 81 4000 2.57 210 06:48 19.02.2022
5268 Clouds 12 1013 81 10000 2.57 310 00:42 19.02.2022
5269 Clouds 15 1013 76 10000 3.6 10 22:28 18.02.2022
5270 Clouds 15 1013 76 10000 2.57 360 21:26 18.02.2022
5271 Clouds 16 1013 72 10000 5.14 360 20:24 18.02.2022
5272 Clouds 16 1013 72 10000 5.66 360 19:50 18.02.2022
5273 Clouds 16 1012 63 10000 6.69 20 18:37 18.02.2022
5274 Clouds 16 1012 63 10000 6.69 20 18:18 18.02.2022
5275 Clouds 16 1012 67 10000 4.63 350 17:18 18.02.2022
5276 Clouds 18 1011 55 10000 6.17 330 14:31 18.02.2022
5277 Clouds 17 1010 55 10000 5.14 340 13:47 18.02.2022
5278 Clouds 18 1010 51 6000 3.09 360 12:50 18.02.2022
5279 Clouds 18 1011 55 6000 5.14 50 11:57 18.02.2022
5280 Clouds 17 1011 59 6000 4.12 40 10:45 18.02.2022
5281 Mist 16 1012 72 4000 3.6 10 09:20 18.02.2022
5282 Mist 11 1012 93 4000 0 0 06:48 18.02.2022
5283 Mist 11 1011 93 4000 1.54 80 05:34 18.02.2022
5284 Clouds 13 1012 81 6000 2.57 80 22:39 17.02.2022
5285 Clouds 15 1012 76 6000 3.6 60 21:41 17.02.2022
5286 Clouds 15 1012 76 6000 3.09 50 20:52 17.02.2022
5287 Clouds 15 1012 76 6000 3.09 30 20:33 17.02.2022
5288 Clouds 15 1012 76 6000 3.09 20 19:42 17.02.2022
5289 Clouds 16 1012 63 6000 3.6 360 18:29 17.02.2022
5290 Clouds 16 1012 63 6000 4.12 360 17:45 17.02.2022
5291 Clouds 16 1011 63 10000 6.17 20 16:19 17.02.2022
5292 Clouds 17 1011 59 10000 5.66 350 14:30 17.02.2022
5293 Clouds 17 1011 59 10000 5.66 360 13:47 17.02.2022
5294 Clouds 17 1013 51 10000 4.12 50 11:57 17.02.2022
5295 Clouds 17 1013 48 10000 5.14 50 11:21 17.02.2022
5296 Clouds 15 1014 71 6000 4.12 60 07:57 17.02.2022
5297 Clouds 13 1017 81 6000 3.09 60 00:20 17.02.2022
5298 Clouds 15 1018 71 6000 3.09 50 22:38 16.02.2022
5299 Clouds 15 1019 67 6000 4.12 60 20:32 16.02.2022
5300 Clouds 16 1019 58 6000 3.6 40 19:27 16.02.2022
5301 Clouds 16 1018 58 6000 5.66 30 18:35 16.02.2022
5302 Clouds 17 1018 51 6000 4.63 10 17:33 16.02.2022
5303 Clear 18 1018 45 10000 6.69 10 15:24 16.02.2022
5304 Clear 18 1019 48 10000 5.14 340 14:29 16.02.2022
5305 Clear 18 1020 45 10000 5.14 20 12:31 16.02.2022
5306 Clear 17 1021 48 10000 4.12 20 11:46 16.02.2022
5307 Clouds 16 1021 51 10000 4.12 10 10:37 16.02.2022
5308 Clouds 16 1021 51 10000 4.12 10 10:18 16.02.2022
5309 Haze 11 1022 76 3000 0 0 06:44 16.02.2022
5310 Haze 11 1022 76 3000 1.03 360 03:41 16.02.2022
5311 Haze 13 1023 66 4000 2.06 350 22:35 15.02.2022
5312 Clouds 13 1023 66 6000 3.09 340 21:52 15.02.2022
5313 Clouds 13 1023 66 6000 3.6 350 21:31 15.02.2022
5314 Clouds 13 1023 66 10000 3.6 340 20:58 15.02.2022
5315 Clouds 13 1023 66 10000 3.6 340 20:38 15.02.2022
5316 Clouds 16 1022 58 10000 4.63 340 19:48 15.02.2022
5317 Clouds 16 1022 58 10000 4.12 350 18:40 15.02.2022
5318 Clouds 16 1022 55 10000 4.63 360 18:18 15.02.2022
5319 Clouds 16 1022 55 10000 4.63 360 17:46 15.02.2022
5320 Clouds 17 1021 48 10000 4.63 350 16:20 15.02.2022
5321 Clouds 18 1020 51 10000 6.69 350 14:35 15.02.2022
5322 Clouds 18 1020 45 10000 5.66 350 13:26 15.02.2022
5323 Clouds 17 1021 45 10000 5.14 360 11:52 15.02.2022
5324 Clouds 16 1022 51 10000 6.17 20 10:39 15.02.2022
5325 Clouds 16 1023 54 10000 6.17 20 09:23 15.02.2022
5326 Mist 11 1022 87 3000 0 0 06:48 15.02.2022
5327 Clouds 15 1021 76 10000 2.57 360 00:26 15.02.2022
5328 Clear 15 1021 71 10000 2.57 30 21:59 14.02.2022
5329 Clear 15 1021 67 10000 3.09 340 21:19 14.02.2022
5330 Clouds 16 1021 62 10000 5.66 10 20:23 14.02.2022
5331 Clouds 16 1021 55 10000 2.57 30 19:30 14.02.2022
5332 Clouds 17 1020 55 10000 3.09 20 18:27 14.02.2022
5333 Clouds 17 1020 48 10000 3.6 10 17:43 14.02.2022
5334 Clouds 17 1020 48 10000 3.6 10 17:23 14.02.2022
5335 Clouds 18 1019 42 10000 4.63 350 15:58 14.02.2022
5336 Clouds 20 1019 42 10000 4.12 340 13:38 14.02.2022
5337 Clouds 20 1019 42 10000 4.12 340 13:18 14.02.2022
5338 Clouds 18 1020 42 10000 5.14 30 12:32 14.02.2022
5339 Clouds 17 1021 45 10000 6.17 360 11:47 14.02.2022
5340 Clear 17 1022 51 10000 2.06 340 10:25 14.02.2022
5341 Clear 15 1022 62 10000 0 0 08:34 14.02.2022
5342 Clear 12 1021 71 10000 1.54 90 07:26 14.02.2022
5343 Clouds 14 1022 67 10000 1.54 60 23:41 13.02.2022
5344 Clouds 15 1022 67 10000 2.57 40 22:42 13.02.2022
5345 Clouds 15 1022 67 10000 3.6 40 22:23 13.02.2022
5346 Clouds 16 1022 67 10000 3.6 40 21:28 13.02.2022
5347 Clouds 16 1022 67 10000 4.63 40 20:32 13.02.2022
5348 Clouds 16 1021 72 10000 5.66 20 19:24 13.02.2022
5349 Clouds 15 1021 72 6000 5.66 10 18:42 13.02.2022
5350 Clouds 16 1021 67 6000 5.66 20 17:57 13.02.2022
5351 Clouds 20 1020 48 6000 4.63 360 15:54 13.02.2022
5352 Clouds 20 1020 48 6000 4.63 360 15:20 13.02.2022
5353 Clouds 20 1020 52 6000 3.6 350 13:59 13.02.2022
5354 Clouds 20 1020 52 6000 3.6 350 13:59 13.02.2022
5355 Clouds 20 1020 55 6000 3.6 20 12:50 13.02.2022
5356 Clouds 18 1021 59 6000 2.57 360 11:35 13.02.2022
5357 Clouds 16 1022 76 6000 3.6 30 10:32 13.02.2022
5358 Mist 16 1022 76 3000 3.09 30 09:45 13.02.2022
5359 Mist 10 1022 100 2000 1.54 30 07:21 13.02.2022
5360 Clear 12 1022 81 10000 3.09 60 00:35 13.02.2022
5361 Clear 13 1022 76 10000 3.6 60 23:39 12.02.2022
5362 Clear 13 1023 76 10000 4.12 60 22:33 12.02.2022
5363 Clear 15 1023 67 10000 4.12 60 21:27 12.02.2022
5364 Clear 15 1023 62 10000 4.12 60 20:34 12.02.2022
5365 Clear 16 1023 55 10000 6.17 60 19:27 12.02.2022
5366 Clear 16 1023 55 10000 6.17 50 18:53 12.02.2022
5367 Clear 16 1023 55 10000 6.17 50 18:35 12.02.2022
5368 Clear 20 1022 30 10000 5.66 50 16:58 12.02.2022
5369 Clear 21 1022 28 10000 5.66 70 16:26 12.02.2022
5370 Clear 21 1022 28 10000 5.14 60 15:51 12.02.2022
5371 Clear 21 1022 30 10000 6.17 70 14:31 12.02.2022
5372 Clear 21 1022 32 10000 6.69 50 13:19 12.02.2022
5373 Clear 17 1024 45 10000 7.72 60 10:42 12.02.2022
5374 Clear 16 1025 55 10000 7.2 70 09:50 12.02.2022
5375 Clear 16 1025 62 10000 9.26 70 09:26 12.02.2022
5376 Clear 16 1025 62 10000 9.26 70 08:44 12.02.2022
5377 Clear 11 1023 81 10000 4.63 70 05:40 12.02.2022
5378 Clear 10 1024 81 10000 1.54 80 04:30 12.02.2022
5379 Clear 11 1024 76 10000 1.03 90 02:18 12.02.2022
5380 Clear 12 1025 71 10000 2.06 70 22:55 11.02.2022
5381 Clear 13 1025 66 10000 2.57 60 22:18 11.02.2022
5382 Clear 15 1024 62 10000 3.09 60 20:43 11.02.2022
5383 Clear 15 1024 58 10000 4.12 40 19:48 11.02.2022
5384 Clear 16 1024 54 10000 5.14 50 19:27 11.02.2022
5385 Clouds 16 1023 51 10000 4.63 40 18:26 11.02.2022
5386 Clouds 17 1023 45 10000 6.17 20 17:26 11.02.2022
5387 Clouds 17 1023 45 10000 5.14 30 16:26 11.02.2022
5388 Clouds 18 1022 42 10000 6.69 20 14:57 11.02.2022
5389 Clouds 18 1022 42 10000 6.69 20 14:36 11.02.2022
5390 Clouds 18 1022 39 10000 5.66 30 14:18 11.02.2022
5391 Clouds 17 1022 41 10000 5.14 40 13:39 11.02.2022
5392 Clouds 18 1022 42 10000 4.12 10 12:19 11.02.2022
5393 Clouds 16 1024 55 6000 1.54 350 10:28 11.02.2022
5394 Haze 15 1024 62 4000 0 0 09:19 11.02.2022
5395 Haze 13 1023 66 4000 0 0 08:28 11.02.2022
5396 Haze 11 1023 81 4000 1.03 170 07:34 11.02.2022
5397 Clouds 11 1021 71 6000 0 0 02:40 11.02.2022
5398 Clouds 11 1021 71 6000 0 0 02:20 11.02.2022
5399 Clouds 12 1021 66 6000 0 0 23:36 10.02.2022
5400 Clouds 13 1021 62 6000 2.06 320 21:53 10.02.2022
5401 Clouds 13 1021 62 10000 1.54 320 21:24 10.02.2022
5402 Clouds 13 1021 58 10000 2.57 320 20:48 10.02.2022
5403 Clouds 13 1020 54 10000 3.09 310 19:37 10.02.2022
5404 Clouds 13 1020 54 10000 3.09 310 19:18 10.02.2022
5405 Clouds 16 1019 47 10000 4.12 300 17:39 10.02.2022
5406 Clouds 16 1019 47 10000 4.12 300 17:19 10.02.2022
5407 Clouds 16 1018 44 10000 5.14 310 16:23 10.02.2022
5408 Clouds 16 1018 44 10000 5.14 310 15:34 10.02.2022
5409 Clouds 16 1018 47 10000 5.14 300 14:49 10.02.2022
5410 Clouds 16 1018 47 10000 6.17 290 14:30 10.02.2022
5411 Clouds 16 1018 47 10000 4.63 280 13:33 10.02.2022
5412 Clouds 16 1018 47 10000 5.66 290 12:51 10.02.2022
5413 Clouds 16 1019 47 10000 5.14 270 11:44 10.02.2022
5414 Clouds 16 1019 51 10000 5.66 260 11:25 10.02.2022
5415 Clouds 15 1020 54 10000 6.17 230 10:19 10.02.2022
5416 Clouds 12 1020 62 6000 5.66 210 09:25 10.02.2022
5417 Clouds 11 1019 66 10000 7.2 230 07:57 10.02.2022
5418 Clouds 11 1018 61 10000 5.66 250 05:53 10.02.2022
5419 Clouds 11 1018 66 10000 5.14 240 01:58 10.02.2022
5420 Clouds 11 1018 66 10000 5.14 240 00:51 10.02.2022
5421 Clouds 11 1018 66 10000 5.14 240 00:29 10.02.2022
5422 Clouds 12 1018 62 10000 7.72 270 23:28 09.02.2022
5423 Clouds 12 1019 57 10000 7.2 270 22:45 09.02.2022
5424 Clouds 12 1018 57 10000 8.23 260 22:25 09.02.2022
5425 Clouds 12 1019 57 10000 7.2 270 21:38 09.02.2022
5426 Clouds 12 1019 57 10000 5.14 290 21:18 09.02.2022
5427 Clouds 12 1019 57 10000 7.2 290 20:41 09.02.2022
5428 Clouds 13 1019 50 10000 5.66 280 20:20 09.02.2022
5429 Clouds 13 1019 50 10000 6.17 280 19:38 09.02.2022
5430 Clouds 15 1018 44 10000 5.66 290 17:43 09.02.2022
5431 Clouds 16 1017 44 10000 7.2 300 16:54 09.02.2022
5432 Clouds 16 1016 36 10000 7.72 280 15:55 09.02.2022
5433 Clouds 16 1016 36 10000 7.72 280 15:19 09.02.2022
5434 Clouds 17 1016 39 10000 6.17 260 12:42 09.02.2022
5435 Clouds 17 1016 39 10000 6.17 260 12:42 09.02.2022
5436 Clouds 16 1017 47 10000 4.63 290 11:20 09.02.2022
5437 Clouds 16 1017 58 10000 4.63 290 10:32 09.02.2022
5438 Clouds 16 1017 62 10000 5.66 300 09:42 09.02.2022
5439 Clouds 16 1017 62 10000 5.66 300 09:20 09.02.2022
5440 Clouds 15 1017 71 10000 4.63 270 08:26 09.02.2022
5441 Clear 14 1016 44 6000 2.57 230 05:31 09.02.2022
5442 Clear 15 1015 41 6000 3.6 240 03:51 09.02.2022
5443 Haze 16 1015 36 4000 4.12 170 01:33 09.02.2022
5444 Clear 17 1016 33 6000 2.06 200 23:39 08.02.2022
5445 Clear 16 1016 36 6000 1.54 220 22:53 08.02.2022
5446 Clear 18 1016 29 6000 1.54 190 22:22 08.02.2022
5447 Clear 18 1016 29 10000 1.54 200 21:52 08.02.2022
5448 Clear 18 1016 29 10000 2.06 180 21:21 08.02.2022
5449 Clear 19 1017 27 10000 2.57 190 20:55 08.02.2022
5450 Clear 20 1017 27 10000 1.54 170 20:23 08.02.2022
5451 Clear 20 1017 22 10000 1.03 190 18:53 08.02.2022
5452 Clear 21 1016 19 10000 2.06 180 17:50 08.02.2022
5453 Clear 22 1016 18 10000 2.57 200 16:42 08.02.2022
5454 Clear 23 1016 17 10000 3.09 220 15:39 08.02.2022
5455 Clear 23 1016 17 10000 3.6 240 14:57 08.02.2022
5456 Clear 22 1017 23 10000 2.57 220 13:29 08.02.2022
5457 Clear 21 1018 26 10000 3.6 250 12:20 08.02.2022
5458 Clear 21 1019 26 10000 3.6 210 10:45 08.02.2022
5459 Clear 20 1020 32 10000 3.6 200 09:46 08.02.2022
5460 Clear 17 1020 41 10000 2.06 240 08:27 08.02.2022
5461 Clear 12 1021 54 10000 0 0 05:45 08.02.2022
5462 Clear 12 1020 54 10000 0 0 04:39 08.02.2022
5463 Clear 12 1020 54 10000 0 0 04:21 08.02.2022
5464 Clear 12 1020 54 10000 3.09 160 03:36 08.02.2022
5465 Clear 12 1020 54 10000 3.09 160 03:18 08.02.2022
5466 Clear 12 1021 57 10000 3.09 160 02:59 08.02.2022
5467 Clear 12 1021 57 10000 3.09 160 02:36 08.02.2022
5468 Clear 13 1021 54 10000 4.12 150 02:18 08.02.2022
5469 Clear 13 1021 58 10000 4.12 150 01:44 08.02.2022
5470 Clear 15 1021 54 10000 2.57 150 01:24 08.02.2022
5471 Clear 15 1021 54 10000 2.57 150 00:55 08.02.2022
5472 Clear 15 1022 50 10000 1.54 140 23:58 07.02.2022
5473 Clear 16 1022 47 10000 1.54 100 23:40 07.02.2022
5474 Clear 16 1022 47 10000 1.36 37 23:18 07.02.2022
5475 Clear 16 1022 51 10000 0 0 22:56 07.02.2022
5476 Clear 16 1022 51 10000 0 0 22:18 07.02.2022
5477 Clear 16 1022 51 10000 0.51 110 21:47 07.02.2022
5478 Clear 17 1022 45 10000 0.51 360 21:26 07.02.2022
5479 Clear 17 1022 41 10000 0 0 20:41 07.02.2022
5480 Clear 17 1022 41 10000 0 0 20:18 07.02.2022
5481 Clear 18 1022 36 10000 0 0 19:45 07.02.2022
5482 Clear 20 1022 34 10000 0 0 18:22 07.02.2022
5483 Clear 21 1021 28 10000 2.06 310 16:53 07.02.2022
5484 Clear 21 1021 28 10000 2.57 280 16:21 07.02.2022
5485 Clear 22 1021 26 10000 2.57 290 15:48 07.02.2022
5486 Clear 21 1021 30 10000 4.12 240 13:39 07.02.2022
5487 Clear 21 1021 30 10000 4.12 240 13:21 07.02.2022
5488 Clear 20 1023 37 10000 4.63 230 11:58 07.02.2022
5489 Clear 20 1023 37 10000 4.63 230 11:37 07.02.2022
5490 Clear 18 1023 42 6000 4.63 220 10:53 07.02.2022
5491 Clear 18 1024 39 6000 4.12 200 10:32 07.02.2022
5492 Clear 17 1024 45 6000 4.63 210 09:53 07.02.2022
5493 Clear 17 1024 45 6000 3.6 220 09:18 07.02.2022
5494 Haze 16 1024 54 4000 2.57 200 08:44 07.02.2022
5495 Clear 12 1024 66 6000 1.03 240 07:30 07.02.2022
5496 Clouds 12 1023 66 6000 0 0 06:34 07.02.2022
5497 Clear 11 1022 71 6000 0 0 03:49 07.02.2022
5498 Clear 13 1024 66 6000 2.57 150 00:47 07.02.2022
5499 Clear 13 1025 66 6000 1.03 160 23:50 06.02.2022
5500 Clear 13 1025 66 6000 1.54 150 23:19 06.02.2022
5501 Clear 15 1025 62 6000 0 0 22:34 06.02.2022
5502 Clear 16 1025 58 6000 0 0 21:36 06.02.2022
5503 Clear 16 1025 58 10000 0 0 20:58 06.02.2022
5504 Clear 16 1025 55 10000 1.03 150 20:36 06.02.2022
5505 Clear 16 1025 55 10000 0 0 19:46 06.02.2022
5506 Clear 17 1024 51 10000 0 0 18:50 06.02.2022
5507 Clear 17 1024 51 10000 0 0 18:24 06.02.2022
5508 Clouds 18 1024 48 6000 1.03 340 17:26 06.02.2022
5509 Clouds 18 1023 45 6000 3.09 300 16:48 06.02.2022
5510 Clouds 18 1023 48 6000 1.54 330 15:50 06.02.2022
5511 Clouds 18 1023 45 6000 2.57 280 15:27 06.02.2022
5512 Clouds 18 1023 45 6000 1.03 340 14:50 06.02.2022
5513 Clear 18 1024 48 6000 1.03 330 13:51 06.02.2022
5514 Clear 18 1024 48 6000 1.03 330 13:20 06.02.2022
5515 Clear 16 1025 55 6000 0 0 11:39 06.02.2022
5516 Clear 16 1026 55 6000 3.6 220 10:31 06.02.2022
5517 Clear 15 1026 62 6000 2.57 230 09:26 06.02.2022
5518 Clear 15 1026 62 6000 3.09 240 08:41 06.02.2022
5519 Clouds 11 1025 81 6000 0 0 06:19 06.02.2022
5520 Clouds 11 1024 81 6000 0 0 03:31 06.02.2022
5521 Clouds 11 1024 76 6000 0 0 02:25 06.02.2022
5522 Clouds 13 1025 66 6000 0 0 00:30 06.02.2022
5523 Clouds 13 1025 66 6000 0 0 23:25 05.02.2022
5524 Clouds 14 1025 62 6000 2.06 300 21:38 05.02.2022
5525 Clouds 15 1024 62 6000 1.54 300 20:25 05.02.2022
5526 Clouds 15 1024 58 6000 1.54 360 19:50 05.02.2022
5527 Clouds 16 1024 58 6000 1.54 310 19:27 05.02.2022
5528 Clouds 16 1023 51 10000 2.06 300 18:23 05.02.2022
5529 Clouds 16 1023 47 10000 2.06 300 17:31 05.02.2022
5530 Clouds 17 1022 45 10000 4.63 290 15:42 05.02.2022
5531 Clouds 17 1022 45 10000 4.63 290 15:24 05.02.2022
5532 Clouds 16 1022 47 10000 5.14 260 13:22 05.02.2022
5533 Clouds 16 1022 47 10000 5.14 260 12:42 05.02.2022
5534 Clouds 16 1023 54 10000 3.09 230 10:57 05.02.2022
5535 Clouds 15 1024 58 10000 4.12 230 10:38 05.02.2022
5536 Clouds 15 1024 58 10000 4.12 230 09:47 05.02.2022
5537 Clouds 12 1023 71 10000 3.6 220 08:20 05.02.2022
5538 Clouds 11 1022 81 10000 3.09 220 06:58 05.02.2022
5539 Clouds 11 1021 87 10000 3.6 220 04:55 05.02.2022
5540 Clouds 12 1020 71 10000 4.63 250 01:40 05.02.2022
5541 Clouds 13 1021 71 10000 4.56 285 01:18 05.02.2022
5542 Clouds 13 1020 71 10000 3.6 240 23:59 04.02.2022
5543 Clouds 13 1020 71 10000 3.6 240 23:33 04.02.2022
5544 Clouds 13 1020 71 10000 3.6 260 22:18 04.02.2022
5545 Clouds 13 1020 71 10000 4.63 270 21:36 04.02.2022
5546 Clouds 13 1020 71 10000 4.63 270 21:18 04.02.2022
5547 Clouds 15 1019 67 10000 5.66 270 20:20 04.02.2022
5548 Clouds 15 1018 71 10000 4.12 290 17:45 04.02.2022
5549 Clouds 16 1016 62 10000 7.2 280 15:55 04.02.2022
5550 Clouds 16 1016 62 10000 7.2 280 15:55 04.02.2022
5551 Clouds 16 1015 58 10000 7.72 280 14:56 04.02.2022
5552 Clouds 16 1014 55 10000 7.2 270 13:55 04.02.2022
5553 Clouds 16 1014 58 6000 6.69 250 12:43 04.02.2022
5554 Clouds 16 1014 67 6000 6.17 250 11:43 04.02.2022
5555 Sand 13 1014 76 2000 6.17 230 10:37 04.02.2022
5556 Sand 11 1014 87 2000 6.17 230 08:49 04.02.2022
5557 Sand 11 1012 66 2000 10.29 200 06:57 04.02.2022
5558 Clouds 12 1012 54 6000 5.66 210 02:48 04.02.2022
5559 Clouds 12 1012 57 6000 7.2 200 01:56 04.02.2022
5560 Clouds 15 1012 44 6000 6.17 210 23:31 03.02.2022
5561 Clouds 15 1012 44 6000 6.69 200 22:46 03.02.2022
5562 Clouds 15 1013 41 6000 4.12 200 21:49 03.02.2022
5563 Clouds 15 1013 41 6000 4.12 200 21:49 03.02.2022
5564 Clouds 15 1013 44 6000 8.23 220 20:41 03.02.2022
5565 Clouds 16 1013 41 6000 8.75 220 20:20 03.02.2022
5566 Clouds 16 1013 41 6000 6.69 220 19:32 03.02.2022
5567 Clouds 16 1012 39 6000 6.17 220 18:40 03.02.2022
5568 Clouds 16 1012 41 10000 4.12 220 17:42 03.02.2022
5569 Clouds 16 1012 44 10000 8.75 240 16:35 03.02.2022
5570 Clouds 17 1011 31 10000 9.77 240 14:52 03.02.2022
5571 Clouds 17 1011 29 10000 9.77 240 12:59 03.02.2022
5572 Clear 17 1012 33 10000 6.17 210 11:23 03.02.2022
5573 Sand 15 1012 41 4000 10.29 200 08:37 03.02.2022
5574 Clear 15 1010 33 10000 5.14 170 05:26 03.02.2022
5575 Clear 16 1012 58 10000 5.14 170 00:32 03.02.2022
5576 Clear 13 1012 43 10000 5.14 160 23:44 02.02.2022
5577 Clear 16 1013 38 10000 3.09 160 22:32 02.02.2022
5578 Clear 16 1013 41 10000 3.09 160 21:34 02.02.2022
5579 Clear 16 1013 41 10000 3.09 170 20:51 02.02.2022
5580 Clear 16 1013 38 10000 3.09 150 19:59 02.02.2022
5581 Clear 16 1013 38 10000 3.09 150 19:27 02.02.2022
5582 Clear 17 1013 33 10000 1.54 170 18:46 02.02.2022
5583 Clear 18 1013 31 10000 2.06 190 17:57 02.02.2022
5584 Clear 18 1013 31 10000 2.06 190 17:19 02.02.2022
5585 Clear 18 1013 31 10000 3.6 210 16:42 02.02.2022
5586 Clear 20 1014 29 10000 6.17 190 13:35 02.02.2022
5587 Clear 20 1014 29 10000 4.63 200 12:25 02.02.2022
5588 Clear 20 1015 29 10000 4.63 190 11:34 02.02.2022
5589 Clear 18 1016 34 10000 3.09 210 10:31 02.02.2022
5590 Clear 12 1017 62 10000 4.12 150 07:37 02.02.2022
5591 Clouds 13 1018 58 6000 0 0 22:52 01.02.2022
5592 Clouds 15 1018 54 10000 2.57 150 21:52 01.02.2022
5593 Clouds 16 1018 47 10000 4.12 110 20:36 01.02.2022
5594 Clouds 17 1018 41 10000 1.54 220 17:50 01.02.2022
5595 Clouds 17 1017 41 10000 3.6 210 16:40 01.02.2022
5596 Clear 18 1017 39 10000 3.6 210 14:49 01.02.2022
5597 Clear 18 1018 42 10000 3.6 200 12:47 01.02.2022
5598 Clear 17 1019 48 10000 4.12 210 11:34 01.02.2022
5599 Mist 11 1018 81 4000 4.12 180 05:43 01.02.2022
5600 Clouds 13 1017 76 10000 2.06 210 23:51 31.01.2022
5601 Clouds 13 1017 76 10000 2.06 210 23:28 31.01.2022
5602 Clouds 14 1016 72 10000 4.12 270 21:59 31.01.2022
5603 Clouds 14 1016 67 10000 3.6 270 21:32 31.01.2022
5604 Clouds 15 1016 63 10000 4.12 280 20:33 31.01.2022
5605 Clouds 15 1015 63 10000 3.6 280 19:46 31.01.2022
5606 Clouds 16 1015 62 10000 3.6 300 18:29 31.01.2022
5607 Clouds 16 1014 55 10000 4.12 280 17:46 31.01.2022
5608 Clouds 16 1013 55 10000 4.12 290 16:48 31.01.2022
5609 Clouds 16 1012 58 10000 3.09 270 15:43 31.01.2022
5610 Clouds 16 1012 63 6000 5.66 250 14:25 31.01.2022
5611 Clouds 13 1013 76 6000 4.63 200 12:51 31.01.2022
5612 Clouds 12 1013 87 6000 5.14 210 11:59 31.01.2022
5613 Clouds 11 1014 87 6000 4.63 200 10:52 31.01.2022
5614 Clouds 12 1014 66 6000 6.17 220 10:34 31.01.2022
5615 Clouds 11 1014 66 6000 6.17 200 09:27 31.01.2022
5616 Clouds 11 1014 61 6000 5.14 200 08:52 31.01.2022
5617 Clouds 11 1014 61 6000 5.14 200 08:52 31.01.2022
5618 Clouds 11 1014 61 6000 5.14 200 08:20 31.01.2022
5619 Clouds 11 1013 53 6000 4.63 200 06:36 31.01.2022
5620 Clouds 11 1013 46 6000 3.6 190 05:20 31.01.2022
5621 Clouds 15 1016 38 10000 5.14 240 23:20 30.01.2022
5622 Clouds 12 1016 47 10000 3.18 227 22:30 30.01.2022
5623 Clouds 15 1016 36 10000 3.6 230 21:44 30.01.2022
5624 Clouds 15 1016 36 10000 4.12 230 21:21 30.01.2022
5625 Clouds 15 1016 36 10000 3.09 180 20:50 30.01.2022
5626 Clouds 16 1016 38 10000 2.57 180 20:30 30.01.2022
5627 Clouds 16 1016 39 10000 2.57 180 19:54 30.01.2022
5628 Clouds 16 1016 36 10000 2.57 170 18:51 30.01.2022
5629 Clouds 16 1016 36 10000 2.57 170 18:21 30.01.2022
5630 Clouds 17 1015 33 10000 4.12 200 17:30 30.01.2022
5631 Clouds 17 1015 33 10000 3.6 200 16:42 30.01.2022
5632 Clouds 17 1015 33 10000 4.12 210 16:22 30.01.2022
5633 Clouds 18 1015 31 10000 4.63 220 15:53 30.01.2022
5634 Clouds 18 1015 31 10000 4.63 220 15:32 30.01.2022
5635 Clouds 17 1015 33 10000 5.14 220 14:47 30.01.2022
5636 Clouds 18 1016 34 10000 6.17 230 13:37 30.01.2022
5637 Clouds 18 1016 34 10000 5.66 230 12:41 30.01.2022
5638 Clear 16 1019 44 10000 6.69 220 10:39 30.01.2022
5639 Clear 16 1019 47 10000 5.14 210 09:58 30.01.2022
5640 Clear 16 1019 47 10000 5.14 200 09:21 30.01.2022
5641 Clouds 13 1018 54 10000 4.12 170 07:57 30.01.2022
5642 Clouds 11 1019 61 6000 1.54 200 02:44 30.01.2022
5643 Clouds 11 1020 61 6000 2.06 180 01:52 30.01.2022
5644 Clouds 12 1020 57 6000 1.03 190 23:46 29.01.2022
5645 Clouds 13 1020 54 10000 1.54 210 22:48 29.01.2022
5646 Clouds 15 1021 54 10000 1.54 130 21:28 29.01.2022
5647 Clouds 13 1021 58 10000 0 0 20:53 29.01.2022
5648 Clouds 15 1021 54 10000 0 0 19:51 29.01.2022
5649 Clouds 15 1020 54 10000 0 0 19:30 29.01.2022
5650 Clouds 15 1020 54 10000 0 0 18:43 29.01.2022
5651 Clouds 16 1020 51 10000 1.54 360 17:46 29.01.2022
5652 Clouds 16 1020 44 10000 1.54 270 16:43 29.01.2022
5653 Clouds 16 1020 41 10000 2.06 250 15:25 29.01.2022
5654 Clouds 16 1020 47 6000 4.63 230 13:48 29.01.2022
5655 Clouds 16 1021 47 6000 3.6 230 13:26 29.01.2022
5656 Clouds 16 1021 47 6000 3.6 230 12:52 29.01.2022
5657 Clouds 16 1022 51 6000 3.09 210 11:39 29.01.2022
5658 Clouds 15 1023 54 6000 3.09 230 10:32 29.01.2022
5659 Haze 11 1023 61 4000 2.57 190 07:57 29.01.2022
5660 Clouds 12 1023 57 10000 2.06 190 01:38 29.01.2022
5661 Clouds 12 1023 62 10000 2.06 190 00:31 29.01.2022
5662 Clouds 12 1023 62 10000 2.06 190 00:31 29.01.2022
5663 Clouds 13 1023 54 10000 4.63 250 23:29 28.01.2022
5664 Clouds 14 1023 44 10000 2.57 200 22:46 28.01.2022
5665 Clouds 14 1023 44 10000 2.57 200 22:18 28.01.2022
5666 Clouds 14 1023 47 10000 1.54 220 20:41 28.01.2022
5667 Clouds 15 1024 47 10000 1.54 230 19:56 28.01.2022
5668 Clouds 15 1024 47 10000 1.54 250 18:52 28.01.2022
5669 Clouds 15 1023 47 10000 2.06 230 17:52 28.01.2022
5670 Clouds 16 1023 47 10000 4.12 230 15:50 28.01.2022
5671 Clouds 16 1023 47 10000 3.09 250 14:50 28.01.2022
5672 Clouds 15 1024 54 6000 4.12 250 12:42 28.01.2022
5673 Clouds 12 1025 62 6000 3.6 230 11:43 28.01.2022
5674 Haze 11 1026 66 4000 3.09 200 10:26 28.01.2022
5675 Haze 11 1026 71 2000 3.09 200 09:46 28.01.2022
5676 Haze 11 1026 71 2000 4.12 210 07:41 28.01.2022
5677 Clouds 10 1025 75 10000 2.06 230 05:31 28.01.2022
5678 Clouds 11 1024 76 10000 1.54 210 03:51 28.01.2022
5679 Clouds 11 1024 76 10000 1.54 220 02:25 28.01.2022
5680 Clouds 11 1025 71 10000 2.06 220 01:37 28.01.2022
5681 Clouds 11 1024 71 10000 3.09 240 00:39 28.01.2022
5682 Clouds 11 1024 66 10000 2.06 230 22:20 27.01.2022
5683 Clouds 11 1024 66 10000 1.54 230 21:34 27.01.2022
5684 Clouds 11 1024 66 10000 1.54 240 20:59 27.01.2022
5685 Clouds 12 1024 62 10000 1.54 270 19:37 27.01.2022
5686 Clouds 12 1024 62 10000 3.09 300 18:19 27.01.2022
5687 Clouds 13 1023 54 10000 3.6 280 16:45 27.01.2022
5688 Clouds 12 1023 62 10000 4.63 220 13:57 27.01.2022
5689 Clouds 12 1023 62 6000 6.17 210 12:49 27.01.2022
5690 Clouds 11 1024 61 6000 6.17 210 11:53 27.01.2022
5691 Clouds 10 1024 66 6000 6.17 210 09:48 27.01.2022
5692 Clouds 10 1024 66 6000 5.66 200 08:40 27.01.2022
5693 Clouds 8 1023 70 6000 5.14 190 07:52 27.01.2022
5694 Clouds 7 1021 75 10000 5.66 250 03:34 27.01.2022
5695 Clouds 8 1021 75 10000 6.17 230 00:23 27.01.2022
5696 Clouds 10 1021 70 10000 6.69 240 22:28 26.01.2022
5697 Clouds 10 1021 70 10000 6.69 240 21:44 26.01.2022
5698 Clouds 10 1021 70 10000 7.2 240 20:49 26.01.2022
5699 Clouds 10 1020 70 10000 6.69 250 20:31 26.01.2022
5700 Clouds 10 1020 70 10000 6.17 250 19:49 26.01.2022
5701 Clouds 10 1020 75 10000 5.66 240 18:48 26.01.2022
5702 Clouds 10 1020 75 10000 5.66 240 18:24 26.01.2022
5703 Clouds 10 1019 70 10000 5.66 250 17:33 26.01.2022
5704 Clouds 10 1018 70 10000 6.17 280 16:49 26.01.2022
5705 Clouds 10 1018 70 10000 6.17 280 16:23 26.01.2022
5706 Clouds 11 1016 61 10000 8.75 250 14:40 26.01.2022
5707 Clouds 10 1016 81 10000 5.14 220 12:22 26.01.2022
5708 Mist 8 1018 87 3000 6.17 240 10:52 26.01.2022
5709 Mist 8 1018 87 3000 6.17 240 10:52 26.01.2022
5710 Clouds 8 1018 81 3000 8.75 260 09:55 26.01.2022
5711 Clouds 8 1018 81 3000 8.75 260 09:36 26.01.2022
5712 Haze 11 1017 46 3000 4.63 210 06:42 26.01.2022
5713 Clear 12 1018 46 10000 3.09 200 00:24 26.01.2022
5714 Clear 12 1018 46 10000 2.06 200 23:43 25.01.2022
5715 Clear 12 1019 50 10000 2.57 230 22:49 25.01.2022
5716 Clear 13 1019 47 10000 2.06 220 22:19 25.01.2022
5717 Clear 13 1019 47 10000 3.09 250 21:27 25.01.2022
5718 Clear 12 1019 46 10000 3.6 250 20:45 25.01.2022
5719 Clear 13 1019 47 10000 3.6 240 19:57 25.01.2022
5720 Clear 15 1019 44 10000 3.6 260 19:28 25.01.2022
5721 Clear 15 1019 41 10000 6.17 260 17:56 25.01.2022
5722 Clear 15 1019 41 10000 6.17 260 17:37 25.01.2022
5723 Clear 16 1018 35 10000 6.17 260 16:35 25.01.2022
5724 Clear 16 1018 31 10000 6.69 240 15:39 25.01.2022
5725 Clear 16 1018 31 10000 6.69 240 15:19 25.01.2022
5726 Clear 16 1018 30 10000 6.69 260 14:56 25.01.2022
5727 Clear 16 1019 30 10000 3.6 220 12:21 25.01.2022
5728 Clear 12 1021 34 6000 4.12 220 09:35 25.01.2022
5729 Haze 11 1021 39 4000 3.6 210 08:21 25.01.2022
5730 Haze 10 1021 45 4000 3.09 240 07:27 25.01.2022
5731 Clear 10 1021 45 10000 1.03 200 05:26 25.01.2022
5732 Clouds 11 1021 49 6000 2.57 220 00:57 25.01.2022
5733 Clouds 11 1021 53 10000 1.54 250 23:36 24.01.2022
5734 Clouds 11 1021 53 10000 1.54 250 23:18 24.01.2022
5735 Clouds 11 1022 53 10000 3.09 270 22:53 24.01.2022
5736 Clouds 12 1022 46 10000 1.54 260 22:35 24.01.2022
5737 Clouds 12 1022 46 10000 0 0 21:42 24.01.2022
5738 Clouds 12 1022 46 10000 0 0 21:24 24.01.2022
5739 Clouds 12 1022 46 10000 0.51 0 20:28 24.01.2022
5740 Clouds 13 1022 43 10000 1.54 80 19:38 24.01.2022
5741 Clouds 13 1021 47 10000 0 0 18:50 24.01.2022
5742 Clouds 15 1021 41 10000 1.54 340 17:42 24.01.2022
5743 Clouds 15 1021 41 10000 1.54 340 17:22 24.01.2022
5744 Clouds 15 1021 41 10000 1.54 340 17:22 24.01.2022
5745 Clouds 15 1020 24 10000 1.54 100 16:32 24.01.2022
5746 Clouds 16 1020 35 10000 0 0 15:51 24.01.2022
5747 Clouds 15 1020 38 10000 1.03 220 14:19 24.01.2022
5748 Clouds 15 1021 41 10000 1.54 330 12:35 24.01.2022
5749 Clouds 13 1021 43 10000 1.54 290 11:45 24.01.2022
5750 Clouds 13 1021 54 10000 0 0 10:23 24.01.2022
5751 Clouds 13 1022 58 10000 0 0 09:46 24.01.2022
5752 Clouds 11 1022 76 10000 1.54 230 08:18 24.01.2022
5753 Clear 11 1019 57 10000 3.6 230 02:29 24.01.2022
5754 Clear 11 1019 61 10000 1.03 250 01:27 24.01.2022
5755 Clear 11 1019 61 10000 1.03 250 01:27 24.01.2022
5756 Clear 11 1019 61 10000 1.54 200 00:32 24.01.2022
5757 Clear 11 1019 61 10000 1.54 230 23:46 23.01.2022
5758 Clear 12 1019 62 10000 2.06 230 22:21 23.01.2022
5759 Clear 12 1019 66 10000 2.06 220 21:42 23.01.2022
5760 Clear 12 1019 66 10000 2.06 220 21:23 23.01.2022
5761 Clouds 12 1019 66 10000 2.06 300 20:28 23.01.2022
5762 Clouds 13 1019 62 10000 4.63 320 19:19 23.01.2022
5763 Clouds 13 1019 62 10000 4.63 320 18:41 23.01.2022
5764 Clouds 15 1018 62 10000 3.09 320 17:25 23.01.2022
5765 Clouds 16 1017 54 10000 5.66 290 16:27 23.01.2022
5766 Clouds 17 1017 42 10000 6.69 270 14:54 23.01.2022
5767 Clouds 17 1017 42 10000 6.69 270 14:19 23.01.2022
5768 Clouds 16 1017 51 10000 7.72 270 12:47 23.01.2022
5769 Clouds 16 1017 51 10000 7.72 270 12:21 23.01.2022
5770 Clouds 17 1017 48 6000 6.69 270 11:51 23.01.2022
5771 Clouds 15 1018 44 6000 5.66 230 11:18 23.01.2022
5772 Clear 14 1019 44 6000 5.66 220 10:26 23.01.2022
5773 Clear 14 1019 44 6000 6.17 210 09:37 23.01.2022
5774 Clear 12 1019 47 6000 5.14 200 08:51 23.01.2022
5775 Clear 10 1018 50 6000 3.6 190 05:37 23.01.2022
5776 Clear 11 1018 46 6000 3.6 180 01:46 23.01.2022
5777 Clear 12 1018 47 6000 4.63 190 01:23 23.01.2022
5778 Clear 13 1018 44 10000 3.6 210 00:22 23.01.2022
5779 Clear 13 1018 44 10000 2.57 210 23:19 22.01.2022
5780 Clear 14 1019 41 10000 3.6 200 22:34 22.01.2022
5781 Clouds 14 1019 41 10000 2.57 210 21:19 22.01.2022
5782 Clouds 14 1019 41 10000 2.57 220 19:49 22.01.2022
5783 Clouds 14 1019 38 10000 3.09 230 18:45 22.01.2022
5784 Clouds 15 1019 36 10000 2.57 240 17:56 22.01.2022
5785 Clouds 15 1019 36 10000 2.57 240 17:35 22.01.2022
5786 Clouds 16 1019 33 10000 4.63 280 16:55 22.01.2022
5787 Clouds 16 1019 33 10000 4.12 290 15:49 22.01.2022
5788 Clouds 16 1019 33 10000 4.12 290 14:57 22.01.2022
5789 Clouds 16 1019 33 6000 5.14 280 13:39 22.01.2022
5790 Clouds 16 1019 36 6000 4.63 290 12:48 22.01.2022
5791 Clouds 15 1020 41 6000 4.63 300 12:28 22.01.2022
5792 Clear 14 1021 41 6000 4.12 290 10:56 22.01.2022
5793 Haze 14 1022 47 4000 3.09 280 10:29 22.01.2022
5794 Haze 13 1022 54 4000 1.54 270 09:58 22.01.2022
5795 Haze 10 1022 66 4000 0 0 08:51 22.01.2022
5796 Haze 9 1022 71 4000 0 0 07:34 22.01.2022
5797 Clear 7 1021 76 10000 0 0 04:52 22.01.2022
5798 Clear 8 1022 66 10000 0 0 01:34 22.01.2022
5799 Clear 9 1023 61 10000 0 0 23:38 21.01.2022
5800 Clear 9 1023 61 10000 0 0 23:38 21.01.2022
5801 Clear 10 1024 57 10000 1.54 80 22:28 21.01.2022
5802 Clear 12 1024 50 10000 3.09 40 20:22 21.01.2022
5803 Clouds 13 1024 44 10000 2.06 40 18:39 21.01.2022
5804 Clouds 14 1023 41 10000 2.06 50 17:28 21.01.2022
5805 Clouds 15 1024 36 10000 5.14 60 15:30 21.01.2022
5806 Clouds 15 1024 36 10000 4.12 60 13:37 21.01.2022
5807 Clear 15 1024 35 10000 3.23 53 12:38 21.01.2022
5808 Clear 14 1026 38 10000 4.12 70 11:28 21.01.2022
5809 Clear 13 1027 44 10000 4.63 70 10:19 21.01.2022
5810 Clear 9 1027 61 10000 2.57 60 08:24 21.01.2022
5811 Clear 6 1027 65 10000 0 0 06:57 21.01.2022
5812 Clear 9 1029 57 10000 1.03 80 23:36 20.01.2022
5813 Clear 9 1029 57 10000 1.03 80 22:41 20.01.2022
5814 Clear 10 1029 57 10000 1.54 60 21:43 20.01.2022
5815 Clear 11 1029 54 10000 3.09 50 20:53 20.01.2022
5816 Clear 12 1029 43 10000 2.57 20 19:20 20.01.2022
5817 Clear 12 1028 43 10000 3.09 20 18:50 20.01.2022
5818 Clouds 13 1028 41 10000 4.12 20 17:29 20.01.2022
5819 Clouds 13 1028 41 10000 3.6 20 15:44 20.01.2022
5820 Clouds 14 1028 35 10000 3.09 20 15:22 20.01.2022
5821 Clouds 14 1028 35 10000 2.57 330 13:42 20.01.2022
5822 Clouds 13 1028 38 10000 1.54 320 12:35 20.01.2022
5823 Clouds 13 1028 38 10000 1.54 320 11:57 20.01.2022
5824 Clouds 12 1029 37 10000 3.09 330 10:40 20.01.2022
5825 Clouds 12 1030 40 10000 2.06 310 09:40 20.01.2022
5826 Clear 11 1030 46 10000 0 0 08:32 20.01.2022
5827 Clouds 10 1028 46 10000 2.06 330 05:34 20.01.2022
5828 Clear 10 1027 50 10000 1.54 310 23:35 19.01.2022
5829 Clear 10 1027 50 10000 3.09 310 22:32 19.01.2022
5830 Clear 10 1027 53 10000 2.57 310 21:24 19.01.2022
5831 Clear 10 1027 53 10000 2.57 310 20:50 19.01.2022
5832 Clear 11 1026 46 10000 3.09 300 19:58 19.01.2022
5833 Clear 11 1026 46 10000 2.57 300 18:43 19.01.2022
5834 Clouds 12 1025 43 10000 5.66 310 17:49 19.01.2022
5835 Clouds 13 1024 44 10000 5.66 320 16:57 19.01.2022
5836 Clouds 14 1024 33 10000 4.63 320 14:42 19.01.2022
5837 Clouds 14 1023 47 10000 6.17 320 12:53 19.01.2022
5838 Clouds 14 1023 54 10000 5.14 310 11:42 19.01.2022
5839 Clouds 13 1024 62 6000 3.09 250 10:37 19.01.2022
5840 Clouds 12 1024 71 6000 4.12 240 09:34 19.01.2022
5841 Clouds 10 1023 66 6000 3.09 230 07:18 19.01.2022
5842 Clouds 11 1021 54 10000 4.63 210 05:18 19.01.2022
5843 Clouds 12 1022 47 10000 3.6 220 23:41 18.01.2022
5844 Clouds 12 1022 47 10000 3.6 220 23:18 18.01.2022
5845 Clouds 13 1023 44 10000 4.12 240 21:20 18.01.2022
5846 Clouds 13 1023 44 10000 4.12 250 19:55 18.01.2022
5847 Clouds 13 1023 44 10000 4.12 250 19:37 18.01.2022
5848 Clouds 14 1023 41 10000 3.6 250 18:57 18.01.2022
5849 Clouds 14 1023 41 10000 3.6 260 17:59 18.01.2022
5850 Clouds 14 1023 41 10000 5.14 270 17:27 18.01.2022
5851 Clouds 15 1022 38 10000 2.06 260 15:50 18.01.2022
5852 Clouds 15 1022 38 10000 2.06 260 15:23 18.01.2022
5853 Clouds 15 1023 36 10000 2.06 280 13:32 18.01.2022
5854 Clouds 14 1025 38 6000 0 0 10:49 18.01.2022
5855 Haze 13 1026 50 6000 0 0 09:39 18.01.2022
5856 Haze 10 1026 62 4000 1.03 0 07:58 18.01.2022
5857 Haze 8 1026 71 4000 0 0 07:21 18.01.2022
5858 Clouds 8 1024 66 10000 1.03 0 00:21 18.01.2022
5859 Clouds 10 1025 57 10000 0 0 22:31 17.01.2022
5860 Clouds 10 1025 57 10000 0 0 21:36 17.01.2022
5861 Clouds 10 1024 57 10000 1.03 90 20:33 17.01.2022
5862 Clouds 11 1024 54 10000 1.54 60 18:42 17.01.2022
5863 Clouds 12 1023 50 10000 2.57 50 17:55 17.01.2022
5864 Clouds 13 1022 50 10000 4.12 10 16:53 17.01.2022
5865 Clouds 13 1022 44 10000 4.63 40 15:31 17.01.2022
5866 Clouds 13 1022 47 10000 4.63 40 14:58 17.01.2022
5867 Clouds 13 1022 54 10000 7.2 30 13:42 17.01.2022
5868 Clouds 13 1021 54 10000 4.63 20 12:58 17.01.2022
5869 Clouds 14 1021 47 10000 5.66 30 11:51 17.01.2022
5870 Clouds 14 1022 47 10000 5.66 10 10:43 17.01.2022
5871 Clouds 12 1022 66 10000 3.6 350 09:35 17.01.2022
5872 Clouds 11 1022 66 10000 2.57 20 08:18 17.01.2022
5873 Clouds 10 1021 76 10000 2.06 20 07:19 17.01.2022
5874 Clouds 10 1018 87 10000 4.12 70 00:57 17.01.2022
5875 Clouds 11 1018 82 10000 5.14 40 23:27 16.01.2022
5876 Clouds 12 1018 71 10000 4.12 10 20:41 16.01.2022
5877 Clouds 13 1017 67 10000 4.63 360 19:44 16.01.2022
5878 Clouds 13 1017 62 10000 3.09 340 18:42 16.01.2022
5879 Clouds 14 1016 58 10000 2.06 340 17:45 16.01.2022
5880 Clouds 14 1015 62 6000 6.17 10 16:50 16.01.2022
5881 Clouds 16 1014 55 6000 6.17 340 15:34 16.01.2022
5882 Clouds 17 1014 48 6000 5.14 270 14:29 16.01.2022
5883 Clouds 16 1014 51 6000 4.12 220 12:51 16.01.2022
5884 Clouds 16 1015 48 6000 5.14 230 11:48 16.01.2022
5885 Clouds 14 1016 51 6000 5.66 210 10:58 16.01.2022
5886 Clouds 14 1016 51 6000 5.66 230 10:26 16.01.2022
5887 Clouds 13 1016 54 6000 5.14 210 09:56 16.01.2022
5888 Clouds 13 1016 54 6000 6.17 220 09:23 16.01.2022
5889 Clouds 12 1016 54 6000 5.14 210 08:47 16.01.2022
5890 Clear 11 1014 54 10000 4.63 210 03:58 16.01.2022
5891 Clear 12 1015 50 10000 3.6 230 23:51 15.01.2022
5892 Clear 13 1015 47 10000 2.57 210 22:35 15.01.2022
5893 Clouds 13 1017 47 10000 2.57 220 21:20 15.01.2022
5894 Clouds 13 1015 47 10000 2.57 240 20:40 15.01.2022
5895 Clouds 13 1016 47 10000 3.6 240 19:52 15.01.2022
5896 Clouds 14 1015 44 10000 4.12 240 19:19 15.01.2022
5897 Clouds 14 1015 41 10000 4.63 250 17:35 15.01.2022
5898 Clouds 14 1015 44 10000 4.63 270 16:37 15.01.2022
5899 Clouds 16 1015 39 10000 6.17 250 13:57 15.01.2022
5900 Clouds 15 1015 44 10000 7.2 240 12:20 15.01.2022
5901 Clouds 14 1016 54 10000 5.66 240 10:43 15.01.2022
5902 Clouds 12 1017 58 10000 5.66 240 08:36 15.01.2022
5903 Clear 11 1016 66 10000 5.14 240 00:49 15.01.2022
5904 Clear 12 1017 62 10000 4.12 270 21:56 14.01.2022
5905 Clear 13 1017 58 10000 4.63 270 20:42 14.01.2022
5906 Clouds 13 1017 54 10000 5.14 270 20:23 14.01.2022
5907 Clouds 14 1016 54 10000 4.63 280 19:40 14.01.2022
5908 Clouds 14 1016 58 10000 4.12 280 18:27 14.01.2022
5909 Clouds 14 1015 58 10000 3.09 290 16:50 14.01.2022
5910 Clouds 14 1016 58 10000 5.66 300 15:48 14.01.2022
5911 Clouds 14 1016 67 8000 3.09 300 14:46 14.01.2022
5912 Clouds 15 1016 58 10000 4.63 270 13:37 14.01.2022
5913 Clouds 14 1016 62 6000 3.09 270 12:29 14.01.2022
5914 Clouds 14 1018 67 6000 4.63 230 10:57 14.01.2022
5915 Clouds 14 1018 67 6000 4.63 230 09:50 14.01.2022
5916 Clouds 13 1018 76 10000 4.63 230 08:51 14.01.2022
5917 Clouds 13 1018 76 10000 3.09 210 06:57 14.01.2022
5918 Clouds 13 1017 76 10000 4.63 280 01:33 14.01.2022
5919 Clouds 14 1017 72 10000 4.12 280 23:32 13.01.2022
5920 Clouds 14 1017 72 10000 4.12 280 21:40 13.01.2022
5921 Clouds 14 1017 72 10000 4.12 280 21:22 13.01.2022
5922 Clouds 15 1017 67 10000 4.63 300 19:40 13.01.2022
5923 Clouds 15 1017 67 10000 4.63 300 19:22 13.01.2022
5924 Clouds 15 1017 67 10000 4.63 300 19:22 13.01.2022
5925 Clouds 16 1016 59 10000 7.2 310 17:53 13.01.2022
5926 Clouds 18 1014 42 10000 5.66 290 16:21 13.01.2022
5927 Clouds 18 1014 42 10000 5.66 290 16:21 13.01.2022
5928 Clouds 19 1014 39 10000 7.72 250 15:37 13.01.2022
5929 Clouds 19 1014 37 10000 7.2 250 14:47 13.01.2022
5930 Clouds 19 1014 39 10000 8.75 250 12:45 13.01.2022
5931 Clear 17 1016 42 10000 4.63 230 10:25 13.01.2022
5932 Clouds 16 1017 41 6000 4.12 230 09:20 13.01.2022
5933 Haze 15 1017 41 3000 3.09 220 08:27 13.01.2022
5934 Clouds 14 1016 41 6000 1.54 200 07:24 13.01.2022
5935 Clouds 14 1016 41 6000 2.06 180 05:59 13.01.2022
5936 Clouds 13 1016 44 6000 1.54 230 05:19 13.01.2022
5937 Clouds 14 1016 38 6000 2.06 170 02:33 13.01.2022
5938 Clear 15 1016 33 10000 1.03 210 00:55 13.01.2022
5939 Clear 16 1016 29 10000 1.03 210 23:49 12.01.2022
5940 Clear 16 1016 29 10000 1.03 210 23:49 12.01.2022
5941 Clear 15 1015 31 10000 0 0 23:24 12.01.2022
5942 Clear 17 1016 25 10000 2.57 200 21:57 12.01.2022
5943 Clear 17 1016 27 10000 1.54 200 21:23 12.01.2022
5944 Clear 17 1016 27 10000 1.54 210 20:57 12.01.2022
5945 Clouds 17 1016 29 10000 1.54 220 19:55 12.01.2022
5946 Clouds 18 1015 25 10000 1.54 210 18:43 12.01.2022
5947 Clouds 19 1015 24 10000 3.09 220 17:50 12.01.2022
5948 Clouds 19 1014 24 10000 4.12 210 16:38 12.01.2022
5949 Clouds 20 1014 24 10000 4.63 200 14:49 12.01.2022
5950 Clear 20 1014 24 10000 4.63 210 13:32 12.01.2022
5951 Clear 19 1015 24 10000 5.14 200 12:34 12.01.2022
5952 Clear 16 1016 23 10000 5.66 190 08:45 12.01.2022
5953 Clear 16 1016 23 10000 5.14 190 07:52 12.01.2022
5954 Clear 16 1016 23 10000 5.14 190 07:32 12.01.2022
5955 Clear 16 1015 25 10000 2.57 170 23:53 11.01.2022
5956 Clear 17 1015 23 10000 3.09 170 22:57 11.01.2022
5957 Clear 17 1015 23 10000 4.12 170 22:23 11.01.2022
5958 Clear 17 1015 23 10000 4.12 180 21:25 11.01.2022
5959 Clear 17 1015 23 10000 4.63 170 20:33 11.01.2022
5960 Clear 18 1015 24 10000 4.12 180 18:48 11.01.2022
5961 Clear 18 1014 25 10000 4.12 200 17:42 11.01.2022
5962 Clear 19 1014 26 10000 4.12 200 16:38 11.01.2022
5963 Clear 19 1014 24 10000 6.69 200 15:59 11.01.2022
5964 Clear 20 1014 22 10000 7.2 180 14:44 11.01.2022
5965 Clear 20 1014 22 10000 7.2 180 14:18 11.01.2022
5966 Clear 19 1014 26 10000 5.66 200 13:42 11.01.2022
5967 Clear 19 1014 26 10000 5.14 190 13:24 11.01.2022
5968 Clear 18 1014 27 10000 6.69 210 12:23 11.01.2022
5969 Clear 18 1016 24 10000 5.14 190 10:25 11.01.2022
5970 Clear 14 1015 33 10000 6.17 180 07:38 11.01.2022
5971 Clear 13 1014 41 10000 2.57 190 02:57 11.01.2022
5972 Clear 14 1014 41 10000 4.12 200 00:24 11.01.2022
5973 Clear 15 1014 41 10000 4.63 200 23:38 10.01.2022
5974 Clear 15 1014 44 10000 4.12 190 22:20 10.01.2022
5975 Clear 15 1014 44 10000 4.12 190 21:56 10.01.2022
5976 Clear 15 1014 44 10000 4.12 190 21:33 10.01.2022
5977 Clear 15 1014 44 10000 4.63 190 20:58 10.01.2022
5978 Clear 15 1014 44 10000 2.06 190 20:29 10.01.2022
5979 Clear 15 1013 44 10000 4.12 180 19:48 10.01.2022
5980 Clear 15 1013 47 10000 5.14 170 19:23 10.01.2022
5981 Clear 15 1013 44 10000 5.66 170 18:55 10.01.2022
5982 Clear 15 1013 47 10000 5.66 170 18:37 10.01.2022
5983 Clear 16 1012 44 10000 5.14 190 16:48 10.01.2022
5984 Clear 16 1012 44 10000 4.63 190 16:18 10.01.2022
5985 Clear 17 1012 45 10000 5.14 200 14:42 10.01.2022
5986 Clear 17 1012 42 10000 4.63 200 12:50 10.01.2022
5987 Clouds 16 1013 41 10000 5.14 200 11:55 10.01.2022
5988 Clouds 14 1014 44 10000 6.17 210 10:46 10.01.2022
5989 Clouds 13 1014 38 10000 6.17 200 08:59 10.01.2022
5990 Clouds 12 1013 40 10000 3.6 200 05:51 10.01.2022
5991 Clouds 12 1013 43 10000 6.17 200 02:30 10.01.2022
5992 Clouds 13 1013 41 10000 5.66 200 01:20 10.01.2022
5993 Clouds 13 1014 44 10000 6.17 210 00:19 10.01.2022
5994 Clouds 13 1014 44 10000 5.14 210 22:44 09.01.2022
5995 Clouds 14 1014 44 10000 5.14 220 22:18 09.01.2022
5996 Clouds 14 1014 44 10000 4.63 220 21:41 09.01.2022
5997 Clouds 14 1014 44 10000 5.14 220 21:22 09.01.2022
5998 Clouds 14 1014 44 10000 5.66 220 20:46 09.01.2022
5999 Clouds 15 1014 41 10000 6.69 220 20:28 09.01.2022
6000 Clouds 16 1014 39 10000 6.17 220 19:39 09.01.2022
6001 Clouds 16 1014 39 10000 6.17 220 19:20 09.01.2022
6002 Clouds 16 1014 36 10000 6.17 210 18:38 09.01.2022
6003 Clouds 16 1014 36 10000 6.17 210 18:18 09.01.2022
6004 Clouds 16 1013 33 10000 6.69 200 17:30 09.01.2022
6005 Clouds 16 1013 36 10000 6.17 210 16:49 09.01.2022
6006 Clouds 18 1012 32 10000 7.2 210 15:51 09.01.2022
6007 Clouds 18 1012 32 10000 7.2 210 15:32 09.01.2022
6008 Clouds 18 1012 34 6000 7.72 210 14:39 09.01.2022
6009 Clouds 19 1012 32 6000 8.75 230 13:49 09.01.2022
6010 Clouds 17 1013 36 6000 9.26 220 12:19 09.01.2022
6011 Clouds 17 1013 36 6000 10.29 230 11:38 09.01.2022
6012 Clouds 15 1014 47 6000 6.17 220 09:55 09.01.2022
6013 Clouds 15 1015 51 6000 5.66 210 09:29 09.01.2022
6014 Clouds 13 1014 58 6000 5.66 210 08:18 09.01.2022
6015 Haze 15 1011 47 2000 2.57 170 01:31 09.01.2022
6016 Haze 13 1012 54 2000 1.54 170 00:53 09.01.2022
6017 Haze 13 1012 58 2000 1.54 160 23:37 08.01.2022
6018 Haze 13 1013 71 2000 1.54 150 22:58 08.01.2022
6019 Haze 13 1013 71 2000 1.54 150 22:58 08.01.2022
6020 Haze 13 1013 76 3000 1.54 150 21:32 08.01.2022
6021 Haze 13 1013 76 3000 1.54 150 21:32 08.01.2022
6022 Haze 15 1013 72 3000 0 0 20:44 08.01.2022
6023 Haze 15 1013 72 3000 0 0 20:23 08.01.2022
6024 Haze 15 1013 72 3000 0 0 19:55 08.01.2022
6025 Haze 17 1012 72 3000 1.03 70 17:49 08.01.2022
6026 Haze 18 1012 59 2000 1.54 30 16:57 08.01.2022
6027 Haze 20 1012 45 2000 1.54 340 15:37 08.01.2022
6028 Haze 20 1012 45 2000 1.54 330 14:40 08.01.2022
6029 Haze 20 1013 40 3000 0 0 12:36 08.01.2022
6030 Haze 19 1015 48 3000 0 0 10:49 08.01.2022
6031 Haze 17 1016 55 3000 0 0 10:24 08.01.2022
6032 Haze 17 1016 55 3000 0 0 09:43 08.01.2022
6033 Mist 10 1016 81 2000 0 0 07:18 08.01.2022
6034 Mist 11 1017 82 4000 1.54 130 02:33 08.01.2022
6035 Clear 12 1017 76 6000 0.51 70 00:40 08.01.2022
6036 Mist 13 1016 76 4000 1.54 130 22:40 07.01.2022
6037 Mist 14 1017 82 3000 1.03 150 20:56 07.01.2022
6038 Mist 14 1017 88 3000 1.54 120 19:56 07.01.2022
6039 Mist 14 1017 88 3000 1.54 120 19:56 07.01.2022
6040 Mist 15 1017 82 2000 1.03 100 18:54 07.01.2022
6041 Mist 15 1017 88 2000 1.03 80 18:34 07.01.2022
6042 Haze 16 1017 77 2000 1.03 360 17:25 07.01.2022
6043 Haze 18 1016 55 2000 2.06 350 16:23 07.01.2022
6044 Haze 18 1016 63 2000 1.54 310 13:53 07.01.2022
6045 Haze 18 1016 63 2000 1.54 310 13:21 07.01.2022
6046 Haze 18 1016 59 2000 1.54 330 12:48 07.01.2022
6047 Mist 13 1019 88 2000 1.54 20 09:21 07.01.2022
6048 Clear 12 1017 82 6000 0 0 02:54 07.01.2022
6049 Clear 12 1017 76 6000 0 0 01:53 07.01.2022
6050 Clouds 13 1017 76 6000 0 0 01:27 07.01.2022
6051 Clouds 13 1017 82 6000 0 0 00:57 07.01.2022
6052 Clouds 15 1018 82 6000 0 0 22:46 06.01.2022
6053 Clouds 15 1017 77 6000 1.54 100 21:23 06.01.2022
6054 Clouds 16 1017 72 6000 1.03 90 20:21 06.01.2022
6055 Clouds 16 1017 77 6000 1.54 10 19:44 06.01.2022
6056 Clear 18 1017 55 10000 1.03 60 17:54 06.01.2022
6057 Clear 18 1017 42 10000 0 0 17:34 06.01.2022
6058 Clear 19 1016 39 10000 1.54 60 16:42 06.01.2022
6059 Clouds 20 1016 34 10000 1.54 80 15:46 06.01.2022
6060 Clouds 19 1017 37 10000 1.03 280 15:25 06.01.2022
6061 Clear 20 1016 37 10000 1.03 90 14:43 06.01.2022
6062 Clear 20 1017 37 10000 2.06 80 14:18 06.01.2022
6063 Clear 19 1017 42 10000 1.54 70 12:43 06.01.2022
6064 Clear 19 1021 42 10000 2.06 40 11:42 06.01.2022
6065 Clear 19 1021 48 10000 2.06 60 11:22 06.01.2022
6066 Clouds 14 1021 72 6000 3.09 60 08:51 06.01.2022
6067 Clear 13 1021 71 6000 3.09 100 00:53 06.01.2022
6068 Clear 14 1021 67 6000 3.6 100 23:37 05.01.2022
6069 Clear 14 1022 67 6000 1.03 0 22:56 05.01.2022
6070 Clear 14 1022 67 6000 1.03 0 22:32 05.01.2022
6071 Clear 14 1022 72 6000 2.06 100 21:48 05.01.2022
6072 Clear 15 1022 67 6000 1.54 80 20:57 05.01.2022
6073 Clear 16 1022 67 6000 2.06 50 20:18 05.01.2022
6074 Clear 17 1022 59 6000 2.57 20 18:42 05.01.2022
6075 Clear 18 1022 52 6000 1.54 350 17:26 05.01.2022
6076 Clear 19 1022 48 6000 2.57 310 16:50 05.01.2022
6077 Clear 19 1021 48 6000 1.54 300 15:26 05.01.2022
6078 Clear 19 1021 48 6000 1.54 280 13:51 05.01.2022
6079 Clear 19 1021 48 10000 1.03 290 12:59 05.01.2022
6080 Clear 18 1023 52 10000 1.54 280 10:34 05.01.2022
6081 Mist 15 1024 67 2000 0 0 07:47 05.01.2022
6082 Mist 15 1024 67 2000 0 0 07:47 05.01.2022
6083 Mist 11 1024 82 2000 0 0 06:25 05.01.2022
6084 Haze 13 1023 76 3000 0 0 00:58 05.01.2022
6085 Haze 15 1023 67 3000 1.03 210 23:28 04.01.2022
6086 Haze 15 1023 67 3000 1.03 220 23:28 04.01.2022
6087 Haze 15 1023 67 3000 1.03 220 22:46 04.01.2022
6088 Haze 16 1023 63 4000 2.06 180 21:24 04.01.2022
6089 Clouds 17 1023 55 6000 1.54 210 19:20 04.01.2022
6090 Clouds 17 1023 55 10000 2.06 270 17:51 04.01.2022
6091 Clouds 18 1023 48 10000 2.06 300 16:43 04.01.2022
6092 Clouds 18 1023 52 10000 3.09 270 16:23 04.01.2022
6093 Clouds 18 1023 48 10000 2.57 280 14:54 04.01.2022
6094 Clouds 18 1022 52 10000 3.09 280 14:34 04.01.2022
6095 Clouds 18 1023 52 10000 3.09 300 13:27 04.01.2022
6096 Clouds 18 1024 48 10000 2.06 320 10:41 04.01.2022
6097 Mist 16 1024 77 2000 1.54 210 09:20 04.01.2022
6098 Mist 15 1024 82 1500 1.54 230 08:30 04.01.2022
6099 Mist 14 1023 88 2000 0 0 02:31 04.01.2022
6100 Mist 15 1023 82 2000 0.51 220 00:41 04.01.2022
6101 Mist 15 1022 82 2000 0 0 23:26 03.01.2022
6102 Haze 15 1022 77 4000 0 0 21:52 03.01.2022
6103 Haze 15 1022 77 4000 0 0 21:32 03.01.2022
6104 Haze 16 1022 77 4000 1.54 330 20:22 03.01.2022
6105 Haze 18 1021 63 4000 2.06 300 18:54 03.01.2022
6106 Haze 18 1021 63 4000 2.06 300 18:28 03.01.2022
6107 Clouds 19 1020 55 10000 1.54 300 16:58 03.01.2022
6108 Clouds 19 1020 59 10000 3.6 300 15:39 03.01.2022
6109 Clouds 19 1020 59 10000 3.09 280 14:30 03.01.2022
6110 Haze 19 1020 63 4000 3.6 250 12:48 03.01.2022
6111 Mist 18 1020 68 4000 2.06 270 11:38 03.01.2022
6112 Mist 17 1020 77 2000 3.6 220 10:36 03.01.2022
6113 Mist 15 1020 88 1000 1.54 240 08:48 03.01.2022
6114 Fog 14 1020 88 800 1.54 230 07:36 03.01.2022
6115 Mist 14 1019 88 2000 1.54 220 23:56 02.01.2022
6116 Mist 14 1019 88 2000 1.54 220 23:22 02.01.2022
6117 Mist 14 1019 88 2000 1.54 220 22:53 02.01.2022
6118 Clouds 15 1019 82 6000 1.03 240 21:46 02.01.2022
6119 Clouds 16 1019 72 6000 1.54 300 20:38 02.01.2022
6120 Clouds 16 1019 72 6000 1.54 300 20:18 02.01.2022
6121 Clouds 16 1018 77 6000 0 0 19:31 02.01.2022
6122 Clouds 16 1018 72 6000 0 0 18:46 02.01.2022
6123 Clouds 16 1018 72 6000 1.54 330 17:54 02.01.2022
6124 Clouds 16 1017 77 6000 2.57 300 17:36 02.01.2022
6125 Clouds 16 1017 77 6000 2.57 300 17:18 02.01.2022
6126 Clouds 18 1017 68 6000 1.54 280 16:26 02.01.2022
6127 Haze 18 1016 68 4000 2.06 310 14:34 02.01.2022
6128 Mist 17 1016 72 4000 1.54 290 12:54 02.01.2022
6129 Mist 17 1016 72 4000 2.06 280 12:22 02.01.2022
6130 Mist 16 1017 77 4000 2.57 280 11:33 02.01.2022
6131 Mist 16 1017 72 4000 3.09 270 10:49 02.01.2022
6132 Mist 16 1017 72 3000 3.09 280 09:45 02.01.2022
6133 Mist 12 1017 94 1500 2.06 220 07:26 02.01.2022
6134 Mist 12 1015 94 1000 1.03 270 02:19 02.01.2022
6135 Mist 13 1015 94 1500 0 0 23:40 01.01.2022
6136 Mist 13 1015 94 2000 0 0 22:58 01.01.2022
6137 Mist 13 1015 94 2000 0 0 22:23 01.01.2022
6138 Mist 13 1016 88 2000 2.06 350 21:44 01.01.2022
6139 Mist 14 1015 88 1000 2.57 290 20:56 01.01.2022
6140 Mist 14 1015 82 2000 3.6 350 19:59 01.01.2022
6141 Mist 15 1015 82 2000 3.09 360 19:30 01.01.2022
6142 Clouds 16 1014 72 6000 4.12 330 18:20 01.01.2022
6143 Clouds 16 1013 67 6000 2.57 340 16:51 01.01.2022
6144 Clouds 17 1013 63 6000 2.57 330 16:29 01.01.2022
6145 Clouds 17 1013 63 10000 2.57 340 15:30 01.01.2022
6146 Clouds 17 1013 63 10000 3.09 340 14:21 01.01.2022
6147 Clouds 17 1012 59 10000 0 0 12:50 01.01.2022
6148 Clouds 17 1013 59 10000 0 0 11:59 01.01.2022
6149 Clouds 17 1014 59 10000 0 0 11:24 01.01.2022
6150 Clouds 16 1014 63 10000 0 0 10:42 01.01.2022
6151 Clouds 16 1014 67 10000 0 0 09:47 01.01.2022
6152 Clouds 15 1014 72 6000 0 0 08:26 01.01.2022
6153 Clouds 12 1014 82 6000 2.06 130 07:56 01.01.2022
6154 Clouds 12 1014 82 6000 2.06 130 07:37 01.01.2022
6155 Clouds 11 1013 87 6000 1.54 120 06:42 01.01.2022
6156 Clouds 11 1013 82 6000 0 0 04:38 01.01.2022
6157 Clouds 11 1013 87 6000 1.54 80 03:38 01.01.2022
6158 Clouds 13 1013 82 10000 2.06 180 23:52 31.12.2021
6159 Clouds 14 1013 82 6000 5.14 180 21:55 31.12.2021
6160 Clouds 14 1013 82 10000 4.12 190 20:49 31.12.2021
6161 Clouds 14 1012 82 10000 4.12 200 19:31 31.12.2021
6162 Clouds 14 1012 82 10000 3.6 200 18:46 31.12.2021
6163 Clouds 14 1012 82 10000 5.14 170 17:45 31.12.2021
6164 Clouds 15 1012 72 10000 5.14 190 17:22 31.12.2021
6165 Clouds 15 1011 72 10000 6.17 180 16:46 31.12.2021
6166 Clouds 15 1010 82 10000 5.14 170 15:59 31.12.2021
6167 Clouds 15 1010 82 10000 5.14 170 15:40 31.12.2021
6168 Clouds 15 1011 82 10000 5.14 170 15:19 31.12.2021
6169 Clouds 16 1010 77 10000 3.09 200 14:37 31.12.2021
6170 Clouds 15 1010 77 6000 4.63 200 13:44 31.12.2021
6171 Clouds 15 1010 82 6000 5.14 170 12:50 31.12.2021
6172 Clouds 15 1010 88 6000 4.63 180 12:19 31.12.2021
6173 Clouds 16 1011 77 10000 5.66 180 11:41 31.12.2021
6174 Clouds 17 1011 59 10000 6.69 200 10:48 31.12.2021
6175 Clouds 18 1011 52 10000 7.2 190 10:25 31.12.2021
6176 Clouds 18 1011 48 10000 7.2 180 09:34 31.12.2021
6177 Clouds 18 1011 48 10000 6.69 180 08:50 31.12.2021
6178 Clouds 17 1010 59 10000 5.14 170 07:49 31.12.2021
6179 Clouds 17 1010 59 10000 5.66 170 02:36 31.12.2021
6180 Clouds 17 1011 63 10000 5.66 190 23:18 30.12.2021
6181 Clouds 17 1011 63 10000 5.14 210 22:27 30.12.2021
6182 Clouds 18 1011 55 10000 5.14 190 21:39 30.12.2021
6183 Clouds 18 1011 55 10000 4.63 190 20:59 30.12.2021
6184 Clouds 18 1011 55 10000 4.63 180 20:38 30.12.2021
6185 Clouds 18 1011 55 10000 4.12 190 19:53 30.12.2021
6186 Clouds 18 1011 55 10000 5.14 180 19:28 30.12.2021
6187 Clouds 18 1011 52 10000 5.66 180 18:26 30.12.2021
6188 Clouds 17 1011 51 10000 4.63 190 16:50 30.12.2021
6189 Clouds 17 1011 51 10000 4.63 190 15:53 30.12.2021
6190 Clouds 17 1011 51 10000 5.66 190 14:54 30.12.2021
6191 Clouds 17 1011 51 10000 4.63 200 14:35 30.12.2021
6192 Clouds 16 1011 59 10000 7.2 200 13:25 30.12.2021
6193 Clouds 17 1011 51 10000 5.66 200 11:53 30.12.2021
6194 Clouds 17 1013 39 10000 6.69 190 10:35 30.12.2021
6195 Clouds 17 1013 39 10000 7.72 200 09:46 30.12.2021
6196 Clouds 15 1013 41 6000 5.66 190 06:58 30.12.2021
6197 Clouds 16 1012 39 10000 5.14 190 05:20 30.12.2021
6198 Clouds 16 1012 39 10000 5.14 190 05:20 30.12.2021
6199 Clouds 15 1012 38 10000 7.72 170 03:40 30.12.2021
6200 Clouds 16 1012 39 10000 5.14 190 02:28 30.12.2021
6201 Clouds 15 1014 47 10000 4.63 180 23:37 29.12.2021
6202 Clouds 16 1014 44 10000 2.57 180 22:42 29.12.2021
6203 Clouds 16 1015 44 10000 4.12 170 21:56 29.12.2021
6204 Clouds 16 1015 44 10000 4.63 180 20:58 29.12.2021
6205 Clouds 16 1016 44 10000 3.09 180 20:29 29.12.2021
6206 Clouds 16 1016 44 10000 3.6 160 19:38 29.12.2021
6207 Clouds 17 1016 42 10000 3.6 170 18:43 29.12.2021
6208 Clouds 17 1016 42 10000 5.14 220 17:51 29.12.2021
6209 Clouds 17 1016 42 10000 3.6 210 17:27 29.12.2021
6210 Clouds 18 1016 39 10000 3.09 210 16:22 29.12.2021
6211 Clouds 18 1016 39 10000 4.63 220 15:26 29.12.2021
6212 Clouds 18 1015 42 6000 3.6 210 13:42 29.12.2021
6213 Clouds 18 1016 39 6000 5.14 230 12:36 29.12.2021
6214 Haze 18 1017 42 4000 4.12 220 11:26 29.12.2021
6215 Haze 16 1018 63 2000 2.57 200 09:46 29.12.2021
6216 Mist 12 1018 82 2000 0 0 07:47 29.12.2021
6217 Mist 12 1018 82 3000 0 0 06:37 29.12.2021
6218 Mist 12 1017 82 3000 0 0 05:58 29.12.2021
6219 Mist 12 1017 82 3000 0 0 05:36 29.12.2021
6220 Haze 12 1017 76 4000 0.51 110 02:22 29.12.2021
6221 Clouds 13 1017 76 6000 0 0 00:19 29.12.2021
6222 Clouds 14 1017 72 6000 0 0 23:31 28.12.2021
6223 Clouds 14 1017 72 6000 0 0 22:42 28.12.2021
6224 Clouds 14 1018 72 6000 0 0 22:23 28.12.2021
6225 Clouds 15 1018 67 6000 1.03 310 21:36 28.12.2021
6226 Clouds 15 1018 67 6000 2.06 310 20:36 28.12.2021
6227 Clouds 16 1018 63 6000 1.54 330 19:22 28.12.2021
6228 Clouds 16 1018 63 10000 2.06 340 18:35 28.12.2021
6229 Clouds 17 1017 51 10000 2.06 340 17:59 28.12.2021
6230 Clouds 18 1017 48 10000 4.12 320 16:34 28.12.2021
6231 Clouds 18 1017 45 10000 4.63 330 15:49 28.12.2021
6232 Clouds 18 1016 52 10000 5.66 340 15:20 28.12.2021
6233 Clouds 18 1016 48 10000 5.66 310 14:47 28.12.2021
6234 Clouds 18 1016 52 10000 6.17 310 14:21 28.12.2021
6235 Clouds 18 1016 52 10000 7.2 310 13:42 28.12.2021
6236 Clouds 19 1016 52 10000 5.66 310 13:24 28.12.2021
6237 Clouds 18 1016 52 10000 6.17 340 12:49 28.12.2021
6238 Clouds 18 1017 59 6000 0 0 11:36 28.12.2021
6239 Mist 14 1019 82 2000 3.09 270 08:30 28.12.2021
6240 Mist 13 1018 88 2000 1.54 270 06:41 28.12.2021
6241 Clear 14 1019 72 10000 0 0 23:43 27.12.2021
6242 Clear 14 1019 72 10000 1.54 20 22:59 27.12.2021
6243 Clear 15 1020 67 10000 0.51 0 21:42 27.12.2021
6244 Clear 15 1020 67 10000 0.51 0 21:20 27.12.2021
6245 Clear 16 1020 63 10000 3.09 20 19:58 27.12.2021
6246 Clear 16 1020 59 10000 2.06 360 19:39 27.12.2021
6247 Clouds 17 1020 51 10000 2.06 10 18:34 27.12.2021
6248 Clouds 17 1020 51 10000 2.57 10 17:48 27.12.2021
6249 Clouds 19 1019 42 10000 4.12 360 16:40 27.12.2021
6250 Clouds 19 1019 39 10000 5.14 10 15:52 27.12.2021
6251 Clouds 19 1019 42 10000 6.17 350 14:33 27.12.2021
6252 Clouds 19 1019 45 10000 3.6 360 13:39 27.12.2021
6253 Clouds 19 1019 39 10000 5.14 30 12:36 27.12.2021
6254 Clear 17 1021 59 6000 3.09 20 10:31 27.12.2021
6255 Clear 16 1021 59 6000 2.57 10 09:47 27.12.2021
6256 Clear 12 1022 82 6000 0 0 07:50 27.12.2021
6257 Clear 10 1021 93 6000 1.54 150 07:29 27.12.2021
6258 Clear 10 1021 87 6000 0 0 02:21 27.12.2021
6259 Clear 12 1021 76 10000 1.03 90 23:58 26.12.2021
6260 Clear 12 1021 76 10000 1.03 90 23:39 26.12.2021
6261 Clear 12 1022 76 10000 1.03 90 22:36 26.12.2021
6262 Clear 14 1022 67 10000 1.54 50 20:59 26.12.2021
6263 Clear 15 1022 63 10000 2.57 30 19:49 26.12.2021
6264 Clear 16 1022 55 10000 4.63 20 18:24 26.12.2021
6265 Clear 17 1021 45 10000 5.14 30 17:24 26.12.2021
6266 Clear 19 1020 39 10000 7.2 40 14:32 26.12.2021
6267 Clear 18 1020 42 10000 5.14 40 13:43 26.12.2021
6268 Clear 18 1020 42 10000 5.14 40 13:20 26.12.2021
6269 Clear 18 1021 42 10000 6.69 40 12:33 26.12.2021
6270 Clear 16 1022 51 10000 5.14 40 10:43 26.12.2021
6271 Clear 14 1023 58 6000 1.54 70 09:28 26.12.2021
6272 Clear 13 1023 62 6000 1.54 60 08:44 26.12.2021
6273 Clear 11 1023 66 6000 1.54 70 07:59 26.12.2021
6274 Clear 11 1022 66 6000 1.54 60 01:30 26.12.2021
6275 Clear 11 1022 66 6000 1.54 90 23:58 25.12.2021
6276 Clear 12 1022 62 10000 1.54 70 23:28 25.12.2021
6277 Clear 12 1023 62 10000 2.06 70 22:28 25.12.2021
6278 Clear 13 1023 58 10000 2.06 60 21:18 25.12.2021
6279 Clear 15 1023 47 6000 2.57 50 19:28 25.12.2021
6280 Clear 15 1023 44 10000 3.09 40 18:57 25.12.2021
6281 Clear 16 1023 41 10000 3.09 20 18:25 25.12.2021
6282 Clear 17 1023 39 10000 4.63 360 16:46 25.12.2021
6283 Clear 18 1022 32 10000 5.14 30 15:30 25.12.2021
6284 Clear 19 1022 32 10000 3.6 20 13:47 25.12.2021
6285 Clear 17 1023 45 6000 2.06 60 12:19 25.12.2021
6286 Haze 15 1025 63 4000 2.06 20 10:36 25.12.2021
6287 Haze 14 1025 67 4000 2.06 20 09:48 25.12.2021
6288 Mist 10 1025 87 3000 0 0 07:21 25.12.2021
6289 Clouds 11 1023 71 6000 1.54 150 01:36 25.12.2021
6290 Clouds 11 1023 71 6000 0 0 00:19 25.12.2021
6291 Clouds 13 1023 62 10000 0 0 21:51 24.12.2021
6292 Clouds 14 1023 54 10000 1.54 10 19:27 24.12.2021
6293 Clouds 15 1023 51 10000 1.03 10 18:55 24.12.2021
6294 Clouds 16 1022 48 10000 3.6 350 16:44 24.12.2021
6295 Clouds 16 1021 51 10000 3.09 340 15:50 24.12.2021
6296 Clouds 16 1021 51 10000 3.09 340 15:50 24.12.2021
6297 Clouds 17 1021 45 10000 6.17 350 15:20 24.12.2021
6298 Clouds 17 1021 48 10000 3.6 340 14:34 24.12.2021
6299 Clouds 17 1021 51 10000 4.63 350 13:54 24.12.2021
6300 Clouds 17 1021 51 10000 4.63 350 13:32 24.12.2021
6301 Clouds 17 1021 51 10000 2.57 330 12:40 24.12.2021
6302 Clouds 16 1021 55 10000 5.66 330 11:45 24.12.2021
6303 Clouds 16 1022 55 10000 5.66 320 11:24 24.12.2021
6304 Clouds 15 1022 63 10000 3.09 340 10:35 24.12.2021
6305 Clouds 14 1023 67 6000 2.06 340 08:58 24.12.2021
6306 Clouds 13 1023 71 6000 1.54 10 08:19 24.12.2021
6307 Mist 12 1022 76 3000 1.54 360 07:42 24.12.2021
6308 Mist 13 1021 88 3000 0 0 00:47 24.12.2021
6309 Mist 13 1021 88 3000 0 0 23:50 23.12.2021
6310 Mist 13 1021 88 3000 1.03 360 22:53 23.12.2021
6311 Clouds 13 1021 82 6000 1.54 350 22:24 23.12.2021
6312 Clouds 14 1021 77 6000 1.54 340 21:50 23.12.2021
6313 Clouds 14 1021 77 6000 1.54 350 20:53 23.12.2021
6314 Clouds 14 1020 82 6000 2.06 360 19:31 23.12.2021
6315 Clouds 15 1020 72 6000 2.57 340 18:28 23.12.2021
6316 Clouds 15 1020 72 10000 6.17 310 17:46 23.12.2021
6317 Clouds 16 1019 63 10000 3.09 320 16:40 23.12.2021
6318 Clouds 16 1019 63 10000 3.09 320 16:20 23.12.2021
6319 Clouds 17 1019 59 10000 3.09 300 15:31 23.12.2021
6320 Clouds 16 1019 63 10000 4.12 320 14:42 23.12.2021
6321 Clouds 16 1019 63 10000 4.12 320 14:19 23.12.2021
6322 Clouds 17 1019 59 6000 3.6 280 12:39 23.12.2021
6323 Mist 16 1021 67 2000 2.57 300 10:41 23.12.2021
6324 Clouds 15 1021 72 6000 0 0 09:34 23.12.2021
6325 Clouds 15 1021 72 6000 0 0 09:34 23.12.2021
6326 Clouds 14 1021 77 6000 0 0 08:59 23.12.2021
6327 Mist 11 1021 87 4000 0 0 06:48 23.12.2021
6328 Mist 11 1021 93 4000 0 0 03:41 23.12.2021
6329 Clouds 14 1022 82 10000 1.03 50 22:57 22.12.2021
6330 Clouds 14 1022 82 10000 1.03 50 22:32 22.12.2021
6331 Clouds 14 1022 82 10000 1.54 80 21:53 22.12.2021
6332 Clouds 14 1022 82 10000 1.03 80 21:28 22.12.2021
6333 Clouds 15 1022 77 10000 1.03 80 20:41 22.12.2021
6334 Clouds 15 1022 77 10000 1.54 60 20:20 22.12.2021
6335 Clouds 15 1022 77 10000 2.06 50 19:19 22.12.2021
6336 Clouds 17 1022 63 10000 2.06 340 17:39 22.12.2021
6337 Clouds 17 1021 63 10000 2.57 340 16:36 22.12.2021
6338 Clouds 18 1021 52 10000 0 0 15:39 22.12.2021
6339 Clouds 18 1021 52 10000 3.6 220 13:32 22.12.2021
6340 Clouds 17 1022 55 10000 4.12 240 12:31 22.12.2021
6341 Haze 15 1024 63 4000 4.12 220 09:53 22.12.2021
6342 Haze 15 1024 63 4000 4.12 220 09:33 22.12.2021
6343 Haze 12 1023 71 2000 2.57 190 07:25 22.12.2021
6344 Haze 12 1023 71 4000 3.09 200 05:42 22.12.2021
6345 Haze 12 1023 71 4000 3.09 200 05:24 22.12.2021
6346 Haze 12 1023 66 4000 3.09 200 04:47 22.12.2021
6347 Haze 12 1023 66 4000 3.09 200 04:24 22.12.2021
6348 Haze 12 1024 66 4000 3.09 210 03:32 22.12.2021
6349 Haze 13 1024 67 4000 3.09 180 00:33 22.12.2021
6350 Haze 14 1024 62 4000 3.09 180 22:52 21.12.2021
6351 Haze 14 1024 62 4000 4.12 180 22:27 21.12.2021
6352 Haze 14 1024 67 4000 2.06 210 21:43 21.12.2021
6353 Haze 14 1024 67 4000 3.09 210 20:55 21.12.2021
6354 Haze 14 1024 67 4000 2.57 220 20:21 21.12.2021
6355 Haze 15 1024 63 4000 3.09 210 19:41 21.12.2021
6356 Clouds 15 1024 63 10000 3.6 200 18:45 21.12.2021
6357 Clouds 15 1024 63 10000 2.57 190 18:21 21.12.2021
6358 Clouds 15 1024 63 10000 2.57 190 18:21 21.12.2021
6359 Clouds 16 1024 59 10000 3.09 210 17:41 21.12.2021
6360 Clouds 17 1023 51 6000 4.12 190 15:59 21.12.2021
6361 Clouds 17 1023 51 6000 5.66 180 15:20 21.12.2021
6362 Clouds 16 1022 55 6000 5.66 220 13:50 21.12.2021
6363 Clouds 16 1022 51 6000 5.66 210 13:30 21.12.2021
6364 Clouds 15 1023 55 6000 5.66 200 11:49 21.12.2021
6365 Clouds 13 1024 58 6000 6.69 210 10:24 21.12.2021
6366 Clouds 13 1024 54 6000 6.17 210 09:23 21.12.2021
6367 Clouds 11 1024 58 6000 5.14 200 07:58 21.12.2021
6368 Clouds 10 1024 62 6000 5.14 190 07:27 21.12.2021
6369 Clouds 10 1023 62 6000 4.63 200 06:50 21.12.2021
6370 Clouds 10 1022 62 6000 6.17 180 02:51 21.12.2021
6371 Clear 11 1022 62 10000 4.63 210 23:59 20.12.2021
6372 Clear 11 1022 62 10000 4.63 210 23:29 20.12.2021
6373 Clear 12 1022 54 10000 5.66 210 22:30 20.12.2021
6374 Clear 12 1022 54 10000 5.14 220 21:47 20.12.2021
6375 Clear 12 1022 54 10000 5.14 220 21:23 20.12.2021
6376 Clear 12 1022 54 10000 5.66 230 20:45 20.12.2021
6377 Clouds 13 1021 54 10000 7.2 240 19:54 20.12.2021
6378 Clouds 13 1021 54 10000 7.2 240 19:31 20.12.2021
6379 Clouds 13 1021 58 10000 5.66 240 18:54 20.12.2021
6380 Clouds 13 1020 54 10000 6.17 260 17:53 20.12.2021
6381 Clouds 13 1020 54 10000 6.17 260 17:25 20.12.2021
6382 Clouds 14 1018 51 10000 8.75 260 16:42 20.12.2021
6383 Clouds 15 1018 47 10000 8.75 260 15:51 20.12.2021
6384 Clouds 15 1018 51 10000 8.23 240 14:53 20.12.2021
6385 Clouds 14 1017 58 10000 8.75 220 13:18 20.12.2021
6386 Clouds 13 1018 62 10000 9.26 210 11:19 20.12.2021
6387 Clouds 11 1017 71 10000 8.23 210 09:48 20.12.2021
6388 Clouds 11 1017 71 10000 8.23 210 09:29 20.12.2021
6389 Clouds 11 1017 71 10000 9.77 210 08:42 20.12.2021
6390 Clouds 11 1016 71 10000 7.2 200 07:50 20.12.2021
6391 Clouds 11 1016 71 10000 7.2 200 07:50 20.12.2021
6392 Clear 10 1018 76 10000 8.82 238 07:30 20.12.2021
6393 Clouds 10 1014 76 10000 8.23 240 04:24 20.12.2021
6394 Clouds 14 1013 67 10000 8.23 280 23:59 19.12.2021
6395 Clouds 16 1013 41 10000 8.75 210 22:51 19.12.2021
6396 Clouds 17 1013 36 10000 5.66 200 21:50 19.12.2021
6397 Clouds 17 1013 36 10000 6.17 200 21:30 19.12.2021
6398 Clouds 17 1013 39 10000 5.14 200 20:32 19.12.2021
6399 Clouds 17 1014 42 6000 4.63 190 19:51 19.12.2021
6400 Clouds 17 1014 42 6000 6.17 190 19:27 19.12.2021
6401 Clouds 17 1014 45 6000 6.17 190 18:30 19.12.2021
6402 Clouds 17 1013 48 6000 6.17 180 17:53 19.12.2021
6403 Clouds 17 1013 48 6000 6.17 180 17:19 19.12.2021
6404 Clouds 17 1013 45 6000 6.69 210 16:26 19.12.2021
6405 Clouds 18 1014 42 6000 7.72 220 15:43 19.12.2021
6406 Clouds 18 1014 42 6000 7.72 220 15:20 19.12.2021
6407 Clouds 18 1014 42 6000 7.2 210 14:42 19.12.2021
6408 Clouds 18 1014 45 6000 8.23 210 13:22 19.12.2021
6409 Clouds 18 1014 45 6000 8.23 220 12:42 19.12.2021
6410 Clouds 17 1015 48 6000 7.72 210 12:18 19.12.2021
6411 Clouds 17 1016 48 6000 6.69 200 11:19 19.12.2021
6412 Clouds 15 1016 51 6000 6.69 200 10:26 19.12.2021
6413 Clouds 15 1016 51 6000 6.69 200 09:42 19.12.2021
6414 Clouds 13 1017 54 6000 6.69 180 08:35 19.12.2021
6415 Clouds 12 1015 58 10000 5.14 200 04:45 19.12.2021
6416 Clouds 14 1016 51 10000 5.14 210 01:22 19.12.2021
6417 Clouds 14 1016 51 10000 4.63 210 00:52 19.12.2021
6418 Clouds 15 1017 44 10000 4.12 210 22:37 18.12.2021
6419 Clouds 15 1017 47 10000 4.63 220 21:57 18.12.2021
6420 Clouds 15 1017 47 10000 4.63 220 21:35 18.12.2021
6421 Clouds 16 1016 44 10000 5.66 230 20:44 18.12.2021
6422 Clouds 16 1016 44 10000 5.66 230 20:18 18.12.2021
6423 Clouds 16 1016 41 10000 6.17 240 19:20 18.12.2021
6424 Clouds 17 1016 39 10000 6.69 250 18:21 18.12.2021
6425 Clouds 17 1016 39 10000 5.66 240 17:48 18.12.2021
6426 Clouds 18 1015 34 10000 7.2 250 16:26 18.12.2021
6427 Clouds 18 1015 34 10000 7.2 250 16:26 18.12.2021
6428 Clouds 18 1015 34 6000 8.75 240 15:27 18.12.2021
6429 Clouds 19 1015 32 6000 8.75 230 14:48 18.12.2021
6430 Clouds 18 1016 36 6000 8.23 240 13:21 18.12.2021
6431 Clear 17 1017 45 6000 5.66 210 11:22 18.12.2021
6432 Clear 15 1018 51 6000 4.63 200 09:40 18.12.2021
6433 Haze 13 1018 67 4000 4.12 200 08:47 18.12.2021
6434 Haze 13 1018 67 4000 4.12 200 08:23 18.12.2021
6435 Clear 12 1017 71 10000 3.09 200 03:42 18.12.2021
6436 Clouds 14 1018 72 10000 1.54 200 00:29 18.12.2021
6437 Clouds 13 1018 71 10000 2.06 230 23:44 17.12.2021
6438 Clouds 14 1019 72 10000 3.6 260 21:58 17.12.2021
6439 Clouds 15 1019 67 10000 3.6 290 21:19 17.12.2021
6440 Clouds 15 1019 63 10000 4.12 290 20:40 17.12.2021
6441 Clouds 16 1018 59 10000 3.09 280 19:24 17.12.2021
6442 Clouds 16 1018 55 10000 2.57 290 18:38 17.12.2021
6443 Clouds 16 1018 59 10000 2.57 300 17:33 17.12.2021
6444 Clouds 16 1018 59 10000 2.06 290 16:49 17.12.2021
6445 Clouds 16 1018 55 10000 3.6 290 16:22 17.12.2021
6446 Clouds 17 1018 55 10000 5.66 300 15:25 17.12.2021
6447 Clouds 17 1017 55 10000 4.63 310 14:40 17.12.2021
6448 Clouds 17 1017 51 10000 5.66 290 13:21 17.12.2021
6449 Clouds 18 1018 48 10000 2.06 290 11:50 17.12.2021
6450 Clouds 18 1019 52 10000 2.57 300 10:37 17.12.2021
6451 Clouds 16 1020 59 10000 3.09 300 09:34 17.12.2021
6452 Clouds 15 1020 67 6000 3.09 290 08:30 17.12.2021
6453 Clouds 14 1019 77 6000 2.06 220 06:47 17.12.2021
6454 Clouds 14 1019 77 6000 1.54 290 02:54 17.12.2021
6455 Clouds 15 1019 72 6000 2.06 310 23:47 16.12.2021
6456 Clouds 15 1019 77 6000 0 0 22:24 16.12.2021
6457 Clouds 15 1019 77 6000 0 0 22:24 16.12.2021
6458 Clouds 15 1019 72 6000 1.03 280 21:51 16.12.2021
6459 Clouds 15 1019 72 6000 2.06 290 21:30 16.12.2021
6460 Clouds 16 1019 67 6000 2.06 310 20:31 16.12.2021
6461 Clouds 16 1019 67 10000 2.06 310 19:49 16.12.2021
6462 Clouds 16 1019 63 10000 3.09 320 18:40 16.12.2021
6463 Clouds 17 1019 59 10000 4.12 310 17:57 16.12.2021
6464 Clouds 18 1018 45 10000 2.06 280 17:31 16.12.2021
6465 Clouds 19 1017 39 10000 3.09 290 16:22 16.12.2021
6466 Clouds 19 1017 39 10000 4.12 290 14:51 16.12.2021
6467 Clouds 18 1017 45 6000 4.12 230 13:29 16.12.2021
6468 Clouds 17 1018 48 6000 3.6 230 11:20 16.12.2021
6469 Clouds 17 1018 51 6000 4.12 230 10:59 16.12.2021
6470 Clouds 16 1019 51 6000 3.6 230 10:22 16.12.2021
6471 Clouds 14 1019 54 6000 2.06 210 08:25 16.12.2021
6472 Clouds 13 1019 54 10000 2.06 210 06:22 16.12.2021
6473 Clear 14 1018 54 10000 0.51 0 01:25 16.12.2021
6474 Clear 15 1018 47 10000 2.57 240 23:35 15.12.2021
6475 Clear 15 1018 47 10000 3.6 240 22:44 15.12.2021
6476 Clear 16 1018 44 10000 3.09 240 21:56 15.12.2021
6477 Clear 16 1018 44 10000 3.6 250 21:27 15.12.2021
6478 Clear 16 1018 44 10000 3.6 250 21:27 15.12.2021
6479 Clear 17 1018 42 10000 3.09 260 20:19 15.12.2021
6480 Clear 17 1018 42 10000 3.09 270 19:51 15.12.2021
6481 Clear 17 1017 39 10000 3.09 270 18:38 15.12.2021
6482 Clear 18 1017 36 10000 3.6 270 17:55 15.12.2021
6483 Clear 18 1017 36 10000 3.6 270 17:36 15.12.2021
6484 Clouds 18 1016 34 10000 6.17 270 16:34 15.12.2021
6485 Clouds 19 1016 32 10000 6.69 260 15:47 15.12.2021
6486 Clouds 19 1016 34 10000 7.2 230 15:28 15.12.2021
6487 Clouds 19 1016 34 10000 7.2 230 14:42 15.12.2021
6488 Clear 18 1016 36 6000 7.72 250 12:46 15.12.2021
6489 Haze 17 1017 45 3000 4.63 220 10:44 15.12.2021
6490 Haze 16 1017 48 3000 5.14 200 09:28 15.12.2021
6491 Haze 14 1017 54 3000 4.12 230 07:44 15.12.2021
6492 Clouds 14 1015 62 6000 1.54 170 01:39 15.12.2021
6493 Clouds 16 1015 59 10000 1.03 210 23:42 14.12.2021
6494 Clouds 16 1015 59 10000 1.03 200 22:49 14.12.2021
6495 Clouds 16 1015 59 10000 1.03 200 22:49 14.12.2021
6496 Clear 16 1016 59 10000 2.38 264 22:30 14.12.2021
6497 Clouds 16 1015 59 10000 3.09 290 20:57 14.12.2021
6498 Clouds 17 1015 55 6000 3.6 290 19:44 14.12.2021
6499 Clouds 17 1015 55 6000 3.6 290 19:44 14.12.2021
6500 Clouds 18 1015 55 6000 2.06 300 19:20 14.12.2021
6501 Clouds 18 1014 48 6000 3.6 290 18:34 14.12.2021
6502 Clouds 19 1013 45 6000 4.12 290 17:34 14.12.2021
6503 Clouds 20 1013 45 6000 3.6 290 16:43 14.12.2021
6504 Clouds 20 1013 45 10000 3.09 300 15:41 14.12.2021
6505 Clouds 20 1012 52 10000 5.14 290 13:33 14.12.2021
6506 Clouds 20 1012 56 6000 5.14 300 12:27 14.12.2021
6507 Clouds 19 1013 63 6000 5.14 280 11:24 14.12.2021
6508 Haze 18 1014 68 5000 4.63 290 10:27 14.12.2021
6509 Haze 18 1014 68 4000 4.12 300 09:53 14.12.2021
6510 Haze 18 1014 68 4000 0 0 08:29 14.12.2021
6511 Haze 17 1014 72 2000 1.54 320 07:59 14.12.2021
6512 Haze 17 1014 72 2000 1.03 0 05:52 14.12.2021
6513 Haze 18 1015 82 3000 1.54 360 23:39 13.12.2021
6514 Mist 18 1015 77 4000 3.09 20 21:57 13.12.2021
6515 Mist 18 1015 82 4000 2.57 20 21:34 13.12.2021
6516 Mist 18 1015 82 4000 2.57 20 21:34 13.12.2021
6517 Haze 18 1016 82 4000 3.09 10 20:50 13.12.2021
6518 Haze 19 1016 77 4000 2.57 10 19:59 13.12.2021
6519 Haze 19 1016 77 4000 3.09 340 19:20 13.12.2021
6520 Haze 20 1015 68 4000 2.57 360 17:27 13.12.2021
6521 Clouds 21 1015 68 10000 3.41 331 16:23 13.12.2021
6522 Mist 21 1015 60 4000 3.6 10 15:43 13.12.2021
6523 Mist 21 1015 68 4000 2.06 20 13:52 13.12.2021
6524 Mist 21 1015 68 4000 3.09 330 13:18 13.12.2021
6525 Mist 21 1015 68 4000 2.57 10 12:36 13.12.2021
6526 Mist 21 1016 73 4000 2.57 330 11:40 13.12.2021
6527 Mist 21 1016 73 4000 2.57 330 11:19 13.12.2021
6528 Mist 19 1018 82 4000 1.54 360 10:21 13.12.2021
6529 Mist 18 1018 88 2000 1.54 40 08:31 13.12.2021
6530 Fog 16 1017 100 800 0 0 05:37 13.12.2021
6531 Fog 16 1016 100 800 0 0 03:32 13.12.2021
6532 Mist 18 1017 88 3000 1.03 340 23:39 12.12.2021
6533 Mist 18 1017 88 3000 1.54 100 21:52 12.12.2021
6534 Mist 19 1018 82 3000 0 0 20:46 12.12.2021
6535 Mist 19 1017 82 3000 0 0 19:33 12.12.2021
6536 Mist 20 1017 77 3000 1.54 20 17:46 12.12.2021
6537 Mist 20 1017 73 3000 1.54 30 16:28 12.12.2021
6538 Mist 20 1017 73 3000 2.06 350 15:51 12.12.2021
6539 Mist 20 1017 73 3000 3.09 360 15:28 12.12.2021
6540 Mist 20 1017 73 3000 2.06 350 14:37 12.12.2021
6541 Mist 20 1017 73 3000 3.09 340 13:43 12.12.2021
6542 Haze 19 1017 82 3000 2.06 10 12:37 12.12.2021
6543 Mist 19 1017 77 3000 3.09 340 11:45 12.12.2021
6544 Haze 19 1017 77 3000 3.09 320 11:25 12.12.2021
6545 Haze 19 1018 68 3000 2.06 330 10:43 12.12.2021
6546 Mist 18 1018 72 3000 2.57 350 09:45 12.12.2021
6547 Mist 14 1019 88 1000 0 0 08:38 12.12.2021
6548 Haze 14 1018 77 4000 1.03 0 06:38 12.12.2021
6549 Haze 14 1017 72 4000 0 0 05:28 12.12.2021
6550 Haze 15 1017 67 4000 0 0 03:58 12.12.2021
6551 Haze 16 1017 67 4000 1.54 60 00:42 12.12.2021
6552 Haze 17 1018 67 4000 0 0 22:42 11.12.2021
6553 Haze 17 1018 67 4000 0 0 22:20 11.12.2021
6554 Haze 18 1018 63 4000 1.54 80 21:24 11.12.2021
6555 Haze 19 1018 59 4000 1.54 90 19:46 11.12.2021
6556 Haze 19 1018 59 4000 0 0 19:21 11.12.2021
6557 Haze 20 1018 56 4000 1.54 30 18:39 11.12.2021
6558 Haze 20 1018 56 2000 1.54 40 17:41 11.12.2021
6559 Haze 22 1016 46 2000 2.57 330 15:57 11.12.2021
6560 Haze 22 1016 46 2000 2.57 340 15:39 11.12.2021
6561 Haze 23 1016 43 2000 2.57 310 14:33 11.12.2021
6562 Haze 22 1016 53 2000 1.54 330 12:20 11.12.2021
6563 Haze 20 1018 56 2000 2.06 330 10:43 11.12.2021
6564 Haze 19 1018 59 2000 0 0 09:38 11.12.2021
6565 Clear 13 1016 71 6000 0 0 03:57 11.12.2021
6566 Clear 15 1017 67 10000 0 0 00:47 11.12.2021
6567 Clear 14 1017 67 10000 0 0 23:42 10.12.2021
6568 Clear 16 1017 59 10000 1.45 47 22:33 10.12.2021
6569 Clear 17 1017 59 10000 1.03 90 21:40 10.12.2021
6570 Clear 18 1017 55 10000 1.54 50 20:26 10.12.2021
6571 Clear 18 1018 55 10000 1.54 60 19:18 10.12.2021
6572 Clear 21 1017 35 10000 2.06 50 17:46 10.12.2021
6573 Clear 23 1017 27 10000 2.06 40 16:35 10.12.2021
6574 Clear 23 1017 27 10000 4.63 40 15:43 10.12.2021
6575 Clear 24 1016 27 10000 4.12 40 15:25 10.12.2021
6576 Clear 24 1017 27 10000 3.6 50 14:29 10.12.2021
6577 Clear 24 1017 27 10000 4.63 30 13:48 10.12.2021
6578 Clear 23 1017 31 10000 3.09 80 12:55 10.12.2021
6579 Clear 23 1017 31 10000 3.09 80 12:55 10.12.2021
6580 Clear 22 1018 35 10000 4.63 50 11:41 10.12.2021
6581 Clear 21 1018 37 10000 5.66 70 10:57 10.12.2021
6582 Clear 19 1020 48 10000 5.14 60 09:46 10.12.2021
6583 Clear 16 1020 63 10000 3.09 60 07:28 10.12.2021
6584 Clear 14 1020 72 10000 3.09 60 04:57 10.12.2021
6585 Clear 15 1021 72 10000 2.06 50 02:42 10.12.2021
6586 Clear 15 1022 67 10000 2.06 70 23:42 09.12.2021
6587 Clear 16 1022 67 10000 1.03 80 22:43 09.12.2021
6588 Clear 16 1022 67 10000 1.03 80 22:22 09.12.2021
6589 Clouds 16 1023 67 6000 1.54 70 21:40 09.12.2021
6590 Clouds 17 1023 63 6000 1.54 80 20:36 09.12.2021
6591 Clouds 17 1023 63 6000 1.03 80 19:45 09.12.2021
6592 Clouds 18 1023 59 6000 1.03 70 19:20 09.12.2021
6593 Clouds 19 1023 55 6000 1.03 30 18:22 09.12.2021
6594 Clouds 19 1023 55 6000 1.03 30 17:48 09.12.2021
6595 Clouds 19 1023 52 6000 1.54 40 17:24 09.12.2021
6596 Clear 20 1022 49 10000 0.55 81 16:41 09.12.2021
6597 Clouds 20 1022 49 6000 2.06 360 15:19 09.12.2021
6598 Clouds 20 1022 49 6000 1.54 290 14:36 09.12.2021
6599 Clear 20 1023 49 6000 1.54 310 12:49 09.12.2021
6600 Clear 20 1023 49 6000 1.54 310 12:24 09.12.2021
6601 Haze 18 1024 48 4000 3.6 270 10:40 09.12.2021
6602 Clear 14 1024 58 6000 2.06 210 07:53 09.12.2021
6603 Clear 14 1022 58 6000 3.6 170 03:58 09.12.2021
6604 Clear 15 1022 55 6000 3.09 210 01:43 09.12.2021
6605 Clear 16 1022 48 6000 4.63 240 23:38 08.12.2021
6606 Clear 16 1022 48 6000 4.63 240 22:59 08.12.2021
6607 Clear 16 1022 48 6000 4.63 240 22:37 08.12.2021
6608 Clear 16 1022 48 6000 4.12 240 21:39 08.12.2021
6609 Sand 17 1022 45 4000 5.66 250 20:58 08.12.2021
6610 Sand 17 1021 45 4000 5.14 240 19:57 08.12.2021
6611 Sand 18 1021 42 4000 7.2 250 19:29 08.12.2021
6612 Sand 18 1020 42 4000 6.69 250 18:28 08.12.2021
6613 Sand 18 1020 42 4000 7.72 250 17:24 08.12.2021
6614 Clouds 18 1018 42 1000 12.35 250 15:45 08.12.2021
6615 Clouds 18 1018 42 1000 12.35 250 15:23 08.12.2021
6616 Clouds 19 1016 39 1000 11.83 240 13:27 08.12.2021
6617 Clear 18 1017 36 6000 8.23 220 10:45 08.12.2021
6618 Clear 16 1017 41 6000 7.72 210 10:23 08.12.2021
6619 Sand 14 1018 44 4000 8.75 220 08:54 08.12.2021
6620 Sand 12 1017 43 4000 6.69 210 06:52 08.12.2021
6621 Clear 14 1016 35 10000 5.66 210 01:21 08.12.2021
6622 Clear 16 1016 31 10000 7.72 230 23:29 07.12.2021
6623 Clear 17 1016 27 10000 9.77 250 21:26 07.12.2021
6624 Clear 18 1015 32 10000 8.23 250 20:26 07.12.2021
6625 Clear 18 1014 48 10000 7.2 230 19:48 07.12.2021
6626 Clouds 18 1014 48 6000 6.17 220 18:37 07.12.2021
6627 Clouds 19 1013 45 6000 7.2 210 17:27 07.12.2021
6628 Clouds 19 1013 45 6000 7.2 210 16:57 07.12.2021
6629 Clouds 19 1012 45 6000 8.23 200 16:27 07.12.2021
6630 Sand 19 1012 45 4000 6.69 200 14:47 07.12.2021
6631 Sand 19 1012 48 4000 8.75 210 13:46 07.12.2021
6632 Sand 19 1012 48 4000 6.69 200 12:41 07.12.2021
6633 Haze 19 1013 48 3000 4.63 210 11:23 07.12.2021
6634 Haze 19 1014 52 2000 4.12 190 09:43 07.12.2021
6635 Haze 18 1015 59 2000 1.54 210 07:54 07.12.2021
6636 Clouds 17 1014 63 6000 1.03 0 05:55 07.12.2021
6637 Clouds 17 1014 63 6000 1.03 0 05:27 07.12.2021
6638 Haze 16 1015 72 4000 0 0 23:41 06.12.2021
6639 Haze 17 1015 67 4000 1.54 60 22:44 06.12.2021
6640 Haze 17 1016 67 4000 1.54 50 22:18 06.12.2021
6641 Haze 18 1016 63 4000 1.54 40 21:37 06.12.2021
6642 Haze 18 1016 63 4000 0.51 0 20:33 06.12.2021
6643 Haze 19 1017 59 4000 1.54 70 19:27 06.12.2021
6644 Haze 19 1018 59 4000 0.51 0 18:57 06.12.2021
6645 Haze 19 1017 59 4000 2.57 20 17:55 06.12.2021
6646 Haze 19 1017 59 4000 2.57 20 17:36 06.12.2021
6647 Haze 20 1017 56 2000 3.09 350 16:21 06.12.2021
6648 Haze 21 1017 49 2000 1.54 330 14:54 06.12.2021
6649 Haze 21 1017 52 4000 1.54 310 13:45 06.12.2021
6650 Clouds 21 1018 52 6000 1.54 310 12:39 06.12.2021
6651 Clouds 20 1020 56 10000 0 0 10:31 06.12.2021
6652 Dust 19 1020 48 2000 0 0 08:35 06.12.2021
6653 Dust 15 1018 63 2000 0 0 04:28 06.12.2021
6654 Clouds 18 1018 55 6000 2.57 170 22:30 05.12.2021
6655 Clouds 18 1018 55 6000 2.57 190 21:26 05.12.2021
6656 Clouds 18 1019 55 6000 1.54 220 20:59 05.12.2021
6657 Clouds 19 1018 52 6000 0 0 20:19 05.12.2021
6658 Clouds 19 1018 52 6000 1.03 230 19:33 05.12.2021
6659 Clouds 19 1018 52 6000 0 0 18:41 05.12.2021
6660 Clear 19 1018 52 6000 1.03 270 18:19 05.12.2021
6661 Clear 19 1017 48 6000 2.06 240 17:47 05.12.2021
6662 Clear 20 1016 45 6000 3.09 250 16:45 05.12.2021
6663 Clear 20 1016 45 6000 3.09 250 16:24 05.12.2021
6664 Sand 20 1015 45 3000 6.17 240 14:49 05.12.2021
6665 Sand 20 1015 45 3000 5.66 260 14:30 05.12.2021
6666 Sand 20 1015 45 3000 6.17 250 13:50 05.12.2021
6667 Sand 20 1015 45 3000 6.69 260 13:22 05.12.2021
6668 Sand 20 1015 42 3000 8.75 240 12:31 05.12.2021
6669 Sand 20</